<?xml version="1.0" encoding="UTF-8" standalone="no" ?>
<gpx xmlns="http://www.topografix.com/GPX/1/1" xmlns:xsi="http://www.w3.org/2001/XMLSchema-instance" xsi:schemaLocation="http://www.topografix.com/GPX/1/1 http://www.topografix.com/GPX/1/1/gpx.xsd" version="1.1" creator="VisuGPX - https://www.visugpx.com">
  <metadata>
    <name>SO-NE-St Léger St Pazanne Machecoul St Meme Le Tenu Bouaye</name>
    <desc><![CDATA[SO-NE-St Léger St Pazanne Machecoul St Meme Le Tenu Bouaye]]></desc>
  </metadata>
  <trk>
    <name><![CDATA[2022-07-31 08:19 GMT+2]]></name>
    <trkseg>
      <trkpt lat="47.16754" lon="-1.62648">
        <ele>47</ele>
        <time>2022-07-31T06:19:51Z</time>
      </trkpt>
      <trkpt lat="47.16763" lon="-1.62651">
        <ele>56</ele>
        <time>2022-07-31T06:20:02Z</time>
      </trkpt>
      <trkpt lat="47.16773" lon="-1.62648">
        <ele>64</ele>
        <time>2022-07-31T06:21:49Z</time>
      </trkpt>
      <trkpt lat="47.16782" lon="-1.62657">
        <ele>74</ele>
        <time>2022-07-31T06:22:28Z</time>
      </trkpt>
      <trkpt lat="47.1678" lon="-1.6267">
        <ele>75</ele>
        <time>2022-07-31T06:22:32Z</time>
      </trkpt>
      <trkpt lat="47.16771" lon="-1.62679">
        <ele>76</ele>
        <time>2022-07-31T06:22:35Z</time>
      </trkpt>
      <trkpt lat="47.1676" lon="-1.62674">
        <ele>75</ele>
        <time>2022-07-31T06:22:37Z</time>
      </trkpt>
      <trkpt lat="47.16748" lon="-1.62675">
        <ele>74</ele>
        <time>2022-07-31T06:22:39Z</time>
      </trkpt>
      <trkpt lat="47.16737" lon="-1.62682">
        <ele>73</ele>
        <time>2022-07-31T06:22:41Z</time>
      </trkpt>
      <trkpt lat="47.16726" lon="-1.62689">
        <ele>72</ele>
        <time>2022-07-31T06:22:43Z</time>
      </trkpt>
      <trkpt lat="47.16718" lon="-1.62699">
        <ele>72</ele>
        <time>2022-07-31T06:22:45Z</time>
      </trkpt>
      <trkpt lat="47.16721" lon="-1.62714">
        <ele>72</ele>
        <time>2022-07-31T06:22:47Z</time>
      </trkpt>
      <trkpt lat="47.16729" lon="-1.62728">
        <ele>72</ele>
        <time>2022-07-31T06:22:49Z</time>
      </trkpt>
      <trkpt lat="47.16736" lon="-1.62741">
        <ele>72</ele>
        <time>2022-07-31T06:22:51Z</time>
      </trkpt>
      <trkpt lat="47.16745" lon="-1.62753">
        <ele>72</ele>
        <time>2022-07-31T06:22:53Z</time>
      </trkpt>
      <trkpt lat="47.16755" lon="-1.62765">
        <ele>72</ele>
        <time>2022-07-31T06:22:55Z</time>
      </trkpt>
      <trkpt lat="47.16765" lon="-1.62775">
        <ele>72</ele>
        <time>2022-07-31T06:22:57Z</time>
      </trkpt>
      <trkpt lat="47.16776" lon="-1.62785">
        <ele>71</ele>
        <time>2022-07-31T06:22:59Z</time>
      </trkpt>
      <trkpt lat="47.16787" lon="-1.62795">
        <ele>71</ele>
        <time>2022-07-31T06:23:01Z</time>
      </trkpt>
      <trkpt lat="47.16798" lon="-1.62804">
        <ele>72</ele>
        <time>2022-07-31T06:23:03Z</time>
      </trkpt>
      <trkpt lat="47.16809" lon="-1.62814">
        <ele>72</ele>
        <time>2022-07-31T06:23:05Z</time>
      </trkpt>
      <trkpt lat="47.16818" lon="-1.62823">
        <ele>72</ele>
        <time>2022-07-31T06:23:07Z</time>
      </trkpt>
      <trkpt lat="47.16828" lon="-1.62833">
        <ele>72</ele>
        <time>2022-07-31T06:23:09Z</time>
      </trkpt>
      <trkpt lat="47.16838" lon="-1.62842">
        <ele>73</ele>
        <time>2022-07-31T06:23:11Z</time>
      </trkpt>
      <trkpt lat="47.16848" lon="-1.62852">
        <ele>73</ele>
        <time>2022-07-31T06:23:13Z</time>
      </trkpt>
      <trkpt lat="47.16857" lon="-1.62861">
        <ele>74</ele>
        <time>2022-07-31T06:23:15Z</time>
      </trkpt>
      <trkpt lat="47.16866" lon="-1.6287">
        <ele>74</ele>
        <time>2022-07-31T06:23:17Z</time>
      </trkpt>
      <trkpt lat="47.16874" lon="-1.62881">
        <ele>74</ele>
        <time>2022-07-31T06:23:19Z</time>
      </trkpt>
      <trkpt lat="47.1688" lon="-1.62895">
        <ele>75</ele>
        <time>2022-07-31T06:23:21Z</time>
      </trkpt>
      <trkpt lat="47.16886" lon="-1.6291">
        <ele>75</ele>
        <time>2022-07-31T06:23:23Z</time>
      </trkpt>
      <trkpt lat="47.16889" lon="-1.62925">
        <ele>76</ele>
        <time>2022-07-31T06:23:25Z</time>
      </trkpt>
      <trkpt lat="47.16891" lon="-1.62942">
        <ele>76</ele>
        <time>2022-07-31T06:23:27Z</time>
      </trkpt>
      <trkpt lat="47.16892" lon="-1.62959">
        <ele>76</ele>
        <time>2022-07-31T06:23:29Z</time>
      </trkpt>
      <trkpt lat="47.16892" lon="-1.62976">
        <ele>76</ele>
        <time>2022-07-31T06:23:31Z</time>
      </trkpt>
      <trkpt lat="47.1689" lon="-1.62992">
        <ele>76</ele>
        <time>2022-07-31T06:23:33Z</time>
      </trkpt>
      <trkpt lat="47.16889" lon="-1.6301">
        <ele>76</ele>
        <time>2022-07-31T06:23:35Z</time>
      </trkpt>
      <trkpt lat="47.16888" lon="-1.63027">
        <ele>77</ele>
        <time>2022-07-31T06:23:37Z</time>
      </trkpt>
      <trkpt lat="47.16888" lon="-1.63044">
        <ele>77</ele>
        <time>2022-07-31T06:23:39Z</time>
      </trkpt>
      <trkpt lat="47.16888" lon="-1.63061">
        <ele>77</ele>
        <time>2022-07-31T06:23:41Z</time>
      </trkpt>
      <trkpt lat="47.16891" lon="-1.63077">
        <ele>78</ele>
        <time>2022-07-31T06:23:43Z</time>
      </trkpt>
      <trkpt lat="47.16893" lon="-1.63093">
        <ele>78</ele>
        <time>2022-07-31T06:23:45Z</time>
      </trkpt>
      <trkpt lat="47.16896" lon="-1.6311">
        <ele>78</ele>
        <time>2022-07-31T06:23:47Z</time>
      </trkpt>
      <trkpt lat="47.169" lon="-1.63125">
        <ele>78</ele>
        <time>2022-07-31T06:23:49Z</time>
      </trkpt>
      <trkpt lat="47.16904" lon="-1.6314">
        <ele>78</ele>
        <time>2022-07-31T06:23:51Z</time>
      </trkpt>
      <trkpt lat="47.16909" lon="-1.63155">
        <ele>78</ele>
        <time>2022-07-31T06:23:53Z</time>
      </trkpt>
      <trkpt lat="47.16915" lon="-1.6317">
        <ele>78</ele>
        <time>2022-07-31T06:23:55Z</time>
      </trkpt>
      <trkpt lat="47.16922" lon="-1.63183">
        <ele>78</ele>
        <time>2022-07-31T06:23:57Z</time>
      </trkpt>
      <trkpt lat="47.16929" lon="-1.63196">
        <ele>79</ele>
        <time>2022-07-31T06:23:59Z</time>
      </trkpt>
      <trkpt lat="47.16936" lon="-1.63207">
        <ele>79</ele>
        <time>2022-07-31T06:24:01Z</time>
      </trkpt>
      <trkpt lat="47.16944" lon="-1.63219">
        <ele>79</ele>
        <time>2022-07-31T06:24:03Z</time>
      </trkpt>
      <trkpt lat="47.16952" lon="-1.6323">
        <ele>79</ele>
        <time>2022-07-31T06:24:05Z</time>
      </trkpt>
      <trkpt lat="47.16959" lon="-1.6324">
        <ele>79</ele>
        <time>2022-07-31T06:24:07Z</time>
      </trkpt>
      <trkpt lat="47.16968" lon="-1.63252">
        <ele>79</ele>
        <time>2022-07-31T06:24:10Z</time>
      </trkpt>
      <trkpt lat="47.16964" lon="-1.63265">
        <ele>79</ele>
        <time>2022-07-31T06:24:12Z</time>
      </trkpt>
      <trkpt lat="47.16957" lon="-1.63276">
        <ele>79</ele>
        <time>2022-07-31T06:24:14Z</time>
      </trkpt>
      <trkpt lat="47.16949" lon="-1.6329">
        <ele>79</ele>
        <time>2022-07-31T06:24:16Z</time>
      </trkpt>
      <trkpt lat="47.1694" lon="-1.63304">
        <ele>78</ele>
        <time>2022-07-31T06:24:18Z</time>
      </trkpt>
      <trkpt lat="47.16932" lon="-1.63317">
        <ele>79</ele>
        <time>2022-07-31T06:24:20Z</time>
      </trkpt>
      <trkpt lat="47.16923" lon="-1.63329">
        <ele>79</ele>
        <time>2022-07-31T06:24:22Z</time>
      </trkpt>
      <trkpt lat="47.16914" lon="-1.63341">
        <ele>79</ele>
        <time>2022-07-31T06:24:24Z</time>
      </trkpt>
      <trkpt lat="47.16905" lon="-1.63353">
        <ele>79</ele>
        <time>2022-07-31T06:24:26Z</time>
      </trkpt>
      <trkpt lat="47.16897" lon="-1.63366">
        <ele>79</ele>
        <time>2022-07-31T06:24:28Z</time>
      </trkpt>
      <trkpt lat="47.16889" lon="-1.63379">
        <ele>79</ele>
        <time>2022-07-31T06:24:30Z</time>
      </trkpt>
      <trkpt lat="47.16881" lon="-1.63392">
        <ele>79</ele>
        <time>2022-07-31T06:24:32Z</time>
      </trkpt>
      <trkpt lat="47.16873" lon="-1.63406">
        <ele>79</ele>
        <time>2022-07-31T06:24:34Z</time>
      </trkpt>
      <trkpt lat="47.16865" lon="-1.6342">
        <ele>79</ele>
        <time>2022-07-31T06:24:36Z</time>
      </trkpt>
      <trkpt lat="47.16857" lon="-1.63434">
        <ele>80</ele>
        <time>2022-07-31T06:24:38Z</time>
      </trkpt>
      <trkpt lat="47.1685" lon="-1.63447">
        <ele>79</ele>
        <time>2022-07-31T06:24:40Z</time>
      </trkpt>
      <trkpt lat="47.16842" lon="-1.63461">
        <ele>79</ele>
        <time>2022-07-31T06:24:42Z</time>
      </trkpt>
      <trkpt lat="47.16834" lon="-1.63475">
        <ele>79</ele>
        <time>2022-07-31T06:24:44Z</time>
      </trkpt>
      <trkpt lat="47.16825" lon="-1.63489">
        <ele>79</ele>
        <time>2022-07-31T06:24:46Z</time>
      </trkpt>
      <trkpt lat="47.16817" lon="-1.63503">
        <ele>79</ele>
        <time>2022-07-31T06:24:48Z</time>
      </trkpt>
      <trkpt lat="47.16809" lon="-1.63518">
        <ele>80</ele>
        <time>2022-07-31T06:24:50Z</time>
      </trkpt>
      <trkpt lat="47.168" lon="-1.63532">
        <ele>79</ele>
        <time>2022-07-31T06:24:52Z</time>
      </trkpt>
      <trkpt lat="47.16792" lon="-1.63546">
        <ele>79</ele>
        <time>2022-07-31T06:24:54Z</time>
      </trkpt>
      <trkpt lat="47.16784" lon="-1.6356">
        <ele>79</ele>
        <time>2022-07-31T06:24:56Z</time>
      </trkpt>
      <trkpt lat="47.16775" lon="-1.63575">
        <ele>79</ele>
        <time>2022-07-31T06:24:58Z</time>
      </trkpt>
      <trkpt lat="47.16767" lon="-1.6359">
        <ele>79</ele>
        <time>2022-07-31T06:25:00Z</time>
      </trkpt>
      <trkpt lat="47.16758" lon="-1.63604">
        <ele>79</ele>
        <time>2022-07-31T06:25:02Z</time>
      </trkpt>
      <trkpt lat="47.1675" lon="-1.63618">
        <ele>78</ele>
        <time>2022-07-31T06:25:04Z</time>
      </trkpt>
      <trkpt lat="47.16744" lon="-1.63632">
        <ele>78</ele>
        <time>2022-07-31T06:25:06Z</time>
      </trkpt>
      <trkpt lat="47.16751" lon="-1.63646">
        <ele>78</ele>
        <time>2022-07-31T06:25:08Z</time>
      </trkpt>
      <trkpt lat="47.16763" lon="-1.63651">
        <ele>78</ele>
        <time>2022-07-31T06:25:10Z</time>
      </trkpt>
      <trkpt lat="47.16775" lon="-1.63656">
        <ele>78</ele>
        <time>2022-07-31T06:25:12Z</time>
      </trkpt>
      <trkpt lat="47.16788" lon="-1.63661">
        <ele>78</ele>
        <time>2022-07-31T06:25:14Z</time>
      </trkpt>
      <trkpt lat="47.16801" lon="-1.63664">
        <ele>78</ele>
        <time>2022-07-31T06:25:16Z</time>
      </trkpt>
      <trkpt lat="47.16813" lon="-1.63667">
        <ele>78</ele>
        <time>2022-07-31T06:25:18Z</time>
      </trkpt>
      <trkpt lat="47.16826" lon="-1.63672">
        <ele>78</ele>
        <time>2022-07-31T06:25:20Z</time>
      </trkpt>
      <trkpt lat="47.16839" lon="-1.63677">
        <ele>79</ele>
        <time>2022-07-31T06:25:22Z</time>
      </trkpt>
      <trkpt lat="47.16851" lon="-1.63682">
        <ele>79</ele>
        <time>2022-07-31T06:25:24Z</time>
      </trkpt>
      <trkpt lat="47.16864" lon="-1.63686">
        <ele>79</ele>
        <time>2022-07-31T06:25:26Z</time>
      </trkpt>
      <trkpt lat="47.16877" lon="-1.63691">
        <ele>79</ele>
        <time>2022-07-31T06:25:28Z</time>
      </trkpt>
      <trkpt lat="47.16889" lon="-1.63695">
        <ele>79</ele>
        <time>2022-07-31T06:25:30Z</time>
      </trkpt>
      <trkpt lat="47.16902" lon="-1.637">
        <ele>79</ele>
        <time>2022-07-31T06:25:32Z</time>
      </trkpt>
      <trkpt lat="47.16915" lon="-1.63705">
        <ele>79</ele>
        <time>2022-07-31T06:25:34Z</time>
      </trkpt>
      <trkpt lat="47.16928" lon="-1.6371">
        <ele>79</ele>
        <time>2022-07-31T06:25:36Z</time>
      </trkpt>
      <trkpt lat="47.16941" lon="-1.63715">
        <ele>79</ele>
        <time>2022-07-31T06:25:38Z</time>
      </trkpt>
      <trkpt lat="47.16953" lon="-1.63719">
        <ele>79</ele>
        <time>2022-07-31T06:25:40Z</time>
      </trkpt>
      <trkpt lat="47.16966" lon="-1.63724">
        <ele>79</ele>
        <time>2022-07-31T06:25:42Z</time>
      </trkpt>
      <trkpt lat="47.16978" lon="-1.63729">
        <ele>79</ele>
        <time>2022-07-31T06:25:44Z</time>
      </trkpt>
      <trkpt lat="47.16991" lon="-1.63734">
        <ele>79</ele>
        <time>2022-07-31T06:25:46Z</time>
      </trkpt>
      <trkpt lat="47.17004" lon="-1.63738">
        <ele>79</ele>
        <time>2022-07-31T06:25:48Z</time>
      </trkpt>
      <trkpt lat="47.17017" lon="-1.63742">
        <ele>79</ele>
        <time>2022-07-31T06:25:50Z</time>
      </trkpt>
      <trkpt lat="47.1703" lon="-1.63747">
        <ele>79</ele>
        <time>2022-07-31T06:25:52Z</time>
      </trkpt>
      <trkpt lat="47.17043" lon="-1.63752">
        <ele>79</ele>
        <time>2022-07-31T06:25:54Z</time>
      </trkpt>
      <trkpt lat="47.17054" lon="-1.63761">
        <ele>79</ele>
        <time>2022-07-31T06:25:56Z</time>
      </trkpt>
      <trkpt lat="47.17063" lon="-1.63775">
        <ele>79</ele>
        <time>2022-07-31T06:25:58Z</time>
      </trkpt>
      <trkpt lat="47.17069" lon="-1.63792">
        <ele>80</ele>
        <time>2022-07-31T06:26:00Z</time>
      </trkpt>
      <trkpt lat="47.17075" lon="-1.6381">
        <ele>80</ele>
        <time>2022-07-31T06:26:02Z</time>
      </trkpt>
      <trkpt lat="47.1708" lon="-1.63828">
        <ele>80</ele>
        <time>2022-07-31T06:26:04Z</time>
      </trkpt>
      <trkpt lat="47.17086" lon="-1.63844">
        <ele>80</ele>
        <time>2022-07-31T06:26:06Z</time>
      </trkpt>
      <trkpt lat="47.17092" lon="-1.63861">
        <ele>79</ele>
        <time>2022-07-31T06:26:08Z</time>
      </trkpt>
      <trkpt lat="47.17098" lon="-1.63877">
        <ele>79</ele>
        <time>2022-07-31T06:26:10Z</time>
      </trkpt>
      <trkpt lat="47.17103" lon="-1.63894">
        <ele>80</ele>
        <time>2022-07-31T06:26:12Z</time>
      </trkpt>
      <trkpt lat="47.17109" lon="-1.6391">
        <ele>80</ele>
        <time>2022-07-31T06:26:14Z</time>
      </trkpt>
      <trkpt lat="47.17115" lon="-1.63924">
        <ele>79</ele>
        <time>2022-07-31T06:26:16Z</time>
      </trkpt>
      <trkpt lat="47.17122" lon="-1.63938">
        <ele>79</ele>
        <time>2022-07-31T06:26:18Z</time>
      </trkpt>
      <trkpt lat="47.17131" lon="-1.63943">
        <ele>79</ele>
        <time>2022-07-31T06:26:20Z</time>
      </trkpt>
      <trkpt lat="47.17138" lon="-1.63956">
        <ele>79</ele>
        <time>2022-07-31T06:26:23Z</time>
      </trkpt>
      <trkpt lat="47.17139" lon="-1.63973">
        <ele>79</ele>
        <time>2022-07-31T06:26:25Z</time>
      </trkpt>
      <trkpt lat="47.1714" lon="-1.63991">
        <ele>79</ele>
        <time>2022-07-31T06:26:27Z</time>
      </trkpt>
      <trkpt lat="47.17137" lon="-1.64008">
        <ele>79</ele>
        <time>2022-07-31T06:26:29Z</time>
      </trkpt>
      <trkpt lat="47.17135" lon="-1.64027">
        <ele>79</ele>
        <time>2022-07-31T06:26:31Z</time>
      </trkpt>
      <trkpt lat="47.17133" lon="-1.64046">
        <ele>79</ele>
        <time>2022-07-31T06:26:33Z</time>
      </trkpt>
      <trkpt lat="47.17131" lon="-1.64065">
        <ele>79</ele>
        <time>2022-07-31T06:26:35Z</time>
      </trkpt>
      <trkpt lat="47.17129" lon="-1.64085">
        <ele>79</ele>
        <time>2022-07-31T06:26:37Z</time>
      </trkpt>
      <trkpt lat="47.17127" lon="-1.64104">
        <ele>79</ele>
        <time>2022-07-31T06:26:39Z</time>
      </trkpt>
      <trkpt lat="47.17125" lon="-1.64124">
        <ele>79</ele>
        <time>2022-07-31T06:26:41Z</time>
      </trkpt>
      <trkpt lat="47.17123" lon="-1.64142">
        <ele>79</ele>
        <time>2022-07-31T06:26:43Z</time>
      </trkpt>
      <trkpt lat="47.17121" lon="-1.64162">
        <ele>79</ele>
        <time>2022-07-31T06:26:45Z</time>
      </trkpt>
      <trkpt lat="47.17119" lon="-1.64181">
        <ele>79</ele>
        <time>2022-07-31T06:26:47Z</time>
      </trkpt>
      <trkpt lat="47.17115" lon="-1.64208">
        <ele>79</ele>
        <time>2022-07-31T06:26:50Z</time>
      </trkpt>
      <trkpt lat="47.17114" lon="-1.64227">
        <ele>79</ele>
        <time>2022-07-31T06:26:52Z</time>
      </trkpt>
      <trkpt lat="47.17112" lon="-1.64245">
        <ele>79</ele>
        <time>2022-07-31T06:26:54Z</time>
      </trkpt>
      <trkpt lat="47.17109" lon="-1.64273">
        <ele>79</ele>
        <time>2022-07-31T06:26:57Z</time>
      </trkpt>
      <trkpt lat="47.17107" lon="-1.64292">
        <ele>80</ele>
        <time>2022-07-31T06:26:59Z</time>
      </trkpt>
      <trkpt lat="47.17105" lon="-1.6431">
        <ele>80</ele>
        <time>2022-07-31T06:27:01Z</time>
      </trkpt>
      <trkpt lat="47.17103" lon="-1.64329">
        <ele>80</ele>
        <time>2022-07-31T06:27:03Z</time>
      </trkpt>
      <trkpt lat="47.17101" lon="-1.64348">
        <ele>80</ele>
        <time>2022-07-31T06:27:05Z</time>
      </trkpt>
      <trkpt lat="47.171" lon="-1.64367">
        <ele>80</ele>
        <time>2022-07-31T06:27:07Z</time>
      </trkpt>
      <trkpt lat="47.17098" lon="-1.64386">
        <ele>80</ele>
        <time>2022-07-31T06:27:09Z</time>
      </trkpt>
      <trkpt lat="47.17096" lon="-1.64405">
        <ele>80</ele>
        <time>2022-07-31T06:27:11Z</time>
      </trkpt>
      <trkpt lat="47.17095" lon="-1.64424">
        <ele>80</ele>
        <time>2022-07-31T06:27:13Z</time>
      </trkpt>
      <trkpt lat="47.17094" lon="-1.64443">
        <ele>80</ele>
        <time>2022-07-31T06:27:15Z</time>
      </trkpt>
      <trkpt lat="47.17093" lon="-1.64462">
        <ele>80</ele>
        <time>2022-07-31T06:27:17Z</time>
      </trkpt>
      <trkpt lat="47.17092" lon="-1.64481">
        <ele>80</ele>
        <time>2022-07-31T06:27:19Z</time>
      </trkpt>
      <trkpt lat="47.17091" lon="-1.645">
        <ele>80</ele>
        <time>2022-07-31T06:27:21Z</time>
      </trkpt>
      <trkpt lat="47.1709" lon="-1.64521">
        <ele>80</ele>
        <time>2022-07-31T06:27:23Z</time>
      </trkpt>
      <trkpt lat="47.1709" lon="-1.64541">
        <ele>80</ele>
        <time>2022-07-31T06:27:25Z</time>
      </trkpt>
      <trkpt lat="47.17089" lon="-1.64562">
        <ele>79</ele>
        <time>2022-07-31T06:27:27Z</time>
      </trkpt>
      <trkpt lat="47.17088" lon="-1.64582">
        <ele>79</ele>
        <time>2022-07-31T06:27:29Z</time>
      </trkpt>
      <trkpt lat="47.17087" lon="-1.64603">
        <ele>79</ele>
        <time>2022-07-31T06:27:31Z</time>
      </trkpt>
      <trkpt lat="47.17087" lon="-1.64623">
        <ele>79</ele>
        <time>2022-07-31T06:27:33Z</time>
      </trkpt>
      <trkpt lat="47.17087" lon="-1.64643">
        <ele>79</ele>
        <time>2022-07-31T06:27:35Z</time>
      </trkpt>
      <trkpt lat="47.17088" lon="-1.64663">
        <ele>79</ele>
        <time>2022-07-31T06:27:37Z</time>
      </trkpt>
      <trkpt lat="47.17088" lon="-1.64684">
        <ele>78</ele>
        <time>2022-07-31T06:27:39Z</time>
      </trkpt>
      <trkpt lat="47.17089" lon="-1.64705">
        <ele>78</ele>
        <time>2022-07-31T06:27:41Z</time>
      </trkpt>
      <trkpt lat="47.1709" lon="-1.64725">
        <ele>79</ele>
        <time>2022-07-31T06:27:43Z</time>
      </trkpt>
      <trkpt lat="47.17091" lon="-1.64745">
        <ele>79</ele>
        <time>2022-07-31T06:27:45Z</time>
      </trkpt>
      <trkpt lat="47.17093" lon="-1.64762">
        <ele>80</ele>
        <time>2022-07-31T06:27:47Z</time>
      </trkpt>
      <trkpt lat="47.17093" lon="-1.64779">
        <ele>81</ele>
        <time>2022-07-31T06:27:49Z</time>
      </trkpt>
      <trkpt lat="47.17092" lon="-1.64796">
        <ele>81</ele>
        <time>2022-07-31T06:27:51Z</time>
      </trkpt>
      <trkpt lat="47.17094" lon="-1.64815">
        <ele>82</ele>
        <time>2022-07-31T06:27:53Z</time>
      </trkpt>
      <trkpt lat="47.17096" lon="-1.6484">
        <ele>81</ele>
        <time>2022-07-31T06:27:55Z</time>
      </trkpt>
      <trkpt lat="47.17098" lon="-1.64862">
        <ele>80</ele>
        <time>2022-07-31T06:27:57Z</time>
      </trkpt>
      <trkpt lat="47.171" lon="-1.64884">
        <ele>79</ele>
        <time>2022-07-31T06:27:59Z</time>
      </trkpt>
      <trkpt lat="47.17101" lon="-1.64905">
        <ele>79</ele>
        <time>2022-07-31T06:28:01Z</time>
      </trkpt>
      <trkpt lat="47.17103" lon="-1.64925">
        <ele>79</ele>
        <time>2022-07-31T06:28:03Z</time>
      </trkpt>
      <trkpt lat="47.17104" lon="-1.64945">
        <ele>78</ele>
        <time>2022-07-31T06:28:05Z</time>
      </trkpt>
      <trkpt lat="47.17106" lon="-1.64966">
        <ele>78</ele>
        <time>2022-07-31T06:28:07Z</time>
      </trkpt>
      <trkpt lat="47.17107" lon="-1.64986">
        <ele>78</ele>
        <time>2022-07-31T06:28:09Z</time>
      </trkpt>
      <trkpt lat="47.17108" lon="-1.65006">
        <ele>78</ele>
        <time>2022-07-31T06:28:11Z</time>
      </trkpt>
      <trkpt lat="47.1711" lon="-1.65025">
        <ele>78</ele>
        <time>2022-07-31T06:28:13Z</time>
      </trkpt>
      <trkpt lat="47.17111" lon="-1.65045">
        <ele>78</ele>
        <time>2022-07-31T06:28:15Z</time>
      </trkpt>
      <trkpt lat="47.17113" lon="-1.65064">
        <ele>79</ele>
        <time>2022-07-31T06:28:17Z</time>
      </trkpt>
      <trkpt lat="47.17115" lon="-1.65083">
        <ele>79</ele>
        <time>2022-07-31T06:28:19Z</time>
      </trkpt>
      <trkpt lat="47.17116" lon="-1.65102">
        <ele>79</ele>
        <time>2022-07-31T06:28:21Z</time>
      </trkpt>
      <trkpt lat="47.17117" lon="-1.65122">
        <ele>80</ele>
        <time>2022-07-31T06:28:23Z</time>
      </trkpt>
      <trkpt lat="47.17118" lon="-1.65142">
        <ele>80</ele>
        <time>2022-07-31T06:28:25Z</time>
      </trkpt>
      <trkpt lat="47.17119" lon="-1.65161">
        <ele>79</ele>
        <time>2022-07-31T06:28:27Z</time>
      </trkpt>
      <trkpt lat="47.1712" lon="-1.6518">
        <ele>79</ele>
        <time>2022-07-31T06:28:29Z</time>
      </trkpt>
      <trkpt lat="47.17122" lon="-1.65198">
        <ele>79</ele>
        <time>2022-07-31T06:28:31Z</time>
      </trkpt>
      <trkpt lat="47.17123" lon="-1.65216">
        <ele>79</ele>
        <time>2022-07-31T06:28:33Z</time>
      </trkpt>
      <trkpt lat="47.17125" lon="-1.65233">
        <ele>79</ele>
        <time>2022-07-31T06:28:35Z</time>
      </trkpt>
      <trkpt lat="47.17126" lon="-1.6525">
        <ele>80</ele>
        <time>2022-07-31T06:28:37Z</time>
      </trkpt>
      <trkpt lat="47.17129" lon="-1.65267">
        <ele>79</ele>
        <time>2022-07-31T06:28:39Z</time>
      </trkpt>
      <trkpt lat="47.17133" lon="-1.65282">
        <ele>80</ele>
        <time>2022-07-31T06:28:41Z</time>
      </trkpt>
      <trkpt lat="47.17138" lon="-1.65297">
        <ele>80</ele>
        <time>2022-07-31T06:28:43Z</time>
      </trkpt>
      <trkpt lat="47.17138" lon="-1.65313">
        <ele>81</ele>
        <time>2022-07-31T06:28:45Z</time>
      </trkpt>
      <trkpt lat="47.17132" lon="-1.65328">
        <ele>81</ele>
        <time>2022-07-31T06:28:47Z</time>
      </trkpt>
      <trkpt lat="47.17124" lon="-1.65341">
        <ele>81</ele>
        <time>2022-07-31T06:28:49Z</time>
      </trkpt>
      <trkpt lat="47.17119" lon="-1.65356">
        <ele>81</ele>
        <time>2022-07-31T06:28:51Z</time>
      </trkpt>
      <trkpt lat="47.17119" lon="-1.65373">
        <ele>82</ele>
        <time>2022-07-31T06:28:53Z</time>
      </trkpt>
      <trkpt lat="47.1712" lon="-1.6539">
        <ele>82</ele>
        <time>2022-07-31T06:28:55Z</time>
      </trkpt>
      <trkpt lat="47.17119" lon="-1.65407">
        <ele>82</ele>
        <time>2022-07-31T06:28:57Z</time>
      </trkpt>
      <trkpt lat="47.1712" lon="-1.65423">
        <ele>82</ele>
        <time>2022-07-31T06:28:59Z</time>
      </trkpt>
      <trkpt lat="47.17121" lon="-1.6544">
        <ele>83</ele>
        <time>2022-07-31T06:29:01Z</time>
      </trkpt>
      <trkpt lat="47.1712" lon="-1.65456">
        <ele>84</ele>
        <time>2022-07-31T06:29:03Z</time>
      </trkpt>
      <trkpt lat="47.17119" lon="-1.65472">
        <ele>85</ele>
        <time>2022-07-31T06:29:05Z</time>
      </trkpt>
      <trkpt lat="47.17117" lon="-1.65487">
        <ele>85</ele>
        <time>2022-07-31T06:29:07Z</time>
      </trkpt>
      <trkpt lat="47.17113" lon="-1.65501">
        <ele>86</ele>
        <time>2022-07-31T06:29:09Z</time>
      </trkpt>
      <trkpt lat="47.17109" lon="-1.65516">
        <ele>86</ele>
        <time>2022-07-31T06:29:11Z</time>
      </trkpt>
      <trkpt lat="47.17103" lon="-1.6553">
        <ele>86</ele>
        <time>2022-07-31T06:29:13Z</time>
      </trkpt>
      <trkpt lat="47.17098" lon="-1.65544">
        <ele>86</ele>
        <time>2022-07-31T06:29:15Z</time>
      </trkpt>
      <trkpt lat="47.17091" lon="-1.65556">
        <ele>87</ele>
        <time>2022-07-31T06:29:17Z</time>
      </trkpt>
      <trkpt lat="47.17084" lon="-1.65568">
        <ele>87</ele>
        <time>2022-07-31T06:29:19Z</time>
      </trkpt>
      <trkpt lat="47.17078" lon="-1.65579">
        <ele>87</ele>
        <time>2022-07-31T06:29:21Z</time>
      </trkpt>
      <trkpt lat="47.1707" lon="-1.65592">
        <ele>87</ele>
        <time>2022-07-31T06:29:23Z</time>
      </trkpt>
      <trkpt lat="47.17063" lon="-1.65605">
        <ele>87</ele>
        <time>2022-07-31T06:29:25Z</time>
      </trkpt>
      <trkpt lat="47.17055" lon="-1.65618">
        <ele>86</ele>
        <time>2022-07-31T06:29:27Z</time>
      </trkpt>
      <trkpt lat="47.17047" lon="-1.65632">
        <ele>86</ele>
        <time>2022-07-31T06:29:29Z</time>
      </trkpt>
      <trkpt lat="47.1704" lon="-1.65646">
        <ele>85</ele>
        <time>2022-07-31T06:29:31Z</time>
      </trkpt>
      <trkpt lat="47.17031" lon="-1.65662">
        <ele>85</ele>
        <time>2022-07-31T06:29:33Z</time>
      </trkpt>
      <trkpt lat="47.17023" lon="-1.65679">
        <ele>84</ele>
        <time>2022-07-31T06:29:35Z</time>
      </trkpt>
      <trkpt lat="47.17015" lon="-1.65696">
        <ele>84</ele>
        <time>2022-07-31T06:29:37Z</time>
      </trkpt>
      <trkpt lat="47.17008" lon="-1.65713">
        <ele>83</ele>
        <time>2022-07-31T06:29:39Z</time>
      </trkpt>
      <trkpt lat="47.17005" lon="-1.65732">
        <ele>83</ele>
        <time>2022-07-31T06:29:41Z</time>
      </trkpt>
      <trkpt lat="47.17001" lon="-1.65751">
        <ele>83</ele>
        <time>2022-07-31T06:29:43Z</time>
      </trkpt>
      <trkpt lat="47.16992" lon="-1.65764">
        <ele>83</ele>
        <time>2022-07-31T06:29:45Z</time>
      </trkpt>
      <trkpt lat="47.16981" lon="-1.65773">
        <ele>83</ele>
        <time>2022-07-31T06:29:47Z</time>
      </trkpt>
      <trkpt lat="47.16969" lon="-1.65782">
        <ele>83</ele>
        <time>2022-07-31T06:29:49Z</time>
      </trkpt>
      <trkpt lat="47.16958" lon="-1.65795">
        <ele>83</ele>
        <time>2022-07-31T06:29:51Z</time>
      </trkpt>
      <trkpt lat="47.1695" lon="-1.65811">
        <ele>83</ele>
        <time>2022-07-31T06:29:53Z</time>
      </trkpt>
      <trkpt lat="47.16942" lon="-1.65827">
        <ele>83</ele>
        <time>2022-07-31T06:29:55Z</time>
      </trkpt>
      <trkpt lat="47.16934" lon="-1.65844">
        <ele>82</ele>
        <time>2022-07-31T06:29:57Z</time>
      </trkpt>
      <trkpt lat="47.16926" lon="-1.6586">
        <ele>82</ele>
        <time>2022-07-31T06:29:59Z</time>
      </trkpt>
      <trkpt lat="47.16918" lon="-1.65877">
        <ele>82</ele>
        <time>2022-07-31T06:30:01Z</time>
      </trkpt>
      <trkpt lat="47.16909" lon="-1.65894">
        <ele>81</ele>
        <time>2022-07-31T06:30:03Z</time>
      </trkpt>
      <trkpt lat="47.16901" lon="-1.65911">
        <ele>81</ele>
        <time>2022-07-31T06:30:05Z</time>
      </trkpt>
      <trkpt lat="47.16893" lon="-1.65927">
        <ele>80</ele>
        <time>2022-07-31T06:30:07Z</time>
      </trkpt>
      <trkpt lat="47.16885" lon="-1.65945">
        <ele>80</ele>
        <time>2022-07-31T06:30:09Z</time>
      </trkpt>
      <trkpt lat="47.16878" lon="-1.65963">
        <ele>80</ele>
        <time>2022-07-31T06:30:11Z</time>
      </trkpt>
      <trkpt lat="47.16871" lon="-1.65981">
        <ele>79</ele>
        <time>2022-07-31T06:30:13Z</time>
      </trkpt>
      <trkpt lat="47.16865" lon="-1.66">
        <ele>79</ele>
        <time>2022-07-31T06:30:15Z</time>
      </trkpt>
      <trkpt lat="47.16861" lon="-1.66018">
        <ele>79</ele>
        <time>2022-07-31T06:30:17Z</time>
      </trkpt>
      <trkpt lat="47.16856" lon="-1.66037">
        <ele>79</ele>
        <time>2022-07-31T06:30:19Z</time>
      </trkpt>
      <trkpt lat="47.16853" lon="-1.66056">
        <ele>79</ele>
        <time>2022-07-31T06:30:21Z</time>
      </trkpt>
      <trkpt lat="47.1685" lon="-1.66074">
        <ele>80</ele>
        <time>2022-07-31T06:30:23Z</time>
      </trkpt>
      <trkpt lat="47.16848" lon="-1.66093">
        <ele>80</ele>
        <time>2022-07-31T06:30:25Z</time>
      </trkpt>
      <trkpt lat="47.16847" lon="-1.66112">
        <ele>80</ele>
        <time>2022-07-31T06:30:27Z</time>
      </trkpt>
      <trkpt lat="47.16846" lon="-1.66131">
        <ele>80</ele>
        <time>2022-07-31T06:30:29Z</time>
      </trkpt>
      <trkpt lat="47.16846" lon="-1.6615">
        <ele>80</ele>
        <time>2022-07-31T06:30:31Z</time>
      </trkpt>
      <trkpt lat="47.16847" lon="-1.66169">
        <ele>80</ele>
        <time>2022-07-31T06:30:33Z</time>
      </trkpt>
      <trkpt lat="47.16848" lon="-1.66189">
        <ele>80</ele>
        <time>2022-07-31T06:30:35Z</time>
      </trkpt>
      <trkpt lat="47.1685" lon="-1.66208">
        <ele>80</ele>
        <time>2022-07-31T06:30:37Z</time>
      </trkpt>
      <trkpt lat="47.16851" lon="-1.66227">
        <ele>80</ele>
        <time>2022-07-31T06:30:39Z</time>
      </trkpt>
      <trkpt lat="47.16852" lon="-1.66246">
        <ele>79</ele>
        <time>2022-07-31T06:30:41Z</time>
      </trkpt>
      <trkpt lat="47.16853" lon="-1.66264">
        <ele>80</ele>
        <time>2022-07-31T06:30:43Z</time>
      </trkpt>
      <trkpt lat="47.16855" lon="-1.66283">
        <ele>80</ele>
        <time>2022-07-31T06:30:45Z</time>
      </trkpt>
      <trkpt lat="47.16856" lon="-1.66302">
        <ele>80</ele>
        <time>2022-07-31T06:30:47Z</time>
      </trkpt>
      <trkpt lat="47.16857" lon="-1.66321">
        <ele>80</ele>
        <time>2022-07-31T06:30:49Z</time>
      </trkpt>
      <trkpt lat="47.16859" lon="-1.66339">
        <ele>80</ele>
        <time>2022-07-31T06:30:51Z</time>
      </trkpt>
      <trkpt lat="47.1686" lon="-1.66357">
        <ele>80</ele>
        <time>2022-07-31T06:30:53Z</time>
      </trkpt>
      <trkpt lat="47.16862" lon="-1.66375">
        <ele>79</ele>
        <time>2022-07-31T06:30:55Z</time>
      </trkpt>
      <trkpt lat="47.16864" lon="-1.66394">
        <ele>79</ele>
        <time>2022-07-31T06:30:57Z</time>
      </trkpt>
      <trkpt lat="47.16866" lon="-1.66413">
        <ele>79</ele>
        <time>2022-07-31T06:30:59Z</time>
      </trkpt>
      <trkpt lat="47.16868" lon="-1.66432">
        <ele>79</ele>
        <time>2022-07-31T06:31:01Z</time>
      </trkpt>
      <trkpt lat="47.1687" lon="-1.66451">
        <ele>79</ele>
        <time>2022-07-31T06:31:03Z</time>
      </trkpt>
      <trkpt lat="47.16872" lon="-1.6647">
        <ele>79</ele>
        <time>2022-07-31T06:31:05Z</time>
      </trkpt>
      <trkpt lat="47.16874" lon="-1.66489">
        <ele>79</ele>
        <time>2022-07-31T06:31:07Z</time>
      </trkpt>
      <trkpt lat="47.16877" lon="-1.66507">
        <ele>80</ele>
        <time>2022-07-31T06:31:09Z</time>
      </trkpt>
      <trkpt lat="47.16879" lon="-1.66525">
        <ele>80</ele>
        <time>2022-07-31T06:31:11Z</time>
      </trkpt>
      <trkpt lat="47.16881" lon="-1.66543">
        <ele>80</ele>
        <time>2022-07-31T06:31:13Z</time>
      </trkpt>
      <trkpt lat="47.16884" lon="-1.66562">
        <ele>81</ele>
        <time>2022-07-31T06:31:15Z</time>
      </trkpt>
      <trkpt lat="47.16886" lon="-1.66581">
        <ele>81</ele>
        <time>2022-07-31T06:31:17Z</time>
      </trkpt>
      <trkpt lat="47.16887" lon="-1.666">
        <ele>81</ele>
        <time>2022-07-31T06:31:19Z</time>
      </trkpt>
      <trkpt lat="47.16889" lon="-1.66618">
        <ele>82</ele>
        <time>2022-07-31T06:31:21Z</time>
      </trkpt>
      <trkpt lat="47.16891" lon="-1.66637">
        <ele>81</ele>
        <time>2022-07-31T06:31:23Z</time>
      </trkpt>
      <trkpt lat="47.16892" lon="-1.66656">
        <ele>81</ele>
        <time>2022-07-31T06:31:25Z</time>
      </trkpt>
      <trkpt lat="47.16892" lon="-1.66675">
        <ele>80</ele>
        <time>2022-07-31T06:31:27Z</time>
      </trkpt>
      <trkpt lat="47.16891" lon="-1.66694">
        <ele>81</ele>
        <time>2022-07-31T06:31:29Z</time>
      </trkpt>
      <trkpt lat="47.16888" lon="-1.66712">
        <ele>80</ele>
        <time>2022-07-31T06:31:31Z</time>
      </trkpt>
      <trkpt lat="47.16883" lon="-1.66729">
        <ele>80</ele>
        <time>2022-07-31T06:31:33Z</time>
      </trkpt>
      <trkpt lat="47.16877" lon="-1.66746">
        <ele>81</ele>
        <time>2022-07-31T06:31:35Z</time>
      </trkpt>
      <trkpt lat="47.16869" lon="-1.66762">
        <ele>81</ele>
        <time>2022-07-31T06:31:37Z</time>
      </trkpt>
      <trkpt lat="47.16861" lon="-1.66777">
        <ele>80</ele>
        <time>2022-07-31T06:31:39Z</time>
      </trkpt>
      <trkpt lat="47.16853" lon="-1.66792">
        <ele>81</ele>
        <time>2022-07-31T06:31:41Z</time>
      </trkpt>
      <trkpt lat="47.16845" lon="-1.66807">
        <ele>81</ele>
        <time>2022-07-31T06:31:43Z</time>
      </trkpt>
      <trkpt lat="47.16837" lon="-1.66822">
        <ele>81</ele>
        <time>2022-07-31T06:31:45Z</time>
      </trkpt>
      <trkpt lat="47.16829" lon="-1.66838">
        <ele>80</ele>
        <time>2022-07-31T06:31:47Z</time>
      </trkpt>
      <trkpt lat="47.1682" lon="-1.66854">
        <ele>79</ele>
        <time>2022-07-31T06:31:49Z</time>
      </trkpt>
      <trkpt lat="47.16811" lon="-1.66869">
        <ele>80</ele>
        <time>2022-07-31T06:31:51Z</time>
      </trkpt>
      <trkpt lat="47.16802" lon="-1.66883">
        <ele>80</ele>
        <time>2022-07-31T06:31:53Z</time>
      </trkpt>
      <trkpt lat="47.16792" lon="-1.66895">
        <ele>81</ele>
        <time>2022-07-31T06:31:55Z</time>
      </trkpt>
      <trkpt lat="47.16781" lon="-1.66904">
        <ele>81</ele>
        <time>2022-07-31T06:31:57Z</time>
      </trkpt>
      <trkpt lat="47.16768" lon="-1.66912">
        <ele>81</ele>
        <time>2022-07-31T06:31:59Z</time>
      </trkpt>
      <trkpt lat="47.16755" lon="-1.66916">
        <ele>81</ele>
        <time>2022-07-31T06:32:01Z</time>
      </trkpt>
      <trkpt lat="47.16743" lon="-1.66921">
        <ele>82</ele>
        <time>2022-07-31T06:32:03Z</time>
      </trkpt>
      <trkpt lat="47.1673" lon="-1.66924">
        <ele>83</ele>
        <time>2022-07-31T06:32:05Z</time>
      </trkpt>
      <trkpt lat="47.16718" lon="-1.6693">
        <ele>83</ele>
        <time>2022-07-31T06:32:07Z</time>
      </trkpt>
      <trkpt lat="47.16707" lon="-1.66934">
        <ele>83</ele>
        <time>2022-07-31T06:32:09Z</time>
      </trkpt>
      <trkpt lat="47.16695" lon="-1.66942">
        <ele>84</ele>
        <time>2022-07-31T06:32:11Z</time>
      </trkpt>
      <trkpt lat="47.16684" lon="-1.66952">
        <ele>85</ele>
        <time>2022-07-31T06:32:13Z</time>
      </trkpt>
      <trkpt lat="47.16673" lon="-1.66964">
        <ele>84</ele>
        <time>2022-07-31T06:32:15Z</time>
      </trkpt>
      <trkpt lat="47.16666" lon="-1.66981">
        <ele>84</ele>
        <time>2022-07-31T06:32:17Z</time>
      </trkpt>
      <trkpt lat="47.16661" lon="-1.67">
        <ele>84</ele>
        <time>2022-07-31T06:32:19Z</time>
      </trkpt>
      <trkpt lat="47.16657" lon="-1.6702">
        <ele>84</ele>
        <time>2022-07-31T06:32:21Z</time>
      </trkpt>
      <trkpt lat="47.16653" lon="-1.6704">
        <ele>83</ele>
        <time>2022-07-31T06:32:23Z</time>
      </trkpt>
      <trkpt lat="47.16649" lon="-1.67059">
        <ele>82</ele>
        <time>2022-07-31T06:32:25Z</time>
      </trkpt>
      <trkpt lat="47.16645" lon="-1.67078">
        <ele>82</ele>
        <time>2022-07-31T06:32:27Z</time>
      </trkpt>
      <trkpt lat="47.16641" lon="-1.67097">
        <ele>81</ele>
        <time>2022-07-31T06:32:29Z</time>
      </trkpt>
      <trkpt lat="47.16638" lon="-1.67116">
        <ele>81</ele>
        <time>2022-07-31T06:32:31Z</time>
      </trkpt>
      <trkpt lat="47.16634" lon="-1.67135">
        <ele>80</ele>
        <time>2022-07-31T06:32:33Z</time>
      </trkpt>
      <trkpt lat="47.1663" lon="-1.67154">
        <ele>80</ele>
        <time>2022-07-31T06:32:35Z</time>
      </trkpt>
      <trkpt lat="47.16627" lon="-1.67173">
        <ele>80</ele>
        <time>2022-07-31T06:32:37Z</time>
      </trkpt>
      <trkpt lat="47.16623" lon="-1.67191">
        <ele>80</ele>
        <time>2022-07-31T06:32:39Z</time>
      </trkpt>
      <trkpt lat="47.1662" lon="-1.67209">
        <ele>79</ele>
        <time>2022-07-31T06:32:41Z</time>
      </trkpt>
      <trkpt lat="47.16616" lon="-1.67224">
        <ele>79</ele>
        <time>2022-07-31T06:32:43Z</time>
      </trkpt>
      <trkpt lat="47.16613" lon="-1.67239">
        <ele>79</ele>
        <time>2022-07-31T06:32:45Z</time>
      </trkpt>
      <trkpt lat="47.1661" lon="-1.67255">
        <ele>79</ele>
        <time>2022-07-31T06:32:48Z</time>
      </trkpt>
      <trkpt lat="47.16607" lon="-1.67268">
        <ele>79</ele>
        <time>2022-07-31T06:32:52Z</time>
      </trkpt>
      <trkpt lat="47.16602" lon="-1.6728">
        <ele>79</ele>
        <time>2022-07-31T06:32:54Z</time>
      </trkpt>
      <trkpt lat="47.16594" lon="-1.67295">
        <ele>79</ele>
        <time>2022-07-31T06:32:56Z</time>
      </trkpt>
      <trkpt lat="47.16588" lon="-1.6731">
        <ele>78</ele>
        <time>2022-07-31T06:32:58Z</time>
      </trkpt>
      <trkpt lat="47.16581" lon="-1.67326">
        <ele>78</ele>
        <time>2022-07-31T06:33:00Z</time>
      </trkpt>
      <trkpt lat="47.16573" lon="-1.67341">
        <ele>78</ele>
        <time>2022-07-31T06:33:02Z</time>
      </trkpt>
      <trkpt lat="47.16565" lon="-1.67357">
        <ele>78</ele>
        <time>2022-07-31T06:33:04Z</time>
      </trkpt>
      <trkpt lat="47.16556" lon="-1.67372">
        <ele>78</ele>
        <time>2022-07-31T06:33:06Z</time>
      </trkpt>
      <trkpt lat="47.16547" lon="-1.67386">
        <ele>79</ele>
        <time>2022-07-31T06:33:08Z</time>
      </trkpt>
      <trkpt lat="47.16537" lon="-1.674">
        <ele>79</ele>
        <time>2022-07-31T06:33:10Z</time>
      </trkpt>
      <trkpt lat="47.16527" lon="-1.67414">
        <ele>79</ele>
        <time>2022-07-31T06:33:12Z</time>
      </trkpt>
      <trkpt lat="47.16518" lon="-1.67428">
        <ele>79</ele>
        <time>2022-07-31T06:33:14Z</time>
      </trkpt>
      <trkpt lat="47.16509" lon="-1.67443">
        <ele>78</ele>
        <time>2022-07-31T06:33:16Z</time>
      </trkpt>
      <trkpt lat="47.16501" lon="-1.67459">
        <ele>78</ele>
        <time>2022-07-31T06:33:18Z</time>
      </trkpt>
      <trkpt lat="47.16492" lon="-1.67476">
        <ele>78</ele>
        <time>2022-07-31T06:33:20Z</time>
      </trkpt>
      <trkpt lat="47.16482" lon="-1.67491">
        <ele>78</ele>
        <time>2022-07-31T06:33:22Z</time>
      </trkpt>
      <trkpt lat="47.16474" lon="-1.67507">
        <ele>78</ele>
        <time>2022-07-31T06:33:24Z</time>
      </trkpt>
      <trkpt lat="47.16465" lon="-1.67523">
        <ele>78</ele>
        <time>2022-07-31T06:33:26Z</time>
      </trkpt>
      <trkpt lat="47.16456" lon="-1.67538">
        <ele>78</ele>
        <time>2022-07-31T06:33:28Z</time>
      </trkpt>
      <trkpt lat="47.16447" lon="-1.67553">
        <ele>78</ele>
        <time>2022-07-31T06:33:30Z</time>
      </trkpt>
      <trkpt lat="47.16439" lon="-1.6757">
        <ele>78</ele>
        <time>2022-07-31T06:33:32Z</time>
      </trkpt>
      <trkpt lat="47.16431" lon="-1.67586">
        <ele>77</ele>
        <time>2022-07-31T06:33:34Z</time>
      </trkpt>
      <trkpt lat="47.16423" lon="-1.67603">
        <ele>77</ele>
        <time>2022-07-31T06:33:36Z</time>
      </trkpt>
      <trkpt lat="47.16415" lon="-1.67619">
        <ele>77</ele>
        <time>2022-07-31T06:33:38Z</time>
      </trkpt>
      <trkpt lat="47.16407" lon="-1.67635">
        <ele>77</ele>
        <time>2022-07-31T06:33:40Z</time>
      </trkpt>
      <trkpt lat="47.16399" lon="-1.67651">
        <ele>77</ele>
        <time>2022-07-31T06:33:42Z</time>
      </trkpt>
      <trkpt lat="47.16392" lon="-1.67668">
        <ele>77</ele>
        <time>2022-07-31T06:33:44Z</time>
      </trkpt>
      <trkpt lat="47.16384" lon="-1.67684">
        <ele>78</ele>
        <time>2022-07-31T06:33:46Z</time>
      </trkpt>
      <trkpt lat="47.16375" lon="-1.677">
        <ele>77</ele>
        <time>2022-07-31T06:33:48Z</time>
      </trkpt>
      <trkpt lat="47.16367" lon="-1.67715">
        <ele>77</ele>
        <time>2022-07-31T06:33:50Z</time>
      </trkpt>
      <trkpt lat="47.16359" lon="-1.67732">
        <ele>78</ele>
        <time>2022-07-31T06:33:52Z</time>
      </trkpt>
      <trkpt lat="47.16352" lon="-1.67749">
        <ele>79</ele>
        <time>2022-07-31T06:33:54Z</time>
      </trkpt>
      <trkpt lat="47.16345" lon="-1.67764">
        <ele>80</ele>
        <time>2022-07-31T06:33:56Z</time>
      </trkpt>
      <trkpt lat="47.16337" lon="-1.67781">
        <ele>81</ele>
        <time>2022-07-31T06:33:58Z</time>
      </trkpt>
      <trkpt lat="47.16328" lon="-1.67796">
        <ele>81</ele>
        <time>2022-07-31T06:34:00Z</time>
      </trkpt>
      <trkpt lat="47.16319" lon="-1.6781">
        <ele>82</ele>
        <time>2022-07-31T06:34:02Z</time>
      </trkpt>
      <trkpt lat="47.16309" lon="-1.67824">
        <ele>81</ele>
        <time>2022-07-31T06:34:04Z</time>
      </trkpt>
      <trkpt lat="47.16301" lon="-1.67839">
        <ele>81</ele>
        <time>2022-07-31T06:34:06Z</time>
      </trkpt>
      <trkpt lat="47.16292" lon="-1.67854">
        <ele>81</ele>
        <time>2022-07-31T06:34:08Z</time>
      </trkpt>
      <trkpt lat="47.16284" lon="-1.67869">
        <ele>81</ele>
        <time>2022-07-31T06:34:10Z</time>
      </trkpt>
      <trkpt lat="47.16275" lon="-1.67883">
        <ele>80</ele>
        <time>2022-07-31T06:34:12Z</time>
      </trkpt>
      <trkpt lat="47.16267" lon="-1.67899">
        <ele>81</ele>
        <time>2022-07-31T06:34:14Z</time>
      </trkpt>
      <trkpt lat="47.16261" lon="-1.67913">
        <ele>81</ele>
        <time>2022-07-31T06:34:16Z</time>
      </trkpt>
      <trkpt lat="47.16252" lon="-1.67928">
        <ele>82</ele>
        <time>2022-07-31T06:34:18Z</time>
      </trkpt>
      <trkpt lat="47.16244" lon="-1.67942">
        <ele>82</ele>
        <time>2022-07-31T06:34:20Z</time>
      </trkpt>
      <trkpt lat="47.16235" lon="-1.67957">
        <ele>83</ele>
        <time>2022-07-31T06:34:22Z</time>
      </trkpt>
      <trkpt lat="47.16227" lon="-1.67972">
        <ele>82</ele>
        <time>2022-07-31T06:34:24Z</time>
      </trkpt>
      <trkpt lat="47.16221" lon="-1.67988">
        <ele>81</ele>
        <time>2022-07-31T06:34:26Z</time>
      </trkpt>
      <trkpt lat="47.1621" lon="-1.67996">
        <ele>81</ele>
        <time>2022-07-31T06:34:28Z</time>
      </trkpt>
      <trkpt lat="47.16198" lon="-1.68004">
        <ele>80</ele>
        <time>2022-07-31T06:34:30Z</time>
      </trkpt>
      <trkpt lat="47.16188" lon="-1.68018">
        <ele>80</ele>
        <time>2022-07-31T06:34:32Z</time>
      </trkpt>
      <trkpt lat="47.16178" lon="-1.68033">
        <ele>80</ele>
        <time>2022-07-31T06:34:34Z</time>
      </trkpt>
      <trkpt lat="47.16169" lon="-1.68046">
        <ele>80</ele>
        <time>2022-07-31T06:34:36Z</time>
      </trkpt>
      <trkpt lat="47.16161" lon="-1.6806">
        <ele>80</ele>
        <time>2022-07-31T06:34:38Z</time>
      </trkpt>
      <trkpt lat="47.16153" lon="-1.68074">
        <ele>80</ele>
        <time>2022-07-31T06:34:40Z</time>
      </trkpt>
      <trkpt lat="47.16146" lon="-1.68091">
        <ele>79</ele>
        <time>2022-07-31T06:34:42Z</time>
      </trkpt>
      <trkpt lat="47.16142" lon="-1.68108">
        <ele>79</ele>
        <time>2022-07-31T06:34:44Z</time>
      </trkpt>
      <trkpt lat="47.16137" lon="-1.68126">
        <ele>79</ele>
        <time>2022-07-31T06:34:46Z</time>
      </trkpt>
      <trkpt lat="47.16133" lon="-1.68144">
        <ele>78</ele>
        <time>2022-07-31T06:34:48Z</time>
      </trkpt>
      <trkpt lat="47.16129" lon="-1.68162">
        <ele>78</ele>
        <time>2022-07-31T06:34:50Z</time>
      </trkpt>
      <trkpt lat="47.16125" lon="-1.6818">
        <ele>78</ele>
        <time>2022-07-31T06:34:52Z</time>
      </trkpt>
      <trkpt lat="47.16122" lon="-1.68198">
        <ele>78</ele>
        <time>2022-07-31T06:34:54Z</time>
      </trkpt>
      <trkpt lat="47.16118" lon="-1.68217">
        <ele>79</ele>
        <time>2022-07-31T06:34:56Z</time>
      </trkpt>
      <trkpt lat="47.16114" lon="-1.68235">
        <ele>79</ele>
        <time>2022-07-31T06:34:58Z</time>
      </trkpt>
      <trkpt lat="47.1611" lon="-1.68254">
        <ele>79</ele>
        <time>2022-07-31T06:35:00Z</time>
      </trkpt>
      <trkpt lat="47.16106" lon="-1.68273">
        <ele>79</ele>
        <time>2022-07-31T06:35:02Z</time>
      </trkpt>
      <trkpt lat="47.16102" lon="-1.68295">
        <ele>78</ele>
        <time>2022-07-31T06:35:04Z</time>
      </trkpt>
      <trkpt lat="47.16097" lon="-1.68315">
        <ele>78</ele>
        <time>2022-07-31T06:35:06Z</time>
      </trkpt>
      <trkpt lat="47.16093" lon="-1.68336">
        <ele>78</ele>
        <time>2022-07-31T06:35:08Z</time>
      </trkpt>
      <trkpt lat="47.1609" lon="-1.68355">
        <ele>78</ele>
        <time>2022-07-31T06:35:10Z</time>
      </trkpt>
      <trkpt lat="47.16086" lon="-1.68374">
        <ele>79</ele>
        <time>2022-07-31T06:35:12Z</time>
      </trkpt>
      <trkpt lat="47.16083" lon="-1.68392">
        <ele>79</ele>
        <time>2022-07-31T06:35:14Z</time>
      </trkpt>
      <trkpt lat="47.16079" lon="-1.6841">
        <ele>79</ele>
        <time>2022-07-31T06:35:16Z</time>
      </trkpt>
      <trkpt lat="47.16075" lon="-1.68429">
        <ele>78</ele>
        <time>2022-07-31T06:35:18Z</time>
      </trkpt>
      <trkpt lat="47.16071" lon="-1.68447">
        <ele>78</ele>
        <time>2022-07-31T06:35:20Z</time>
      </trkpt>
      <trkpt lat="47.16067" lon="-1.68466">
        <ele>77</ele>
        <time>2022-07-31T06:35:22Z</time>
      </trkpt>
      <trkpt lat="47.16065" lon="-1.68484">
        <ele>78</ele>
        <time>2022-07-31T06:35:24Z</time>
      </trkpt>
      <trkpt lat="47.16062" lon="-1.68503">
        <ele>77</ele>
        <time>2022-07-31T06:35:26Z</time>
      </trkpt>
      <trkpt lat="47.16059" lon="-1.68522">
        <ele>77</ele>
        <time>2022-07-31T06:35:28Z</time>
      </trkpt>
      <trkpt lat="47.16056" lon="-1.68541">
        <ele>77</ele>
        <time>2022-07-31T06:35:30Z</time>
      </trkpt>
      <trkpt lat="47.16053" lon="-1.6856">
        <ele>76</ele>
        <time>2022-07-31T06:35:32Z</time>
      </trkpt>
      <trkpt lat="47.1605" lon="-1.68578">
        <ele>76</ele>
        <time>2022-07-31T06:35:34Z</time>
      </trkpt>
      <trkpt lat="47.16048" lon="-1.68597">
        <ele>76</ele>
        <time>2022-07-31T06:35:36Z</time>
      </trkpt>
      <trkpt lat="47.16046" lon="-1.68616">
        <ele>75</ele>
        <time>2022-07-31T06:35:38Z</time>
      </trkpt>
      <trkpt lat="47.16045" lon="-1.68635">
        <ele>75</ele>
        <time>2022-07-31T06:35:40Z</time>
      </trkpt>
      <trkpt lat="47.16044" lon="-1.68654">
        <ele>76</ele>
        <time>2022-07-31T06:35:42Z</time>
      </trkpt>
      <trkpt lat="47.16044" lon="-1.68672">
        <ele>75</ele>
        <time>2022-07-31T06:35:44Z</time>
      </trkpt>
      <trkpt lat="47.16045" lon="-1.6869">
        <ele>76</ele>
        <time>2022-07-31T06:35:46Z</time>
      </trkpt>
      <trkpt lat="47.16046" lon="-1.68708">
        <ele>75</ele>
        <time>2022-07-31T06:35:48Z</time>
      </trkpt>
      <trkpt lat="47.16048" lon="-1.68726">
        <ele>76</ele>
        <time>2022-07-31T06:35:50Z</time>
      </trkpt>
      <trkpt lat="47.16051" lon="-1.68743">
        <ele>76</ele>
        <time>2022-07-31T06:35:52Z</time>
      </trkpt>
      <trkpt lat="47.16054" lon="-1.6876">
        <ele>76</ele>
        <time>2022-07-31T06:35:54Z</time>
      </trkpt>
      <trkpt lat="47.16058" lon="-1.68776">
        <ele>77</ele>
        <time>2022-07-31T06:35:56Z</time>
      </trkpt>
      <trkpt lat="47.16062" lon="-1.68791">
        <ele>76</ele>
        <time>2022-07-31T06:35:58Z</time>
      </trkpt>
      <trkpt lat="47.16066" lon="-1.68807">
        <ele>77</ele>
        <time>2022-07-31T06:36:00Z</time>
      </trkpt>
      <trkpt lat="47.16071" lon="-1.68824">
        <ele>77</ele>
        <time>2022-07-31T06:36:02Z</time>
      </trkpt>
      <trkpt lat="47.16076" lon="-1.6884">
        <ele>77</ele>
        <time>2022-07-31T06:36:04Z</time>
      </trkpt>
      <trkpt lat="47.16081" lon="-1.68856">
        <ele>77</ele>
        <time>2022-07-31T06:36:06Z</time>
      </trkpt>
      <trkpt lat="47.16086" lon="-1.68872">
        <ele>77</ele>
        <time>2022-07-31T06:36:08Z</time>
      </trkpt>
      <trkpt lat="47.16091" lon="-1.68889">
        <ele>77</ele>
        <time>2022-07-31T06:36:10Z</time>
      </trkpt>
      <trkpt lat="47.16096" lon="-1.68906">
        <ele>77</ele>
        <time>2022-07-31T06:36:12Z</time>
      </trkpt>
      <trkpt lat="47.16101" lon="-1.68923">
        <ele>76</ele>
        <time>2022-07-31T06:36:14Z</time>
      </trkpt>
      <trkpt lat="47.16106" lon="-1.6894">
        <ele>76</ele>
        <time>2022-07-31T06:36:16Z</time>
      </trkpt>
      <trkpt lat="47.16112" lon="-1.68959">
        <ele>76</ele>
        <time>2022-07-31T06:36:18Z</time>
      </trkpt>
      <trkpt lat="47.16117" lon="-1.68978">
        <ele>75</ele>
        <time>2022-07-31T06:36:20Z</time>
      </trkpt>
      <trkpt lat="47.16122" lon="-1.68997">
        <ele>75</ele>
        <time>2022-07-31T06:36:22Z</time>
      </trkpt>
      <trkpt lat="47.16128" lon="-1.69017">
        <ele>74</ele>
        <time>2022-07-31T06:36:24Z</time>
      </trkpt>
      <trkpt lat="47.16133" lon="-1.69038">
        <ele>74</ele>
        <time>2022-07-31T06:36:26Z</time>
      </trkpt>
      <trkpt lat="47.16137" lon="-1.69059">
        <ele>74</ele>
        <time>2022-07-31T06:36:28Z</time>
      </trkpt>
      <trkpt lat="47.1614" lon="-1.6908">
        <ele>74</ele>
        <time>2022-07-31T06:36:30Z</time>
      </trkpt>
      <trkpt lat="47.16143" lon="-1.69101">
        <ele>73</ele>
        <time>2022-07-31T06:36:32Z</time>
      </trkpt>
      <trkpt lat="47.16144" lon="-1.69122">
        <ele>73</ele>
        <time>2022-07-31T06:36:34Z</time>
      </trkpt>
      <trkpt lat="47.16145" lon="-1.69142">
        <ele>74</ele>
        <time>2022-07-31T06:36:36Z</time>
      </trkpt>
      <trkpt lat="47.16145" lon="-1.69161">
        <ele>73</ele>
        <time>2022-07-31T06:36:38Z</time>
      </trkpt>
      <trkpt lat="47.16144" lon="-1.69183">
        <ele>74</ele>
        <time>2022-07-31T06:36:40Z</time>
      </trkpt>
      <trkpt lat="47.16142" lon="-1.69204">
        <ele>73</ele>
        <time>2022-07-31T06:36:42Z</time>
      </trkpt>
      <trkpt lat="47.1614" lon="-1.69226">
        <ele>72</ele>
        <time>2022-07-31T06:36:44Z</time>
      </trkpt>
      <trkpt lat="47.16138" lon="-1.69248">
        <ele>72</ele>
        <time>2022-07-31T06:36:46Z</time>
      </trkpt>
      <trkpt lat="47.16136" lon="-1.69269">
        <ele>72</ele>
        <time>2022-07-31T06:36:48Z</time>
      </trkpt>
      <trkpt lat="47.16134" lon="-1.6929">
        <ele>73</ele>
        <time>2022-07-31T06:36:50Z</time>
      </trkpt>
      <trkpt lat="47.16131" lon="-1.69311">
        <ele>72</ele>
        <time>2022-07-31T06:36:52Z</time>
      </trkpt>
      <trkpt lat="47.16128" lon="-1.69331">
        <ele>73</ele>
        <time>2022-07-31T06:36:54Z</time>
      </trkpt>
      <trkpt lat="47.16125" lon="-1.6935">
        <ele>73</ele>
        <time>2022-07-31T06:36:56Z</time>
      </trkpt>
      <trkpt lat="47.16123" lon="-1.69369">
        <ele>73</ele>
        <time>2022-07-31T06:36:58Z</time>
      </trkpt>
      <trkpt lat="47.16121" lon="-1.69388">
        <ele>73</ele>
        <time>2022-07-31T06:37:00Z</time>
      </trkpt>
      <trkpt lat="47.16119" lon="-1.69406">
        <ele>73</ele>
        <time>2022-07-31T06:37:02Z</time>
      </trkpt>
      <trkpt lat="47.16118" lon="-1.69424">
        <ele>74</ele>
        <time>2022-07-31T06:37:04Z</time>
      </trkpt>
      <trkpt lat="47.16117" lon="-1.69441">
        <ele>74</ele>
        <time>2022-07-31T06:37:06Z</time>
      </trkpt>
      <trkpt lat="47.16116" lon="-1.6946">
        <ele>74</ele>
        <time>2022-07-31T06:37:08Z</time>
      </trkpt>
      <trkpt lat="47.16115" lon="-1.69478">
        <ele>74</ele>
        <time>2022-07-31T06:37:10Z</time>
      </trkpt>
      <trkpt lat="47.16113" lon="-1.69496">
        <ele>74</ele>
        <time>2022-07-31T06:37:12Z</time>
      </trkpt>
      <trkpt lat="47.16112" lon="-1.69514">
        <ele>74</ele>
        <time>2022-07-31T06:37:14Z</time>
      </trkpt>
      <trkpt lat="47.16111" lon="-1.69532">
        <ele>74</ele>
        <time>2022-07-31T06:37:16Z</time>
      </trkpt>
      <trkpt lat="47.1611" lon="-1.6955">
        <ele>75</ele>
        <time>2022-07-31T06:37:18Z</time>
      </trkpt>
      <trkpt lat="47.16108" lon="-1.69568">
        <ele>75</ele>
        <time>2022-07-31T06:37:20Z</time>
      </trkpt>
      <trkpt lat="47.16107" lon="-1.69587">
        <ele>75</ele>
        <time>2022-07-31T06:37:22Z</time>
      </trkpt>
      <trkpt lat="47.16106" lon="-1.69605">
        <ele>76</ele>
        <time>2022-07-31T06:37:24Z</time>
      </trkpt>
      <trkpt lat="47.16105" lon="-1.69623">
        <ele>76</ele>
        <time>2022-07-31T06:37:26Z</time>
      </trkpt>
      <trkpt lat="47.16104" lon="-1.69642">
        <ele>76</ele>
        <time>2022-07-31T06:37:28Z</time>
      </trkpt>
      <trkpt lat="47.16103" lon="-1.69661">
        <ele>76</ele>
        <time>2022-07-31T06:37:30Z</time>
      </trkpt>
      <trkpt lat="47.16102" lon="-1.69678">
        <ele>76</ele>
        <time>2022-07-31T06:37:32Z</time>
      </trkpt>
      <trkpt lat="47.16101" lon="-1.69697">
        <ele>76</ele>
        <time>2022-07-31T06:37:34Z</time>
      </trkpt>
      <trkpt lat="47.16099" lon="-1.69717">
        <ele>76</ele>
        <time>2022-07-31T06:37:36Z</time>
      </trkpt>
      <trkpt lat="47.16098" lon="-1.69736">
        <ele>76</ele>
        <time>2022-07-31T06:37:38Z</time>
      </trkpt>
      <trkpt lat="47.16097" lon="-1.69755">
        <ele>77</ele>
        <time>2022-07-31T06:37:40Z</time>
      </trkpt>
      <trkpt lat="47.16095" lon="-1.69773">
        <ele>77</ele>
        <time>2022-07-31T06:37:42Z</time>
      </trkpt>
      <trkpt lat="47.16094" lon="-1.69792">
        <ele>77</ele>
        <time>2022-07-31T06:37:44Z</time>
      </trkpt>
      <trkpt lat="47.16093" lon="-1.69811">
        <ele>77</ele>
        <time>2022-07-31T06:37:46Z</time>
      </trkpt>
      <trkpt lat="47.16092" lon="-1.6983">
        <ele>77</ele>
        <time>2022-07-31T06:37:48Z</time>
      </trkpt>
      <trkpt lat="47.1609" lon="-1.69849">
        <ele>77</ele>
        <time>2022-07-31T06:37:50Z</time>
      </trkpt>
      <trkpt lat="47.16088" lon="-1.69867">
        <ele>77</ele>
        <time>2022-07-31T06:37:52Z</time>
      </trkpt>
      <trkpt lat="47.16086" lon="-1.69885">
        <ele>78</ele>
        <time>2022-07-31T06:37:54Z</time>
      </trkpt>
      <trkpt lat="47.16085" lon="-1.69905">
        <ele>78</ele>
        <time>2022-07-31T06:37:56Z</time>
      </trkpt>
      <trkpt lat="47.16084" lon="-1.69923">
        <ele>78</ele>
        <time>2022-07-31T06:37:58Z</time>
      </trkpt>
      <trkpt lat="47.16082" lon="-1.69942">
        <ele>78</ele>
        <time>2022-07-31T06:38:00Z</time>
      </trkpt>
      <trkpt lat="47.1608" lon="-1.69962">
        <ele>78</ele>
        <time>2022-07-31T06:38:02Z</time>
      </trkpt>
      <trkpt lat="47.16079" lon="-1.69981">
        <ele>77</ele>
        <time>2022-07-31T06:38:04Z</time>
      </trkpt>
      <trkpt lat="47.16077" lon="-1.70001">
        <ele>78</ele>
        <time>2022-07-31T06:38:06Z</time>
      </trkpt>
      <trkpt lat="47.16077" lon="-1.7002">
        <ele>77</ele>
        <time>2022-07-31T06:38:08Z</time>
      </trkpt>
      <trkpt lat="47.16075" lon="-1.70039">
        <ele>77</ele>
        <time>2022-07-31T06:38:10Z</time>
      </trkpt>
      <trkpt lat="47.16075" lon="-1.7006">
        <ele>77</ele>
        <time>2022-07-31T06:38:12Z</time>
      </trkpt>
      <trkpt lat="47.16073" lon="-1.70082">
        <ele>76</ele>
        <time>2022-07-31T06:38:14Z</time>
      </trkpt>
      <trkpt lat="47.16071" lon="-1.70101">
        <ele>77</ele>
        <time>2022-07-31T06:38:16Z</time>
      </trkpt>
      <trkpt lat="47.16068" lon="-1.7012">
        <ele>76</ele>
        <time>2022-07-31T06:38:18Z</time>
      </trkpt>
      <trkpt lat="47.16064" lon="-1.70138">
        <ele>76</ele>
        <time>2022-07-31T06:38:20Z</time>
      </trkpt>
      <trkpt lat="47.16058" lon="-1.70156">
        <ele>76</ele>
        <time>2022-07-31T06:38:22Z</time>
      </trkpt>
      <trkpt lat="47.16051" lon="-1.70172">
        <ele>76</ele>
        <time>2022-07-31T06:38:24Z</time>
      </trkpt>
      <trkpt lat="47.16044" lon="-1.70188">
        <ele>76</ele>
        <time>2022-07-31T06:38:26Z</time>
      </trkpt>
      <trkpt lat="47.16037" lon="-1.70205">
        <ele>76</ele>
        <time>2022-07-31T06:38:28Z</time>
      </trkpt>
      <trkpt lat="47.1603" lon="-1.70221">
        <ele>76</ele>
        <time>2022-07-31T06:38:30Z</time>
      </trkpt>
      <trkpt lat="47.16022" lon="-1.70237">
        <ele>76</ele>
        <time>2022-07-31T06:38:32Z</time>
      </trkpt>
      <trkpt lat="47.16015" lon="-1.70253">
        <ele>76</ele>
        <time>2022-07-31T06:38:34Z</time>
      </trkpt>
      <trkpt lat="47.16008" lon="-1.7027">
        <ele>76</ele>
        <time>2022-07-31T06:38:36Z</time>
      </trkpt>
      <trkpt lat="47.16001" lon="-1.70286">
        <ele>76</ele>
        <time>2022-07-31T06:38:38Z</time>
      </trkpt>
      <trkpt lat="47.15994" lon="-1.70302">
        <ele>77</ele>
        <time>2022-07-31T06:38:40Z</time>
      </trkpt>
      <trkpt lat="47.15987" lon="-1.70318">
        <ele>77</ele>
        <time>2022-07-31T06:38:42Z</time>
      </trkpt>
      <trkpt lat="47.15979" lon="-1.70335">
        <ele>77</ele>
        <time>2022-07-31T06:38:44Z</time>
      </trkpt>
      <trkpt lat="47.15972" lon="-1.70351">
        <ele>78</ele>
        <time>2022-07-31T06:38:46Z</time>
      </trkpt>
      <trkpt lat="47.15964" lon="-1.70368">
        <ele>78</ele>
        <time>2022-07-31T06:38:48Z</time>
      </trkpt>
      <trkpt lat="47.15957" lon="-1.70385">
        <ele>78</ele>
        <time>2022-07-31T06:38:50Z</time>
      </trkpt>
      <trkpt lat="47.15949" lon="-1.70403">
        <ele>77</ele>
        <time>2022-07-31T06:38:52Z</time>
      </trkpt>
      <trkpt lat="47.15941" lon="-1.7042">
        <ele>76</ele>
        <time>2022-07-31T06:38:54Z</time>
      </trkpt>
      <trkpt lat="47.15933" lon="-1.70437">
        <ele>76</ele>
        <time>2022-07-31T06:38:56Z</time>
      </trkpt>
      <trkpt lat="47.15925" lon="-1.70453">
        <ele>76</ele>
        <time>2022-07-31T06:38:58Z</time>
      </trkpt>
      <trkpt lat="47.15918" lon="-1.70468">
        <ele>75</ele>
        <time>2022-07-31T06:39:00Z</time>
      </trkpt>
      <trkpt lat="47.1591" lon="-1.70484">
        <ele>74</ele>
        <time>2022-07-31T06:39:02Z</time>
      </trkpt>
      <trkpt lat="47.15901" lon="-1.705">
        <ele>74</ele>
        <time>2022-07-31T06:39:04Z</time>
      </trkpt>
      <trkpt lat="47.15895" lon="-1.70518">
        <ele>74</ele>
        <time>2022-07-31T06:39:06Z</time>
      </trkpt>
      <trkpt lat="47.15889" lon="-1.70535">
        <ele>73</ele>
        <time>2022-07-31T06:39:08Z</time>
      </trkpt>
      <trkpt lat="47.15884" lon="-1.70553">
        <ele>74</ele>
        <time>2022-07-31T06:39:10Z</time>
      </trkpt>
      <trkpt lat="47.15879" lon="-1.7057">
        <ele>74</ele>
        <time>2022-07-31T06:39:12Z</time>
      </trkpt>
      <trkpt lat="47.15874" lon="-1.70587">
        <ele>74</ele>
        <time>2022-07-31T06:39:14Z</time>
      </trkpt>
      <trkpt lat="47.1587" lon="-1.70604">
        <ele>74</ele>
        <time>2022-07-31T06:39:16Z</time>
      </trkpt>
      <trkpt lat="47.15865" lon="-1.70621">
        <ele>74</ele>
        <time>2022-07-31T06:39:18Z</time>
      </trkpt>
      <trkpt lat="47.15859" lon="-1.70638">
        <ele>74</ele>
        <time>2022-07-31T06:39:20Z</time>
      </trkpt>
      <trkpt lat="47.15854" lon="-1.70655">
        <ele>74</ele>
        <time>2022-07-31T06:39:22Z</time>
      </trkpt>
      <trkpt lat="47.15847" lon="-1.70671">
        <ele>74</ele>
        <time>2022-07-31T06:39:24Z</time>
      </trkpt>
      <trkpt lat="47.1584" lon="-1.70686">
        <ele>74</ele>
        <time>2022-07-31T06:39:26Z</time>
      </trkpt>
      <trkpt lat="47.15833" lon="-1.70702">
        <ele>74</ele>
        <time>2022-07-31T06:39:28Z</time>
      </trkpt>
      <trkpt lat="47.15826" lon="-1.70717">
        <ele>74</ele>
        <time>2022-07-31T06:39:30Z</time>
      </trkpt>
      <trkpt lat="47.15819" lon="-1.70733">
        <ele>74</ele>
        <time>2022-07-31T06:39:32Z</time>
      </trkpt>
      <trkpt lat="47.15812" lon="-1.70749">
        <ele>74</ele>
        <time>2022-07-31T06:39:34Z</time>
      </trkpt>
      <trkpt lat="47.15804" lon="-1.70765">
        <ele>74</ele>
        <time>2022-07-31T06:39:36Z</time>
      </trkpt>
      <trkpt lat="47.15797" lon="-1.7078">
        <ele>74</ele>
        <time>2022-07-31T06:39:38Z</time>
      </trkpt>
      <trkpt lat="47.1579" lon="-1.70796">
        <ele>74</ele>
        <time>2022-07-31T06:39:40Z</time>
      </trkpt>
      <trkpt lat="47.15783" lon="-1.70811">
        <ele>74</ele>
        <time>2022-07-31T06:39:42Z</time>
      </trkpt>
      <trkpt lat="47.15775" lon="-1.70826">
        <ele>75</ele>
        <time>2022-07-31T06:39:44Z</time>
      </trkpt>
      <trkpt lat="47.15767" lon="-1.7084">
        <ele>75</ele>
        <time>2022-07-31T06:39:46Z</time>
      </trkpt>
      <trkpt lat="47.1576" lon="-1.70856">
        <ele>75</ele>
        <time>2022-07-31T06:39:48Z</time>
      </trkpt>
      <trkpt lat="47.15752" lon="-1.70871">
        <ele>75</ele>
        <time>2022-07-31T06:39:50Z</time>
      </trkpt>
      <trkpt lat="47.15744" lon="-1.70885">
        <ele>75</ele>
        <time>2022-07-31T06:39:52Z</time>
      </trkpt>
      <trkpt lat="47.15736" lon="-1.709">
        <ele>75</ele>
        <time>2022-07-31T06:39:54Z</time>
      </trkpt>
      <trkpt lat="47.15727" lon="-1.70914">
        <ele>75</ele>
        <time>2022-07-31T06:39:56Z</time>
      </trkpt>
      <trkpt lat="47.15719" lon="-1.70928">
        <ele>75</ele>
        <time>2022-07-31T06:39:58Z</time>
      </trkpt>
      <trkpt lat="47.15711" lon="-1.70943">
        <ele>75</ele>
        <time>2022-07-31T06:40:00Z</time>
      </trkpt>
      <trkpt lat="47.15704" lon="-1.70958">
        <ele>75</ele>
        <time>2022-07-31T06:40:02Z</time>
      </trkpt>
      <trkpt lat="47.15696" lon="-1.70974">
        <ele>75</ele>
        <time>2022-07-31T06:40:04Z</time>
      </trkpt>
      <trkpt lat="47.1569" lon="-1.70989">
        <ele>75</ele>
        <time>2022-07-31T06:40:06Z</time>
      </trkpt>
      <trkpt lat="47.15683" lon="-1.71004">
        <ele>75</ele>
        <time>2022-07-31T06:40:08Z</time>
      </trkpt>
      <trkpt lat="47.15676" lon="-1.7102">
        <ele>75</ele>
        <time>2022-07-31T06:40:10Z</time>
      </trkpt>
      <trkpt lat="47.15669" lon="-1.71034">
        <ele>75</ele>
        <time>2022-07-31T06:40:12Z</time>
      </trkpt>
      <trkpt lat="47.15663" lon="-1.71047">
        <ele>75</ele>
        <time>2022-07-31T06:40:14Z</time>
      </trkpt>
      <trkpt lat="47.15657" lon="-1.7106">
        <ele>74</ele>
        <time>2022-07-31T06:40:16Z</time>
      </trkpt>
      <trkpt lat="47.15648" lon="-1.71068">
        <ele>75</ele>
        <time>2022-07-31T06:40:18Z</time>
      </trkpt>
      <trkpt lat="47.15637" lon="-1.71075">
        <ele>75</ele>
        <time>2022-07-31T06:40:20Z</time>
      </trkpt>
      <trkpt lat="47.15628" lon="-1.71089">
        <ele>75</ele>
        <time>2022-07-31T06:40:22Z</time>
      </trkpt>
      <trkpt lat="47.1562" lon="-1.71103">
        <ele>75</ele>
        <time>2022-07-31T06:40:24Z</time>
      </trkpt>
      <trkpt lat="47.15612" lon="-1.71119">
        <ele>75</ele>
        <time>2022-07-31T06:40:26Z</time>
      </trkpt>
      <trkpt lat="47.15604" lon="-1.71133">
        <ele>75</ele>
        <time>2022-07-31T06:40:28Z</time>
      </trkpt>
      <trkpt lat="47.15596" lon="-1.71147">
        <ele>75</ele>
        <time>2022-07-31T06:40:30Z</time>
      </trkpt>
      <trkpt lat="47.15587" lon="-1.71161">
        <ele>75</ele>
        <time>2022-07-31T06:40:32Z</time>
      </trkpt>
      <trkpt lat="47.15579" lon="-1.71175">
        <ele>75</ele>
        <time>2022-07-31T06:40:34Z</time>
      </trkpt>
      <trkpt lat="47.1557" lon="-1.71189">
        <ele>75</ele>
        <time>2022-07-31T06:40:36Z</time>
      </trkpt>
      <trkpt lat="47.15561" lon="-1.71204">
        <ele>75</ele>
        <time>2022-07-31T06:40:38Z</time>
      </trkpt>
      <trkpt lat="47.15554" lon="-1.7122">
        <ele>75</ele>
        <time>2022-07-31T06:40:40Z</time>
      </trkpt>
      <trkpt lat="47.15547" lon="-1.71236">
        <ele>75</ele>
        <time>2022-07-31T06:40:42Z</time>
      </trkpt>
      <trkpt lat="47.1554" lon="-1.71253">
        <ele>75</ele>
        <time>2022-07-31T06:40:44Z</time>
      </trkpt>
      <trkpt lat="47.15533" lon="-1.71269">
        <ele>75</ele>
        <time>2022-07-31T06:40:46Z</time>
      </trkpt>
      <trkpt lat="47.15526" lon="-1.71285">
        <ele>75</ele>
        <time>2022-07-31T06:40:48Z</time>
      </trkpt>
      <trkpt lat="47.15519" lon="-1.71301">
        <ele>75</ele>
        <time>2022-07-31T06:40:50Z</time>
      </trkpt>
      <trkpt lat="47.15511" lon="-1.71316">
        <ele>75</ele>
        <time>2022-07-31T06:40:52Z</time>
      </trkpt>
      <trkpt lat="47.15503" lon="-1.71332">
        <ele>75</ele>
        <time>2022-07-31T06:40:54Z</time>
      </trkpt>
      <trkpt lat="47.15494" lon="-1.71346">
        <ele>75</ele>
        <time>2022-07-31T06:40:56Z</time>
      </trkpt>
      <trkpt lat="47.15485" lon="-1.71361">
        <ele>75</ele>
        <time>2022-07-31T06:40:58Z</time>
      </trkpt>
      <trkpt lat="47.15476" lon="-1.71374">
        <ele>75</ele>
        <time>2022-07-31T06:41:00Z</time>
      </trkpt>
      <trkpt lat="47.15466" lon="-1.71387">
        <ele>75</ele>
        <time>2022-07-31T06:41:02Z</time>
      </trkpt>
      <trkpt lat="47.15455" lon="-1.71399">
        <ele>75</ele>
        <time>2022-07-31T06:41:04Z</time>
      </trkpt>
      <trkpt lat="47.15444" lon="-1.7141">
        <ele>75</ele>
        <time>2022-07-31T06:41:06Z</time>
      </trkpt>
      <trkpt lat="47.15433" lon="-1.71421">
        <ele>75</ele>
        <time>2022-07-31T06:41:08Z</time>
      </trkpt>
      <trkpt lat="47.15417" lon="-1.71437">
        <ele>74</ele>
        <time>2022-07-31T06:41:11Z</time>
      </trkpt>
      <trkpt lat="47.15399" lon="-1.71453">
        <ele>74</ele>
        <time>2022-07-31T06:41:14Z</time>
      </trkpt>
      <trkpt lat="47.15381" lon="-1.71468">
        <ele>74</ele>
        <time>2022-07-31T06:41:17Z</time>
      </trkpt>
      <trkpt lat="47.1537" lon="-1.71478">
        <ele>74</ele>
        <time>2022-07-31T06:41:19Z</time>
      </trkpt>
      <trkpt lat="47.15358" lon="-1.71489">
        <ele>74</ele>
        <time>2022-07-31T06:41:21Z</time>
      </trkpt>
      <trkpt lat="47.15347" lon="-1.71501">
        <ele>74</ele>
        <time>2022-07-31T06:41:23Z</time>
      </trkpt>
      <trkpt lat="47.1533" lon="-1.71519">
        <ele>73</ele>
        <time>2022-07-31T06:41:26Z</time>
      </trkpt>
      <trkpt lat="47.15313" lon="-1.71538">
        <ele>72</ele>
        <time>2022-07-31T06:41:29Z</time>
      </trkpt>
      <trkpt lat="47.15295" lon="-1.71556">
        <ele>72</ele>
        <time>2022-07-31T06:41:32Z</time>
      </trkpt>
      <trkpt lat="47.15284" lon="-1.71569">
        <ele>72</ele>
        <time>2022-07-31T06:41:34Z</time>
      </trkpt>
      <trkpt lat="47.15267" lon="-1.71588">
        <ele>72</ele>
        <time>2022-07-31T06:41:37Z</time>
      </trkpt>
      <trkpt lat="47.1525" lon="-1.7161">
        <ele>72</ele>
        <time>2022-07-31T06:41:40Z</time>
      </trkpt>
      <trkpt lat="47.15241" lon="-1.71623">
        <ele>71</ele>
        <time>2022-07-31T06:41:42Z</time>
      </trkpt>
      <trkpt lat="47.15228" lon="-1.71623">
        <ele>72</ele>
        <time>2022-07-31T06:41:44Z</time>
      </trkpt>
      <trkpt lat="47.15216" lon="-1.71613">
        <ele>72</ele>
        <time>2022-07-31T06:41:46Z</time>
      </trkpt>
      <trkpt lat="47.15204" lon="-1.71604">
        <ele>72</ele>
        <time>2022-07-31T06:41:48Z</time>
      </trkpt>
      <trkpt lat="47.15193" lon="-1.71596">
        <ele>72</ele>
        <time>2022-07-31T06:41:50Z</time>
      </trkpt>
      <trkpt lat="47.15182" lon="-1.71587">
        <ele>72</ele>
        <time>2022-07-31T06:41:52Z</time>
      </trkpt>
      <trkpt lat="47.1517" lon="-1.71579">
        <ele>72</ele>
        <time>2022-07-31T06:41:54Z</time>
      </trkpt>
      <trkpt lat="47.15159" lon="-1.7157">
        <ele>72</ele>
        <time>2022-07-31T06:41:56Z</time>
      </trkpt>
      <trkpt lat="47.15147" lon="-1.71561">
        <ele>72</ele>
        <time>2022-07-31T06:41:58Z</time>
      </trkpt>
      <trkpt lat="47.15135" lon="-1.71551">
        <ele>72</ele>
        <time>2022-07-31T06:42:00Z</time>
      </trkpt>
      <trkpt lat="47.15123" lon="-1.71542">
        <ele>72</ele>
        <time>2022-07-31T06:42:02Z</time>
      </trkpt>
      <trkpt lat="47.15112" lon="-1.71532">
        <ele>73</ele>
        <time>2022-07-31T06:42:04Z</time>
      </trkpt>
      <trkpt lat="47.15102" lon="-1.71522">
        <ele>73</ele>
        <time>2022-07-31T06:42:06Z</time>
      </trkpt>
      <trkpt lat="47.15093" lon="-1.71512">
        <ele>73</ele>
        <time>2022-07-31T06:42:08Z</time>
      </trkpt>
      <trkpt lat="47.15083" lon="-1.71501">
        <ele>73</ele>
        <time>2022-07-31T06:42:10Z</time>
      </trkpt>
      <trkpt lat="47.15071" lon="-1.7149">
        <ele>73</ele>
        <time>2022-07-31T06:42:12Z</time>
      </trkpt>
      <trkpt lat="47.1506" lon="-1.7148">
        <ele>73</ele>
        <time>2022-07-31T06:42:14Z</time>
      </trkpt>
      <trkpt lat="47.15048" lon="-1.71469">
        <ele>72</ele>
        <time>2022-07-31T06:42:16Z</time>
      </trkpt>
      <trkpt lat="47.15038" lon="-1.71458">
        <ele>72</ele>
        <time>2022-07-31T06:42:18Z</time>
      </trkpt>
      <trkpt lat="47.15027" lon="-1.71448">
        <ele>72</ele>
        <time>2022-07-31T06:42:20Z</time>
      </trkpt>
      <trkpt lat="47.15017" lon="-1.71438">
        <ele>72</ele>
        <time>2022-07-31T06:42:22Z</time>
      </trkpt>
      <trkpt lat="47.15007" lon="-1.71427">
        <ele>72</ele>
        <time>2022-07-31T06:42:24Z</time>
      </trkpt>
      <trkpt lat="47.14996" lon="-1.71417">
        <ele>72</ele>
        <time>2022-07-31T06:42:26Z</time>
      </trkpt>
      <trkpt lat="47.14985" lon="-1.71407">
        <ele>72</ele>
        <time>2022-07-31T06:42:28Z</time>
      </trkpt>
      <trkpt lat="47.14975" lon="-1.71397">
        <ele>73</ele>
        <time>2022-07-31T06:42:30Z</time>
      </trkpt>
      <trkpt lat="47.14965" lon="-1.71386">
        <ele>73</ele>
        <time>2022-07-31T06:42:32Z</time>
      </trkpt>
      <trkpt lat="47.14954" lon="-1.71376">
        <ele>73</ele>
        <time>2022-07-31T06:42:34Z</time>
      </trkpt>
      <trkpt lat="47.14945" lon="-1.71365">
        <ele>73</ele>
        <time>2022-07-31T06:42:36Z</time>
      </trkpt>
      <trkpt lat="47.14935" lon="-1.71353">
        <ele>74</ele>
        <time>2022-07-31T06:42:38Z</time>
      </trkpt>
      <trkpt lat="47.14926" lon="-1.71341">
        <ele>74</ele>
        <time>2022-07-31T06:42:40Z</time>
      </trkpt>
      <trkpt lat="47.14915" lon="-1.71329">
        <ele>74</ele>
        <time>2022-07-31T06:42:42Z</time>
      </trkpt>
      <trkpt lat="47.14906" lon="-1.71318">
        <ele>74</ele>
        <time>2022-07-31T06:42:44Z</time>
      </trkpt>
      <trkpt lat="47.14897" lon="-1.71306">
        <ele>74</ele>
        <time>2022-07-31T06:42:46Z</time>
      </trkpt>
      <trkpt lat="47.14888" lon="-1.71295">
        <ele>74</ele>
        <time>2022-07-31T06:42:48Z</time>
      </trkpt>
      <trkpt lat="47.14877" lon="-1.71286">
        <ele>74</ele>
        <time>2022-07-31T06:42:50Z</time>
      </trkpt>
      <trkpt lat="47.14866" lon="-1.71276">
        <ele>74</ele>
        <time>2022-07-31T06:42:52Z</time>
      </trkpt>
      <trkpt lat="47.14857" lon="-1.71263">
        <ele>74</ele>
        <time>2022-07-31T06:42:54Z</time>
      </trkpt>
      <trkpt lat="47.1485" lon="-1.71249">
        <ele>74</ele>
        <time>2022-07-31T06:42:56Z</time>
      </trkpt>
      <trkpt lat="47.14843" lon="-1.71232">
        <ele>74</ele>
        <time>2022-07-31T06:42:58Z</time>
      </trkpt>
      <trkpt lat="47.14837" lon="-1.71216">
        <ele>74</ele>
        <time>2022-07-31T06:43:00Z</time>
      </trkpt>
      <trkpt lat="47.14831" lon="-1.71199">
        <ele>74</ele>
        <time>2022-07-31T06:43:02Z</time>
      </trkpt>
      <trkpt lat="47.14825" lon="-1.71183">
        <ele>75</ele>
        <time>2022-07-31T06:43:04Z</time>
      </trkpt>
      <trkpt lat="47.14819" lon="-1.71167">
        <ele>75</ele>
        <time>2022-07-31T06:43:06Z</time>
      </trkpt>
      <trkpt lat="47.14813" lon="-1.71151">
        <ele>75</ele>
        <time>2022-07-31T06:43:08Z</time>
      </trkpt>
      <trkpt lat="47.14807" lon="-1.71136">
        <ele>75</ele>
        <time>2022-07-31T06:43:10Z</time>
      </trkpt>
      <trkpt lat="47.148" lon="-1.71121">
        <ele>75</ele>
        <time>2022-07-31T06:43:12Z</time>
      </trkpt>
      <trkpt lat="47.14793" lon="-1.71105">
        <ele>75</ele>
        <time>2022-07-31T06:43:14Z</time>
      </trkpt>
      <trkpt lat="47.14786" lon="-1.7109">
        <ele>75</ele>
        <time>2022-07-31T06:43:16Z</time>
      </trkpt>
      <trkpt lat="47.1478" lon="-1.71074">
        <ele>76</ele>
        <time>2022-07-31T06:43:18Z</time>
      </trkpt>
      <trkpt lat="47.14774" lon="-1.71057">
        <ele>76</ele>
        <time>2022-07-31T06:43:20Z</time>
      </trkpt>
      <trkpt lat="47.14768" lon="-1.7104">
        <ele>75</ele>
        <time>2022-07-31T06:43:22Z</time>
      </trkpt>
      <trkpt lat="47.14763" lon="-1.71023">
        <ele>75</ele>
        <time>2022-07-31T06:43:24Z</time>
      </trkpt>
      <trkpt lat="47.14758" lon="-1.71005">
        <ele>75</ele>
        <time>2022-07-31T06:43:26Z</time>
      </trkpt>
      <trkpt lat="47.14752" lon="-1.70989">
        <ele>75</ele>
        <time>2022-07-31T06:43:28Z</time>
      </trkpt>
      <trkpt lat="47.14743" lon="-1.7098">
        <ele>75</ele>
        <time>2022-07-31T06:43:30Z</time>
      </trkpt>
      <trkpt lat="47.14733" lon="-1.70988">
        <ele>74</ele>
        <time>2022-07-31T06:43:32Z</time>
      </trkpt>
      <trkpt lat="47.14724" lon="-1.71001">
        <ele>75</ele>
        <time>2022-07-31T06:43:34Z</time>
      </trkpt>
      <trkpt lat="47.14717" lon="-1.71016">
        <ele>76</ele>
        <time>2022-07-31T06:43:36Z</time>
      </trkpt>
      <trkpt lat="47.14713" lon="-1.71034">
        <ele>76</ele>
        <time>2022-07-31T06:43:38Z</time>
      </trkpt>
      <trkpt lat="47.14713" lon="-1.71053">
        <ele>76</ele>
        <time>2022-07-31T06:43:40Z</time>
      </trkpt>
      <trkpt lat="47.14716" lon="-1.71072">
        <ele>76</ele>
        <time>2022-07-31T06:43:42Z</time>
      </trkpt>
      <trkpt lat="47.14718" lon="-1.71089">
        <ele>75</ele>
        <time>2022-07-31T06:43:44Z</time>
      </trkpt>
      <trkpt lat="47.1472" lon="-1.71105">
        <ele>75</ele>
        <time>2022-07-31T06:43:46Z</time>
      </trkpt>
      <trkpt lat="47.14723" lon="-1.71122">
        <ele>76</ele>
        <time>2022-07-31T06:43:48Z</time>
      </trkpt>
      <trkpt lat="47.14725" lon="-1.71139">
        <ele>76</ele>
        <time>2022-07-31T06:43:50Z</time>
      </trkpt>
      <trkpt lat="47.14728" lon="-1.71156">
        <ele>76</ele>
        <time>2022-07-31T06:43:52Z</time>
      </trkpt>
      <trkpt lat="47.14731" lon="-1.71174">
        <ele>76</ele>
        <time>2022-07-31T06:43:54Z</time>
      </trkpt>
      <trkpt lat="47.14734" lon="-1.71191">
        <ele>76</ele>
        <time>2022-07-31T06:43:56Z</time>
      </trkpt>
      <trkpt lat="47.14739" lon="-1.71207">
        <ele>76</ele>
        <time>2022-07-31T06:43:58Z</time>
      </trkpt>
      <trkpt lat="47.14743" lon="-1.71224">
        <ele>77</ele>
        <time>2022-07-31T06:44:00Z</time>
      </trkpt>
      <trkpt lat="47.14747" lon="-1.7124">
        <ele>77</ele>
        <time>2022-07-31T06:44:02Z</time>
      </trkpt>
      <trkpt lat="47.14752" lon="-1.71256">
        <ele>77</ele>
        <time>2022-07-31T06:44:04Z</time>
      </trkpt>
      <trkpt lat="47.14756" lon="-1.71273">
        <ele>77</ele>
        <time>2022-07-31T06:44:06Z</time>
      </trkpt>
      <trkpt lat="47.14759" lon="-1.71291">
        <ele>77</ele>
        <time>2022-07-31T06:44:08Z</time>
      </trkpt>
      <trkpt lat="47.14763" lon="-1.71307">
        <ele>77</ele>
        <time>2022-07-31T06:44:10Z</time>
      </trkpt>
      <trkpt lat="47.14766" lon="-1.71323">
        <ele>78</ele>
        <time>2022-07-31T06:44:12Z</time>
      </trkpt>
      <trkpt lat="47.14769" lon="-1.7134">
        <ele>78</ele>
        <time>2022-07-31T06:44:14Z</time>
      </trkpt>
      <trkpt lat="47.14771" lon="-1.71357">
        <ele>79</ele>
        <time>2022-07-31T06:44:16Z</time>
      </trkpt>
      <trkpt lat="47.14773" lon="-1.71374">
        <ele>79</ele>
        <time>2022-07-31T06:44:18Z</time>
      </trkpt>
      <trkpt lat="47.14776" lon="-1.71391">
        <ele>78</ele>
        <time>2022-07-31T06:44:20Z</time>
      </trkpt>
      <trkpt lat="47.14779" lon="-1.71408">
        <ele>78</ele>
        <time>2022-07-31T06:44:22Z</time>
      </trkpt>
      <trkpt lat="47.14781" lon="-1.71426">
        <ele>78</ele>
        <time>2022-07-31T06:44:24Z</time>
      </trkpt>
      <trkpt lat="47.14784" lon="-1.71444">
        <ele>77</ele>
        <time>2022-07-31T06:44:26Z</time>
      </trkpt>
      <trkpt lat="47.14786" lon="-1.71462">
        <ele>77</ele>
        <time>2022-07-31T06:44:28Z</time>
      </trkpt>
      <trkpt lat="47.14789" lon="-1.7148">
        <ele>77</ele>
        <time>2022-07-31T06:44:30Z</time>
      </trkpt>
      <trkpt lat="47.14792" lon="-1.71498">
        <ele>77</ele>
        <time>2022-07-31T06:44:32Z</time>
      </trkpt>
      <trkpt lat="47.14793" lon="-1.71516">
        <ele>77</ele>
        <time>2022-07-31T06:44:34Z</time>
      </trkpt>
      <trkpt lat="47.14794" lon="-1.71534">
        <ele>77</ele>
        <time>2022-07-31T06:44:36Z</time>
      </trkpt>
      <trkpt lat="47.14794" lon="-1.71551">
        <ele>77</ele>
        <time>2022-07-31T06:44:38Z</time>
      </trkpt>
      <trkpt lat="47.14793" lon="-1.7157">
        <ele>77</ele>
        <time>2022-07-31T06:44:40Z</time>
      </trkpt>
      <trkpt lat="47.14791" lon="-1.71588">
        <ele>77</ele>
        <time>2022-07-31T06:44:42Z</time>
      </trkpt>
      <trkpt lat="47.14789" lon="-1.71605">
        <ele>77</ele>
        <time>2022-07-31T06:44:44Z</time>
      </trkpt>
      <trkpt lat="47.14786" lon="-1.71623">
        <ele>77</ele>
        <time>2022-07-31T06:44:46Z</time>
      </trkpt>
      <trkpt lat="47.14783" lon="-1.7164">
        <ele>78</ele>
        <time>2022-07-31T06:44:48Z</time>
      </trkpt>
      <trkpt lat="47.14781" lon="-1.71658">
        <ele>78</ele>
        <time>2022-07-31T06:44:50Z</time>
      </trkpt>
      <trkpt lat="47.14778" lon="-1.71677">
        <ele>78</ele>
        <time>2022-07-31T06:44:52Z</time>
      </trkpt>
      <trkpt lat="47.14774" lon="-1.71694">
        <ele>78</ele>
        <time>2022-07-31T06:44:54Z</time>
      </trkpt>
      <trkpt lat="47.14772" lon="-1.71712">
        <ele>78</ele>
        <time>2022-07-31T06:44:56Z</time>
      </trkpt>
      <trkpt lat="47.14769" lon="-1.71729">
        <ele>78</ele>
        <time>2022-07-31T06:44:58Z</time>
      </trkpt>
      <trkpt lat="47.14765" lon="-1.71746">
        <ele>78</ele>
        <time>2022-07-31T06:45:00Z</time>
      </trkpt>
      <trkpt lat="47.14762" lon="-1.71764">
        <ele>78</ele>
        <time>2022-07-31T06:45:02Z</time>
      </trkpt>
      <trkpt lat="47.14757" lon="-1.7178">
        <ele>78</ele>
        <time>2022-07-31T06:45:04Z</time>
      </trkpt>
      <trkpt lat="47.1475" lon="-1.71795">
        <ele>78</ele>
        <time>2022-07-31T06:45:06Z</time>
      </trkpt>
      <trkpt lat="47.1474" lon="-1.71807">
        <ele>77</ele>
        <time>2022-07-31T06:45:08Z</time>
      </trkpt>
      <trkpt lat="47.14729" lon="-1.71818">
        <ele>77</ele>
        <time>2022-07-31T06:45:10Z</time>
      </trkpt>
      <trkpt lat="47.14718" lon="-1.71825">
        <ele>77</ele>
        <time>2022-07-31T06:45:12Z</time>
      </trkpt>
      <trkpt lat="47.14705" lon="-1.71832">
        <ele>77</ele>
        <time>2022-07-31T06:45:14Z</time>
      </trkpt>
      <trkpt lat="47.14692" lon="-1.71839">
        <ele>77</ele>
        <time>2022-07-31T06:45:16Z</time>
      </trkpt>
      <trkpt lat="47.14679" lon="-1.71846">
        <ele>76</ele>
        <time>2022-07-31T06:45:18Z</time>
      </trkpt>
      <trkpt lat="47.14666" lon="-1.71852">
        <ele>77</ele>
        <time>2022-07-31T06:45:20Z</time>
      </trkpt>
      <trkpt lat="47.14653" lon="-1.71856">
        <ele>77</ele>
        <time>2022-07-31T06:45:22Z</time>
      </trkpt>
      <trkpt lat="47.14639" lon="-1.71857">
        <ele>77</ele>
        <time>2022-07-31T06:45:24Z</time>
      </trkpt>
      <trkpt lat="47.14625" lon="-1.71857">
        <ele>76</ele>
        <time>2022-07-31T06:45:26Z</time>
      </trkpt>
      <trkpt lat="47.14611" lon="-1.71854">
        <ele>76</ele>
        <time>2022-07-31T06:45:28Z</time>
      </trkpt>
      <trkpt lat="47.14597" lon="-1.7185">
        <ele>76</ele>
        <time>2022-07-31T06:45:30Z</time>
      </trkpt>
      <trkpt lat="47.14584" lon="-1.71844">
        <ele>75</ele>
        <time>2022-07-31T06:45:32Z</time>
      </trkpt>
      <trkpt lat="47.14571" lon="-1.71838">
        <ele>75</ele>
        <time>2022-07-31T06:45:34Z</time>
      </trkpt>
      <trkpt lat="47.14558" lon="-1.71831">
        <ele>75</ele>
        <time>2022-07-31T06:45:36Z</time>
      </trkpt>
      <trkpt lat="47.14545" lon="-1.71824">
        <ele>75</ele>
        <time>2022-07-31T06:45:38Z</time>
      </trkpt>
      <trkpt lat="47.14531" lon="-1.71818">
        <ele>75</ele>
        <time>2022-07-31T06:45:40Z</time>
      </trkpt>
      <trkpt lat="47.14518" lon="-1.71812">
        <ele>75</ele>
        <time>2022-07-31T06:45:42Z</time>
      </trkpt>
      <trkpt lat="47.14504" lon="-1.71805">
        <ele>74</ele>
        <time>2022-07-31T06:45:44Z</time>
      </trkpt>
      <trkpt lat="47.14491" lon="-1.71799">
        <ele>74</ele>
        <time>2022-07-31T06:45:46Z</time>
      </trkpt>
      <trkpt lat="47.14478" lon="-1.71793">
        <ele>74</ele>
        <time>2022-07-31T06:45:48Z</time>
      </trkpt>
      <trkpt lat="47.14464" lon="-1.71788">
        <ele>74</ele>
        <time>2022-07-31T06:45:50Z</time>
      </trkpt>
      <trkpt lat="47.14451" lon="-1.71783">
        <ele>74</ele>
        <time>2022-07-31T06:45:52Z</time>
      </trkpt>
      <trkpt lat="47.14437" lon="-1.71781">
        <ele>74</ele>
        <time>2022-07-31T06:45:54Z</time>
      </trkpt>
      <trkpt lat="47.14423" lon="-1.71781">
        <ele>74</ele>
        <time>2022-07-31T06:45:56Z</time>
      </trkpt>
      <trkpt lat="47.14409" lon="-1.71782">
        <ele>74</ele>
        <time>2022-07-31T06:45:58Z</time>
      </trkpt>
      <trkpt lat="47.14395" lon="-1.71785">
        <ele>74</ele>
        <time>2022-07-31T06:46:00Z</time>
      </trkpt>
      <trkpt lat="47.14381" lon="-1.71789">
        <ele>74</ele>
        <time>2022-07-31T06:46:02Z</time>
      </trkpt>
      <trkpt lat="47.14368" lon="-1.71795">
        <ele>73</ele>
        <time>2022-07-31T06:46:04Z</time>
      </trkpt>
      <trkpt lat="47.14353" lon="-1.71799">
        <ele>73</ele>
        <time>2022-07-31T06:46:06Z</time>
      </trkpt>
      <trkpt lat="47.1434" lon="-1.71804">
        <ele>74</ele>
        <time>2022-07-31T06:46:08Z</time>
      </trkpt>
      <trkpt lat="47.14326" lon="-1.71809">
        <ele>74</ele>
        <time>2022-07-31T06:46:10Z</time>
      </trkpt>
      <trkpt lat="47.14312" lon="-1.71813">
        <ele>74</ele>
        <time>2022-07-31T06:46:12Z</time>
      </trkpt>
      <trkpt lat="47.14297" lon="-1.71817">
        <ele>73</ele>
        <time>2022-07-31T06:46:14Z</time>
      </trkpt>
      <trkpt lat="47.14283" lon="-1.71822">
        <ele>73</ele>
        <time>2022-07-31T06:46:16Z</time>
      </trkpt>
      <trkpt lat="47.14268" lon="-1.71827">
        <ele>73</ele>
        <time>2022-07-31T06:46:18Z</time>
      </trkpt>
      <trkpt lat="47.14253" lon="-1.71832">
        <ele>73</ele>
        <time>2022-07-31T06:46:20Z</time>
      </trkpt>
      <trkpt lat="47.14239" lon="-1.71836">
        <ele>73</ele>
        <time>2022-07-31T06:46:22Z</time>
      </trkpt>
      <trkpt lat="47.14224" lon="-1.7184">
        <ele>73</ele>
        <time>2022-07-31T06:46:24Z</time>
      </trkpt>
      <trkpt lat="47.14209" lon="-1.71846">
        <ele>73</ele>
        <time>2022-07-31T06:46:26Z</time>
      </trkpt>
      <trkpt lat="47.14194" lon="-1.71851">
        <ele>72</ele>
        <time>2022-07-31T06:46:28Z</time>
      </trkpt>
      <trkpt lat="47.14179" lon="-1.71855">
        <ele>72</ele>
        <time>2022-07-31T06:46:30Z</time>
      </trkpt>
      <trkpt lat="47.14164" lon="-1.71861">
        <ele>71</ele>
        <time>2022-07-31T06:46:32Z</time>
      </trkpt>
      <trkpt lat="47.14148" lon="-1.71866">
        <ele>71</ele>
        <time>2022-07-31T06:46:34Z</time>
      </trkpt>
      <trkpt lat="47.14132" lon="-1.71872">
        <ele>70</ele>
        <time>2022-07-31T06:46:36Z</time>
      </trkpt>
      <trkpt lat="47.14116" lon="-1.71877">
        <ele>69</ele>
        <time>2022-07-31T06:46:38Z</time>
      </trkpt>
      <trkpt lat="47.14098" lon="-1.71883">
        <ele>68</ele>
        <time>2022-07-31T06:46:40Z</time>
      </trkpt>
      <trkpt lat="47.14081" lon="-1.71888">
        <ele>67</ele>
        <time>2022-07-31T06:46:42Z</time>
      </trkpt>
      <trkpt lat="47.14063" lon="-1.71894">
        <ele>67</ele>
        <time>2022-07-31T06:46:44Z</time>
      </trkpt>
      <trkpt lat="47.14055" lon="-1.71897">
        <ele>66</ele>
        <time>2022-07-31T06:46:45Z</time>
      </trkpt>
      <trkpt lat="47.14046" lon="-1.719">
        <ele>66</ele>
        <time>2022-07-31T06:46:46Z</time>
      </trkpt>
      <trkpt lat="47.14028" lon="-1.71905">
        <ele>65</ele>
        <time>2022-07-31T06:46:48Z</time>
      </trkpt>
      <trkpt lat="47.14019" lon="-1.71906">
        <ele>64</ele>
        <time>2022-07-31T06:46:49Z</time>
      </trkpt>
      <trkpt lat="47.1401" lon="-1.71905">
        <ele>64</ele>
        <time>2022-07-31T06:46:50Z</time>
      </trkpt>
      <trkpt lat="47.14" lon="-1.71902">
        <ele>63</ele>
        <time>2022-07-31T06:46:51Z</time>
      </trkpt>
      <trkpt lat="47.1399" lon="-1.719">
        <ele>63</ele>
        <time>2022-07-31T06:46:52Z</time>
      </trkpt>
      <trkpt lat="47.13981" lon="-1.71901">
        <ele>63</ele>
        <time>2022-07-31T06:46:53Z</time>
      </trkpt>
      <trkpt lat="47.1397" lon="-1.71915">
        <ele>63</ele>
        <time>2022-07-31T06:46:55Z</time>
      </trkpt>
      <trkpt lat="47.1397" lon="-1.71937">
        <ele>61</ele>
        <time>2022-07-31T06:46:57Z</time>
      </trkpt>
      <trkpt lat="47.13966" lon="-1.71957">
        <ele>60</ele>
        <time>2022-07-31T06:46:59Z</time>
      </trkpt>
      <trkpt lat="47.13957" lon="-1.71971">
        <ele>60</ele>
        <time>2022-07-31T06:47:01Z</time>
      </trkpt>
      <trkpt lat="47.13946" lon="-1.7198">
        <ele>61</ele>
        <time>2022-07-31T06:47:03Z</time>
      </trkpt>
      <trkpt lat="47.13933" lon="-1.71986">
        <ele>61</ele>
        <time>2022-07-31T06:47:05Z</time>
      </trkpt>
      <trkpt lat="47.1392" lon="-1.71991">
        <ele>62</ele>
        <time>2022-07-31T06:47:07Z</time>
      </trkpt>
      <trkpt lat="47.13909" lon="-1.71997">
        <ele>62</ele>
        <time>2022-07-31T06:47:09Z</time>
      </trkpt>
      <trkpt lat="47.13897" lon="-1.72002">
        <ele>62</ele>
        <time>2022-07-31T06:47:11Z</time>
      </trkpt>
      <trkpt lat="47.13886" lon="-1.7201">
        <ele>63</ele>
        <time>2022-07-31T06:47:13Z</time>
      </trkpt>
      <trkpt lat="47.13877" lon="-1.72021">
        <ele>64</ele>
        <time>2022-07-31T06:47:15Z</time>
      </trkpt>
      <trkpt lat="47.13868" lon="-1.72032">
        <ele>64</ele>
        <time>2022-07-31T06:47:17Z</time>
      </trkpt>
      <trkpt lat="47.1386" lon="-1.72044">
        <ele>64</ele>
        <time>2022-07-31T06:47:19Z</time>
      </trkpt>
      <trkpt lat="47.13851" lon="-1.72058">
        <ele>64</ele>
        <time>2022-07-31T06:47:21Z</time>
      </trkpt>
      <trkpt lat="47.13843" lon="-1.7207">
        <ele>64</ele>
        <time>2022-07-31T06:47:23Z</time>
      </trkpt>
      <trkpt lat="47.13836" lon="-1.72083">
        <ele>65</ele>
        <time>2022-07-31T06:47:25Z</time>
      </trkpt>
      <trkpt lat="47.13828" lon="-1.72095">
        <ele>66</ele>
        <time>2022-07-31T06:47:27Z</time>
      </trkpt>
      <trkpt lat="47.1382" lon="-1.72108">
        <ele>66</ele>
        <time>2022-07-31T06:47:29Z</time>
      </trkpt>
      <trkpt lat="47.13812" lon="-1.7212">
        <ele>66</ele>
        <time>2022-07-31T06:47:31Z</time>
      </trkpt>
      <trkpt lat="47.13805" lon="-1.72133">
        <ele>66</ele>
        <time>2022-07-31T06:47:33Z</time>
      </trkpt>
      <trkpt lat="47.13798" lon="-1.72146">
        <ele>67</ele>
        <time>2022-07-31T06:47:35Z</time>
      </trkpt>
      <trkpt lat="47.1379" lon="-1.72158">
        <ele>67</ele>
        <time>2022-07-31T06:47:37Z</time>
      </trkpt>
      <trkpt lat="47.13783" lon="-1.72171">
        <ele>67</ele>
        <time>2022-07-31T06:47:39Z</time>
      </trkpt>
      <trkpt lat="47.13776" lon="-1.72183">
        <ele>67</ele>
        <time>2022-07-31T06:47:41Z</time>
      </trkpt>
      <trkpt lat="47.13769" lon="-1.72196">
        <ele>68</ele>
        <time>2022-07-31T06:47:43Z</time>
      </trkpt>
      <trkpt lat="47.13762" lon="-1.72209">
        <ele>68</ele>
        <time>2022-07-31T06:47:45Z</time>
      </trkpt>
      <trkpt lat="47.13755" lon="-1.72222">
        <ele>69</ele>
        <time>2022-07-31T06:47:47Z</time>
      </trkpt>
      <trkpt lat="47.13749" lon="-1.72235">
        <ele>69</ele>
        <time>2022-07-31T06:47:49Z</time>
      </trkpt>
      <trkpt lat="47.13744" lon="-1.72249">
        <ele>69</ele>
        <time>2022-07-31T06:47:51Z</time>
      </trkpt>
      <trkpt lat="47.13741" lon="-1.72264">
        <ele>69</ele>
        <time>2022-07-31T06:47:53Z</time>
      </trkpt>
      <trkpt lat="47.13739" lon="-1.7228">
        <ele>69</ele>
        <time>2022-07-31T06:47:55Z</time>
      </trkpt>
      <trkpt lat="47.13737" lon="-1.72297">
        <ele>69</ele>
        <time>2022-07-31T06:47:57Z</time>
      </trkpt>
      <trkpt lat="47.13734" lon="-1.72312">
        <ele>69</ele>
        <time>2022-07-31T06:47:59Z</time>
      </trkpt>
      <trkpt lat="47.13732" lon="-1.72328">
        <ele>70</ele>
        <time>2022-07-31T06:48:01Z</time>
      </trkpt>
      <trkpt lat="47.1373" lon="-1.72344">
        <ele>70</ele>
        <time>2022-07-31T06:48:03Z</time>
      </trkpt>
      <trkpt lat="47.13727" lon="-1.72359">
        <ele>70</ele>
        <time>2022-07-31T06:48:05Z</time>
      </trkpt>
      <trkpt lat="47.13724" lon="-1.72374">
        <ele>71</ele>
        <time>2022-07-31T06:48:07Z</time>
      </trkpt>
      <trkpt lat="47.1372" lon="-1.72389">
        <ele>71</ele>
        <time>2022-07-31T06:48:09Z</time>
      </trkpt>
      <trkpt lat="47.13716" lon="-1.72404">
        <ele>72</ele>
        <time>2022-07-31T06:48:11Z</time>
      </trkpt>
      <trkpt lat="47.13712" lon="-1.72419">
        <ele>72</ele>
        <time>2022-07-31T06:48:13Z</time>
      </trkpt>
      <trkpt lat="47.13708" lon="-1.72434">
        <ele>72</ele>
        <time>2022-07-31T06:48:15Z</time>
      </trkpt>
      <trkpt lat="47.13704" lon="-1.72448">
        <ele>72</ele>
        <time>2022-07-31T06:48:17Z</time>
      </trkpt>
      <trkpt lat="47.13699" lon="-1.72463">
        <ele>72</ele>
        <time>2022-07-31T06:48:19Z</time>
      </trkpt>
      <trkpt lat="47.13695" lon="-1.72478">
        <ele>71</ele>
        <time>2022-07-31T06:48:21Z</time>
      </trkpt>
      <trkpt lat="47.1369" lon="-1.72495">
        <ele>72</ele>
        <time>2022-07-31T06:48:23Z</time>
      </trkpt>
      <trkpt lat="47.13687" lon="-1.72511">
        <ele>71</ele>
        <time>2022-07-31T06:48:25Z</time>
      </trkpt>
      <trkpt lat="47.13684" lon="-1.72529">
        <ele>71</ele>
        <time>2022-07-31T06:48:27Z</time>
      </trkpt>
      <trkpt lat="47.13682" lon="-1.72547">
        <ele>72</ele>
        <time>2022-07-31T06:48:29Z</time>
      </trkpt>
      <trkpt lat="47.13681" lon="-1.72564">
        <ele>72</ele>
        <time>2022-07-31T06:48:31Z</time>
      </trkpt>
      <trkpt lat="47.1368" lon="-1.72581">
        <ele>72</ele>
        <time>2022-07-31T06:48:33Z</time>
      </trkpt>
      <trkpt lat="47.13679" lon="-1.72598">
        <ele>72</ele>
        <time>2022-07-31T06:48:35Z</time>
      </trkpt>
      <trkpt lat="47.13678" lon="-1.72615">
        <ele>72</ele>
        <time>2022-07-31T06:48:37Z</time>
      </trkpt>
      <trkpt lat="47.13677" lon="-1.72631">
        <ele>72</ele>
        <time>2022-07-31T06:48:39Z</time>
      </trkpt>
      <trkpt lat="47.13674" lon="-1.72647">
        <ele>72</ele>
        <time>2022-07-31T06:48:41Z</time>
      </trkpt>
      <trkpt lat="47.13672" lon="-1.72663">
        <ele>72</ele>
        <time>2022-07-31T06:48:43Z</time>
      </trkpt>
      <trkpt lat="47.13669" lon="-1.72679">
        <ele>73</ele>
        <time>2022-07-31T06:48:45Z</time>
      </trkpt>
      <trkpt lat="47.13667" lon="-1.72695">
        <ele>73</ele>
        <time>2022-07-31T06:48:47Z</time>
      </trkpt>
      <trkpt lat="47.13665" lon="-1.72712">
        <ele>73</ele>
        <time>2022-07-31T06:48:49Z</time>
      </trkpt>
      <trkpt lat="47.13663" lon="-1.72729">
        <ele>73</ele>
        <time>2022-07-31T06:48:51Z</time>
      </trkpt>
      <trkpt lat="47.13661" lon="-1.72746">
        <ele>73</ele>
        <time>2022-07-31T06:48:53Z</time>
      </trkpt>
      <trkpt lat="47.1366" lon="-1.72763">
        <ele>73</ele>
        <time>2022-07-31T06:48:55Z</time>
      </trkpt>
      <trkpt lat="47.13659" lon="-1.72781">
        <ele>73</ele>
        <time>2022-07-31T06:48:57Z</time>
      </trkpt>
      <trkpt lat="47.13658" lon="-1.72798">
        <ele>72</ele>
        <time>2022-07-31T06:48:59Z</time>
      </trkpt>
      <trkpt lat="47.13657" lon="-1.72815">
        <ele>72</ele>
        <time>2022-07-31T06:49:01Z</time>
      </trkpt>
      <trkpt lat="47.13656" lon="-1.72832">
        <ele>72</ele>
        <time>2022-07-31T06:49:03Z</time>
      </trkpt>
      <trkpt lat="47.13655" lon="-1.7285">
        <ele>72</ele>
        <time>2022-07-31T06:49:05Z</time>
      </trkpt>
      <trkpt lat="47.13652" lon="-1.72868">
        <ele>72</ele>
        <time>2022-07-31T06:49:07Z</time>
      </trkpt>
      <trkpt lat="47.1365" lon="-1.72888">
        <ele>72</ele>
        <time>2022-07-31T06:49:09Z</time>
      </trkpt>
      <trkpt lat="47.13648" lon="-1.7291">
        <ele>71</ele>
        <time>2022-07-31T06:49:11Z</time>
      </trkpt>
      <trkpt lat="47.13646" lon="-1.72936">
        <ele>70</ele>
        <time>2022-07-31T06:49:13Z</time>
      </trkpt>
      <trkpt lat="47.13644" lon="-1.72961">
        <ele>69</ele>
        <time>2022-07-31T06:49:15Z</time>
      </trkpt>
      <trkpt lat="47.13643" lon="-1.72974">
        <ele>68</ele>
        <time>2022-07-31T06:49:16Z</time>
      </trkpt>
      <trkpt lat="47.13642" lon="-1.72988">
        <ele>68</ele>
        <time>2022-07-31T06:49:17Z</time>
      </trkpt>
      <trkpt lat="47.13641" lon="-1.73001">
        <ele>67</ele>
        <time>2022-07-31T06:49:18Z</time>
      </trkpt>
      <trkpt lat="47.1364" lon="-1.73015">
        <ele>67</ele>
        <time>2022-07-31T06:49:19Z</time>
      </trkpt>
      <trkpt lat="47.13636" lon="-1.73028">
        <ele>66</ele>
        <time>2022-07-31T06:49:20Z</time>
      </trkpt>
      <trkpt lat="47.1363" lon="-1.73039">
        <ele>66</ele>
        <time>2022-07-31T06:49:21Z</time>
      </trkpt>
      <trkpt lat="47.13623" lon="-1.73048">
        <ele>65</ele>
        <time>2022-07-31T06:49:22Z</time>
      </trkpt>
      <trkpt lat="47.13615" lon="-1.73056">
        <ele>65</ele>
        <time>2022-07-31T06:49:23Z</time>
      </trkpt>
      <trkpt lat="47.13607" lon="-1.73063">
        <ele>65</ele>
        <time>2022-07-31T06:49:24Z</time>
      </trkpt>
      <trkpt lat="47.13592" lon="-1.73076">
        <ele>65</ele>
        <time>2022-07-31T06:49:26Z</time>
      </trkpt>
      <trkpt lat="47.13578" lon="-1.73089">
        <ele>64</ele>
        <time>2022-07-31T06:49:28Z</time>
      </trkpt>
      <trkpt lat="47.13564" lon="-1.73103">
        <ele>64</ele>
        <time>2022-07-31T06:49:30Z</time>
      </trkpt>
      <trkpt lat="47.13551" lon="-1.73117">
        <ele>63</ele>
        <time>2022-07-31T06:49:32Z</time>
      </trkpt>
      <trkpt lat="47.13537" lon="-1.73131">
        <ele>63</ele>
        <time>2022-07-31T06:49:34Z</time>
      </trkpt>
      <trkpt lat="47.13525" lon="-1.73147">
        <ele>62</ele>
        <time>2022-07-31T06:49:36Z</time>
      </trkpt>
      <trkpt lat="47.13516" lon="-1.73167">
        <ele>61</ele>
        <time>2022-07-31T06:49:38Z</time>
      </trkpt>
      <trkpt lat="47.13513" lon="-1.73191">
        <ele>61</ele>
        <time>2022-07-31T06:49:40Z</time>
      </trkpt>
      <trkpt lat="47.1351" lon="-1.73214">
        <ele>60</ele>
        <time>2022-07-31T06:49:42Z</time>
      </trkpt>
      <trkpt lat="47.13508" lon="-1.73238">
        <ele>60</ele>
        <time>2022-07-31T06:49:44Z</time>
      </trkpt>
      <trkpt lat="47.13506" lon="-1.73262">
        <ele>60</ele>
        <time>2022-07-31T06:49:46Z</time>
      </trkpt>
      <trkpt lat="47.13504" lon="-1.73286">
        <ele>60</ele>
        <time>2022-07-31T06:49:48Z</time>
      </trkpt>
      <trkpt lat="47.13507" lon="-1.73309">
        <ele>60</ele>
        <time>2022-07-31T06:49:50Z</time>
      </trkpt>
      <trkpt lat="47.13513" lon="-1.73329">
        <ele>61</ele>
        <time>2022-07-31T06:49:52Z</time>
      </trkpt>
      <trkpt lat="47.13518" lon="-1.73347">
        <ele>61</ele>
        <time>2022-07-31T06:49:54Z</time>
      </trkpt>
      <trkpt lat="47.13523" lon="-1.73365">
        <ele>62</ele>
        <time>2022-07-31T06:49:56Z</time>
      </trkpt>
      <trkpt lat="47.13529" lon="-1.7338">
        <ele>62</ele>
        <time>2022-07-31T06:49:58Z</time>
      </trkpt>
      <trkpt lat="47.13534" lon="-1.73397">
        <ele>62</ele>
        <time>2022-07-31T06:50:00Z</time>
      </trkpt>
      <trkpt lat="47.13539" lon="-1.73413">
        <ele>62</ele>
        <time>2022-07-31T06:50:02Z</time>
      </trkpt>
      <trkpt lat="47.13543" lon="-1.73428">
        <ele>63</ele>
        <time>2022-07-31T06:50:04Z</time>
      </trkpt>
      <trkpt lat="47.13548" lon="-1.73445">
        <ele>63</ele>
        <time>2022-07-31T06:50:06Z</time>
      </trkpt>
      <trkpt lat="47.13553" lon="-1.7346">
        <ele>63</ele>
        <time>2022-07-31T06:50:08Z</time>
      </trkpt>
      <trkpt lat="47.13558" lon="-1.73476">
        <ele>64</ele>
        <time>2022-07-31T06:50:10Z</time>
      </trkpt>
      <trkpt lat="47.13563" lon="-1.73493">
        <ele>64</ele>
        <time>2022-07-31T06:50:12Z</time>
      </trkpt>
      <trkpt lat="47.13567" lon="-1.7351">
        <ele>64</ele>
        <time>2022-07-31T06:50:14Z</time>
      </trkpt>
      <trkpt lat="47.13573" lon="-1.73527">
        <ele>64</ele>
        <time>2022-07-31T06:50:16Z</time>
      </trkpt>
      <trkpt lat="47.13578" lon="-1.73544">
        <ele>64</ele>
        <time>2022-07-31T06:50:18Z</time>
      </trkpt>
      <trkpt lat="47.13583" lon="-1.73561">
        <ele>64</ele>
        <time>2022-07-31T06:50:20Z</time>
      </trkpt>
      <trkpt lat="47.13589" lon="-1.73578">
        <ele>64</ele>
        <time>2022-07-31T06:50:22Z</time>
      </trkpt>
      <trkpt lat="47.13596" lon="-1.73594">
        <ele>64</ele>
        <time>2022-07-31T06:50:24Z</time>
      </trkpt>
      <trkpt lat="47.13602" lon="-1.7361">
        <ele>64</ele>
        <time>2022-07-31T06:50:26Z</time>
      </trkpt>
      <trkpt lat="47.13607" lon="-1.73626">
        <ele>63</ele>
        <time>2022-07-31T06:50:28Z</time>
      </trkpt>
      <trkpt lat="47.13612" lon="-1.73643">
        <ele>64</ele>
        <time>2022-07-31T06:50:30Z</time>
      </trkpt>
      <trkpt lat="47.13619" lon="-1.73659">
        <ele>63</ele>
        <time>2022-07-31T06:50:32Z</time>
      </trkpt>
      <trkpt lat="47.13624" lon="-1.73676">
        <ele>62</ele>
        <time>2022-07-31T06:50:34Z</time>
      </trkpt>
      <trkpt lat="47.13629" lon="-1.73693">
        <ele>62</ele>
        <time>2022-07-31T06:50:36Z</time>
      </trkpt>
      <trkpt lat="47.13632" lon="-1.7371">
        <ele>62</ele>
        <time>2022-07-31T06:50:38Z</time>
      </trkpt>
      <trkpt lat="47.13635" lon="-1.73728">
        <ele>62</ele>
        <time>2022-07-31T06:50:40Z</time>
      </trkpt>
      <trkpt lat="47.13636" lon="-1.73748">
        <ele>62</ele>
        <time>2022-07-31T06:50:42Z</time>
      </trkpt>
      <trkpt lat="47.13639" lon="-1.73769">
        <ele>62</ele>
        <time>2022-07-31T06:50:44Z</time>
      </trkpt>
      <trkpt lat="47.13641" lon="-1.73792">
        <ele>62</ele>
        <time>2022-07-31T06:50:46Z</time>
      </trkpt>
      <trkpt lat="47.13641" lon="-1.73814">
        <ele>61</ele>
        <time>2022-07-31T06:50:48Z</time>
      </trkpt>
      <trkpt lat="47.13642" lon="-1.73837">
        <ele>62</ele>
        <time>2022-07-31T06:50:50Z</time>
      </trkpt>
      <trkpt lat="47.13645" lon="-1.73859">
        <ele>62</ele>
        <time>2022-07-31T06:50:52Z</time>
      </trkpt>
      <trkpt lat="47.13646" lon="-1.73879">
        <ele>61</ele>
        <time>2022-07-31T06:50:54Z</time>
      </trkpt>
      <trkpt lat="47.13647" lon="-1.73897">
        <ele>62</ele>
        <time>2022-07-31T06:50:56Z</time>
      </trkpt>
      <trkpt lat="47.13648" lon="-1.73913">
        <ele>62</ele>
        <time>2022-07-31T06:50:58Z</time>
      </trkpt>
      <trkpt lat="47.13649" lon="-1.73929">
        <ele>63</ele>
        <time>2022-07-31T06:51:00Z</time>
      </trkpt>
      <trkpt lat="47.13649" lon="-1.73943">
        <ele>63</ele>
        <time>2022-07-31T06:51:02Z</time>
      </trkpt>
      <trkpt lat="47.1365" lon="-1.73959">
        <ele>63</ele>
        <time>2022-07-31T06:51:04Z</time>
      </trkpt>
      <trkpt lat="47.1365" lon="-1.73975">
        <ele>64</ele>
        <time>2022-07-31T06:51:06Z</time>
      </trkpt>
      <trkpt lat="47.13649" lon="-1.73991">
        <ele>64</ele>
        <time>2022-07-31T06:51:08Z</time>
      </trkpt>
      <trkpt lat="47.13647" lon="-1.74008">
        <ele>64</ele>
        <time>2022-07-31T06:51:10Z</time>
      </trkpt>
      <trkpt lat="47.13646" lon="-1.74023">
        <ele>65</ele>
        <time>2022-07-31T06:51:12Z</time>
      </trkpt>
      <trkpt lat="47.13644" lon="-1.74039">
        <ele>65</ele>
        <time>2022-07-31T06:51:14Z</time>
      </trkpt>
      <trkpt lat="47.13643" lon="-1.74054">
        <ele>66</ele>
        <time>2022-07-31T06:51:16Z</time>
      </trkpt>
      <trkpt lat="47.13642" lon="-1.74069">
        <ele>66</ele>
        <time>2022-07-31T06:51:18Z</time>
      </trkpt>
      <trkpt lat="47.13642" lon="-1.74084">
        <ele>67</ele>
        <time>2022-07-31T06:51:20Z</time>
      </trkpt>
      <trkpt lat="47.13643" lon="-1.74099">
        <ele>67</ele>
        <time>2022-07-31T06:51:22Z</time>
      </trkpt>
      <trkpt lat="47.13644" lon="-1.74114">
        <ele>67</ele>
        <time>2022-07-31T06:51:24Z</time>
      </trkpt>
      <trkpt lat="47.13645" lon="-1.74129">
        <ele>67</ele>
        <time>2022-07-31T06:51:26Z</time>
      </trkpt>
      <trkpt lat="47.13648" lon="-1.74145">
        <ele>67</ele>
        <time>2022-07-31T06:51:28Z</time>
      </trkpt>
      <trkpt lat="47.13651" lon="-1.7416">
        <ele>66</ele>
        <time>2022-07-31T06:51:30Z</time>
      </trkpt>
      <trkpt lat="47.13654" lon="-1.74175">
        <ele>66</ele>
        <time>2022-07-31T06:51:32Z</time>
      </trkpt>
      <trkpt lat="47.13658" lon="-1.7419">
        <ele>66</ele>
        <time>2022-07-31T06:51:34Z</time>
      </trkpt>
      <trkpt lat="47.13662" lon="-1.74206">
        <ele>66</ele>
        <time>2022-07-31T06:51:36Z</time>
      </trkpt>
      <trkpt lat="47.13665" lon="-1.74221">
        <ele>66</ele>
        <time>2022-07-31T06:51:38Z</time>
      </trkpt>
      <trkpt lat="47.13669" lon="-1.74237">
        <ele>66</ele>
        <time>2022-07-31T06:51:40Z</time>
      </trkpt>
      <trkpt lat="47.13674" lon="-1.74253">
        <ele>66</ele>
        <time>2022-07-31T06:51:42Z</time>
      </trkpt>
      <trkpt lat="47.13678" lon="-1.7427">
        <ele>66</ele>
        <time>2022-07-31T06:51:44Z</time>
      </trkpt>
      <trkpt lat="47.13684" lon="-1.74287">
        <ele>65</ele>
        <time>2022-07-31T06:51:46Z</time>
      </trkpt>
      <trkpt lat="47.13691" lon="-1.74304">
        <ele>65</ele>
        <time>2022-07-31T06:51:48Z</time>
      </trkpt>
      <trkpt lat="47.13695" lon="-1.74323">
        <ele>64</ele>
        <time>2022-07-31T06:51:50Z</time>
      </trkpt>
      <trkpt lat="47.13696" lon="-1.74344">
        <ele>64</ele>
        <time>2022-07-31T06:51:52Z</time>
      </trkpt>
      <trkpt lat="47.13697" lon="-1.74366">
        <ele>63</ele>
        <time>2022-07-31T06:51:54Z</time>
      </trkpt>
      <trkpt lat="47.13698" lon="-1.74389">
        <ele>62</ele>
        <time>2022-07-31T06:51:56Z</time>
      </trkpt>
      <trkpt lat="47.13698" lon="-1.74413">
        <ele>61</ele>
        <time>2022-07-31T06:51:58Z</time>
      </trkpt>
      <trkpt lat="47.13697" lon="-1.74438">
        <ele>60</ele>
        <time>2022-07-31T06:52:00Z</time>
      </trkpt>
      <trkpt lat="47.1369" lon="-1.74461">
        <ele>59</ele>
        <time>2022-07-31T06:52:02Z</time>
      </trkpt>
      <trkpt lat="47.13676" lon="-1.74477">
        <ele>59</ele>
        <time>2022-07-31T06:52:04Z</time>
      </trkpt>
      <trkpt lat="47.13663" lon="-1.74491">
        <ele>59</ele>
        <time>2022-07-31T06:52:06Z</time>
      </trkpt>
      <trkpt lat="47.13651" lon="-1.74503">
        <ele>59</ele>
        <time>2022-07-31T06:52:08Z</time>
      </trkpt>
      <trkpt lat="47.13639" lon="-1.74514">
        <ele>59</ele>
        <time>2022-07-31T06:52:10Z</time>
      </trkpt>
      <trkpt lat="47.13628" lon="-1.74526">
        <ele>59</ele>
        <time>2022-07-31T06:52:12Z</time>
      </trkpt>
      <trkpt lat="47.13617" lon="-1.74538">
        <ele>58</ele>
        <time>2022-07-31T06:52:14Z</time>
      </trkpt>
      <trkpt lat="47.13605" lon="-1.74551">
        <ele>58</ele>
        <time>2022-07-31T06:52:16Z</time>
      </trkpt>
      <trkpt lat="47.13593" lon="-1.74566">
        <ele>57</ele>
        <time>2022-07-31T06:52:18Z</time>
      </trkpt>
      <trkpt lat="47.1358" lon="-1.74579">
        <ele>58</ele>
        <time>2022-07-31T06:52:20Z</time>
      </trkpt>
      <trkpt lat="47.13566" lon="-1.74594">
        <ele>58</ele>
        <time>2022-07-31T06:52:22Z</time>
      </trkpt>
      <trkpt lat="47.13552" lon="-1.74606">
        <ele>57</ele>
        <time>2022-07-31T06:52:24Z</time>
      </trkpt>
      <trkpt lat="47.13539" lon="-1.74618">
        <ele>57</ele>
        <time>2022-07-31T06:52:26Z</time>
      </trkpt>
      <trkpt lat="47.13528" lon="-1.74629">
        <ele>58</ele>
        <time>2022-07-31T06:52:28Z</time>
      </trkpt>
      <trkpt lat="47.13516" lon="-1.7464">
        <ele>58</ele>
        <time>2022-07-31T06:52:30Z</time>
      </trkpt>
      <trkpt lat="47.13507" lon="-1.74651">
        <ele>58</ele>
        <time>2022-07-31T06:52:32Z</time>
      </trkpt>
      <trkpt lat="47.135" lon="-1.74663">
        <ele>58</ele>
        <time>2022-07-31T06:52:34Z</time>
      </trkpt>
      <trkpt lat="47.13496" lon="-1.74675">
        <ele>59</ele>
        <time>2022-07-31T06:52:36Z</time>
      </trkpt>
      <trkpt lat="47.13492" lon="-1.74688">
        <ele>60</ele>
        <time>2022-07-31T06:52:38Z</time>
      </trkpt>
      <trkpt lat="47.13489" lon="-1.747">
        <ele>60</ele>
        <time>2022-07-31T06:52:40Z</time>
      </trkpt>
      <trkpt lat="47.13483" lon="-1.74712">
        <ele>61</ele>
        <time>2022-07-31T06:52:42Z</time>
      </trkpt>
      <trkpt lat="47.13478" lon="-1.74723">
        <ele>62</ele>
        <time>2022-07-31T06:52:44Z</time>
      </trkpt>
      <trkpt lat="47.1347" lon="-1.74732">
        <ele>62</ele>
        <time>2022-07-31T06:52:46Z</time>
      </trkpt>
      <trkpt lat="47.13462" lon="-1.74741">
        <ele>63</ele>
        <time>2022-07-31T06:52:48Z</time>
      </trkpt>
      <trkpt lat="47.13454" lon="-1.74749">
        <ele>64</ele>
        <time>2022-07-31T06:52:50Z</time>
      </trkpt>
      <trkpt lat="47.13444" lon="-1.74756">
        <ele>63</ele>
        <time>2022-07-31T06:52:52Z</time>
      </trkpt>
      <trkpt lat="47.13436" lon="-1.74763">
        <ele>63</ele>
        <time>2022-07-31T06:52:54Z</time>
      </trkpt>
      <trkpt lat="47.13427" lon="-1.74769">
        <ele>64</ele>
        <time>2022-07-31T06:52:56Z</time>
      </trkpt>
      <trkpt lat="47.13419" lon="-1.74776">
        <ele>64</ele>
        <time>2022-07-31T06:52:58Z</time>
      </trkpt>
      <trkpt lat="47.1341" lon="-1.74785">
        <ele>64</ele>
        <time>2022-07-31T06:53:00Z</time>
      </trkpt>
      <trkpt lat="47.13402" lon="-1.74794">
        <ele>65</ele>
        <time>2022-07-31T06:53:02Z</time>
      </trkpt>
      <trkpt lat="47.13396" lon="-1.74805">
        <ele>65</ele>
        <time>2022-07-31T06:53:04Z</time>
      </trkpt>
      <trkpt lat="47.13389" lon="-1.74816">
        <ele>65</ele>
        <time>2022-07-31T06:53:06Z</time>
      </trkpt>
      <trkpt lat="47.13385" lon="-1.74829">
        <ele>65</ele>
        <time>2022-07-31T06:53:08Z</time>
      </trkpt>
      <trkpt lat="47.13381" lon="-1.74843">
        <ele>65</ele>
        <time>2022-07-31T06:53:10Z</time>
      </trkpt>
      <trkpt lat="47.13378" lon="-1.74858">
        <ele>66</ele>
        <time>2022-07-31T06:53:12Z</time>
      </trkpt>
      <trkpt lat="47.13374" lon="-1.74872">
        <ele>67</ele>
        <time>2022-07-31T06:53:14Z</time>
      </trkpt>
      <trkpt lat="47.1337" lon="-1.74886">
        <ele>67</ele>
        <time>2022-07-31T06:53:16Z</time>
      </trkpt>
      <trkpt lat="47.13366" lon="-1.749">
        <ele>67</ele>
        <time>2022-07-31T06:53:18Z</time>
      </trkpt>
      <trkpt lat="47.13361" lon="-1.74914">
        <ele>68</ele>
        <time>2022-07-31T06:53:20Z</time>
      </trkpt>
      <trkpt lat="47.13355" lon="-1.74928">
        <ele>68</ele>
        <time>2022-07-31T06:53:22Z</time>
      </trkpt>
      <trkpt lat="47.13349" lon="-1.74941">
        <ele>68</ele>
        <time>2022-07-31T06:53:24Z</time>
      </trkpt>
      <trkpt lat="47.13344" lon="-1.74955">
        <ele>68</ele>
        <time>2022-07-31T06:53:26Z</time>
      </trkpt>
      <trkpt lat="47.13337" lon="-1.74968">
        <ele>68</ele>
        <time>2022-07-31T06:53:28Z</time>
      </trkpt>
      <trkpt lat="47.1333" lon="-1.7498">
        <ele>68</ele>
        <time>2022-07-31T06:53:30Z</time>
      </trkpt>
      <trkpt lat="47.13322" lon="-1.7499">
        <ele>69</ele>
        <time>2022-07-31T06:53:32Z</time>
      </trkpt>
      <trkpt lat="47.13315" lon="-1.75">
        <ele>69</ele>
        <time>2022-07-31T06:53:34Z</time>
      </trkpt>
      <trkpt lat="47.13305" lon="-1.75009">
        <ele>70</ele>
        <time>2022-07-31T06:53:36Z</time>
      </trkpt>
      <trkpt lat="47.13296" lon="-1.75017">
        <ele>70</ele>
        <time>2022-07-31T06:53:38Z</time>
      </trkpt>
      <trkpt lat="47.13287" lon="-1.75025">
        <ele>70</ele>
        <time>2022-07-31T06:53:40Z</time>
      </trkpt>
      <trkpt lat="47.13277" lon="-1.75033">
        <ele>70</ele>
        <time>2022-07-31T06:53:42Z</time>
      </trkpt>
      <trkpt lat="47.13268" lon="-1.75039">
        <ele>70</ele>
        <time>2022-07-31T06:53:44Z</time>
      </trkpt>
      <trkpt lat="47.13259" lon="-1.75045">
        <ele>71</ele>
        <time>2022-07-31T06:53:46Z</time>
      </trkpt>
      <trkpt lat="47.1325" lon="-1.75053">
        <ele>71</ele>
        <time>2022-07-31T06:53:48Z</time>
      </trkpt>
      <trkpt lat="47.13241" lon="-1.75062">
        <ele>71</ele>
        <time>2022-07-31T06:53:50Z</time>
      </trkpt>
      <trkpt lat="47.13233" lon="-1.75071">
        <ele>72</ele>
        <time>2022-07-31T06:53:52Z</time>
      </trkpt>
      <trkpt lat="47.13225" lon="-1.7508">
        <ele>72</ele>
        <time>2022-07-31T06:53:54Z</time>
      </trkpt>
      <trkpt lat="47.13217" lon="-1.7509">
        <ele>73</ele>
        <time>2022-07-31T06:53:56Z</time>
      </trkpt>
      <trkpt lat="47.1321" lon="-1.75102">
        <ele>73</ele>
        <time>2022-07-31T06:53:58Z</time>
      </trkpt>
      <trkpt lat="47.13203" lon="-1.75113">
        <ele>73</ele>
        <time>2022-07-31T06:54:00Z</time>
      </trkpt>
      <trkpt lat="47.13196" lon="-1.75123">
        <ele>73</ele>
        <time>2022-07-31T06:54:02Z</time>
      </trkpt>
      <trkpt lat="47.13189" lon="-1.75135">
        <ele>73</ele>
        <time>2022-07-31T06:54:04Z</time>
      </trkpt>
      <trkpt lat="47.13183" lon="-1.75148">
        <ele>73</ele>
        <time>2022-07-31T06:54:06Z</time>
      </trkpt>
      <trkpt lat="47.13177" lon="-1.75161">
        <ele>73</ele>
        <time>2022-07-31T06:54:08Z</time>
      </trkpt>
      <trkpt lat="47.13172" lon="-1.75174">
        <ele>73</ele>
        <time>2022-07-31T06:54:10Z</time>
      </trkpt>
      <trkpt lat="47.13167" lon="-1.75187">
        <ele>73</ele>
        <time>2022-07-31T06:54:12Z</time>
      </trkpt>
      <trkpt lat="47.13163" lon="-1.75202">
        <ele>73</ele>
        <time>2022-07-31T06:54:14Z</time>
      </trkpt>
      <trkpt lat="47.1316" lon="-1.75217">
        <ele>73</ele>
        <time>2022-07-31T06:54:16Z</time>
      </trkpt>
      <trkpt lat="47.13157" lon="-1.75232">
        <ele>74</ele>
        <time>2022-07-31T06:54:18Z</time>
      </trkpt>
      <trkpt lat="47.13154" lon="-1.75247">
        <ele>74</ele>
        <time>2022-07-31T06:54:20Z</time>
      </trkpt>
      <trkpt lat="47.13152" lon="-1.75261">
        <ele>74</ele>
        <time>2022-07-31T06:54:22Z</time>
      </trkpt>
      <trkpt lat="47.13151" lon="-1.75278">
        <ele>73</ele>
        <time>2022-07-31T06:54:26Z</time>
      </trkpt>
      <trkpt lat="47.1315" lon="-1.75291">
        <ele>73</ele>
        <time>2022-07-31T06:54:28Z</time>
      </trkpt>
      <trkpt lat="47.13146" lon="-1.75306">
        <ele>73</ele>
        <time>2022-07-31T06:54:30Z</time>
      </trkpt>
      <trkpt lat="47.13141" lon="-1.75319">
        <ele>73</ele>
        <time>2022-07-31T06:54:32Z</time>
      </trkpt>
      <trkpt lat="47.13137" lon="-1.75334">
        <ele>73</ele>
        <time>2022-07-31T06:54:34Z</time>
      </trkpt>
      <trkpt lat="47.13134" lon="-1.75348">
        <ele>73</ele>
        <time>2022-07-31T06:54:36Z</time>
      </trkpt>
      <trkpt lat="47.13131" lon="-1.75362">
        <ele>74</ele>
        <time>2022-07-31T06:54:38Z</time>
      </trkpt>
      <trkpt lat="47.13128" lon="-1.75375">
        <ele>74</ele>
        <time>2022-07-31T06:54:40Z</time>
      </trkpt>
      <trkpt lat="47.13125" lon="-1.75388">
        <ele>74</ele>
        <time>2022-07-31T06:54:42Z</time>
      </trkpt>
      <trkpt lat="47.13122" lon="-1.75401">
        <ele>75</ele>
        <time>2022-07-31T06:54:44Z</time>
      </trkpt>
      <trkpt lat="47.13118" lon="-1.75414">
        <ele>75</ele>
        <time>2022-07-31T06:54:46Z</time>
      </trkpt>
      <trkpt lat="47.13116" lon="-1.75428">
        <ele>76</ele>
        <time>2022-07-31T06:54:48Z</time>
      </trkpt>
      <trkpt lat="47.13115" lon="-1.75443">
        <ele>76</ele>
        <time>2022-07-31T06:54:50Z</time>
      </trkpt>
      <trkpt lat="47.13112" lon="-1.75456">
        <ele>76</ele>
        <time>2022-07-31T06:54:52Z</time>
      </trkpt>
      <trkpt lat="47.1311" lon="-1.75469">
        <ele>77</ele>
        <time>2022-07-31T06:54:54Z</time>
      </trkpt>
      <trkpt lat="47.13108" lon="-1.75484">
        <ele>77</ele>
        <time>2022-07-31T06:54:56Z</time>
      </trkpt>
      <trkpt lat="47.13108" lon="-1.75498">
        <ele>77</ele>
        <time>2022-07-31T06:54:58Z</time>
      </trkpt>
      <trkpt lat="47.13106" lon="-1.75511">
        <ele>78</ele>
        <time>2022-07-31T06:55:00Z</time>
      </trkpt>
      <trkpt lat="47.13104" lon="-1.75526">
        <ele>78</ele>
        <time>2022-07-31T06:55:02Z</time>
      </trkpt>
      <trkpt lat="47.13101" lon="-1.75541">
        <ele>78</ele>
        <time>2022-07-31T06:55:04Z</time>
      </trkpt>
      <trkpt lat="47.13099" lon="-1.75555">
        <ele>78</ele>
        <time>2022-07-31T06:55:06Z</time>
      </trkpt>
      <trkpt lat="47.13096" lon="-1.75569">
        <ele>79</ele>
        <time>2022-07-31T06:55:08Z</time>
      </trkpt>
      <trkpt lat="47.13094" lon="-1.75583">
        <ele>79</ele>
        <time>2022-07-31T06:55:10Z</time>
      </trkpt>
      <trkpt lat="47.1309" lon="-1.75598">
        <ele>79</ele>
        <time>2022-07-31T06:55:12Z</time>
      </trkpt>
      <trkpt lat="47.13088" lon="-1.75613">
        <ele>78</ele>
        <time>2022-07-31T06:55:14Z</time>
      </trkpt>
      <trkpt lat="47.13085" lon="-1.75629">
        <ele>79</ele>
        <time>2022-07-31T06:55:16Z</time>
      </trkpt>
      <trkpt lat="47.13082" lon="-1.75645">
        <ele>79</ele>
        <time>2022-07-31T06:55:18Z</time>
      </trkpt>
      <trkpt lat="47.13077" lon="-1.7567">
        <ele>79</ele>
        <time>2022-07-31T06:55:21Z</time>
      </trkpt>
      <trkpt lat="47.13074" lon="-1.75686">
        <ele>79</ele>
        <time>2022-07-31T06:55:23Z</time>
      </trkpt>
      <trkpt lat="47.1307" lon="-1.75702">
        <ele>80</ele>
        <time>2022-07-31T06:55:25Z</time>
      </trkpt>
      <trkpt lat="47.13066" lon="-1.75717">
        <ele>80</ele>
        <time>2022-07-31T06:55:27Z</time>
      </trkpt>
      <trkpt lat="47.13061" lon="-1.75732">
        <ele>80</ele>
        <time>2022-07-31T06:55:29Z</time>
      </trkpt>
      <trkpt lat="47.13051" lon="-1.75753">
        <ele>81</ele>
        <time>2022-07-31T06:55:32Z</time>
      </trkpt>
      <trkpt lat="47.13042" lon="-1.75766">
        <ele>81</ele>
        <time>2022-07-31T06:55:34Z</time>
      </trkpt>
      <trkpt lat="47.13034" lon="-1.75778">
        <ele>81</ele>
        <time>2022-07-31T06:55:36Z</time>
      </trkpt>
      <trkpt lat="47.13025" lon="-1.75791">
        <ele>81</ele>
        <time>2022-07-31T06:55:38Z</time>
      </trkpt>
      <trkpt lat="47.13018" lon="-1.75804">
        <ele>81</ele>
        <time>2022-07-31T06:55:40Z</time>
      </trkpt>
      <trkpt lat="47.13009" lon="-1.75826">
        <ele>81</ele>
        <time>2022-07-31T06:55:43Z</time>
      </trkpt>
      <trkpt lat="47.13008" lon="-1.75844">
        <ele>80</ele>
        <time>2022-07-31T06:55:45Z</time>
      </trkpt>
      <trkpt lat="47.1301" lon="-1.75861">
        <ele>80</ele>
        <time>2022-07-31T06:55:47Z</time>
      </trkpt>
      <trkpt lat="47.1301" lon="-1.75878">
        <ele>81</ele>
        <time>2022-07-31T06:55:49Z</time>
      </trkpt>
      <trkpt lat="47.13008" lon="-1.75895">
        <ele>81</ele>
        <time>2022-07-31T06:55:51Z</time>
      </trkpt>
      <trkpt lat="47.13003" lon="-1.75918">
        <ele>81</ele>
        <time>2022-07-31T06:55:54Z</time>
      </trkpt>
      <trkpt lat="47.13" lon="-1.75933">
        <ele>82</ele>
        <time>2022-07-31T06:55:56Z</time>
      </trkpt>
      <trkpt lat="47.12996" lon="-1.75948">
        <ele>82</ele>
        <time>2022-07-31T06:55:58Z</time>
      </trkpt>
      <trkpt lat="47.12993" lon="-1.75971">
        <ele>83</ele>
        <time>2022-07-31T06:56:01Z</time>
      </trkpt>
      <trkpt lat="47.1299" lon="-1.75987">
        <ele>83</ele>
        <time>2022-07-31T06:56:03Z</time>
      </trkpt>
      <trkpt lat="47.12989" lon="-1.76004">
        <ele>83</ele>
        <time>2022-07-31T06:56:05Z</time>
      </trkpt>
      <trkpt lat="47.12987" lon="-1.76019">
        <ele>84</ele>
        <time>2022-07-31T06:56:07Z</time>
      </trkpt>
      <trkpt lat="47.12986" lon="-1.76036">
        <ele>83</ele>
        <time>2022-07-31T06:56:09Z</time>
      </trkpt>
      <trkpt lat="47.12986" lon="-1.76052">
        <ele>84</ele>
        <time>2022-07-31T06:56:11Z</time>
      </trkpt>
      <trkpt lat="47.12986" lon="-1.76068">
        <ele>84</ele>
        <time>2022-07-31T06:56:13Z</time>
      </trkpt>
      <trkpt lat="47.12986" lon="-1.76084">
        <ele>84</ele>
        <time>2022-07-31T06:56:15Z</time>
      </trkpt>
      <trkpt lat="47.12988" lon="-1.761">
        <ele>84</ele>
        <time>2022-07-31T06:56:17Z</time>
      </trkpt>
      <trkpt lat="47.12989" lon="-1.76115">
        <ele>84</ele>
        <time>2022-07-31T06:56:19Z</time>
      </trkpt>
      <trkpt lat="47.12992" lon="-1.7613">
        <ele>84</ele>
        <time>2022-07-31T06:56:21Z</time>
      </trkpt>
      <trkpt lat="47.12996" lon="-1.76145">
        <ele>83</ele>
        <time>2022-07-31T06:56:23Z</time>
      </trkpt>
      <trkpt lat="47.12999" lon="-1.76159">
        <ele>83</ele>
        <time>2022-07-31T06:56:25Z</time>
      </trkpt>
      <trkpt lat="47.13003" lon="-1.76174">
        <ele>83</ele>
        <time>2022-07-31T06:56:27Z</time>
      </trkpt>
      <trkpt lat="47.13008" lon="-1.76189">
        <ele>83</ele>
        <time>2022-07-31T06:56:29Z</time>
      </trkpt>
      <trkpt lat="47.13012" lon="-1.76204">
        <ele>83</ele>
        <time>2022-07-31T06:56:31Z</time>
      </trkpt>
      <trkpt lat="47.13016" lon="-1.7622">
        <ele>83</ele>
        <time>2022-07-31T06:56:33Z</time>
      </trkpt>
      <trkpt lat="47.13019" lon="-1.76236">
        <ele>84</ele>
        <time>2022-07-31T06:56:35Z</time>
      </trkpt>
      <trkpt lat="47.13024" lon="-1.76251">
        <ele>84</ele>
        <time>2022-07-31T06:56:37Z</time>
      </trkpt>
      <trkpt lat="47.13027" lon="-1.76268">
        <ele>84</ele>
        <time>2022-07-31T06:56:39Z</time>
      </trkpt>
      <trkpt lat="47.13031" lon="-1.76284">
        <ele>84</ele>
        <time>2022-07-31T06:56:41Z</time>
      </trkpt>
      <trkpt lat="47.13034" lon="-1.763">
        <ele>84</ele>
        <time>2022-07-31T06:56:43Z</time>
      </trkpt>
      <trkpt lat="47.13037" lon="-1.76317">
        <ele>83</ele>
        <time>2022-07-31T06:56:45Z</time>
      </trkpt>
      <trkpt lat="47.1304" lon="-1.76334">
        <ele>83</ele>
        <time>2022-07-31T06:56:47Z</time>
      </trkpt>
      <trkpt lat="47.13043" lon="-1.76351">
        <ele>83</ele>
        <time>2022-07-31T06:56:49Z</time>
      </trkpt>
      <trkpt lat="47.13047" lon="-1.76368">
        <ele>83</ele>
        <time>2022-07-31T06:56:51Z</time>
      </trkpt>
      <trkpt lat="47.1305" lon="-1.76384">
        <ele>83</ele>
        <time>2022-07-31T06:56:53Z</time>
      </trkpt>
      <trkpt lat="47.13052" lon="-1.76401">
        <ele>83</ele>
        <time>2022-07-31T06:56:55Z</time>
      </trkpt>
      <trkpt lat="47.13053" lon="-1.76419">
        <ele>83</ele>
        <time>2022-07-31T06:56:57Z</time>
      </trkpt>
      <trkpt lat="47.13054" lon="-1.76437">
        <ele>82</ele>
        <time>2022-07-31T06:56:59Z</time>
      </trkpt>
      <trkpt lat="47.13055" lon="-1.76454">
        <ele>82</ele>
        <time>2022-07-31T06:57:01Z</time>
      </trkpt>
      <trkpt lat="47.13056" lon="-1.76472">
        <ele>82</ele>
        <time>2022-07-31T06:57:03Z</time>
      </trkpt>
      <trkpt lat="47.13057" lon="-1.7649">
        <ele>82</ele>
        <time>2022-07-31T06:57:05Z</time>
      </trkpt>
      <trkpt lat="47.13058" lon="-1.76508">
        <ele>82</ele>
        <time>2022-07-31T06:57:07Z</time>
      </trkpt>
      <trkpt lat="47.13059" lon="-1.76525">
        <ele>82</ele>
        <time>2022-07-31T06:57:09Z</time>
      </trkpt>
      <trkpt lat="47.1306" lon="-1.76544">
        <ele>82</ele>
        <time>2022-07-31T06:57:11Z</time>
      </trkpt>
      <trkpt lat="47.13061" lon="-1.76561">
        <ele>81</ele>
        <time>2022-07-31T06:57:13Z</time>
      </trkpt>
      <trkpt lat="47.13062" lon="-1.76579">
        <ele>82</ele>
        <time>2022-07-31T06:57:15Z</time>
      </trkpt>
      <trkpt lat="47.13064" lon="-1.76597">
        <ele>82</ele>
        <time>2022-07-31T06:57:17Z</time>
      </trkpt>
      <trkpt lat="47.13065" lon="-1.76614">
        <ele>82</ele>
        <time>2022-07-31T06:57:19Z</time>
      </trkpt>
      <trkpt lat="47.13066" lon="-1.76632">
        <ele>82</ele>
        <time>2022-07-31T06:57:21Z</time>
      </trkpt>
      <trkpt lat="47.13069" lon="-1.76649">
        <ele>82</ele>
        <time>2022-07-31T06:57:23Z</time>
      </trkpt>
      <trkpt lat="47.13071" lon="-1.76666">
        <ele>82</ele>
        <time>2022-07-31T06:57:25Z</time>
      </trkpt>
      <trkpt lat="47.13071" lon="-1.76684">
        <ele>82</ele>
        <time>2022-07-31T06:57:27Z</time>
      </trkpt>
      <trkpt lat="47.1307" lon="-1.76702">
        <ele>82</ele>
        <time>2022-07-31T06:57:29Z</time>
      </trkpt>
      <trkpt lat="47.13068" lon="-1.7672">
        <ele>82</ele>
        <time>2022-07-31T06:57:31Z</time>
      </trkpt>
      <trkpt lat="47.13066" lon="-1.76738">
        <ele>83</ele>
        <time>2022-07-31T06:57:33Z</time>
      </trkpt>
      <trkpt lat="47.13064" lon="-1.76756">
        <ele>83</ele>
        <time>2022-07-31T06:57:35Z</time>
      </trkpt>
      <trkpt lat="47.13061" lon="-1.76774">
        <ele>83</ele>
        <time>2022-07-31T06:57:37Z</time>
      </trkpt>
      <trkpt lat="47.13059" lon="-1.76792">
        <ele>83</ele>
        <time>2022-07-31T06:57:39Z</time>
      </trkpt>
      <trkpt lat="47.13056" lon="-1.7681">
        <ele>84</ele>
        <time>2022-07-31T06:57:41Z</time>
      </trkpt>
      <trkpt lat="47.13054" lon="-1.76829">
        <ele>83</ele>
        <time>2022-07-31T06:57:43Z</time>
      </trkpt>
      <trkpt lat="47.13052" lon="-1.76848">
        <ele>83</ele>
        <time>2022-07-31T06:57:45Z</time>
      </trkpt>
      <trkpt lat="47.1305" lon="-1.76867">
        <ele>82</ele>
        <time>2022-07-31T06:57:47Z</time>
      </trkpt>
      <trkpt lat="47.13048" lon="-1.76886">
        <ele>83</ele>
        <time>2022-07-31T06:57:49Z</time>
      </trkpt>
      <trkpt lat="47.13046" lon="-1.76905">
        <ele>83</ele>
        <time>2022-07-31T06:57:51Z</time>
      </trkpt>
      <trkpt lat="47.13044" lon="-1.76924">
        <ele>83</ele>
        <time>2022-07-31T06:57:53Z</time>
      </trkpt>
      <trkpt lat="47.13043" lon="-1.76943">
        <ele>82</ele>
        <time>2022-07-31T06:57:55Z</time>
      </trkpt>
      <trkpt lat="47.13042" lon="-1.76961">
        <ele>83</ele>
        <time>2022-07-31T06:57:57Z</time>
      </trkpt>
      <trkpt lat="47.13041" lon="-1.7698">
        <ele>83</ele>
        <time>2022-07-31T06:57:59Z</time>
      </trkpt>
      <trkpt lat="47.1304" lon="-1.76998">
        <ele>83</ele>
        <time>2022-07-31T06:58:01Z</time>
      </trkpt>
      <trkpt lat="47.13039" lon="-1.77017">
        <ele>84</ele>
        <time>2022-07-31T06:58:03Z</time>
      </trkpt>
      <trkpt lat="47.13038" lon="-1.77035">
        <ele>84</ele>
        <time>2022-07-31T06:58:05Z</time>
      </trkpt>
      <trkpt lat="47.13037" lon="-1.77053">
        <ele>84</ele>
        <time>2022-07-31T06:58:07Z</time>
      </trkpt>
      <trkpt lat="47.13035" lon="-1.77071">
        <ele>84</ele>
        <time>2022-07-31T06:58:09Z</time>
      </trkpt>
      <trkpt lat="47.13033" lon="-1.77089">
        <ele>84</ele>
        <time>2022-07-31T06:58:11Z</time>
      </trkpt>
      <trkpt lat="47.13031" lon="-1.77108">
        <ele>84</ele>
        <time>2022-07-31T06:58:13Z</time>
      </trkpt>
      <trkpt lat="47.13029" lon="-1.77126">
        <ele>84</ele>
        <time>2022-07-31T06:58:15Z</time>
      </trkpt>
      <trkpt lat="47.13026" lon="-1.77144">
        <ele>84</ele>
        <time>2022-07-31T06:58:17Z</time>
      </trkpt>
      <trkpt lat="47.13023" lon="-1.77161">
        <ele>84</ele>
        <time>2022-07-31T06:58:19Z</time>
      </trkpt>
      <trkpt lat="47.13019" lon="-1.77178">
        <ele>85</ele>
        <time>2022-07-31T06:58:21Z</time>
      </trkpt>
      <trkpt lat="47.13015" lon="-1.77195">
        <ele>85</ele>
        <time>2022-07-31T06:58:23Z</time>
      </trkpt>
      <trkpt lat="47.13011" lon="-1.77212">
        <ele>85</ele>
        <time>2022-07-31T06:58:25Z</time>
      </trkpt>
      <trkpt lat="47.13007" lon="-1.77229">
        <ele>85</ele>
        <time>2022-07-31T06:58:27Z</time>
      </trkpt>
      <trkpt lat="47.13003" lon="-1.77246">
        <ele>85</ele>
        <time>2022-07-31T06:58:29Z</time>
      </trkpt>
      <trkpt lat="47.12998" lon="-1.77262">
        <ele>86</ele>
        <time>2022-07-31T06:58:31Z</time>
      </trkpt>
      <trkpt lat="47.12993" lon="-1.77279">
        <ele>86</ele>
        <time>2022-07-31T06:58:33Z</time>
      </trkpt>
      <trkpt lat="47.12987" lon="-1.77295">
        <ele>85</ele>
        <time>2022-07-31T06:58:35Z</time>
      </trkpt>
      <trkpt lat="47.12981" lon="-1.77312">
        <ele>85</ele>
        <time>2022-07-31T06:58:37Z</time>
      </trkpt>
      <trkpt lat="47.12975" lon="-1.77328">
        <ele>86</ele>
        <time>2022-07-31T06:58:39Z</time>
      </trkpt>
      <trkpt lat="47.12968" lon="-1.77344">
        <ele>85</ele>
        <time>2022-07-31T06:58:41Z</time>
      </trkpt>
      <trkpt lat="47.12963" lon="-1.77361">
        <ele>86</ele>
        <time>2022-07-31T06:58:43Z</time>
      </trkpt>
      <trkpt lat="47.12956" lon="-1.77377">
        <ele>86</ele>
        <time>2022-07-31T06:58:45Z</time>
      </trkpt>
      <trkpt lat="47.12949" lon="-1.77392">
        <ele>86</ele>
        <time>2022-07-31T06:58:47Z</time>
      </trkpt>
      <trkpt lat="47.12943" lon="-1.77408">
        <ele>86</ele>
        <time>2022-07-31T06:58:49Z</time>
      </trkpt>
      <trkpt lat="47.12936" lon="-1.77424">
        <ele>86</ele>
        <time>2022-07-31T06:58:51Z</time>
      </trkpt>
      <trkpt lat="47.1293" lon="-1.77441">
        <ele>86</ele>
        <time>2022-07-31T06:58:53Z</time>
      </trkpt>
      <trkpt lat="47.12925" lon="-1.77457">
        <ele>85</ele>
        <time>2022-07-31T06:58:55Z</time>
      </trkpt>
      <trkpt lat="47.12919" lon="-1.77474">
        <ele>86</ele>
        <time>2022-07-31T06:58:57Z</time>
      </trkpt>
      <trkpt lat="47.12915" lon="-1.77492">
        <ele>86</ele>
        <time>2022-07-31T06:58:59Z</time>
      </trkpt>
      <trkpt lat="47.1291" lon="-1.7751">
        <ele>85</ele>
        <time>2022-07-31T06:59:01Z</time>
      </trkpt>
      <trkpt lat="47.12905" lon="-1.77526">
        <ele>85</ele>
        <time>2022-07-31T06:59:03Z</time>
      </trkpt>
      <trkpt lat="47.12901" lon="-1.77543">
        <ele>86</ele>
        <time>2022-07-31T06:59:05Z</time>
      </trkpt>
      <trkpt lat="47.12897" lon="-1.7756">
        <ele>86</ele>
        <time>2022-07-31T06:59:07Z</time>
      </trkpt>
      <trkpt lat="47.12893" lon="-1.77576">
        <ele>86</ele>
        <time>2022-07-31T06:59:09Z</time>
      </trkpt>
      <trkpt lat="47.12889" lon="-1.77593">
        <ele>86</ele>
        <time>2022-07-31T06:59:11Z</time>
      </trkpt>
      <trkpt lat="47.12884" lon="-1.77609">
        <ele>87</ele>
        <time>2022-07-31T06:59:13Z</time>
      </trkpt>
      <trkpt lat="47.12881" lon="-1.77626">
        <ele>87</ele>
        <time>2022-07-31T06:59:15Z</time>
      </trkpt>
      <trkpt lat="47.12877" lon="-1.77641">
        <ele>88</ele>
        <time>2022-07-31T06:59:17Z</time>
      </trkpt>
      <trkpt lat="47.12873" lon="-1.77658">
        <ele>87</ele>
        <time>2022-07-31T06:59:19Z</time>
      </trkpt>
      <trkpt lat="47.12869" lon="-1.77675">
        <ele>88</ele>
        <time>2022-07-31T06:59:21Z</time>
      </trkpt>
      <trkpt lat="47.12866" lon="-1.77692">
        <ele>88</ele>
        <time>2022-07-31T06:59:23Z</time>
      </trkpt>
      <trkpt lat="47.12862" lon="-1.77711">
        <ele>89</ele>
        <time>2022-07-31T06:59:25Z</time>
      </trkpt>
      <trkpt lat="47.12858" lon="-1.7773">
        <ele>90</ele>
        <time>2022-07-31T06:59:27Z</time>
      </trkpt>
      <trkpt lat="47.12852" lon="-1.77747">
        <ele>90</ele>
        <time>2022-07-31T06:59:29Z</time>
      </trkpt>
      <trkpt lat="47.12846" lon="-1.77765">
        <ele>90</ele>
        <time>2022-07-31T06:59:31Z</time>
      </trkpt>
      <trkpt lat="47.12839" lon="-1.77782">
        <ele>88</ele>
        <time>2022-07-31T06:59:33Z</time>
      </trkpt>
      <trkpt lat="47.12832" lon="-1.77799">
        <ele>88</ele>
        <time>2022-07-31T06:59:35Z</time>
      </trkpt>
      <trkpt lat="47.12826" lon="-1.77815">
        <ele>87</ele>
        <time>2022-07-31T06:59:37Z</time>
      </trkpt>
      <trkpt lat="47.12819" lon="-1.77832">
        <ele>87</ele>
        <time>2022-07-31T06:59:39Z</time>
      </trkpt>
      <trkpt lat="47.12812" lon="-1.77849">
        <ele>87</ele>
        <time>2022-07-31T06:59:41Z</time>
      </trkpt>
      <trkpt lat="47.12806" lon="-1.77866">
        <ele>87</ele>
        <time>2022-07-31T06:59:43Z</time>
      </trkpt>
      <trkpt lat="47.128" lon="-1.77883">
        <ele>87</ele>
        <time>2022-07-31T06:59:45Z</time>
      </trkpt>
      <trkpt lat="47.12795" lon="-1.779">
        <ele>86</ele>
        <time>2022-07-31T06:59:47Z</time>
      </trkpt>
      <trkpt lat="47.1279" lon="-1.77917">
        <ele>86</ele>
        <time>2022-07-31T06:59:49Z</time>
      </trkpt>
      <trkpt lat="47.12785" lon="-1.77935">
        <ele>86</ele>
        <time>2022-07-31T06:59:51Z</time>
      </trkpt>
      <trkpt lat="47.1278" lon="-1.77952">
        <ele>86</ele>
        <time>2022-07-31T06:59:53Z</time>
      </trkpt>
      <trkpt lat="47.12775" lon="-1.7797">
        <ele>86</ele>
        <time>2022-07-31T06:59:55Z</time>
      </trkpt>
      <trkpt lat="47.1277" lon="-1.77988">
        <ele>86</ele>
        <time>2022-07-31T06:59:57Z</time>
      </trkpt>
      <trkpt lat="47.12765" lon="-1.78006">
        <ele>85</ele>
        <time>2022-07-31T06:59:59Z</time>
      </trkpt>
      <trkpt lat="47.12759" lon="-1.78024">
        <ele>85</ele>
        <time>2022-07-31T07:00:01Z</time>
      </trkpt>
      <trkpt lat="47.12752" lon="-1.78042">
        <ele>85</ele>
        <time>2022-07-31T07:00:03Z</time>
      </trkpt>
      <trkpt lat="47.12743" lon="-1.78058">
        <ele>85</ele>
        <time>2022-07-31T07:00:05Z</time>
      </trkpt>
      <trkpt lat="47.12734" lon="-1.78073">
        <ele>85</ele>
        <time>2022-07-31T07:00:07Z</time>
      </trkpt>
      <trkpt lat="47.12725" lon="-1.78087">
        <ele>85</ele>
        <time>2022-07-31T07:00:09Z</time>
      </trkpt>
      <trkpt lat="47.12715" lon="-1.78101">
        <ele>85</ele>
        <time>2022-07-31T07:00:11Z</time>
      </trkpt>
      <trkpt lat="47.12705" lon="-1.78115">
        <ele>85</ele>
        <time>2022-07-31T07:00:13Z</time>
      </trkpt>
      <trkpt lat="47.12695" lon="-1.78129">
        <ele>85</ele>
        <time>2022-07-31T07:00:15Z</time>
      </trkpt>
      <trkpt lat="47.12685" lon="-1.78142">
        <ele>85</ele>
        <time>2022-07-31T07:00:17Z</time>
      </trkpt>
      <trkpt lat="47.12676" lon="-1.78156">
        <ele>85</ele>
        <time>2022-07-31T07:00:19Z</time>
      </trkpt>
      <trkpt lat="47.12665" lon="-1.7817">
        <ele>85</ele>
        <time>2022-07-31T07:00:21Z</time>
      </trkpt>
      <trkpt lat="47.12655" lon="-1.78183">
        <ele>85</ele>
        <time>2022-07-31T07:00:23Z</time>
      </trkpt>
      <trkpt lat="47.12645" lon="-1.78197">
        <ele>85</ele>
        <time>2022-07-31T07:00:25Z</time>
      </trkpt>
      <trkpt lat="47.12636" lon="-1.78211">
        <ele>84</ele>
        <time>2022-07-31T07:00:27Z</time>
      </trkpt>
      <trkpt lat="47.12629" lon="-1.78227">
        <ele>85</ele>
        <time>2022-07-31T07:00:29Z</time>
      </trkpt>
      <trkpt lat="47.12623" lon="-1.78245">
        <ele>84</ele>
        <time>2022-07-31T07:00:31Z</time>
      </trkpt>
      <trkpt lat="47.12619" lon="-1.78264">
        <ele>84</ele>
        <time>2022-07-31T07:00:33Z</time>
      </trkpt>
      <trkpt lat="47.12615" lon="-1.78282">
        <ele>84</ele>
        <time>2022-07-31T07:00:35Z</time>
      </trkpt>
      <trkpt lat="47.12611" lon="-1.78301">
        <ele>84</ele>
        <time>2022-07-31T07:00:37Z</time>
      </trkpt>
      <trkpt lat="47.12606" lon="-1.7832">
        <ele>84</ele>
        <time>2022-07-31T07:00:39Z</time>
      </trkpt>
      <trkpt lat="47.12601" lon="-1.78339">
        <ele>84</ele>
        <time>2022-07-31T07:00:41Z</time>
      </trkpt>
      <trkpt lat="47.12597" lon="-1.78358">
        <ele>83</ele>
        <time>2022-07-31T07:00:43Z</time>
      </trkpt>
      <trkpt lat="47.12593" lon="-1.78378">
        <ele>83</ele>
        <time>2022-07-31T07:00:45Z</time>
      </trkpt>
      <trkpt lat="47.12588" lon="-1.78397">
        <ele>83</ele>
        <time>2022-07-31T07:00:47Z</time>
      </trkpt>
      <trkpt lat="47.12584" lon="-1.78416">
        <ele>83</ele>
        <time>2022-07-31T07:00:49Z</time>
      </trkpt>
      <trkpt lat="47.12579" lon="-1.78434">
        <ele>83</ele>
        <time>2022-07-31T07:00:51Z</time>
      </trkpt>
      <trkpt lat="47.12575" lon="-1.78453">
        <ele>83</ele>
        <time>2022-07-31T07:00:53Z</time>
      </trkpt>
      <trkpt lat="47.1257" lon="-1.78472">
        <ele>82</ele>
        <time>2022-07-31T07:00:55Z</time>
      </trkpt>
      <trkpt lat="47.12566" lon="-1.78492">
        <ele>82</ele>
        <time>2022-07-31T07:00:57Z</time>
      </trkpt>
      <trkpt lat="47.12561" lon="-1.78511">
        <ele>82</ele>
        <time>2022-07-31T07:00:59Z</time>
      </trkpt>
      <trkpt lat="47.12557" lon="-1.7853">
        <ele>82</ele>
        <time>2022-07-31T07:01:01Z</time>
      </trkpt>
      <trkpt lat="47.12552" lon="-1.78549">
        <ele>82</ele>
        <time>2022-07-31T07:01:03Z</time>
      </trkpt>
      <trkpt lat="47.12548" lon="-1.78568">
        <ele>82</ele>
        <time>2022-07-31T07:01:05Z</time>
      </trkpt>
      <trkpt lat="47.12543" lon="-1.78587">
        <ele>81</ele>
        <time>2022-07-31T07:01:07Z</time>
      </trkpt>
      <trkpt lat="47.12538" lon="-1.78606">
        <ele>81</ele>
        <time>2022-07-31T07:01:09Z</time>
      </trkpt>
      <trkpt lat="47.12533" lon="-1.78625">
        <ele>81</ele>
        <time>2022-07-31T07:01:11Z</time>
      </trkpt>
      <trkpt lat="47.12527" lon="-1.78643">
        <ele>81</ele>
        <time>2022-07-31T07:01:13Z</time>
      </trkpt>
      <trkpt lat="47.12521" lon="-1.7866">
        <ele>81</ele>
        <time>2022-07-31T07:01:15Z</time>
      </trkpt>
      <trkpt lat="47.12514" lon="-1.78677">
        <ele>81</ele>
        <time>2022-07-31T07:01:17Z</time>
      </trkpt>
      <trkpt lat="47.12508" lon="-1.78695">
        <ele>81</ele>
        <time>2022-07-31T07:01:19Z</time>
      </trkpt>
      <trkpt lat="47.12503" lon="-1.78713">
        <ele>81</ele>
        <time>2022-07-31T07:01:21Z</time>
      </trkpt>
      <trkpt lat="47.12497" lon="-1.78731">
        <ele>81</ele>
        <time>2022-07-31T07:01:23Z</time>
      </trkpt>
      <trkpt lat="47.12492" lon="-1.7875">
        <ele>81</ele>
        <time>2022-07-31T07:01:25Z</time>
      </trkpt>
      <trkpt lat="47.12488" lon="-1.78769">
        <ele>81</ele>
        <time>2022-07-31T07:01:27Z</time>
      </trkpt>
      <trkpt lat="47.12484" lon="-1.78788">
        <ele>81</ele>
        <time>2022-07-31T07:01:29Z</time>
      </trkpt>
      <trkpt lat="47.12479" lon="-1.78806">
        <ele>81</ele>
        <time>2022-07-31T07:01:31Z</time>
      </trkpt>
      <trkpt lat="47.12476" lon="-1.78825">
        <ele>81</ele>
        <time>2022-07-31T07:01:33Z</time>
      </trkpt>
      <trkpt lat="47.12473" lon="-1.78844">
        <ele>81</ele>
        <time>2022-07-31T07:01:35Z</time>
      </trkpt>
      <trkpt lat="47.12471" lon="-1.78864">
        <ele>81</ele>
        <time>2022-07-31T07:01:37Z</time>
      </trkpt>
      <trkpt lat="47.1247" lon="-1.78883">
        <ele>80</ele>
        <time>2022-07-31T07:01:39Z</time>
      </trkpt>
      <trkpt lat="47.12468" lon="-1.78902">
        <ele>81</ele>
        <time>2022-07-31T07:01:41Z</time>
      </trkpt>
      <trkpt lat="47.12466" lon="-1.78921">
        <ele>81</ele>
        <time>2022-07-31T07:01:43Z</time>
      </trkpt>
      <trkpt lat="47.12462" lon="-1.7894">
        <ele>81</ele>
        <time>2022-07-31T07:01:45Z</time>
      </trkpt>
      <trkpt lat="47.12457" lon="-1.78957">
        <ele>80</ele>
        <time>2022-07-31T07:01:47Z</time>
      </trkpt>
      <trkpt lat="47.12453" lon="-1.78975">
        <ele>80</ele>
        <time>2022-07-31T07:01:49Z</time>
      </trkpt>
      <trkpt lat="47.12448" lon="-1.78993">
        <ele>80</ele>
        <time>2022-07-31T07:01:51Z</time>
      </trkpt>
      <trkpt lat="47.12444" lon="-1.79011">
        <ele>81</ele>
        <time>2022-07-31T07:01:53Z</time>
      </trkpt>
      <trkpt lat="47.12439" lon="-1.79029">
        <ele>81</ele>
        <time>2022-07-31T07:01:55Z</time>
      </trkpt>
      <trkpt lat="47.12435" lon="-1.79047">
        <ele>81</ele>
        <time>2022-07-31T07:01:57Z</time>
      </trkpt>
      <trkpt lat="47.12431" lon="-1.79065">
        <ele>81</ele>
        <time>2022-07-31T07:01:59Z</time>
      </trkpt>
      <trkpt lat="47.12428" lon="-1.79083">
        <ele>81</ele>
        <time>2022-07-31T07:02:01Z</time>
      </trkpt>
      <trkpt lat="47.12424" lon="-1.79101">
        <ele>81</ele>
        <time>2022-07-31T07:02:03Z</time>
      </trkpt>
      <trkpt lat="47.12421" lon="-1.79119">
        <ele>81</ele>
        <time>2022-07-31T07:02:05Z</time>
      </trkpt>
      <trkpt lat="47.1242" lon="-1.79138">
        <ele>81</ele>
        <time>2022-07-31T07:02:07Z</time>
      </trkpt>
      <trkpt lat="47.1242" lon="-1.79157">
        <ele>81</ele>
        <time>2022-07-31T07:02:09Z</time>
      </trkpt>
      <trkpt lat="47.12421" lon="-1.79176">
        <ele>80</ele>
        <time>2022-07-31T07:02:11Z</time>
      </trkpt>
      <trkpt lat="47.12422" lon="-1.79195">
        <ele>80</ele>
        <time>2022-07-31T07:02:13Z</time>
      </trkpt>
      <trkpt lat="47.12424" lon="-1.79214">
        <ele>80</ele>
        <time>2022-07-31T07:02:15Z</time>
      </trkpt>
      <trkpt lat="47.12425" lon="-1.79234">
        <ele>80</ele>
        <time>2022-07-31T07:02:17Z</time>
      </trkpt>
      <trkpt lat="47.12425" lon="-1.79252">
        <ele>79</ele>
        <time>2022-07-31T07:02:19Z</time>
      </trkpt>
      <trkpt lat="47.12422" lon="-1.79271">
        <ele>80</ele>
        <time>2022-07-31T07:02:21Z</time>
      </trkpt>
      <trkpt lat="47.12416" lon="-1.79288">
        <ele>80</ele>
        <time>2022-07-31T07:02:23Z</time>
      </trkpt>
      <trkpt lat="47.12409" lon="-1.79305">
        <ele>79</ele>
        <time>2022-07-31T07:02:25Z</time>
      </trkpt>
      <trkpt lat="47.12402" lon="-1.79321">
        <ele>79</ele>
        <time>2022-07-31T07:02:27Z</time>
      </trkpt>
      <trkpt lat="47.12394" lon="-1.79337">
        <ele>79</ele>
        <time>2022-07-31T07:02:29Z</time>
      </trkpt>
      <trkpt lat="47.12387" lon="-1.79352">
        <ele>80</ele>
        <time>2022-07-31T07:02:31Z</time>
      </trkpt>
      <trkpt lat="47.12379" lon="-1.79367">
        <ele>80</ele>
        <time>2022-07-31T07:02:33Z</time>
      </trkpt>
      <trkpt lat="47.12373" lon="-1.79384">
        <ele>80</ele>
        <time>2022-07-31T07:02:35Z</time>
      </trkpt>
      <trkpt lat="47.12367" lon="-1.79401">
        <ele>81</ele>
        <time>2022-07-31T07:02:37Z</time>
      </trkpt>
      <trkpt lat="47.12362" lon="-1.79417">
        <ele>81</ele>
        <time>2022-07-31T07:02:39Z</time>
      </trkpt>
      <trkpt lat="47.12357" lon="-1.79434">
        <ele>81</ele>
        <time>2022-07-31T07:02:41Z</time>
      </trkpt>
      <trkpt lat="47.12352" lon="-1.79452">
        <ele>81</ele>
        <time>2022-07-31T07:02:43Z</time>
      </trkpt>
      <trkpt lat="47.12349" lon="-1.79471">
        <ele>81</ele>
        <time>2022-07-31T07:02:45Z</time>
      </trkpt>
      <trkpt lat="47.12346" lon="-1.7949">
        <ele>81</ele>
        <time>2022-07-31T07:02:47Z</time>
      </trkpt>
      <trkpt lat="47.12343" lon="-1.7951">
        <ele>81</ele>
        <time>2022-07-31T07:02:49Z</time>
      </trkpt>
      <trkpt lat="47.12341" lon="-1.79528">
        <ele>81</ele>
        <time>2022-07-31T07:02:51Z</time>
      </trkpt>
      <trkpt lat="47.12338" lon="-1.79547">
        <ele>81</ele>
        <time>2022-07-31T07:02:53Z</time>
      </trkpt>
      <trkpt lat="47.12336" lon="-1.79566">
        <ele>81</ele>
        <time>2022-07-31T07:02:55Z</time>
      </trkpt>
      <trkpt lat="47.12331" lon="-1.79583">
        <ele>81</ele>
        <time>2022-07-31T07:02:57Z</time>
      </trkpt>
      <trkpt lat="47.12322" lon="-1.79593">
        <ele>81</ele>
        <time>2022-07-31T07:02:59Z</time>
      </trkpt>
      <trkpt lat="47.12309" lon="-1.79596">
        <ele>81</ele>
        <time>2022-07-31T07:03:01Z</time>
      </trkpt>
      <trkpt lat="47.12297" lon="-1.79597">
        <ele>81</ele>
        <time>2022-07-31T07:03:03Z</time>
      </trkpt>
      <trkpt lat="47.12284" lon="-1.79596">
        <ele>81</ele>
        <time>2022-07-31T07:03:05Z</time>
      </trkpt>
      <trkpt lat="47.12272" lon="-1.79595">
        <ele>82</ele>
        <time>2022-07-31T07:03:07Z</time>
      </trkpt>
      <trkpt lat="47.12259" lon="-1.79595">
        <ele>81</ele>
        <time>2022-07-31T07:03:09Z</time>
      </trkpt>
      <trkpt lat="47.12246" lon="-1.79595">
        <ele>81</ele>
        <time>2022-07-31T07:03:11Z</time>
      </trkpt>
      <trkpt lat="47.12233" lon="-1.79595">
        <ele>82</ele>
        <time>2022-07-31T07:03:13Z</time>
      </trkpt>
      <trkpt lat="47.12221" lon="-1.79594">
        <ele>82</ele>
        <time>2022-07-31T07:03:15Z</time>
      </trkpt>
      <trkpt lat="47.12208" lon="-1.79594">
        <ele>82</ele>
        <time>2022-07-31T07:03:17Z</time>
      </trkpt>
      <trkpt lat="47.12195" lon="-1.79594">
        <ele>82</ele>
        <time>2022-07-31T07:03:19Z</time>
      </trkpt>
      <trkpt lat="47.12183" lon="-1.79593">
        <ele>82</ele>
        <time>2022-07-31T07:03:21Z</time>
      </trkpt>
      <trkpt lat="47.1217" lon="-1.79593">
        <ele>82</ele>
        <time>2022-07-31T07:03:23Z</time>
      </trkpt>
      <trkpt lat="47.12157" lon="-1.79593">
        <ele>81</ele>
        <time>2022-07-31T07:03:25Z</time>
      </trkpt>
      <trkpt lat="47.12144" lon="-1.79594">
        <ele>81</ele>
        <time>2022-07-31T07:03:27Z</time>
      </trkpt>
      <trkpt lat="47.1213" lon="-1.79595">
        <ele>81</ele>
        <time>2022-07-31T07:03:29Z</time>
      </trkpt>
      <trkpt lat="47.12116" lon="-1.79596">
        <ele>80</ele>
        <time>2022-07-31T07:03:31Z</time>
      </trkpt>
      <trkpt lat="47.12103" lon="-1.79599">
        <ele>79</ele>
        <time>2022-07-31T07:03:33Z</time>
      </trkpt>
      <trkpt lat="47.1209" lon="-1.79606">
        <ele>79</ele>
        <time>2022-07-31T07:03:35Z</time>
      </trkpt>
      <trkpt lat="47.12079" lon="-1.79616">
        <ele>78</ele>
        <time>2022-07-31T07:03:37Z</time>
      </trkpt>
      <trkpt lat="47.12067" lon="-1.79628">
        <ele>78</ele>
        <time>2022-07-31T07:03:39Z</time>
      </trkpt>
      <trkpt lat="47.12056" lon="-1.7964">
        <ele>77</ele>
        <time>2022-07-31T07:03:41Z</time>
      </trkpt>
      <trkpt lat="47.12044" lon="-1.79652">
        <ele>77</ele>
        <time>2022-07-31T07:03:43Z</time>
      </trkpt>
      <trkpt lat="47.12032" lon="-1.79664">
        <ele>77</ele>
        <time>2022-07-31T07:03:45Z</time>
      </trkpt>
      <trkpt lat="47.1202" lon="-1.79676">
        <ele>77</ele>
        <time>2022-07-31T07:03:47Z</time>
      </trkpt>
      <trkpt lat="47.12008" lon="-1.79687">
        <ele>77</ele>
        <time>2022-07-31T07:03:49Z</time>
      </trkpt>
      <trkpt lat="47.11997" lon="-1.797">
        <ele>76</ele>
        <time>2022-07-31T07:03:51Z</time>
      </trkpt>
      <trkpt lat="47.11985" lon="-1.79712">
        <ele>76</ele>
        <time>2022-07-31T07:03:53Z</time>
      </trkpt>
      <trkpt lat="47.11973" lon="-1.79725">
        <ele>76</ele>
        <time>2022-07-31T07:03:55Z</time>
      </trkpt>
      <trkpt lat="47.11963" lon="-1.79737">
        <ele>76</ele>
        <time>2022-07-31T07:03:57Z</time>
      </trkpt>
      <trkpt lat="47.11953" lon="-1.79751">
        <ele>76</ele>
        <time>2022-07-31T07:03:59Z</time>
      </trkpt>
      <trkpt lat="47.11942" lon="-1.79765">
        <ele>76</ele>
        <time>2022-07-31T07:04:01Z</time>
      </trkpt>
      <trkpt lat="47.11932" lon="-1.79778">
        <ele>76</ele>
        <time>2022-07-31T07:04:03Z</time>
      </trkpt>
      <trkpt lat="47.11921" lon="-1.79792">
        <ele>75</ele>
        <time>2022-07-31T07:04:05Z</time>
      </trkpt>
      <trkpt lat="47.1191" lon="-1.79804">
        <ele>75</ele>
        <time>2022-07-31T07:04:07Z</time>
      </trkpt>
      <trkpt lat="47.11899" lon="-1.79817">
        <ele>75</ele>
        <time>2022-07-31T07:04:09Z</time>
      </trkpt>
      <trkpt lat="47.11888" lon="-1.7983">
        <ele>75</ele>
        <time>2022-07-31T07:04:11Z</time>
      </trkpt>
      <trkpt lat="47.11877" lon="-1.79842">
        <ele>75</ele>
        <time>2022-07-31T07:04:13Z</time>
      </trkpt>
      <trkpt lat="47.11866" lon="-1.79855">
        <ele>75</ele>
        <time>2022-07-31T07:04:15Z</time>
      </trkpt>
      <trkpt lat="47.11855" lon="-1.79867">
        <ele>75</ele>
        <time>2022-07-31T07:04:17Z</time>
      </trkpt>
      <trkpt lat="47.11844" lon="-1.79879">
        <ele>75</ele>
        <time>2022-07-31T07:04:19Z</time>
      </trkpt>
      <trkpt lat="47.11833" lon="-1.79891">
        <ele>75</ele>
        <time>2022-07-31T07:04:21Z</time>
      </trkpt>
      <trkpt lat="47.11822" lon="-1.79903">
        <ele>75</ele>
        <time>2022-07-31T07:04:23Z</time>
      </trkpt>
      <trkpt lat="47.11812" lon="-1.79914">
        <ele>75</ele>
        <time>2022-07-31T07:04:25Z</time>
      </trkpt>
      <trkpt lat="47.11801" lon="-1.79926">
        <ele>75</ele>
        <time>2022-07-31T07:04:27Z</time>
      </trkpt>
      <trkpt lat="47.11791" lon="-1.79937">
        <ele>75</ele>
        <time>2022-07-31T07:04:29Z</time>
      </trkpt>
      <trkpt lat="47.11782" lon="-1.79948">
        <ele>75</ele>
        <time>2022-07-31T07:04:31Z</time>
      </trkpt>
      <trkpt lat="47.11773" lon="-1.79957">
        <ele>75</ele>
        <time>2022-07-31T07:04:33Z</time>
      </trkpt>
      <trkpt lat="47.11766" lon="-1.79969">
        <ele>75</ele>
        <time>2022-07-31T07:04:35Z</time>
      </trkpt>
      <trkpt lat="47.11756" lon="-1.79978">
        <ele>75</ele>
        <time>2022-07-31T07:04:37Z</time>
      </trkpt>
      <trkpt lat="47.11743" lon="-1.79976">
        <ele>75</ele>
        <time>2022-07-31T07:04:39Z</time>
      </trkpt>
      <trkpt lat="47.11729" lon="-1.79973">
        <ele>75</ele>
        <time>2022-07-31T07:04:41Z</time>
      </trkpt>
      <trkpt lat="47.11716" lon="-1.79971">
        <ele>76</ele>
        <time>2022-07-31T07:04:43Z</time>
      </trkpt>
      <trkpt lat="47.11703" lon="-1.79969">
        <ele>76</ele>
        <time>2022-07-31T07:04:45Z</time>
      </trkpt>
      <trkpt lat="47.11689" lon="-1.79967">
        <ele>77</ele>
        <time>2022-07-31T07:04:47Z</time>
      </trkpt>
      <trkpt lat="47.11676" lon="-1.79965">
        <ele>76</ele>
        <time>2022-07-31T07:04:49Z</time>
      </trkpt>
      <trkpt lat="47.11662" lon="-1.79963">
        <ele>76</ele>
        <time>2022-07-31T07:04:51Z</time>
      </trkpt>
      <trkpt lat="47.11648" lon="-1.7996">
        <ele>76</ele>
        <time>2022-07-31T07:04:53Z</time>
      </trkpt>
      <trkpt lat="47.11634" lon="-1.79959">
        <ele>75</ele>
        <time>2022-07-31T07:04:55Z</time>
      </trkpt>
      <trkpt lat="47.1162" lon="-1.79957">
        <ele>76</ele>
        <time>2022-07-31T07:04:57Z</time>
      </trkpt>
      <trkpt lat="47.11607" lon="-1.79955">
        <ele>75</ele>
        <time>2022-07-31T07:04:59Z</time>
      </trkpt>
      <trkpt lat="47.11593" lon="-1.79954">
        <ele>75</ele>
        <time>2022-07-31T07:05:01Z</time>
      </trkpt>
      <trkpt lat="47.11579" lon="-1.79953">
        <ele>75</ele>
        <time>2022-07-31T07:05:03Z</time>
      </trkpt>
      <trkpt lat="47.11566" lon="-1.79955">
        <ele>75</ele>
        <time>2022-07-31T07:05:05Z</time>
      </trkpt>
      <trkpt lat="47.11552" lon="-1.7996">
        <ele>74</ele>
        <time>2022-07-31T07:05:07Z</time>
      </trkpt>
      <trkpt lat="47.1154" lon="-1.79968">
        <ele>73</ele>
        <time>2022-07-31T07:05:09Z</time>
      </trkpt>
      <trkpt lat="47.11529" lon="-1.79979">
        <ele>73</ele>
        <time>2022-07-31T07:05:11Z</time>
      </trkpt>
      <trkpt lat="47.11517" lon="-1.79992">
        <ele>73</ele>
        <time>2022-07-31T07:05:13Z</time>
      </trkpt>
      <trkpt lat="47.11507" lon="-1.80005">
        <ele>73</ele>
        <time>2022-07-31T07:05:15Z</time>
      </trkpt>
      <trkpt lat="47.11497" lon="-1.80019">
        <ele>73</ele>
        <time>2022-07-31T07:05:17Z</time>
      </trkpt>
      <trkpt lat="47.11487" lon="-1.80033">
        <ele>73</ele>
        <time>2022-07-31T07:05:19Z</time>
      </trkpt>
      <trkpt lat="47.11476" lon="-1.80046">
        <ele>73</ele>
        <time>2022-07-31T07:05:21Z</time>
      </trkpt>
      <trkpt lat="47.11466" lon="-1.8006">
        <ele>73</ele>
        <time>2022-07-31T07:05:23Z</time>
      </trkpt>
      <trkpt lat="47.11455" lon="-1.80074">
        <ele>73</ele>
        <time>2022-07-31T07:05:25Z</time>
      </trkpt>
      <trkpt lat="47.11444" lon="-1.80088">
        <ele>73</ele>
        <time>2022-07-31T07:05:27Z</time>
      </trkpt>
      <trkpt lat="47.11434" lon="-1.80102">
        <ele>72</ele>
        <time>2022-07-31T07:05:29Z</time>
      </trkpt>
      <trkpt lat="47.11423" lon="-1.80116">
        <ele>72</ele>
        <time>2022-07-31T07:05:31Z</time>
      </trkpt>
      <trkpt lat="47.11413" lon="-1.8013">
        <ele>71</ele>
        <time>2022-07-31T07:05:33Z</time>
      </trkpt>
      <trkpt lat="47.11402" lon="-1.80144">
        <ele>72</ele>
        <time>2022-07-31T07:05:35Z</time>
      </trkpt>
      <trkpt lat="47.11391" lon="-1.80158">
        <ele>71</ele>
        <time>2022-07-31T07:05:37Z</time>
      </trkpt>
      <trkpt lat="47.11381" lon="-1.80173">
        <ele>71</ele>
        <time>2022-07-31T07:05:39Z</time>
      </trkpt>
      <trkpt lat="47.1137" lon="-1.80186">
        <ele>71</ele>
        <time>2022-07-31T07:05:41Z</time>
      </trkpt>
      <trkpt lat="47.11359" lon="-1.802">
        <ele>70</ele>
        <time>2022-07-31T07:05:43Z</time>
      </trkpt>
      <trkpt lat="47.11348" lon="-1.80215">
        <ele>70</ele>
        <time>2022-07-31T07:05:45Z</time>
      </trkpt>
      <trkpt lat="47.11338" lon="-1.80231">
        <ele>70</ele>
        <time>2022-07-31T07:05:47Z</time>
      </trkpt>
      <trkpt lat="47.11327" lon="-1.80246">
        <ele>70</ele>
        <time>2022-07-31T07:05:49Z</time>
      </trkpt>
      <trkpt lat="47.11317" lon="-1.80262">
        <ele>70</ele>
        <time>2022-07-31T07:05:51Z</time>
      </trkpt>
      <trkpt lat="47.11308" lon="-1.80276">
        <ele>70</ele>
        <time>2022-07-31T07:05:53Z</time>
      </trkpt>
      <trkpt lat="47.11297" lon="-1.80289">
        <ele>70</ele>
        <time>2022-07-31T07:05:55Z</time>
      </trkpt>
      <trkpt lat="47.11288" lon="-1.80302">
        <ele>70</ele>
        <time>2022-07-31T07:05:57Z</time>
      </trkpt>
      <trkpt lat="47.11277" lon="-1.80317">
        <ele>69</ele>
        <time>2022-07-31T07:05:59Z</time>
      </trkpt>
      <trkpt lat="47.11267" lon="-1.80331">
        <ele>70</ele>
        <time>2022-07-31T07:06:01Z</time>
      </trkpt>
      <trkpt lat="47.11257" lon="-1.80344">
        <ele>70</ele>
        <time>2022-07-31T07:06:03Z</time>
      </trkpt>
      <trkpt lat="47.11246" lon="-1.80358">
        <ele>69</ele>
        <time>2022-07-31T07:06:05Z</time>
      </trkpt>
      <trkpt lat="47.11235" lon="-1.80371">
        <ele>69</ele>
        <time>2022-07-31T07:06:07Z</time>
      </trkpt>
      <trkpt lat="47.11224" lon="-1.80385">
        <ele>69</ele>
        <time>2022-07-31T07:06:09Z</time>
      </trkpt>
      <trkpt lat="47.11214" lon="-1.80398">
        <ele>69</ele>
        <time>2022-07-31T07:06:11Z</time>
      </trkpt>
      <trkpt lat="47.11203" lon="-1.8041">
        <ele>69</ele>
        <time>2022-07-31T07:06:13Z</time>
      </trkpt>
      <trkpt lat="47.11191" lon="-1.80421">
        <ele>69</ele>
        <time>2022-07-31T07:06:15Z</time>
      </trkpt>
      <trkpt lat="47.11179" lon="-1.80431">
        <ele>69</ele>
        <time>2022-07-31T07:06:17Z</time>
      </trkpt>
      <trkpt lat="47.11166" lon="-1.8044">
        <ele>70</ele>
        <time>2022-07-31T07:06:19Z</time>
      </trkpt>
      <trkpt lat="47.11154" lon="-1.80449">
        <ele>70</ele>
        <time>2022-07-31T07:06:21Z</time>
      </trkpt>
      <trkpt lat="47.11141" lon="-1.80457">
        <ele>70</ele>
        <time>2022-07-31T07:06:23Z</time>
      </trkpt>
      <trkpt lat="47.11129" lon="-1.80464">
        <ele>70</ele>
        <time>2022-07-31T07:06:25Z</time>
      </trkpt>
      <trkpt lat="47.11117" lon="-1.80473">
        <ele>70</ele>
        <time>2022-07-31T07:06:27Z</time>
      </trkpt>
      <trkpt lat="47.11104" lon="-1.80481">
        <ele>70</ele>
        <time>2022-07-31T07:06:29Z</time>
      </trkpt>
      <trkpt lat="47.11093" lon="-1.80489">
        <ele>70</ele>
        <time>2022-07-31T07:06:31Z</time>
      </trkpt>
      <trkpt lat="47.11081" lon="-1.80497">
        <ele>70</ele>
        <time>2022-07-31T07:06:33Z</time>
      </trkpt>
      <trkpt lat="47.11068" lon="-1.80504">
        <ele>70</ele>
        <time>2022-07-31T07:06:35Z</time>
      </trkpt>
      <trkpt lat="47.11056" lon="-1.80512">
        <ele>70</ele>
        <time>2022-07-31T07:06:37Z</time>
      </trkpt>
      <trkpt lat="47.11044" lon="-1.8052">
        <ele>70</ele>
        <time>2022-07-31T07:06:39Z</time>
      </trkpt>
      <trkpt lat="47.11033" lon="-1.80529">
        <ele>70</ele>
        <time>2022-07-31T07:06:41Z</time>
      </trkpt>
      <trkpt lat="47.1102" lon="-1.80538">
        <ele>70</ele>
        <time>2022-07-31T07:06:43Z</time>
      </trkpt>
      <trkpt lat="47.11008" lon="-1.80545">
        <ele>70</ele>
        <time>2022-07-31T07:06:45Z</time>
      </trkpt>
      <trkpt lat="47.10996" lon="-1.80553">
        <ele>70</ele>
        <time>2022-07-31T07:06:47Z</time>
      </trkpt>
      <trkpt lat="47.10984" lon="-1.80561">
        <ele>69</ele>
        <time>2022-07-31T07:06:49Z</time>
      </trkpt>
      <trkpt lat="47.10972" lon="-1.80569">
        <ele>69</ele>
        <time>2022-07-31T07:06:51Z</time>
      </trkpt>
      <trkpt lat="47.10959" lon="-1.80578">
        <ele>69</ele>
        <time>2022-07-31T07:06:53Z</time>
      </trkpt>
      <trkpt lat="47.10946" lon="-1.80586">
        <ele>69</ele>
        <time>2022-07-31T07:06:55Z</time>
      </trkpt>
      <trkpt lat="47.10934" lon="-1.80594">
        <ele>69</ele>
        <time>2022-07-31T07:06:57Z</time>
      </trkpt>
      <trkpt lat="47.10921" lon="-1.80603">
        <ele>69</ele>
        <time>2022-07-31T07:06:59Z</time>
      </trkpt>
      <trkpt lat="47.10909" lon="-1.80611">
        <ele>69</ele>
        <time>2022-07-31T07:07:01Z</time>
      </trkpt>
      <trkpt lat="47.10896" lon="-1.80619">
        <ele>70</ele>
        <time>2022-07-31T07:07:03Z</time>
      </trkpt>
      <trkpt lat="47.10884" lon="-1.80627">
        <ele>70</ele>
        <time>2022-07-31T07:07:05Z</time>
      </trkpt>
      <trkpt lat="47.10871" lon="-1.80635">
        <ele>70</ele>
        <time>2022-07-31T07:07:07Z</time>
      </trkpt>
      <trkpt lat="47.10859" lon="-1.8064">
        <ele>69</ele>
        <time>2022-07-31T07:07:09Z</time>
      </trkpt>
      <trkpt lat="47.10846" lon="-1.80644">
        <ele>69</ele>
        <time>2022-07-31T07:07:11Z</time>
      </trkpt>
      <trkpt lat="47.10833" lon="-1.80649">
        <ele>69</ele>
        <time>2022-07-31T07:07:13Z</time>
      </trkpt>
      <trkpt lat="47.10819" lon="-1.80654">
        <ele>69</ele>
        <time>2022-07-31T07:07:15Z</time>
      </trkpt>
      <trkpt lat="47.10805" lon="-1.8066">
        <ele>69</ele>
        <time>2022-07-31T07:07:17Z</time>
      </trkpt>
      <trkpt lat="47.10791" lon="-1.80666">
        <ele>69</ele>
        <time>2022-07-31T07:07:19Z</time>
      </trkpt>
      <trkpt lat="47.10777" lon="-1.80671">
        <ele>69</ele>
        <time>2022-07-31T07:07:21Z</time>
      </trkpt>
      <trkpt lat="47.10763" lon="-1.80675">
        <ele>68</ele>
        <time>2022-07-31T07:07:23Z</time>
      </trkpt>
      <trkpt lat="47.10749" lon="-1.80678">
        <ele>68</ele>
        <time>2022-07-31T07:07:25Z</time>
      </trkpt>
      <trkpt lat="47.10736" lon="-1.80681">
        <ele>68</ele>
        <time>2022-07-31T07:07:27Z</time>
      </trkpt>
      <trkpt lat="47.10722" lon="-1.80683">
        <ele>68</ele>
        <time>2022-07-31T07:07:29Z</time>
      </trkpt>
      <trkpt lat="47.10708" lon="-1.80685">
        <ele>69</ele>
        <time>2022-07-31T07:07:31Z</time>
      </trkpt>
      <trkpt lat="47.10695" lon="-1.80687">
        <ele>69</ele>
        <time>2022-07-31T07:07:33Z</time>
      </trkpt>
      <trkpt lat="47.10681" lon="-1.80688">
        <ele>69</ele>
        <time>2022-07-31T07:07:35Z</time>
      </trkpt>
      <trkpt lat="47.10667" lon="-1.8069">
        <ele>69</ele>
        <time>2022-07-31T07:07:37Z</time>
      </trkpt>
      <trkpt lat="47.10653" lon="-1.80691">
        <ele>68</ele>
        <time>2022-07-31T07:07:39Z</time>
      </trkpt>
      <trkpt lat="47.1064" lon="-1.80693">
        <ele>69</ele>
        <time>2022-07-31T07:07:41Z</time>
      </trkpt>
      <trkpt lat="47.10626" lon="-1.80697">
        <ele>70</ele>
        <time>2022-07-31T07:07:43Z</time>
      </trkpt>
      <trkpt lat="47.10613" lon="-1.80702">
        <ele>70</ele>
        <time>2022-07-31T07:07:45Z</time>
      </trkpt>
      <trkpt lat="47.106" lon="-1.80708">
        <ele>69</ele>
        <time>2022-07-31T07:07:47Z</time>
      </trkpt>
      <trkpt lat="47.10586" lon="-1.80717">
        <ele>69</ele>
        <time>2022-07-31T07:07:49Z</time>
      </trkpt>
      <trkpt lat="47.10575" lon="-1.80728">
        <ele>69</ele>
        <time>2022-07-31T07:07:51Z</time>
      </trkpt>
      <trkpt lat="47.10563" lon="-1.80741">
        <ele>68</ele>
        <time>2022-07-31T07:07:53Z</time>
      </trkpt>
      <trkpt lat="47.10552" lon="-1.80754">
        <ele>68</ele>
        <time>2022-07-31T07:07:55Z</time>
      </trkpt>
      <trkpt lat="47.1054" lon="-1.80768">
        <ele>68</ele>
        <time>2022-07-31T07:07:57Z</time>
      </trkpt>
      <trkpt lat="47.10529" lon="-1.80782">
        <ele>67</ele>
        <time>2022-07-31T07:07:59Z</time>
      </trkpt>
      <trkpt lat="47.10519" lon="-1.80797">
        <ele>67</ele>
        <time>2022-07-31T07:08:01Z</time>
      </trkpt>
      <trkpt lat="47.10509" lon="-1.8081">
        <ele>67</ele>
        <time>2022-07-31T07:08:03Z</time>
      </trkpt>
      <trkpt lat="47.10495" lon="-1.80818">
        <ele>67</ele>
        <time>2022-07-31T07:08:05Z</time>
      </trkpt>
      <trkpt lat="47.10483" lon="-1.8083">
        <ele>66</ele>
        <time>2022-07-31T07:08:07Z</time>
      </trkpt>
      <trkpt lat="47.10473" lon="-1.80846">
        <ele>66</ele>
        <time>2022-07-31T07:08:09Z</time>
      </trkpt>
      <trkpt lat="47.10464" lon="-1.80861">
        <ele>65</ele>
        <time>2022-07-31T07:08:11Z</time>
      </trkpt>
      <trkpt lat="47.10455" lon="-1.80876">
        <ele>65</ele>
        <time>2022-07-31T07:08:13Z</time>
      </trkpt>
      <trkpt lat="47.10447" lon="-1.8089">
        <ele>65</ele>
        <time>2022-07-31T07:08:15Z</time>
      </trkpt>
      <trkpt lat="47.10439" lon="-1.80903">
        <ele>65</ele>
        <time>2022-07-31T07:08:17Z</time>
      </trkpt>
      <trkpt lat="47.1043" lon="-1.80916">
        <ele>66</ele>
        <time>2022-07-31T07:08:19Z</time>
      </trkpt>
      <trkpt lat="47.10422" lon="-1.80929">
        <ele>65</ele>
        <time>2022-07-31T07:08:21Z</time>
      </trkpt>
      <trkpt lat="47.10415" lon="-1.80942">
        <ele>66</ele>
        <time>2022-07-31T07:08:23Z</time>
      </trkpt>
      <trkpt lat="47.10407" lon="-1.80955">
        <ele>66</ele>
        <time>2022-07-31T07:08:25Z</time>
      </trkpt>
      <trkpt lat="47.10399" lon="-1.80967">
        <ele>66</ele>
        <time>2022-07-31T07:08:27Z</time>
      </trkpt>
      <trkpt lat="47.10392" lon="-1.80979">
        <ele>66</ele>
        <time>2022-07-31T07:08:29Z</time>
      </trkpt>
      <trkpt lat="47.10385" lon="-1.8099">
        <ele>66</ele>
        <time>2022-07-31T07:08:32Z</time>
      </trkpt>
      <trkpt lat="47.10379" lon="-1.81004">
        <ele>66</ele>
        <time>2022-07-31T07:08:38Z</time>
      </trkpt>
      <trkpt lat="47.10374" lon="-1.81019">
        <ele>67</ele>
        <time>2022-07-31T07:08:41Z</time>
      </trkpt>
      <trkpt lat="47.10368" lon="-1.81031">
        <ele>67</ele>
        <time>2022-07-31T07:08:43Z</time>
      </trkpt>
      <trkpt lat="47.1036" lon="-1.81043">
        <ele>67</ele>
        <time>2022-07-31T07:08:45Z</time>
      </trkpt>
      <trkpt lat="47.10351" lon="-1.81038">
        <ele>68</ele>
        <time>2022-07-31T07:08:47Z</time>
      </trkpt>
      <trkpt lat="47.10342" lon="-1.81021">
        <ele>68</ele>
        <time>2022-07-31T07:08:49Z</time>
      </trkpt>
      <trkpt lat="47.10328" lon="-1.81013">
        <ele>68</ele>
        <time>2022-07-31T07:08:51Z</time>
      </trkpt>
      <trkpt lat="47.10314" lon="-1.81012">
        <ele>68</ele>
        <time>2022-07-31T07:08:53Z</time>
      </trkpt>
      <trkpt lat="47.103" lon="-1.8101">
        <ele>67</ele>
        <time>2022-07-31T07:08:55Z</time>
      </trkpt>
      <trkpt lat="47.10285" lon="-1.81008">
        <ele>67</ele>
        <time>2022-07-31T07:08:57Z</time>
      </trkpt>
      <trkpt lat="47.1027" lon="-1.81008">
        <ele>66</ele>
        <time>2022-07-31T07:08:59Z</time>
      </trkpt>
      <trkpt lat="47.10255" lon="-1.81009">
        <ele>66</ele>
        <time>2022-07-31T07:09:01Z</time>
      </trkpt>
      <trkpt lat="47.1024" lon="-1.81009">
        <ele>65</ele>
        <time>2022-07-31T07:09:03Z</time>
      </trkpt>
      <trkpt lat="47.10225" lon="-1.81007">
        <ele>65</ele>
        <time>2022-07-31T07:09:05Z</time>
      </trkpt>
      <trkpt lat="47.10209" lon="-1.81002">
        <ele>66</ele>
        <time>2022-07-31T07:09:07Z</time>
      </trkpt>
      <trkpt lat="47.10195" lon="-1.80996">
        <ele>67</ele>
        <time>2022-07-31T07:09:09Z</time>
      </trkpt>
      <trkpt lat="47.10181" lon="-1.80989">
        <ele>66</ele>
        <time>2022-07-31T07:09:11Z</time>
      </trkpt>
      <trkpt lat="47.10167" lon="-1.80982">
        <ele>66</ele>
        <time>2022-07-31T07:09:13Z</time>
      </trkpt>
      <trkpt lat="47.10153" lon="-1.80975">
        <ele>66</ele>
        <time>2022-07-31T07:09:15Z</time>
      </trkpt>
      <trkpt lat="47.10139" lon="-1.80971">
        <ele>65</ele>
        <time>2022-07-31T07:09:17Z</time>
      </trkpt>
      <trkpt lat="47.10125" lon="-1.8097">
        <ele>64</ele>
        <time>2022-07-31T07:09:19Z</time>
      </trkpt>
      <trkpt lat="47.1011" lon="-1.8097">
        <ele>63</ele>
        <time>2022-07-31T07:09:21Z</time>
      </trkpt>
      <trkpt lat="47.10096" lon="-1.80971">
        <ele>63</ele>
        <time>2022-07-31T07:09:23Z</time>
      </trkpt>
      <trkpt lat="47.10082" lon="-1.80971">
        <ele>63</ele>
        <time>2022-07-31T07:09:25Z</time>
      </trkpt>
      <trkpt lat="47.10069" lon="-1.80971">
        <ele>64</ele>
        <time>2022-07-31T07:09:27Z</time>
      </trkpt>
      <trkpt lat="47.10056" lon="-1.80971">
        <ele>64</ele>
        <time>2022-07-31T07:09:29Z</time>
      </trkpt>
      <trkpt lat="47.10043" lon="-1.80972">
        <ele>65</ele>
        <time>2022-07-31T07:09:31Z</time>
      </trkpt>
      <trkpt lat="47.10031" lon="-1.80974">
        <ele>65</ele>
        <time>2022-07-31T07:09:33Z</time>
      </trkpt>
      <trkpt lat="47.10018" lon="-1.80975">
        <ele>65</ele>
        <time>2022-07-31T07:09:35Z</time>
      </trkpt>
      <trkpt lat="47.10006" lon="-1.80975">
        <ele>66</ele>
        <time>2022-07-31T07:09:37Z</time>
      </trkpt>
      <trkpt lat="47.09993" lon="-1.80976">
        <ele>66</ele>
        <time>2022-07-31T07:09:39Z</time>
      </trkpt>
      <trkpt lat="47.09982" lon="-1.80977">
        <ele>67</ele>
        <time>2022-07-31T07:09:41Z</time>
      </trkpt>
      <trkpt lat="47.0997" lon="-1.80977">
        <ele>67</ele>
        <time>2022-07-31T07:09:43Z</time>
      </trkpt>
      <trkpt lat="47.09958" lon="-1.80977">
        <ele>68</ele>
        <time>2022-07-31T07:09:45Z</time>
      </trkpt>
      <trkpt lat="47.09946" lon="-1.80978">
        <ele>68</ele>
        <time>2022-07-31T07:09:47Z</time>
      </trkpt>
      <trkpt lat="47.09934" lon="-1.8098">
        <ele>68</ele>
        <time>2022-07-31T07:09:49Z</time>
      </trkpt>
      <trkpt lat="47.09922" lon="-1.80981">
        <ele>68</ele>
        <time>2022-07-31T07:09:51Z</time>
      </trkpt>
      <trkpt lat="47.0991" lon="-1.80983">
        <ele>69</ele>
        <time>2022-07-31T07:09:53Z</time>
      </trkpt>
      <trkpt lat="47.09899" lon="-1.80984">
        <ele>70</ele>
        <time>2022-07-31T07:09:55Z</time>
      </trkpt>
      <trkpt lat="47.09886" lon="-1.80985">
        <ele>70</ele>
        <time>2022-07-31T07:09:57Z</time>
      </trkpt>
      <trkpt lat="47.09875" lon="-1.80985">
        <ele>70</ele>
        <time>2022-07-31T07:09:59Z</time>
      </trkpt>
      <trkpt lat="47.09863" lon="-1.80985">
        <ele>71</ele>
        <time>2022-07-31T07:10:01Z</time>
      </trkpt>
      <trkpt lat="47.09851" lon="-1.80986">
        <ele>71</ele>
        <time>2022-07-31T07:10:03Z</time>
      </trkpt>
      <trkpt lat="47.0984" lon="-1.80987">
        <ele>72</ele>
        <time>2022-07-31T07:10:05Z</time>
      </trkpt>
      <trkpt lat="47.09828" lon="-1.80987">
        <ele>72</ele>
        <time>2022-07-31T07:10:07Z</time>
      </trkpt>
      <trkpt lat="47.09817" lon="-1.80988">
        <ele>72</ele>
        <time>2022-07-31T07:10:09Z</time>
      </trkpt>
      <trkpt lat="47.09806" lon="-1.80987">
        <ele>72</ele>
        <time>2022-07-31T07:10:11Z</time>
      </trkpt>
      <trkpt lat="47.09794" lon="-1.80985">
        <ele>72</ele>
        <time>2022-07-31T07:10:13Z</time>
      </trkpt>
      <trkpt lat="47.09783" lon="-1.80984">
        <ele>72</ele>
        <time>2022-07-31T07:10:15Z</time>
      </trkpt>
      <trkpt lat="47.0977" lon="-1.80982">
        <ele>72</ele>
        <time>2022-07-31T07:10:17Z</time>
      </trkpt>
      <trkpt lat="47.09757" lon="-1.8098">
        <ele>71</ele>
        <time>2022-07-31T07:10:19Z</time>
      </trkpt>
      <trkpt lat="47.09744" lon="-1.80976">
        <ele>70</ele>
        <time>2022-07-31T07:10:21Z</time>
      </trkpt>
      <trkpt lat="47.0973" lon="-1.80973">
        <ele>69</ele>
        <time>2022-07-31T07:10:23Z</time>
      </trkpt>
      <trkpt lat="47.09716" lon="-1.8097">
        <ele>68</ele>
        <time>2022-07-31T07:10:25Z</time>
      </trkpt>
      <trkpt lat="47.09703" lon="-1.80968">
        <ele>68</ele>
        <time>2022-07-31T07:10:27Z</time>
      </trkpt>
      <trkpt lat="47.09689" lon="-1.80965">
        <ele>67</ele>
        <time>2022-07-31T07:10:29Z</time>
      </trkpt>
      <trkpt lat="47.09675" lon="-1.80962">
        <ele>67</ele>
        <time>2022-07-31T07:10:31Z</time>
      </trkpt>
      <trkpt lat="47.09661" lon="-1.80959">
        <ele>67</ele>
        <time>2022-07-31T07:10:33Z</time>
      </trkpt>
      <trkpt lat="47.09647" lon="-1.80956">
        <ele>66</ele>
        <time>2022-07-31T07:10:35Z</time>
      </trkpt>
      <trkpt lat="47.09633" lon="-1.80953">
        <ele>67</ele>
        <time>2022-07-31T07:10:37Z</time>
      </trkpt>
      <trkpt lat="47.09612" lon="-1.8095">
        <ele>66</ele>
        <time>2022-07-31T07:10:40Z</time>
      </trkpt>
      <trkpt lat="47.09592" lon="-1.80945">
        <ele>66</ele>
        <time>2022-07-31T07:10:43Z</time>
      </trkpt>
      <trkpt lat="47.09578" lon="-1.80941">
        <ele>66</ele>
        <time>2022-07-31T07:10:45Z</time>
      </trkpt>
      <trkpt lat="47.09564" lon="-1.80938">
        <ele>66</ele>
        <time>2022-07-31T07:10:47Z</time>
      </trkpt>
      <trkpt lat="47.09551" lon="-1.80934">
        <ele>65</ele>
        <time>2022-07-31T07:10:49Z</time>
      </trkpt>
      <trkpt lat="47.09537" lon="-1.80932">
        <ele>65</ele>
        <time>2022-07-31T07:10:51Z</time>
      </trkpt>
      <trkpt lat="47.09524" lon="-1.80929">
        <ele>65</ele>
        <time>2022-07-31T07:10:53Z</time>
      </trkpt>
      <trkpt lat="47.0951" lon="-1.80926">
        <ele>65</ele>
        <time>2022-07-31T07:10:55Z</time>
      </trkpt>
      <trkpt lat="47.09496" lon="-1.80925">
        <ele>65</ele>
        <time>2022-07-31T07:10:57Z</time>
      </trkpt>
      <trkpt lat="47.09483" lon="-1.80928">
        <ele>65</ele>
        <time>2022-07-31T07:10:59Z</time>
      </trkpt>
      <trkpt lat="47.0947" lon="-1.80933">
        <ele>65</ele>
        <time>2022-07-31T07:11:01Z</time>
      </trkpt>
      <trkpt lat="47.09456" lon="-1.8094">
        <ele>65</ele>
        <time>2022-07-31T07:11:03Z</time>
      </trkpt>
      <trkpt lat="47.09444" lon="-1.80948">
        <ele>65</ele>
        <time>2022-07-31T07:11:05Z</time>
      </trkpt>
      <trkpt lat="47.09432" lon="-1.80955">
        <ele>65</ele>
        <time>2022-07-31T07:11:07Z</time>
      </trkpt>
      <trkpt lat="47.09419" lon="-1.80964">
        <ele>65</ele>
        <time>2022-07-31T07:11:09Z</time>
      </trkpt>
      <trkpt lat="47.09405" lon="-1.80971">
        <ele>65</ele>
        <time>2022-07-31T07:11:11Z</time>
      </trkpt>
      <trkpt lat="47.09392" lon="-1.8098">
        <ele>65</ele>
        <time>2022-07-31T07:11:13Z</time>
      </trkpt>
      <trkpt lat="47.09378" lon="-1.80988">
        <ele>65</ele>
        <time>2022-07-31T07:11:15Z</time>
      </trkpt>
      <trkpt lat="47.09364" lon="-1.80996">
        <ele>64</ele>
        <time>2022-07-31T07:11:17Z</time>
      </trkpt>
      <trkpt lat="47.09349" lon="-1.81004">
        <ele>63</ele>
        <time>2022-07-31T07:11:19Z</time>
      </trkpt>
      <trkpt lat="47.09335" lon="-1.81012">
        <ele>63</ele>
        <time>2022-07-31T07:11:21Z</time>
      </trkpt>
      <trkpt lat="47.09322" lon="-1.81021">
        <ele>62</ele>
        <time>2022-07-31T07:11:23Z</time>
      </trkpt>
      <trkpt lat="47.09308" lon="-1.81029">
        <ele>62</ele>
        <time>2022-07-31T07:11:25Z</time>
      </trkpt>
      <trkpt lat="47.09295" lon="-1.81037">
        <ele>62</ele>
        <time>2022-07-31T07:11:27Z</time>
      </trkpt>
      <trkpt lat="47.09281" lon="-1.81045">
        <ele>61</ele>
        <time>2022-07-31T07:11:29Z</time>
      </trkpt>
      <trkpt lat="47.09267" lon="-1.81054">
        <ele>60</ele>
        <time>2022-07-31T07:11:31Z</time>
      </trkpt>
      <trkpt lat="47.09254" lon="-1.81063">
        <ele>60</ele>
        <time>2022-07-31T07:11:33Z</time>
      </trkpt>
      <trkpt lat="47.09241" lon="-1.81071">
        <ele>60</ele>
        <time>2022-07-31T07:11:35Z</time>
      </trkpt>
      <trkpt lat="47.09231" lon="-1.81082">
        <ele>59</ele>
        <time>2022-07-31T07:11:37Z</time>
      </trkpt>
      <trkpt lat="47.09219" lon="-1.81084">
        <ele>60</ele>
        <time>2022-07-31T07:11:42Z</time>
      </trkpt>
      <trkpt lat="47.09209" lon="-1.8108">
        <ele>60</ele>
        <time>2022-07-31T07:11:44Z</time>
      </trkpt>
      <trkpt lat="47.09198" lon="-1.81071">
        <ele>60</ele>
        <time>2022-07-31T07:11:46Z</time>
      </trkpt>
      <trkpt lat="47.09188" lon="-1.81062">
        <ele>60</ele>
        <time>2022-07-31T07:11:48Z</time>
      </trkpt>
      <trkpt lat="47.09178" lon="-1.81054">
        <ele>60</ele>
        <time>2022-07-31T07:11:50Z</time>
      </trkpt>
      <trkpt lat="47.09167" lon="-1.81059">
        <ele>60</ele>
        <time>2022-07-31T07:11:52Z</time>
      </trkpt>
      <trkpt lat="47.0916" lon="-1.81076">
        <ele>60</ele>
        <time>2022-07-31T07:11:54Z</time>
      </trkpt>
      <trkpt lat="47.0915" lon="-1.81092">
        <ele>60</ele>
        <time>2022-07-31T07:11:56Z</time>
      </trkpt>
      <trkpt lat="47.09139" lon="-1.81106">
        <ele>59</ele>
        <time>2022-07-31T07:11:58Z</time>
      </trkpt>
      <trkpt lat="47.09125" lon="-1.81114">
        <ele>59</ele>
        <time>2022-07-31T07:12:00Z</time>
      </trkpt>
      <trkpt lat="47.09111" lon="-1.81117">
        <ele>58</ele>
        <time>2022-07-31T07:12:02Z</time>
      </trkpt>
      <trkpt lat="47.09096" lon="-1.81118">
        <ele>58</ele>
        <time>2022-07-31T07:12:04Z</time>
      </trkpt>
      <trkpt lat="47.09082" lon="-1.8112">
        <ele>58</ele>
        <time>2022-07-31T07:12:06Z</time>
      </trkpt>
      <trkpt lat="47.09069" lon="-1.81128">
        <ele>58</ele>
        <time>2022-07-31T07:12:08Z</time>
      </trkpt>
      <trkpt lat="47.09058" lon="-1.81141">
        <ele>58</ele>
        <time>2022-07-31T07:12:10Z</time>
      </trkpt>
      <trkpt lat="47.09051" lon="-1.81156">
        <ele>58</ele>
        <time>2022-07-31T07:12:12Z</time>
      </trkpt>
      <trkpt lat="47.09045" lon="-1.81171">
        <ele>59</ele>
        <time>2022-07-31T07:12:14Z</time>
      </trkpt>
      <trkpt lat="47.09041" lon="-1.81187">
        <ele>59</ele>
        <time>2022-07-31T07:12:16Z</time>
      </trkpt>
      <trkpt lat="47.09036" lon="-1.81202">
        <ele>60</ele>
        <time>2022-07-31T07:12:18Z</time>
      </trkpt>
      <trkpt lat="47.09031" lon="-1.81218">
        <ele>60</ele>
        <time>2022-07-31T07:12:20Z</time>
      </trkpt>
      <trkpt lat="47.09027" lon="-1.81232">
        <ele>60</ele>
        <time>2022-07-31T07:12:22Z</time>
      </trkpt>
      <trkpt lat="47.09021" lon="-1.81245">
        <ele>61</ele>
        <time>2022-07-31T07:12:24Z</time>
      </trkpt>
      <trkpt lat="47.09014" lon="-1.81258">
        <ele>61</ele>
        <time>2022-07-31T07:12:26Z</time>
      </trkpt>
      <trkpt lat="47.09006" lon="-1.8127">
        <ele>61</ele>
        <time>2022-07-31T07:12:28Z</time>
      </trkpt>
      <trkpt lat="47.08998" lon="-1.8128">
        <ele>61</ele>
        <time>2022-07-31T07:12:30Z</time>
      </trkpt>
      <trkpt lat="47.0899" lon="-1.81291">
        <ele>62</ele>
        <time>2022-07-31T07:12:32Z</time>
      </trkpt>
      <trkpt lat="47.08983" lon="-1.81301">
        <ele>62</ele>
        <time>2022-07-31T07:12:34Z</time>
      </trkpt>
      <trkpt lat="47.08975" lon="-1.81312">
        <ele>62</ele>
        <time>2022-07-31T07:12:36Z</time>
      </trkpt>
      <trkpt lat="47.08967" lon="-1.81323">
        <ele>63</ele>
        <time>2022-07-31T07:12:38Z</time>
      </trkpt>
      <trkpt lat="47.08959" lon="-1.81335">
        <ele>62</ele>
        <time>2022-07-31T07:12:40Z</time>
      </trkpt>
      <trkpt lat="47.0895" lon="-1.81346">
        <ele>63</ele>
        <time>2022-07-31T07:12:42Z</time>
      </trkpt>
      <trkpt lat="47.08941" lon="-1.81356">
        <ele>63</ele>
        <time>2022-07-31T07:12:44Z</time>
      </trkpt>
      <trkpt lat="47.08933" lon="-1.81366">
        <ele>62</ele>
        <time>2022-07-31T07:12:46Z</time>
      </trkpt>
      <trkpt lat="47.08923" lon="-1.81375">
        <ele>63</ele>
        <time>2022-07-31T07:12:48Z</time>
      </trkpt>
      <trkpt lat="47.08913" lon="-1.81384">
        <ele>63</ele>
        <time>2022-07-31T07:12:50Z</time>
      </trkpt>
      <trkpt lat="47.08904" lon="-1.81394">
        <ele>63</ele>
        <time>2022-07-31T07:12:52Z</time>
      </trkpt>
      <trkpt lat="47.08895" lon="-1.81405">
        <ele>63</ele>
        <time>2022-07-31T07:12:54Z</time>
      </trkpt>
      <trkpt lat="47.08887" lon="-1.81416">
        <ele>63</ele>
        <time>2022-07-31T07:12:56Z</time>
      </trkpt>
      <trkpt lat="47.08879" lon="-1.81427">
        <ele>63</ele>
        <time>2022-07-31T07:12:58Z</time>
      </trkpt>
      <trkpt lat="47.0887" lon="-1.81438">
        <ele>62</ele>
        <time>2022-07-31T07:13:00Z</time>
      </trkpt>
      <trkpt lat="47.08861" lon="-1.81448">
        <ele>63</ele>
        <time>2022-07-31T07:13:02Z</time>
      </trkpt>
      <trkpt lat="47.08852" lon="-1.81457">
        <ele>64</ele>
        <time>2022-07-31T07:13:04Z</time>
      </trkpt>
      <trkpt lat="47.08842" lon="-1.81466">
        <ele>64</ele>
        <time>2022-07-31T07:13:06Z</time>
      </trkpt>
      <trkpt lat="47.08832" lon="-1.81474">
        <ele>65</ele>
        <time>2022-07-31T07:13:08Z</time>
      </trkpt>
      <trkpt lat="47.08823" lon="-1.81482">
        <ele>65</ele>
        <time>2022-07-31T07:13:10Z</time>
      </trkpt>
      <trkpt lat="47.08814" lon="-1.81489">
        <ele>65</ele>
        <time>2022-07-31T07:13:12Z</time>
      </trkpt>
      <trkpt lat="47.08806" lon="-1.81498">
        <ele>66</ele>
        <time>2022-07-31T07:13:14Z</time>
      </trkpt>
      <trkpt lat="47.08796" lon="-1.81506">
        <ele>67</ele>
        <time>2022-07-31T07:13:16Z</time>
      </trkpt>
      <trkpt lat="47.08788" lon="-1.81513">
        <ele>67</ele>
        <time>2022-07-31T07:13:18Z</time>
      </trkpt>
      <trkpt lat="47.08779" lon="-1.8152">
        <ele>67</ele>
        <time>2022-07-31T07:13:20Z</time>
      </trkpt>
      <trkpt lat="47.08769" lon="-1.81527">
        <ele>68</ele>
        <time>2022-07-31T07:13:22Z</time>
      </trkpt>
      <trkpt lat="47.0876" lon="-1.81536">
        <ele>68</ele>
        <time>2022-07-31T07:13:24Z</time>
      </trkpt>
      <trkpt lat="47.08751" lon="-1.81544">
        <ele>68</ele>
        <time>2022-07-31T07:13:26Z</time>
      </trkpt>
      <trkpt lat="47.08743" lon="-1.81553">
        <ele>68</ele>
        <time>2022-07-31T07:13:28Z</time>
      </trkpt>
      <trkpt lat="47.08735" lon="-1.81564">
        <ele>69</ele>
        <time>2022-07-31T07:13:30Z</time>
      </trkpt>
      <trkpt lat="47.08729" lon="-1.81577">
        <ele>69</ele>
        <time>2022-07-31T07:13:32Z</time>
      </trkpt>
      <trkpt lat="47.08724" lon="-1.81591">
        <ele>69</ele>
        <time>2022-07-31T07:13:34Z</time>
      </trkpt>
      <trkpt lat="47.08719" lon="-1.81604">
        <ele>69</ele>
        <time>2022-07-31T07:13:36Z</time>
      </trkpt>
      <trkpt lat="47.08714" lon="-1.81617">
        <ele>70</ele>
        <time>2022-07-31T07:13:38Z</time>
      </trkpt>
      <trkpt lat="47.0871" lon="-1.81631">
        <ele>71</ele>
        <time>2022-07-31T07:13:40Z</time>
      </trkpt>
      <trkpt lat="47.08705" lon="-1.81644">
        <ele>71</ele>
        <time>2022-07-31T07:13:42Z</time>
      </trkpt>
      <trkpt lat="47.087" lon="-1.81658">
        <ele>71</ele>
        <time>2022-07-31T07:13:44Z</time>
      </trkpt>
      <trkpt lat="47.08693" lon="-1.8167">
        <ele>71</ele>
        <time>2022-07-31T07:13:46Z</time>
      </trkpt>
      <trkpt lat="47.08686" lon="-1.81681">
        <ele>71</ele>
        <time>2022-07-31T07:13:48Z</time>
      </trkpt>
      <trkpt lat="47.08676" lon="-1.81687">
        <ele>71</ele>
        <time>2022-07-31T07:13:50Z</time>
      </trkpt>
      <trkpt lat="47.08665" lon="-1.81692">
        <ele>71</ele>
        <time>2022-07-31T07:13:52Z</time>
      </trkpt>
      <trkpt lat="47.08655" lon="-1.81695">
        <ele>71</ele>
        <time>2022-07-31T07:13:54Z</time>
      </trkpt>
      <trkpt lat="47.08645" lon="-1.81693">
        <ele>72</ele>
        <time>2022-07-31T07:13:56Z</time>
      </trkpt>
      <trkpt lat="47.08634" lon="-1.8169">
        <ele>72</ele>
        <time>2022-07-31T07:13:58Z</time>
      </trkpt>
      <trkpt lat="47.08623" lon="-1.81687">
        <ele>73</ele>
        <time>2022-07-31T07:14:00Z</time>
      </trkpt>
      <trkpt lat="47.08612" lon="-1.81685">
        <ele>73</ele>
        <time>2022-07-31T07:14:02Z</time>
      </trkpt>
      <trkpt lat="47.08601" lon="-1.81682">
        <ele>73</ele>
        <time>2022-07-31T07:14:04Z</time>
      </trkpt>
      <trkpt lat="47.08591" lon="-1.8168">
        <ele>73</ele>
        <time>2022-07-31T07:14:06Z</time>
      </trkpt>
      <trkpt lat="47.0858" lon="-1.81677">
        <ele>73</ele>
        <time>2022-07-31T07:14:08Z</time>
      </trkpt>
      <trkpt lat="47.0857" lon="-1.81675">
        <ele>74</ele>
        <time>2022-07-31T07:14:10Z</time>
      </trkpt>
      <trkpt lat="47.0856" lon="-1.81672">
        <ele>73</ele>
        <time>2022-07-31T07:14:12Z</time>
      </trkpt>
      <trkpt lat="47.08549" lon="-1.8167">
        <ele>74</ele>
        <time>2022-07-31T07:14:14Z</time>
      </trkpt>
      <trkpt lat="47.08539" lon="-1.81668">
        <ele>74</ele>
        <time>2022-07-31T07:14:16Z</time>
      </trkpt>
      <trkpt lat="47.08529" lon="-1.81665">
        <ele>74</ele>
        <time>2022-07-31T07:14:18Z</time>
      </trkpt>
      <trkpt lat="47.08518" lon="-1.81663">
        <ele>74</ele>
        <time>2022-07-31T07:14:20Z</time>
      </trkpt>
      <trkpt lat="47.08507" lon="-1.81662">
        <ele>74</ele>
        <time>2022-07-31T07:14:22Z</time>
      </trkpt>
      <trkpt lat="47.08496" lon="-1.8166">
        <ele>74</ele>
        <time>2022-07-31T07:14:24Z</time>
      </trkpt>
      <trkpt lat="47.08484" lon="-1.81659">
        <ele>75</ele>
        <time>2022-07-31T07:14:26Z</time>
      </trkpt>
      <trkpt lat="47.08473" lon="-1.81657">
        <ele>75</ele>
        <time>2022-07-31T07:14:28Z</time>
      </trkpt>
      <trkpt lat="47.08462" lon="-1.81655">
        <ele>75</ele>
        <time>2022-07-31T07:14:30Z</time>
      </trkpt>
      <trkpt lat="47.08451" lon="-1.81653">
        <ele>75</ele>
        <time>2022-07-31T07:14:32Z</time>
      </trkpt>
      <trkpt lat="47.08439" lon="-1.8165">
        <ele>75</ele>
        <time>2022-07-31T07:14:34Z</time>
      </trkpt>
      <trkpt lat="47.08428" lon="-1.81649">
        <ele>75</ele>
        <time>2022-07-31T07:14:36Z</time>
      </trkpt>
      <trkpt lat="47.08416" lon="-1.81649">
        <ele>75</ele>
        <time>2022-07-31T07:14:38Z</time>
      </trkpt>
      <trkpt lat="47.08404" lon="-1.81647">
        <ele>75</ele>
        <time>2022-07-31T07:14:40Z</time>
      </trkpt>
      <trkpt lat="47.08392" lon="-1.81645">
        <ele>75</ele>
        <time>2022-07-31T07:14:42Z</time>
      </trkpt>
      <trkpt lat="47.0838" lon="-1.81644">
        <ele>74</ele>
        <time>2022-07-31T07:14:44Z</time>
      </trkpt>
      <trkpt lat="47.08368" lon="-1.81643">
        <ele>75</ele>
        <time>2022-07-31T07:14:46Z</time>
      </trkpt>
      <trkpt lat="47.08357" lon="-1.8164">
        <ele>75</ele>
        <time>2022-07-31T07:14:48Z</time>
      </trkpt>
      <trkpt lat="47.08345" lon="-1.81639">
        <ele>75</ele>
        <time>2022-07-31T07:14:50Z</time>
      </trkpt>
      <trkpt lat="47.08333" lon="-1.81637">
        <ele>75</ele>
        <time>2022-07-31T07:14:52Z</time>
      </trkpt>
      <trkpt lat="47.08321" lon="-1.81635">
        <ele>74</ele>
        <time>2022-07-31T07:14:54Z</time>
      </trkpt>
      <trkpt lat="47.0831" lon="-1.81634">
        <ele>74</ele>
        <time>2022-07-31T07:14:56Z</time>
      </trkpt>
      <trkpt lat="47.08299" lon="-1.81634">
        <ele>74</ele>
        <time>2022-07-31T07:14:58Z</time>
      </trkpt>
      <trkpt lat="47.08287" lon="-1.81634">
        <ele>74</ele>
        <time>2022-07-31T07:15:00Z</time>
      </trkpt>
      <trkpt lat="47.08276" lon="-1.81634">
        <ele>74</ele>
        <time>2022-07-31T07:15:02Z</time>
      </trkpt>
      <trkpt lat="47.08264" lon="-1.81632">
        <ele>74</ele>
        <time>2022-07-31T07:15:04Z</time>
      </trkpt>
      <trkpt lat="47.08251" lon="-1.81632">
        <ele>74</ele>
        <time>2022-07-31T07:15:06Z</time>
      </trkpt>
      <trkpt lat="47.08239" lon="-1.81631">
        <ele>74</ele>
        <time>2022-07-31T07:15:08Z</time>
      </trkpt>
      <trkpt lat="47.08226" lon="-1.8163">
        <ele>74</ele>
        <time>2022-07-31T07:15:10Z</time>
      </trkpt>
      <trkpt lat="47.08213" lon="-1.8163">
        <ele>74</ele>
        <time>2022-07-31T07:15:12Z</time>
      </trkpt>
      <trkpt lat="47.082" lon="-1.81629">
        <ele>74</ele>
        <time>2022-07-31T07:15:14Z</time>
      </trkpt>
      <trkpt lat="47.08187" lon="-1.81628">
        <ele>74</ele>
        <time>2022-07-31T07:15:16Z</time>
      </trkpt>
      <trkpt lat="47.08174" lon="-1.81627">
        <ele>74</ele>
        <time>2022-07-31T07:15:18Z</time>
      </trkpt>
      <trkpt lat="47.08162" lon="-1.81627">
        <ele>74</ele>
        <time>2022-07-31T07:15:20Z</time>
      </trkpt>
      <trkpt lat="47.08149" lon="-1.81626">
        <ele>73</ele>
        <time>2022-07-31T07:15:22Z</time>
      </trkpt>
      <trkpt lat="47.08136" lon="-1.81625">
        <ele>73</ele>
        <time>2022-07-31T07:15:24Z</time>
      </trkpt>
      <trkpt lat="47.08123" lon="-1.81623">
        <ele>74</ele>
        <time>2022-07-31T07:15:26Z</time>
      </trkpt>
      <trkpt lat="47.0811" lon="-1.81621">
        <ele>74</ele>
        <time>2022-07-31T07:15:28Z</time>
      </trkpt>
      <trkpt lat="47.08098" lon="-1.81618">
        <ele>74</ele>
        <time>2022-07-31T07:15:30Z</time>
      </trkpt>
      <trkpt lat="47.08086" lon="-1.81614">
        <ele>74</ele>
        <time>2022-07-31T07:15:32Z</time>
      </trkpt>
      <trkpt lat="47.08074" lon="-1.81609">
        <ele>74</ele>
        <time>2022-07-31T07:15:34Z</time>
      </trkpt>
      <trkpt lat="47.08063" lon="-1.81603">
        <ele>73</ele>
        <time>2022-07-31T07:15:36Z</time>
      </trkpt>
      <trkpt lat="47.08052" lon="-1.81596">
        <ele>73</ele>
        <time>2022-07-31T07:15:38Z</time>
      </trkpt>
      <trkpt lat="47.0804" lon="-1.81589">
        <ele>73</ele>
        <time>2022-07-31T07:15:40Z</time>
      </trkpt>
      <trkpt lat="47.08029" lon="-1.81582">
        <ele>73</ele>
        <time>2022-07-31T07:15:42Z</time>
      </trkpt>
      <trkpt lat="47.08017" lon="-1.81576">
        <ele>73</ele>
        <time>2022-07-31T07:15:44Z</time>
      </trkpt>
      <trkpt lat="47.08004" lon="-1.81571">
        <ele>73</ele>
        <time>2022-07-31T07:15:46Z</time>
      </trkpt>
      <trkpt lat="47.07992" lon="-1.81566">
        <ele>73</ele>
        <time>2022-07-31T07:15:48Z</time>
      </trkpt>
      <trkpt lat="47.07979" lon="-1.81562">
        <ele>72</ele>
        <time>2022-07-31T07:15:50Z</time>
      </trkpt>
      <trkpt lat="47.07965" lon="-1.8156">
        <ele>72</ele>
        <time>2022-07-31T07:15:52Z</time>
      </trkpt>
      <trkpt lat="47.07951" lon="-1.81559">
        <ele>72</ele>
        <time>2022-07-31T07:15:54Z</time>
      </trkpt>
      <trkpt lat="47.07935" lon="-1.81558">
        <ele>72</ele>
        <time>2022-07-31T07:15:56Z</time>
      </trkpt>
      <trkpt lat="47.07921" lon="-1.81559">
        <ele>72</ele>
        <time>2022-07-31T07:15:58Z</time>
      </trkpt>
      <trkpt lat="47.07908" lon="-1.8156">
        <ele>72</ele>
        <time>2022-07-31T07:16:00Z</time>
      </trkpt>
      <trkpt lat="47.07894" lon="-1.81561">
        <ele>72</ele>
        <time>2022-07-31T07:16:02Z</time>
      </trkpt>
      <trkpt lat="47.07881" lon="-1.81562">
        <ele>72</ele>
        <time>2022-07-31T07:16:04Z</time>
      </trkpt>
      <trkpt lat="47.07868" lon="-1.81562">
        <ele>72</ele>
        <time>2022-07-31T07:16:06Z</time>
      </trkpt>
      <trkpt lat="47.07855" lon="-1.81561">
        <ele>72</ele>
        <time>2022-07-31T07:16:08Z</time>
      </trkpt>
      <trkpt lat="47.07842" lon="-1.81559">
        <ele>72</ele>
        <time>2022-07-31T07:16:10Z</time>
      </trkpt>
      <trkpt lat="47.0783" lon="-1.81557">
        <ele>72</ele>
        <time>2022-07-31T07:16:12Z</time>
      </trkpt>
      <trkpt lat="47.07817" lon="-1.81554">
        <ele>72</ele>
        <time>2022-07-31T07:16:14Z</time>
      </trkpt>
      <trkpt lat="47.07804" lon="-1.81552">
        <ele>72</ele>
        <time>2022-07-31T07:16:16Z</time>
      </trkpt>
      <trkpt lat="47.07792" lon="-1.8155">
        <ele>72</ele>
        <time>2022-07-31T07:16:18Z</time>
      </trkpt>
      <trkpt lat="47.07779" lon="-1.81548">
        <ele>72</ele>
        <time>2022-07-31T07:16:20Z</time>
      </trkpt>
      <trkpt lat="47.07765" lon="-1.81548">
        <ele>72</ele>
        <time>2022-07-31T07:16:22Z</time>
      </trkpt>
      <trkpt lat="47.07752" lon="-1.81547">
        <ele>72</ele>
        <time>2022-07-31T07:16:24Z</time>
      </trkpt>
      <trkpt lat="47.07739" lon="-1.81547">
        <ele>72</ele>
        <time>2022-07-31T07:16:26Z</time>
      </trkpt>
      <trkpt lat="47.07726" lon="-1.81546">
        <ele>72</ele>
        <time>2022-07-31T07:16:28Z</time>
      </trkpt>
      <trkpt lat="47.07713" lon="-1.81545">
        <ele>72</ele>
        <time>2022-07-31T07:16:30Z</time>
      </trkpt>
      <trkpt lat="47.07699" lon="-1.81544">
        <ele>72</ele>
        <time>2022-07-31T07:16:32Z</time>
      </trkpt>
      <trkpt lat="47.07686" lon="-1.81543">
        <ele>72</ele>
        <time>2022-07-31T07:16:34Z</time>
      </trkpt>
      <trkpt lat="47.07673" lon="-1.81542">
        <ele>71</ele>
        <time>2022-07-31T07:16:36Z</time>
      </trkpt>
      <trkpt lat="47.0766" lon="-1.8154">
        <ele>71</ele>
        <time>2022-07-31T07:16:38Z</time>
      </trkpt>
      <trkpt lat="47.07647" lon="-1.81536">
        <ele>71</ele>
        <time>2022-07-31T07:16:40Z</time>
      </trkpt>
      <trkpt lat="47.07634" lon="-1.8153">
        <ele>72</ele>
        <time>2022-07-31T07:16:42Z</time>
      </trkpt>
      <trkpt lat="47.07622" lon="-1.81521">
        <ele>72</ele>
        <time>2022-07-31T07:16:44Z</time>
      </trkpt>
      <trkpt lat="47.07611" lon="-1.8151">
        <ele>72</ele>
        <time>2022-07-31T07:16:46Z</time>
      </trkpt>
      <trkpt lat="47.076" lon="-1.81498">
        <ele>72</ele>
        <time>2022-07-31T07:16:48Z</time>
      </trkpt>
      <trkpt lat="47.07589" lon="-1.81487">
        <ele>72</ele>
        <time>2022-07-31T07:16:50Z</time>
      </trkpt>
      <trkpt lat="47.07578" lon="-1.81475">
        <ele>73</ele>
        <time>2022-07-31T07:16:52Z</time>
      </trkpt>
      <trkpt lat="47.07567" lon="-1.81463">
        <ele>73</ele>
        <time>2022-07-31T07:16:54Z</time>
      </trkpt>
      <trkpt lat="47.07556" lon="-1.81452">
        <ele>73</ele>
        <time>2022-07-31T07:16:56Z</time>
      </trkpt>
      <trkpt lat="47.07543" lon="-1.81443">
        <ele>73</ele>
        <time>2022-07-31T07:16:58Z</time>
      </trkpt>
      <trkpt lat="47.0753" lon="-1.81441">
        <ele>73</ele>
        <time>2022-07-31T07:17:00Z</time>
      </trkpt>
      <trkpt lat="47.07516" lon="-1.81445">
        <ele>73</ele>
        <time>2022-07-31T07:17:02Z</time>
      </trkpt>
      <trkpt lat="47.07503" lon="-1.81452">
        <ele>74</ele>
        <time>2022-07-31T07:17:04Z</time>
      </trkpt>
      <trkpt lat="47.0749" lon="-1.8146">
        <ele>74</ele>
        <time>2022-07-31T07:17:06Z</time>
      </trkpt>
      <trkpt lat="47.07477" lon="-1.81468">
        <ele>74</ele>
        <time>2022-07-31T07:17:08Z</time>
      </trkpt>
      <trkpt lat="47.07464" lon="-1.81474">
        <ele>74</ele>
        <time>2022-07-31T07:17:10Z</time>
      </trkpt>
      <trkpt lat="47.0745" lon="-1.81479">
        <ele>74</ele>
        <time>2022-07-31T07:17:12Z</time>
      </trkpt>
      <trkpt lat="47.07437" lon="-1.81482">
        <ele>74</ele>
        <time>2022-07-31T07:17:14Z</time>
      </trkpt>
      <trkpt lat="47.07423" lon="-1.81484">
        <ele>74</ele>
        <time>2022-07-31T07:17:16Z</time>
      </trkpt>
      <trkpt lat="47.0741" lon="-1.81485">
        <ele>74</ele>
        <time>2022-07-31T07:17:18Z</time>
      </trkpt>
      <trkpt lat="47.07397" lon="-1.81486">
        <ele>75</ele>
        <time>2022-07-31T07:17:20Z</time>
      </trkpt>
      <trkpt lat="47.07384" lon="-1.81486">
        <ele>75</ele>
        <time>2022-07-31T07:17:22Z</time>
      </trkpt>
      <trkpt lat="47.07371" lon="-1.81484">
        <ele>75</ele>
        <time>2022-07-31T07:17:24Z</time>
      </trkpt>
      <trkpt lat="47.07359" lon="-1.81481">
        <ele>75</ele>
        <time>2022-07-31T07:17:26Z</time>
      </trkpt>
      <trkpt lat="47.07346" lon="-1.81475">
        <ele>76</ele>
        <time>2022-07-31T07:17:28Z</time>
      </trkpt>
      <trkpt lat="47.07333" lon="-1.8147">
        <ele>76</ele>
        <time>2022-07-31T07:17:30Z</time>
      </trkpt>
      <trkpt lat="47.07321" lon="-1.81462">
        <ele>76</ele>
        <time>2022-07-31T07:17:32Z</time>
      </trkpt>
      <trkpt lat="47.07308" lon="-1.81455">
        <ele>75</ele>
        <time>2022-07-31T07:17:34Z</time>
      </trkpt>
      <trkpt lat="47.07297" lon="-1.81447">
        <ele>75</ele>
        <time>2022-07-31T07:17:36Z</time>
      </trkpt>
      <trkpt lat="47.07286" lon="-1.81438">
        <ele>75</ele>
        <time>2022-07-31T07:17:38Z</time>
      </trkpt>
      <trkpt lat="47.07277" lon="-1.81428">
        <ele>75</ele>
        <time>2022-07-31T07:17:40Z</time>
      </trkpt>
      <trkpt lat="47.07267" lon="-1.81418">
        <ele>75</ele>
        <time>2022-07-31T07:17:42Z</time>
      </trkpt>
      <trkpt lat="47.07256" lon="-1.81408">
        <ele>76</ele>
        <time>2022-07-31T07:17:44Z</time>
      </trkpt>
      <trkpt lat="47.07245" lon="-1.81397">
        <ele>77</ele>
        <time>2022-07-31T07:17:46Z</time>
      </trkpt>
      <trkpt lat="47.07234" lon="-1.81387">
        <ele>77</ele>
        <time>2022-07-31T07:17:48Z</time>
      </trkpt>
      <trkpt lat="47.07223" lon="-1.81377">
        <ele>77</ele>
        <time>2022-07-31T07:17:50Z</time>
      </trkpt>
      <trkpt lat="47.07213" lon="-1.81368">
        <ele>78</ele>
        <time>2022-07-31T07:17:52Z</time>
      </trkpt>
      <trkpt lat="47.07201" lon="-1.81357">
        <ele>77</ele>
        <time>2022-07-31T07:17:54Z</time>
      </trkpt>
      <trkpt lat="47.0719" lon="-1.81348">
        <ele>76</ele>
        <time>2022-07-31T07:17:56Z</time>
      </trkpt>
      <trkpt lat="47.07177" lon="-1.81345">
        <ele>76</ele>
        <time>2022-07-31T07:17:58Z</time>
      </trkpt>
      <trkpt lat="47.07165" lon="-1.81351">
        <ele>77</ele>
        <time>2022-07-31T07:18:00Z</time>
      </trkpt>
      <trkpt lat="47.07155" lon="-1.8136">
        <ele>77</ele>
        <time>2022-07-31T07:18:02Z</time>
      </trkpt>
      <trkpt lat="47.07145" lon="-1.81372">
        <ele>77</ele>
        <time>2022-07-31T07:18:04Z</time>
      </trkpt>
      <trkpt lat="47.07136" lon="-1.81382">
        <ele>78</ele>
        <time>2022-07-31T07:18:06Z</time>
      </trkpt>
      <trkpt lat="47.07126" lon="-1.81393">
        <ele>78</ele>
        <time>2022-07-31T07:18:08Z</time>
      </trkpt>
      <trkpt lat="47.07116" lon="-1.81405">
        <ele>78</ele>
        <time>2022-07-31T07:18:10Z</time>
      </trkpt>
      <trkpt lat="47.07107" lon="-1.81417">
        <ele>78</ele>
        <time>2022-07-31T07:18:12Z</time>
      </trkpt>
      <trkpt lat="47.07099" lon="-1.8143">
        <ele>78</ele>
        <time>2022-07-31T07:18:14Z</time>
      </trkpt>
      <trkpt lat="47.0709" lon="-1.81441">
        <ele>78</ele>
        <time>2022-07-31T07:18:16Z</time>
      </trkpt>
      <trkpt lat="47.07081" lon="-1.81454">
        <ele>78</ele>
        <time>2022-07-31T07:18:18Z</time>
      </trkpt>
      <trkpt lat="47.07073" lon="-1.81468">
        <ele>77</ele>
        <time>2022-07-31T07:18:20Z</time>
      </trkpt>
      <trkpt lat="47.07066" lon="-1.81482">
        <ele>77</ele>
        <time>2022-07-31T07:18:22Z</time>
      </trkpt>
      <trkpt lat="47.07059" lon="-1.81495">
        <ele>77</ele>
        <time>2022-07-31T07:18:24Z</time>
      </trkpt>
      <trkpt lat="47.07052" lon="-1.8151">
        <ele>77</ele>
        <time>2022-07-31T07:18:26Z</time>
      </trkpt>
      <trkpt lat="47.07045" lon="-1.81525">
        <ele>77</ele>
        <time>2022-07-31T07:18:28Z</time>
      </trkpt>
      <trkpt lat="47.07039" lon="-1.81538">
        <ele>77</ele>
        <time>2022-07-31T07:18:30Z</time>
      </trkpt>
      <trkpt lat="47.07033" lon="-1.81552">
        <ele>77</ele>
        <time>2022-07-31T07:18:32Z</time>
      </trkpt>
      <trkpt lat="47.07027" lon="-1.81567">
        <ele>78</ele>
        <time>2022-07-31T07:18:34Z</time>
      </trkpt>
      <trkpt lat="47.07023" lon="-1.81584">
        <ele>78</ele>
        <time>2022-07-31T07:18:36Z</time>
      </trkpt>
      <trkpt lat="47.07017" lon="-1.816">
        <ele>78</ele>
        <time>2022-07-31T07:18:38Z</time>
      </trkpt>
      <trkpt lat="47.07013" lon="-1.81616">
        <ele>79</ele>
        <time>2022-07-31T07:18:40Z</time>
      </trkpt>
      <trkpt lat="47.07009" lon="-1.81632">
        <ele>79</ele>
        <time>2022-07-31T07:18:42Z</time>
      </trkpt>
      <trkpt lat="47.07004" lon="-1.81648">
        <ele>79</ele>
        <time>2022-07-31T07:18:44Z</time>
      </trkpt>
      <trkpt lat="47.07" lon="-1.81665">
        <ele>79</ele>
        <time>2022-07-31T07:18:46Z</time>
      </trkpt>
      <trkpt lat="47.06996" lon="-1.81681">
        <ele>79</ele>
        <time>2022-07-31T07:18:48Z</time>
      </trkpt>
      <trkpt lat="47.0699" lon="-1.81698">
        <ele>79</ele>
        <time>2022-07-31T07:18:50Z</time>
      </trkpt>
      <trkpt lat="47.06984" lon="-1.81713">
        <ele>80</ele>
        <time>2022-07-31T07:18:52Z</time>
      </trkpt>
      <trkpt lat="47.06979" lon="-1.81728">
        <ele>80</ele>
        <time>2022-07-31T07:18:54Z</time>
      </trkpt>
      <trkpt lat="47.06973" lon="-1.81742">
        <ele>80</ele>
        <time>2022-07-31T07:18:56Z</time>
      </trkpt>
      <trkpt lat="47.06967" lon="-1.81756">
        <ele>81</ele>
        <time>2022-07-31T07:18:58Z</time>
      </trkpt>
      <trkpt lat="47.06961" lon="-1.8177">
        <ele>81</ele>
        <time>2022-07-31T07:19:00Z</time>
      </trkpt>
      <trkpt lat="47.06955" lon="-1.81784">
        <ele>81</ele>
        <time>2022-07-31T07:19:02Z</time>
      </trkpt>
      <trkpt lat="47.06949" lon="-1.81799">
        <ele>81</ele>
        <time>2022-07-31T07:19:04Z</time>
      </trkpt>
      <trkpt lat="47.06942" lon="-1.81814">
        <ele>81</ele>
        <time>2022-07-31T07:19:06Z</time>
      </trkpt>
      <trkpt lat="47.06936" lon="-1.81829">
        <ele>81</ele>
        <time>2022-07-31T07:19:08Z</time>
      </trkpt>
      <trkpt lat="47.0693" lon="-1.81843">
        <ele>82</ele>
        <time>2022-07-31T07:19:10Z</time>
      </trkpt>
      <trkpt lat="47.06924" lon="-1.81857">
        <ele>82</ele>
        <time>2022-07-31T07:19:12Z</time>
      </trkpt>
      <trkpt lat="47.06919" lon="-1.81871">
        <ele>82</ele>
        <time>2022-07-31T07:19:14Z</time>
      </trkpt>
      <trkpt lat="47.06913" lon="-1.81885">
        <ele>82</ele>
        <time>2022-07-31T07:19:16Z</time>
      </trkpt>
      <trkpt lat="47.06907" lon="-1.819">
        <ele>82</ele>
        <time>2022-07-31T07:19:18Z</time>
      </trkpt>
      <trkpt lat="47.06901" lon="-1.81914">
        <ele>83</ele>
        <time>2022-07-31T07:19:20Z</time>
      </trkpt>
      <trkpt lat="47.06897" lon="-1.81929">
        <ele>83</ele>
        <time>2022-07-31T07:19:22Z</time>
      </trkpt>
      <trkpt lat="47.06894" lon="-1.81944">
        <ele>83</ele>
        <time>2022-07-31T07:19:24Z</time>
      </trkpt>
      <trkpt lat="47.06893" lon="-1.81961">
        <ele>83</ele>
        <time>2022-07-31T07:19:26Z</time>
      </trkpt>
      <trkpt lat="47.06894" lon="-1.81977">
        <ele>84</ele>
        <time>2022-07-31T07:19:28Z</time>
      </trkpt>
      <trkpt lat="47.06895" lon="-1.81994">
        <ele>84</ele>
        <time>2022-07-31T07:19:30Z</time>
      </trkpt>
      <trkpt lat="47.06896" lon="-1.8201">
        <ele>84</ele>
        <time>2022-07-31T07:19:32Z</time>
      </trkpt>
      <trkpt lat="47.06898" lon="-1.82025">
        <ele>84</ele>
        <time>2022-07-31T07:19:34Z</time>
      </trkpt>
      <trkpt lat="47.06899" lon="-1.82041">
        <ele>84</ele>
        <time>2022-07-31T07:19:36Z</time>
      </trkpt>
      <trkpt lat="47.06901" lon="-1.82056">
        <ele>85</ele>
        <time>2022-07-31T07:19:38Z</time>
      </trkpt>
      <trkpt lat="47.06902" lon="-1.82073">
        <ele>85</ele>
        <time>2022-07-31T07:19:40Z</time>
      </trkpt>
      <trkpt lat="47.06903" lon="-1.82088">
        <ele>85</ele>
        <time>2022-07-31T07:19:42Z</time>
      </trkpt>
      <trkpt lat="47.06905" lon="-1.82104">
        <ele>85</ele>
        <time>2022-07-31T07:19:44Z</time>
      </trkpt>
      <trkpt lat="47.06906" lon="-1.8212">
        <ele>85</ele>
        <time>2022-07-31T07:19:46Z</time>
      </trkpt>
      <trkpt lat="47.06906" lon="-1.82136">
        <ele>85</ele>
        <time>2022-07-31T07:19:48Z</time>
      </trkpt>
      <trkpt lat="47.06906" lon="-1.82153">
        <ele>85</ele>
        <time>2022-07-31T07:19:50Z</time>
      </trkpt>
      <trkpt lat="47.06906" lon="-1.82171">
        <ele>85</ele>
        <time>2022-07-31T07:19:52Z</time>
      </trkpt>
      <trkpt lat="47.06905" lon="-1.82188">
        <ele>85</ele>
        <time>2022-07-31T07:19:54Z</time>
      </trkpt>
      <trkpt lat="47.06905" lon="-1.82204">
        <ele>85</ele>
        <time>2022-07-31T07:19:56Z</time>
      </trkpt>
      <trkpt lat="47.06905" lon="-1.82219">
        <ele>86</ele>
        <time>2022-07-31T07:19:58Z</time>
      </trkpt>
      <trkpt lat="47.06904" lon="-1.82234">
        <ele>86</ele>
        <time>2022-07-31T07:20:00Z</time>
      </trkpt>
      <trkpt lat="47.06904" lon="-1.82248">
        <ele>86</ele>
        <time>2022-07-31T07:20:02Z</time>
      </trkpt>
      <trkpt lat="47.06904" lon="-1.82263">
        <ele>86</ele>
        <time>2022-07-31T07:20:04Z</time>
      </trkpt>
      <trkpt lat="47.06903" lon="-1.82278">
        <ele>86</ele>
        <time>2022-07-31T07:20:06Z</time>
      </trkpt>
      <trkpt lat="47.06902" lon="-1.82295">
        <ele>86</ele>
        <time>2022-07-31T07:20:08Z</time>
      </trkpt>
      <trkpt lat="47.06901" lon="-1.82311">
        <ele>86</ele>
        <time>2022-07-31T07:20:10Z</time>
      </trkpt>
      <trkpt lat="47.06899" lon="-1.82328">
        <ele>86</ele>
        <time>2022-07-31T07:20:12Z</time>
      </trkpt>
      <trkpt lat="47.06897" lon="-1.82345">
        <ele>87</ele>
        <time>2022-07-31T07:20:14Z</time>
      </trkpt>
      <trkpt lat="47.06895" lon="-1.82362">
        <ele>88</ele>
        <time>2022-07-31T07:20:16Z</time>
      </trkpt>
      <trkpt lat="47.06893" lon="-1.82379">
        <ele>88</ele>
        <time>2022-07-31T07:20:18Z</time>
      </trkpt>
      <trkpt lat="47.0689" lon="-1.82395">
        <ele>88</ele>
        <time>2022-07-31T07:20:20Z</time>
      </trkpt>
      <trkpt lat="47.06888" lon="-1.82412">
        <ele>88</ele>
        <time>2022-07-31T07:20:22Z</time>
      </trkpt>
      <trkpt lat="47.06886" lon="-1.82428">
        <ele>89</ele>
        <time>2022-07-31T07:20:24Z</time>
      </trkpt>
      <trkpt lat="47.06884" lon="-1.82443">
        <ele>89</ele>
        <time>2022-07-31T07:20:26Z</time>
      </trkpt>
      <trkpt lat="47.06882" lon="-1.82462">
        <ele>89</ele>
        <time>2022-07-31T07:20:28Z</time>
      </trkpt>
      <trkpt lat="47.06881" lon="-1.8248">
        <ele>88</ele>
        <time>2022-07-31T07:20:30Z</time>
      </trkpt>
      <trkpt lat="47.06882" lon="-1.82499">
        <ele>88</ele>
        <time>2022-07-31T07:20:32Z</time>
      </trkpt>
      <trkpt lat="47.06883" lon="-1.82516">
        <ele>88</ele>
        <time>2022-07-31T07:20:34Z</time>
      </trkpt>
      <trkpt lat="47.06884" lon="-1.82533">
        <ele>88</ele>
        <time>2022-07-31T07:20:36Z</time>
      </trkpt>
      <trkpt lat="47.06886" lon="-1.82551">
        <ele>88</ele>
        <time>2022-07-31T07:20:38Z</time>
      </trkpt>
      <trkpt lat="47.06888" lon="-1.82569">
        <ele>88</ele>
        <time>2022-07-31T07:20:40Z</time>
      </trkpt>
      <trkpt lat="47.0689" lon="-1.82586">
        <ele>89</ele>
        <time>2022-07-31T07:20:42Z</time>
      </trkpt>
      <trkpt lat="47.06892" lon="-1.82603">
        <ele>89</ele>
        <time>2022-07-31T07:20:44Z</time>
      </trkpt>
      <trkpt lat="47.06893" lon="-1.8262">
        <ele>89</ele>
        <time>2022-07-31T07:20:46Z</time>
      </trkpt>
      <trkpt lat="47.06895" lon="-1.82637">
        <ele>89</ele>
        <time>2022-07-31T07:20:48Z</time>
      </trkpt>
      <trkpt lat="47.06896" lon="-1.82655">
        <ele>89</ele>
        <time>2022-07-31T07:20:50Z</time>
      </trkpt>
      <trkpt lat="47.06897" lon="-1.82671">
        <ele>89</ele>
        <time>2022-07-31T07:20:52Z</time>
      </trkpt>
      <trkpt lat="47.06898" lon="-1.82689">
        <ele>89</ele>
        <time>2022-07-31T07:20:54Z</time>
      </trkpt>
      <trkpt lat="47.06898" lon="-1.82707">
        <ele>89</ele>
        <time>2022-07-31T07:20:56Z</time>
      </trkpt>
      <trkpt lat="47.06897" lon="-1.82726">
        <ele>89</ele>
        <time>2022-07-31T07:20:58Z</time>
      </trkpt>
      <trkpt lat="47.06896" lon="-1.82743">
        <ele>89</ele>
        <time>2022-07-31T07:21:00Z</time>
      </trkpt>
      <trkpt lat="47.06895" lon="-1.82761">
        <ele>88</ele>
        <time>2022-07-31T07:21:02Z</time>
      </trkpt>
      <trkpt lat="47.06896" lon="-1.82779">
        <ele>88</ele>
        <time>2022-07-31T07:21:04Z</time>
      </trkpt>
      <trkpt lat="47.06897" lon="-1.82796">
        <ele>88</ele>
        <time>2022-07-31T07:21:06Z</time>
      </trkpt>
      <trkpt lat="47.06897" lon="-1.82814">
        <ele>88</ele>
        <time>2022-07-31T07:21:08Z</time>
      </trkpt>
      <trkpt lat="47.06899" lon="-1.82832">
        <ele>88</ele>
        <time>2022-07-31T07:21:10Z</time>
      </trkpt>
      <trkpt lat="47.069" lon="-1.8285">
        <ele>88</ele>
        <time>2022-07-31T07:21:12Z</time>
      </trkpt>
      <trkpt lat="47.06901" lon="-1.82867">
        <ele>88</ele>
        <time>2022-07-31T07:21:14Z</time>
      </trkpt>
      <trkpt lat="47.06902" lon="-1.82885">
        <ele>88</ele>
        <time>2022-07-31T07:21:16Z</time>
      </trkpt>
      <trkpt lat="47.06902" lon="-1.82903">
        <ele>88</ele>
        <time>2022-07-31T07:21:18Z</time>
      </trkpt>
      <trkpt lat="47.06903" lon="-1.82921">
        <ele>88</ele>
        <time>2022-07-31T07:21:20Z</time>
      </trkpt>
      <trkpt lat="47.06905" lon="-1.82939">
        <ele>88</ele>
        <time>2022-07-31T07:21:22Z</time>
      </trkpt>
      <trkpt lat="47.06906" lon="-1.82958">
        <ele>88</ele>
        <time>2022-07-31T07:21:24Z</time>
      </trkpt>
      <trkpt lat="47.06906" lon="-1.82975">
        <ele>88</ele>
        <time>2022-07-31T07:21:26Z</time>
      </trkpt>
      <trkpt lat="47.06908" lon="-1.82993">
        <ele>88</ele>
        <time>2022-07-31T07:21:28Z</time>
      </trkpt>
      <trkpt lat="47.0691" lon="-1.83009">
        <ele>87</ele>
        <time>2022-07-31T07:21:30Z</time>
      </trkpt>
      <trkpt lat="47.06914" lon="-1.83024">
        <ele>87</ele>
        <time>2022-07-31T07:21:32Z</time>
      </trkpt>
      <trkpt lat="47.06913" lon="-1.83038">
        <ele>86</ele>
        <time>2022-07-31T07:21:34Z</time>
      </trkpt>
      <trkpt lat="47.06903" lon="-1.83043">
        <ele>86</ele>
        <time>2022-07-31T07:21:36Z</time>
      </trkpt>
      <trkpt lat="47.0689" lon="-1.83041">
        <ele>87</ele>
        <time>2022-07-31T07:21:38Z</time>
      </trkpt>
      <trkpt lat="47.06877" lon="-1.83038">
        <ele>87</ele>
        <time>2022-07-31T07:21:40Z</time>
      </trkpt>
      <trkpt lat="47.06866" lon="-1.83036">
        <ele>87</ele>
        <time>2022-07-31T07:21:42Z</time>
      </trkpt>
      <trkpt lat="47.06854" lon="-1.83035">
        <ele>87</ele>
        <time>2022-07-31T07:21:44Z</time>
      </trkpt>
      <trkpt lat="47.06841" lon="-1.83034">
        <ele>86</ele>
        <time>2022-07-31T07:21:46Z</time>
      </trkpt>
      <trkpt lat="47.06827" lon="-1.83033">
        <ele>87</ele>
        <time>2022-07-31T07:21:48Z</time>
      </trkpt>
      <trkpt lat="47.06814" lon="-1.83034">
        <ele>86</ele>
        <time>2022-07-31T07:21:50Z</time>
      </trkpt>
      <trkpt lat="47.06801" lon="-1.83035">
        <ele>86</ele>
        <time>2022-07-31T07:21:52Z</time>
      </trkpt>
      <trkpt lat="47.06789" lon="-1.83037">
        <ele>86</ele>
        <time>2022-07-31T07:21:54Z</time>
      </trkpt>
      <trkpt lat="47.06775" lon="-1.83039">
        <ele>86</ele>
        <time>2022-07-31T07:21:56Z</time>
      </trkpt>
      <trkpt lat="47.06762" lon="-1.8304">
        <ele>86</ele>
        <time>2022-07-31T07:21:58Z</time>
      </trkpt>
      <trkpt lat="47.06748" lon="-1.83042">
        <ele>86</ele>
        <time>2022-07-31T07:22:00Z</time>
      </trkpt>
      <trkpt lat="47.06735" lon="-1.83045">
        <ele>86</ele>
        <time>2022-07-31T07:22:02Z</time>
      </trkpt>
      <trkpt lat="47.06721" lon="-1.83047">
        <ele>85</ele>
        <time>2022-07-31T07:22:04Z</time>
      </trkpt>
      <trkpt lat="47.06708" lon="-1.8305">
        <ele>85</ele>
        <time>2022-07-31T07:22:06Z</time>
      </trkpt>
      <trkpt lat="47.06694" lon="-1.83053">
        <ele>85</ele>
        <time>2022-07-31T07:22:08Z</time>
      </trkpt>
      <trkpt lat="47.06681" lon="-1.83056">
        <ele>85</ele>
        <time>2022-07-31T07:22:10Z</time>
      </trkpt>
      <trkpt lat="47.06667" lon="-1.83059">
        <ele>85</ele>
        <time>2022-07-31T07:22:12Z</time>
      </trkpt>
      <trkpt lat="47.06654" lon="-1.83063">
        <ele>85</ele>
        <time>2022-07-31T07:22:14Z</time>
      </trkpt>
      <trkpt lat="47.06641" lon="-1.83066">
        <ele>85</ele>
        <time>2022-07-31T07:22:16Z</time>
      </trkpt>
      <trkpt lat="47.06628" lon="-1.83069">
        <ele>86</ele>
        <time>2022-07-31T07:22:18Z</time>
      </trkpt>
      <trkpt lat="47.06615" lon="-1.83072">
        <ele>86</ele>
        <time>2022-07-31T07:22:20Z</time>
      </trkpt>
      <trkpt lat="47.06602" lon="-1.83074">
        <ele>86</ele>
        <time>2022-07-31T07:22:22Z</time>
      </trkpt>
      <trkpt lat="47.06589" lon="-1.83078">
        <ele>86</ele>
        <time>2022-07-31T07:22:24Z</time>
      </trkpt>
      <trkpt lat="47.06577" lon="-1.83082">
        <ele>86</ele>
        <time>2022-07-31T07:22:26Z</time>
      </trkpt>
      <trkpt lat="47.06564" lon="-1.83086">
        <ele>86</ele>
        <time>2022-07-31T07:22:28Z</time>
      </trkpt>
      <trkpt lat="47.06552" lon="-1.83091">
        <ele>85</ele>
        <time>2022-07-31T07:22:30Z</time>
      </trkpt>
      <trkpt lat="47.06539" lon="-1.83095">
        <ele>85</ele>
        <time>2022-07-31T07:22:32Z</time>
      </trkpt>
      <trkpt lat="47.06527" lon="-1.83102">
        <ele>85</ele>
        <time>2022-07-31T07:22:34Z</time>
      </trkpt>
      <trkpt lat="47.06515" lon="-1.83107">
        <ele>85</ele>
        <time>2022-07-31T07:22:36Z</time>
      </trkpt>
      <trkpt lat="47.06503" lon="-1.83112">
        <ele>86</ele>
        <time>2022-07-31T07:22:38Z</time>
      </trkpt>
      <trkpt lat="47.06491" lon="-1.83118">
        <ele>86</ele>
        <time>2022-07-31T07:22:40Z</time>
      </trkpt>
      <trkpt lat="47.06479" lon="-1.83123">
        <ele>86</ele>
        <time>2022-07-31T07:22:42Z</time>
      </trkpt>
      <trkpt lat="47.06466" lon="-1.83128">
        <ele>86</ele>
        <time>2022-07-31T07:22:44Z</time>
      </trkpt>
      <trkpt lat="47.06454" lon="-1.83133">
        <ele>86</ele>
        <time>2022-07-31T07:22:46Z</time>
      </trkpt>
      <trkpt lat="47.06442" lon="-1.83138">
        <ele>86</ele>
        <time>2022-07-31T07:22:48Z</time>
      </trkpt>
      <trkpt lat="47.0643" lon="-1.83143">
        <ele>86</ele>
        <time>2022-07-31T07:22:50Z</time>
      </trkpt>
      <trkpt lat="47.06418" lon="-1.83149">
        <ele>86</ele>
        <time>2022-07-31T07:22:52Z</time>
      </trkpt>
      <trkpt lat="47.06406" lon="-1.83153">
        <ele>86</ele>
        <time>2022-07-31T07:22:54Z</time>
      </trkpt>
      <trkpt lat="47.06394" lon="-1.83159">
        <ele>87</ele>
        <time>2022-07-31T07:22:56Z</time>
      </trkpt>
      <trkpt lat="47.06382" lon="-1.83164">
        <ele>87</ele>
        <time>2022-07-31T07:22:58Z</time>
      </trkpt>
      <trkpt lat="47.0637" lon="-1.83169">
        <ele>87</ele>
        <time>2022-07-31T07:23:00Z</time>
      </trkpt>
      <trkpt lat="47.06358" lon="-1.83174">
        <ele>87</ele>
        <time>2022-07-31T07:23:02Z</time>
      </trkpt>
      <trkpt lat="47.06346" lon="-1.83179">
        <ele>88</ele>
        <time>2022-07-31T07:23:04Z</time>
      </trkpt>
      <trkpt lat="47.06334" lon="-1.83184">
        <ele>88</ele>
        <time>2022-07-31T07:23:06Z</time>
      </trkpt>
      <trkpt lat="47.06323" lon="-1.83188">
        <ele>88</ele>
        <time>2022-07-31T07:23:08Z</time>
      </trkpt>
      <trkpt lat="47.06312" lon="-1.83192">
        <ele>88</ele>
        <time>2022-07-31T07:23:10Z</time>
      </trkpt>
      <trkpt lat="47.063" lon="-1.83196">
        <ele>88</ele>
        <time>2022-07-31T07:23:12Z</time>
      </trkpt>
      <trkpt lat="47.06289" lon="-1.83198">
        <ele>88</ele>
        <time>2022-07-31T07:23:14Z</time>
      </trkpt>
      <trkpt lat="47.06276" lon="-1.832">
        <ele>87</ele>
        <time>2022-07-31T07:23:16Z</time>
      </trkpt>
      <trkpt lat="47.06264" lon="-1.83202">
        <ele>87</ele>
        <time>2022-07-31T07:23:18Z</time>
      </trkpt>
      <trkpt lat="47.06252" lon="-1.83203">
        <ele>87</ele>
        <time>2022-07-31T07:23:20Z</time>
      </trkpt>
      <trkpt lat="47.0624" lon="-1.83204">
        <ele>88</ele>
        <time>2022-07-31T07:23:22Z</time>
      </trkpt>
      <trkpt lat="47.06228" lon="-1.83204">
        <ele>87</ele>
        <time>2022-07-31T07:23:24Z</time>
      </trkpt>
      <trkpt lat="47.06217" lon="-1.83204">
        <ele>88</ele>
        <time>2022-07-31T07:23:26Z</time>
      </trkpt>
      <trkpt lat="47.06205" lon="-1.83205">
        <ele>88</ele>
        <time>2022-07-31T07:23:28Z</time>
      </trkpt>
      <trkpt lat="47.06193" lon="-1.83205">
        <ele>88</ele>
        <time>2022-07-31T07:23:30Z</time>
      </trkpt>
      <trkpt lat="47.06181" lon="-1.83206">
        <ele>88</ele>
        <time>2022-07-31T07:23:32Z</time>
      </trkpt>
      <trkpt lat="47.06169" lon="-1.83207">
        <ele>88</ele>
        <time>2022-07-31T07:23:34Z</time>
      </trkpt>
      <trkpt lat="47.06157" lon="-1.83207">
        <ele>88</ele>
        <time>2022-07-31T07:23:36Z</time>
      </trkpt>
      <trkpt lat="47.06145" lon="-1.83208">
        <ele>88</ele>
        <time>2022-07-31T07:23:38Z</time>
      </trkpt>
      <trkpt lat="47.06132" lon="-1.83208">
        <ele>88</ele>
        <time>2022-07-31T07:23:40Z</time>
      </trkpt>
      <trkpt lat="47.0612" lon="-1.83209">
        <ele>88</ele>
        <time>2022-07-31T07:23:42Z</time>
      </trkpt>
      <trkpt lat="47.06108" lon="-1.83209">
        <ele>88</ele>
        <time>2022-07-31T07:23:44Z</time>
      </trkpt>
      <trkpt lat="47.06096" lon="-1.83209">
        <ele>88</ele>
        <time>2022-07-31T07:23:46Z</time>
      </trkpt>
      <trkpt lat="47.06083" lon="-1.8321">
        <ele>88</ele>
        <time>2022-07-31T07:23:48Z</time>
      </trkpt>
      <trkpt lat="47.06071" lon="-1.83212">
        <ele>88</ele>
        <time>2022-07-31T07:23:50Z</time>
      </trkpt>
      <trkpt lat="47.06059" lon="-1.83213">
        <ele>88</ele>
        <time>2022-07-31T07:23:52Z</time>
      </trkpt>
      <trkpt lat="47.06047" lon="-1.83213">
        <ele>88</ele>
        <time>2022-07-31T07:23:54Z</time>
      </trkpt>
      <trkpt lat="47.06034" lon="-1.83214">
        <ele>88</ele>
        <time>2022-07-31T07:23:56Z</time>
      </trkpt>
      <trkpt lat="47.06022" lon="-1.83215">
        <ele>88</ele>
        <time>2022-07-31T07:23:58Z</time>
      </trkpt>
      <trkpt lat="47.06009" lon="-1.83215">
        <ele>88</ele>
        <time>2022-07-31T07:24:00Z</time>
      </trkpt>
      <trkpt lat="47.05997" lon="-1.83216">
        <ele>88</ele>
        <time>2022-07-31T07:24:02Z</time>
      </trkpt>
      <trkpt lat="47.05985" lon="-1.83218">
        <ele>88</ele>
        <time>2022-07-31T07:24:04Z</time>
      </trkpt>
      <trkpt lat="47.05973" lon="-1.83226">
        <ele>88</ele>
        <time>2022-07-31T07:24:06Z</time>
      </trkpt>
      <trkpt lat="47.05964" lon="-1.83238">
        <ele>88</ele>
        <time>2022-07-31T07:24:08Z</time>
      </trkpt>
      <trkpt lat="47.05955" lon="-1.83251">
        <ele>88</ele>
        <time>2022-07-31T07:24:10Z</time>
      </trkpt>
      <trkpt lat="47.05946" lon="-1.83264">
        <ele>88</ele>
        <time>2022-07-31T07:24:12Z</time>
      </trkpt>
      <trkpt lat="47.05937" lon="-1.83277">
        <ele>88</ele>
        <time>2022-07-31T07:24:14Z</time>
      </trkpt>
      <trkpt lat="47.05928" lon="-1.83291">
        <ele>88</ele>
        <time>2022-07-31T07:24:16Z</time>
      </trkpt>
      <trkpt lat="47.05919" lon="-1.83304">
        <ele>88</ele>
        <time>2022-07-31T07:24:18Z</time>
      </trkpt>
      <trkpt lat="47.0591" lon="-1.83317">
        <ele>88</ele>
        <time>2022-07-31T07:24:20Z</time>
      </trkpt>
      <trkpt lat="47.05901" lon="-1.83332">
        <ele>88</ele>
        <time>2022-07-31T07:24:22Z</time>
      </trkpt>
      <trkpt lat="47.05893" lon="-1.83344">
        <ele>88</ele>
        <time>2022-07-31T07:24:24Z</time>
      </trkpt>
      <trkpt lat="47.05883" lon="-1.83358">
        <ele>88</ele>
        <time>2022-07-31T07:24:26Z</time>
      </trkpt>
      <trkpt lat="47.05875" lon="-1.83371">
        <ele>88</ele>
        <time>2022-07-31T07:24:28Z</time>
      </trkpt>
      <trkpt lat="47.05866" lon="-1.83384">
        <ele>88</ele>
        <time>2022-07-31T07:24:30Z</time>
      </trkpt>
      <trkpt lat="47.05857" lon="-1.83397">
        <ele>88</ele>
        <time>2022-07-31T07:24:32Z</time>
      </trkpt>
      <trkpt lat="47.05848" lon="-1.8341">
        <ele>88</ele>
        <time>2022-07-31T07:24:34Z</time>
      </trkpt>
      <trkpt lat="47.0584" lon="-1.83423">
        <ele>88</ele>
        <time>2022-07-31T07:24:36Z</time>
      </trkpt>
      <trkpt lat="47.05831" lon="-1.83436">
        <ele>88</ele>
        <time>2022-07-31T07:24:38Z</time>
      </trkpt>
      <trkpt lat="47.05822" lon="-1.83449">
        <ele>88</ele>
        <time>2022-07-31T07:24:40Z</time>
      </trkpt>
      <trkpt lat="47.05812" lon="-1.83463">
        <ele>88</ele>
        <time>2022-07-31T07:24:42Z</time>
      </trkpt>
      <trkpt lat="47.05803" lon="-1.83476">
        <ele>88</ele>
        <time>2022-07-31T07:24:44Z</time>
      </trkpt>
      <trkpt lat="47.05793" lon="-1.83488">
        <ele>89</ele>
        <time>2022-07-31T07:24:46Z</time>
      </trkpt>
      <trkpt lat="47.05783" lon="-1.83501">
        <ele>89</ele>
        <time>2022-07-31T07:24:48Z</time>
      </trkpt>
      <trkpt lat="47.05773" lon="-1.83513">
        <ele>89</ele>
        <time>2022-07-31T07:24:50Z</time>
      </trkpt>
      <trkpt lat="47.05762" lon="-1.83526">
        <ele>89</ele>
        <time>2022-07-31T07:24:52Z</time>
      </trkpt>
      <trkpt lat="47.05752" lon="-1.83537">
        <ele>89</ele>
        <time>2022-07-31T07:24:54Z</time>
      </trkpt>
      <trkpt lat="47.05742" lon="-1.83549">
        <ele>90</ele>
        <time>2022-07-31T07:24:56Z</time>
      </trkpt>
      <trkpt lat="47.05732" lon="-1.83562">
        <ele>89</ele>
        <time>2022-07-31T07:24:58Z</time>
      </trkpt>
      <trkpt lat="47.05724" lon="-1.83576">
        <ele>89</ele>
        <time>2022-07-31T07:25:00Z</time>
      </trkpt>
      <trkpt lat="47.05716" lon="-1.83591">
        <ele>89</ele>
        <time>2022-07-31T07:25:02Z</time>
      </trkpt>
      <trkpt lat="47.05707" lon="-1.83605">
        <ele>89</ele>
        <time>2022-07-31T07:25:04Z</time>
      </trkpt>
      <trkpt lat="47.05699" lon="-1.83619">
        <ele>89</ele>
        <time>2022-07-31T07:25:06Z</time>
      </trkpt>
      <trkpt lat="47.05691" lon="-1.83634">
        <ele>90</ele>
        <time>2022-07-31T07:25:08Z</time>
      </trkpt>
      <trkpt lat="47.05682" lon="-1.83649">
        <ele>89</ele>
        <time>2022-07-31T07:25:10Z</time>
      </trkpt>
      <trkpt lat="47.05674" lon="-1.83664">
        <ele>89</ele>
        <time>2022-07-31T07:25:12Z</time>
      </trkpt>
      <trkpt lat="47.05666" lon="-1.83678">
        <ele>89</ele>
        <time>2022-07-31T07:25:14Z</time>
      </trkpt>
      <trkpt lat="47.05658" lon="-1.83693">
        <ele>89</ele>
        <time>2022-07-31T07:25:16Z</time>
      </trkpt>
      <trkpt lat="47.0565" lon="-1.83707">
        <ele>89</ele>
        <time>2022-07-31T07:25:18Z</time>
      </trkpt>
      <trkpt lat="47.05642" lon="-1.83721">
        <ele>90</ele>
        <time>2022-07-31T07:25:20Z</time>
      </trkpt>
      <trkpt lat="47.05634" lon="-1.83735">
        <ele>90</ele>
        <time>2022-07-31T07:25:22Z</time>
      </trkpt>
      <trkpt lat="47.05626" lon="-1.83749">
        <ele>90</ele>
        <time>2022-07-31T07:25:24Z</time>
      </trkpt>
      <trkpt lat="47.05618" lon="-1.83764">
        <ele>90</ele>
        <time>2022-07-31T07:25:26Z</time>
      </trkpt>
      <trkpt lat="47.0561" lon="-1.83778">
        <ele>89</ele>
        <time>2022-07-31T07:25:28Z</time>
      </trkpt>
      <trkpt lat="47.05602" lon="-1.83792">
        <ele>89</ele>
        <time>2022-07-31T07:25:30Z</time>
      </trkpt>
      <trkpt lat="47.05594" lon="-1.83806">
        <ele>89</ele>
        <time>2022-07-31T07:25:32Z</time>
      </trkpt>
      <trkpt lat="47.05585" lon="-1.83821">
        <ele>89</ele>
        <time>2022-07-31T07:25:34Z</time>
      </trkpt>
      <trkpt lat="47.05578" lon="-1.83836">
        <ele>89</ele>
        <time>2022-07-31T07:25:36Z</time>
      </trkpt>
      <trkpt lat="47.05569" lon="-1.83851">
        <ele>89</ele>
        <time>2022-07-31T07:25:38Z</time>
      </trkpt>
      <trkpt lat="47.05561" lon="-1.83865">
        <ele>89</ele>
        <time>2022-07-31T07:25:40Z</time>
      </trkpt>
      <trkpt lat="47.05553" lon="-1.8388">
        <ele>89</ele>
        <time>2022-07-31T07:25:42Z</time>
      </trkpt>
      <trkpt lat="47.05545" lon="-1.83895">
        <ele>89</ele>
        <time>2022-07-31T07:25:44Z</time>
      </trkpt>
      <trkpt lat="47.05537" lon="-1.83909">
        <ele>89</ele>
        <time>2022-07-31T07:25:46Z</time>
      </trkpt>
      <trkpt lat="47.05528" lon="-1.83924">
        <ele>88</ele>
        <time>2022-07-31T07:25:48Z</time>
      </trkpt>
      <trkpt lat="47.0552" lon="-1.83939">
        <ele>88</ele>
        <time>2022-07-31T07:25:50Z</time>
      </trkpt>
      <trkpt lat="47.05512" lon="-1.83953">
        <ele>88</ele>
        <time>2022-07-31T07:25:52Z</time>
      </trkpt>
      <trkpt lat="47.05504" lon="-1.83968">
        <ele>89</ele>
        <time>2022-07-31T07:25:54Z</time>
      </trkpt>
      <trkpt lat="47.05496" lon="-1.83983">
        <ele>89</ele>
        <time>2022-07-31T07:25:56Z</time>
      </trkpt>
      <trkpt lat="47.05489" lon="-1.83998">
        <ele>89</ele>
        <time>2022-07-31T07:25:58Z</time>
      </trkpt>
      <trkpt lat="47.05481" lon="-1.84013">
        <ele>89</ele>
        <time>2022-07-31T07:26:00Z</time>
      </trkpt>
      <trkpt lat="47.05474" lon="-1.84027">
        <ele>89</ele>
        <time>2022-07-31T07:26:02Z</time>
      </trkpt>
      <trkpt lat="47.05466" lon="-1.84042">
        <ele>89</ele>
        <time>2022-07-31T07:26:04Z</time>
      </trkpt>
      <trkpt lat="47.05459" lon="-1.84057">
        <ele>89</ele>
        <time>2022-07-31T07:26:06Z</time>
      </trkpt>
      <trkpt lat="47.05452" lon="-1.84072">
        <ele>89</ele>
        <time>2022-07-31T07:26:08Z</time>
      </trkpt>
      <trkpt lat="47.05444" lon="-1.84087">
        <ele>89</ele>
        <time>2022-07-31T07:26:10Z</time>
      </trkpt>
      <trkpt lat="47.05436" lon="-1.84102">
        <ele>90</ele>
        <time>2022-07-31T07:26:12Z</time>
      </trkpt>
      <trkpt lat="47.05429" lon="-1.84117">
        <ele>90</ele>
        <time>2022-07-31T07:26:14Z</time>
      </trkpt>
      <trkpt lat="47.05421" lon="-1.84132">
        <ele>90</ele>
        <time>2022-07-31T07:26:16Z</time>
      </trkpt>
      <trkpt lat="47.05414" lon="-1.84147">
        <ele>90</ele>
        <time>2022-07-31T07:26:18Z</time>
      </trkpt>
      <trkpt lat="47.05406" lon="-1.84161">
        <ele>90</ele>
        <time>2022-07-31T07:26:20Z</time>
      </trkpt>
      <trkpt lat="47.05399" lon="-1.84176">
        <ele>90</ele>
        <time>2022-07-31T07:26:22Z</time>
      </trkpt>
      <trkpt lat="47.05391" lon="-1.84191">
        <ele>90</ele>
        <time>2022-07-31T07:26:24Z</time>
      </trkpt>
      <trkpt lat="47.05383" lon="-1.84206">
        <ele>90</ele>
        <time>2022-07-31T07:26:26Z</time>
      </trkpt>
      <trkpt lat="47.05376" lon="-1.84221">
        <ele>90</ele>
        <time>2022-07-31T07:26:28Z</time>
      </trkpt>
      <trkpt lat="47.05368" lon="-1.84236">
        <ele>90</ele>
        <time>2022-07-31T07:26:30Z</time>
      </trkpt>
      <trkpt lat="47.05357" lon="-1.84259">
        <ele>91</ele>
        <time>2022-07-31T07:26:33Z</time>
      </trkpt>
      <trkpt lat="47.05349" lon="-1.84274">
        <ele>91</ele>
        <time>2022-07-31T07:26:35Z</time>
      </trkpt>
      <trkpt lat="47.05342" lon="-1.84288">
        <ele>91</ele>
        <time>2022-07-31T07:26:37Z</time>
      </trkpt>
      <trkpt lat="47.05335" lon="-1.84303">
        <ele>91</ele>
        <time>2022-07-31T07:26:39Z</time>
      </trkpt>
      <trkpt lat="47.05324" lon="-1.84325">
        <ele>91</ele>
        <time>2022-07-31T07:26:42Z</time>
      </trkpt>
      <trkpt lat="47.05317" lon="-1.8434">
        <ele>91</ele>
        <time>2022-07-31T07:26:44Z</time>
      </trkpt>
      <trkpt lat="47.05309" lon="-1.84354">
        <ele>91</ele>
        <time>2022-07-31T07:26:46Z</time>
      </trkpt>
      <trkpt lat="47.05302" lon="-1.84369">
        <ele>91</ele>
        <time>2022-07-31T07:26:48Z</time>
      </trkpt>
      <trkpt lat="47.05291" lon="-1.84391">
        <ele>91</ele>
        <time>2022-07-31T07:26:51Z</time>
      </trkpt>
      <trkpt lat="47.0528" lon="-1.84413">
        <ele>91</ele>
        <time>2022-07-31T07:26:54Z</time>
      </trkpt>
      <trkpt lat="47.0527" lon="-1.84434">
        <ele>91</ele>
        <time>2022-07-31T07:26:57Z</time>
      </trkpt>
      <trkpt lat="47.05263" lon="-1.84449">
        <ele>91</ele>
        <time>2022-07-31T07:26:59Z</time>
      </trkpt>
      <trkpt lat="47.05255" lon="-1.84463">
        <ele>91</ele>
        <time>2022-07-31T07:27:01Z</time>
      </trkpt>
      <trkpt lat="47.05249" lon="-1.84476">
        <ele>91</ele>
        <time>2022-07-31T07:27:03Z</time>
      </trkpt>
      <trkpt lat="47.05242" lon="-1.8449">
        <ele>91</ele>
        <time>2022-07-31T07:27:05Z</time>
      </trkpt>
      <trkpt lat="47.05235" lon="-1.84504">
        <ele>91</ele>
        <time>2022-07-31T07:27:07Z</time>
      </trkpt>
      <trkpt lat="47.05227" lon="-1.84518">
        <ele>91</ele>
        <time>2022-07-31T07:27:09Z</time>
      </trkpt>
      <trkpt lat="47.0522" lon="-1.84531">
        <ele>91</ele>
        <time>2022-07-31T07:27:11Z</time>
      </trkpt>
      <trkpt lat="47.05213" lon="-1.84541">
        <ele>91</ele>
        <time>2022-07-31T07:27:13Z</time>
      </trkpt>
      <trkpt lat="47.05204" lon="-1.84542">
        <ele>92</ele>
        <time>2022-07-31T07:27:15Z</time>
      </trkpt>
      <trkpt lat="47.05196" lon="-1.84533">
        <ele>92</ele>
        <time>2022-07-31T07:27:17Z</time>
      </trkpt>
      <trkpt lat="47.05186" lon="-1.84521">
        <ele>93</ele>
        <time>2022-07-31T07:27:19Z</time>
      </trkpt>
      <trkpt lat="47.05176" lon="-1.84507">
        <ele>93</ele>
        <time>2022-07-31T07:27:21Z</time>
      </trkpt>
      <trkpt lat="47.05167" lon="-1.84495">
        <ele>93</ele>
        <time>2022-07-31T07:27:23Z</time>
      </trkpt>
      <trkpt lat="47.05158" lon="-1.84482">
        <ele>93</ele>
        <time>2022-07-31T07:27:25Z</time>
      </trkpt>
      <trkpt lat="47.05149" lon="-1.84468">
        <ele>93</ele>
        <time>2022-07-31T07:27:27Z</time>
      </trkpt>
      <trkpt lat="47.0514" lon="-1.84454">
        <ele>93</ele>
        <time>2022-07-31T07:27:29Z</time>
      </trkpt>
      <trkpt lat="47.05131" lon="-1.84442">
        <ele>93</ele>
        <time>2022-07-31T07:27:31Z</time>
      </trkpt>
      <trkpt lat="47.05123" lon="-1.84429">
        <ele>94</ele>
        <time>2022-07-31T07:27:33Z</time>
      </trkpt>
      <trkpt lat="47.05115" lon="-1.84417">
        <ele>94</ele>
        <time>2022-07-31T07:27:35Z</time>
      </trkpt>
      <trkpt lat="47.05105" lon="-1.84405">
        <ele>95</ele>
        <time>2022-07-31T07:27:37Z</time>
      </trkpt>
      <trkpt lat="47.05094" lon="-1.84394">
        <ele>95</ele>
        <time>2022-07-31T07:27:39Z</time>
      </trkpt>
      <trkpt lat="47.05083" lon="-1.8438">
        <ele>94</ele>
        <time>2022-07-31T07:27:41Z</time>
      </trkpt>
      <trkpt lat="47.05072" lon="-1.84367">
        <ele>93</ele>
        <time>2022-07-31T07:27:43Z</time>
      </trkpt>
      <trkpt lat="47.05061" lon="-1.84355">
        <ele>94</ele>
        <time>2022-07-31T07:27:45Z</time>
      </trkpt>
      <trkpt lat="47.0505" lon="-1.84344">
        <ele>94</ele>
        <time>2022-07-31T07:27:47Z</time>
      </trkpt>
      <trkpt lat="47.0504" lon="-1.84334">
        <ele>93</ele>
        <time>2022-07-31T07:27:49Z</time>
      </trkpt>
      <trkpt lat="47.0503" lon="-1.84324">
        <ele>94</ele>
        <time>2022-07-31T07:27:51Z</time>
      </trkpt>
      <trkpt lat="47.05019" lon="-1.84315">
        <ele>94</ele>
        <time>2022-07-31T07:27:53Z</time>
      </trkpt>
      <trkpt lat="47.05008" lon="-1.84306">
        <ele>95</ele>
        <time>2022-07-31T07:27:55Z</time>
      </trkpt>
      <trkpt lat="47.04997" lon="-1.84297">
        <ele>95</ele>
        <time>2022-07-31T07:27:57Z</time>
      </trkpt>
      <trkpt lat="47.04986" lon="-1.84288">
        <ele>94</ele>
        <time>2022-07-31T07:27:59Z</time>
      </trkpt>
      <trkpt lat="47.04976" lon="-1.8428">
        <ele>95</ele>
        <time>2022-07-31T07:28:01Z</time>
      </trkpt>
      <trkpt lat="47.04965" lon="-1.8427">
        <ele>95</ele>
        <time>2022-07-31T07:28:03Z</time>
      </trkpt>
      <trkpt lat="47.04955" lon="-1.8426">
        <ele>95</ele>
        <time>2022-07-31T07:28:05Z</time>
      </trkpt>
      <trkpt lat="47.04944" lon="-1.84249">
        <ele>95</ele>
        <time>2022-07-31T07:28:07Z</time>
      </trkpt>
      <trkpt lat="47.04933" lon="-1.84237">
        <ele>94</ele>
        <time>2022-07-31T07:28:09Z</time>
      </trkpt>
      <trkpt lat="47.04922" lon="-1.84227">
        <ele>94</ele>
        <time>2022-07-31T07:28:11Z</time>
      </trkpt>
      <trkpt lat="47.04912" lon="-1.84215">
        <ele>93</ele>
        <time>2022-07-31T07:28:13Z</time>
      </trkpt>
      <trkpt lat="47.04902" lon="-1.84205">
        <ele>94</ele>
        <time>2022-07-31T07:28:15Z</time>
      </trkpt>
      <trkpt lat="47.04891" lon="-1.84194">
        <ele>93</ele>
        <time>2022-07-31T07:28:17Z</time>
      </trkpt>
      <trkpt lat="47.0488" lon="-1.84183">
        <ele>94</ele>
        <time>2022-07-31T07:28:19Z</time>
      </trkpt>
      <trkpt lat="47.04869" lon="-1.84172">
        <ele>93</ele>
        <time>2022-07-31T07:28:21Z</time>
      </trkpt>
      <trkpt lat="47.04859" lon="-1.84161">
        <ele>93</ele>
        <time>2022-07-31T07:28:23Z</time>
      </trkpt>
      <trkpt lat="47.04848" lon="-1.8415">
        <ele>93</ele>
        <time>2022-07-31T07:28:25Z</time>
      </trkpt>
      <trkpt lat="47.04838" lon="-1.84138">
        <ele>93</ele>
        <time>2022-07-31T07:28:27Z</time>
      </trkpt>
      <trkpt lat="47.04828" lon="-1.84126">
        <ele>92</ele>
        <time>2022-07-31T07:28:29Z</time>
      </trkpt>
      <trkpt lat="47.04818" lon="-1.84113">
        <ele>92</ele>
        <time>2022-07-31T07:28:31Z</time>
      </trkpt>
      <trkpt lat="47.04808" lon="-1.841">
        <ele>92</ele>
        <time>2022-07-31T07:28:33Z</time>
      </trkpt>
      <trkpt lat="47.04799" lon="-1.84087">
        <ele>92</ele>
        <time>2022-07-31T07:28:35Z</time>
      </trkpt>
      <trkpt lat="47.04789" lon="-1.84075">
        <ele>92</ele>
        <time>2022-07-31T07:28:37Z</time>
      </trkpt>
      <trkpt lat="47.0478" lon="-1.84063">
        <ele>92</ele>
        <time>2022-07-31T07:28:39Z</time>
      </trkpt>
      <trkpt lat="47.0477" lon="-1.8405">
        <ele>92</ele>
        <time>2022-07-31T07:28:41Z</time>
      </trkpt>
      <trkpt lat="47.04761" lon="-1.84038">
        <ele>91</ele>
        <time>2022-07-31T07:28:43Z</time>
      </trkpt>
      <trkpt lat="47.04751" lon="-1.84025">
        <ele>91</ele>
        <time>2022-07-31T07:28:45Z</time>
      </trkpt>
      <trkpt lat="47.04741" lon="-1.84013">
        <ele>91</ele>
        <time>2022-07-31T07:28:47Z</time>
      </trkpt>
      <trkpt lat="47.0473" lon="-1.84">
        <ele>91</ele>
        <time>2022-07-31T07:28:49Z</time>
      </trkpt>
      <trkpt lat="47.0472" lon="-1.83987">
        <ele>91</ele>
        <time>2022-07-31T07:28:51Z</time>
      </trkpt>
      <trkpt lat="47.04709" lon="-1.83974">
        <ele>91</ele>
        <time>2022-07-31T07:28:53Z</time>
      </trkpt>
      <trkpt lat="47.04699" lon="-1.83962">
        <ele>91</ele>
        <time>2022-07-31T07:28:55Z</time>
      </trkpt>
      <trkpt lat="47.04688" lon="-1.8395">
        <ele>90</ele>
        <time>2022-07-31T07:28:57Z</time>
      </trkpt>
      <trkpt lat="47.04677" lon="-1.83937">
        <ele>90</ele>
        <time>2022-07-31T07:28:59Z</time>
      </trkpt>
      <trkpt lat="47.04667" lon="-1.83923">
        <ele>90</ele>
        <time>2022-07-31T07:29:01Z</time>
      </trkpt>
      <trkpt lat="47.04658" lon="-1.83911">
        <ele>89</ele>
        <time>2022-07-31T07:29:03Z</time>
      </trkpt>
      <trkpt lat="47.04648" lon="-1.83897">
        <ele>89</ele>
        <time>2022-07-31T07:29:05Z</time>
      </trkpt>
      <trkpt lat="47.04638" lon="-1.83883">
        <ele>89</ele>
        <time>2022-07-31T07:29:07Z</time>
      </trkpt>
      <trkpt lat="47.04628" lon="-1.83868">
        <ele>89</ele>
        <time>2022-07-31T07:29:09Z</time>
      </trkpt>
      <trkpt lat="47.04618" lon="-1.83855">
        <ele>89</ele>
        <time>2022-07-31T07:29:11Z</time>
      </trkpt>
      <trkpt lat="47.04608" lon="-1.83842">
        <ele>88</ele>
        <time>2022-07-31T07:29:13Z</time>
      </trkpt>
      <trkpt lat="47.04596" lon="-1.83831">
        <ele>89</ele>
        <time>2022-07-31T07:29:15Z</time>
      </trkpt>
      <trkpt lat="47.04584" lon="-1.83823">
        <ele>89</ele>
        <time>2022-07-31T07:29:17Z</time>
      </trkpt>
      <trkpt lat="47.04572" lon="-1.83814">
        <ele>89</ele>
        <time>2022-07-31T07:29:19Z</time>
      </trkpt>
      <trkpt lat="47.0456" lon="-1.83807">
        <ele>89</ele>
        <time>2022-07-31T07:29:21Z</time>
      </trkpt>
      <trkpt lat="47.04549" lon="-1.83799">
        <ele>89</ele>
        <time>2022-07-31T07:29:23Z</time>
      </trkpt>
      <trkpt lat="47.04537" lon="-1.83792">
        <ele>90</ele>
        <time>2022-07-31T07:29:25Z</time>
      </trkpt>
      <trkpt lat="47.04526" lon="-1.83784">
        <ele>90</ele>
        <time>2022-07-31T07:29:27Z</time>
      </trkpt>
      <trkpt lat="47.04515" lon="-1.83775">
        <ele>90</ele>
        <time>2022-07-31T07:29:29Z</time>
      </trkpt>
      <trkpt lat="47.04503" lon="-1.83767">
        <ele>90</ele>
        <time>2022-07-31T07:29:31Z</time>
      </trkpt>
      <trkpt lat="47.04492" lon="-1.83757">
        <ele>89</ele>
        <time>2022-07-31T07:29:33Z</time>
      </trkpt>
      <trkpt lat="47.04481" lon="-1.83748">
        <ele>90</ele>
        <time>2022-07-31T07:29:35Z</time>
      </trkpt>
      <trkpt lat="47.0447" lon="-1.83739">
        <ele>90</ele>
        <time>2022-07-31T07:29:37Z</time>
      </trkpt>
      <trkpt lat="47.04459" lon="-1.83731">
        <ele>91</ele>
        <time>2022-07-31T07:29:39Z</time>
      </trkpt>
      <trkpt lat="47.04448" lon="-1.83723">
        <ele>91</ele>
        <time>2022-07-31T07:29:41Z</time>
      </trkpt>
      <trkpt lat="47.04438" lon="-1.83714">
        <ele>91</ele>
        <time>2022-07-31T07:29:43Z</time>
      </trkpt>
      <trkpt lat="47.04426" lon="-1.83705">
        <ele>91</ele>
        <time>2022-07-31T07:29:45Z</time>
      </trkpt>
      <trkpt lat="47.04414" lon="-1.83697">
        <ele>90</ele>
        <time>2022-07-31T07:29:47Z</time>
      </trkpt>
      <trkpt lat="47.04402" lon="-1.83687">
        <ele>90</ele>
        <time>2022-07-31T07:29:49Z</time>
      </trkpt>
      <trkpt lat="47.04389" lon="-1.8368">
        <ele>89</ele>
        <time>2022-07-31T07:29:51Z</time>
      </trkpt>
      <trkpt lat="47.04376" lon="-1.83674">
        <ele>89</ele>
        <time>2022-07-31T07:29:53Z</time>
      </trkpt>
      <trkpt lat="47.04363" lon="-1.83669">
        <ele>89</ele>
        <time>2022-07-31T07:29:55Z</time>
      </trkpt>
      <trkpt lat="47.0435" lon="-1.83666">
        <ele>88</ele>
        <time>2022-07-31T07:29:57Z</time>
      </trkpt>
      <trkpt lat="47.04336" lon="-1.83662">
        <ele>88</ele>
        <time>2022-07-31T07:29:59Z</time>
      </trkpt>
      <trkpt lat="47.04322" lon="-1.83659">
        <ele>88</ele>
        <time>2022-07-31T07:30:01Z</time>
      </trkpt>
      <trkpt lat="47.04309" lon="-1.83655">
        <ele>88</ele>
        <time>2022-07-31T07:30:03Z</time>
      </trkpt>
      <trkpt lat="47.04296" lon="-1.83652">
        <ele>88</ele>
        <time>2022-07-31T07:30:05Z</time>
      </trkpt>
      <trkpt lat="47.04283" lon="-1.83649">
        <ele>88</ele>
        <time>2022-07-31T07:30:07Z</time>
      </trkpt>
      <trkpt lat="47.04268" lon="-1.83645">
        <ele>88</ele>
        <time>2022-07-31T07:30:09Z</time>
      </trkpt>
      <trkpt lat="47.04254" lon="-1.83641">
        <ele>88</ele>
        <time>2022-07-31T07:30:11Z</time>
      </trkpt>
      <trkpt lat="47.04241" lon="-1.83636">
        <ele>88</ele>
        <time>2022-07-31T07:30:13Z</time>
      </trkpt>
      <trkpt lat="47.04229" lon="-1.8363">
        <ele>88</ele>
        <time>2022-07-31T07:30:15Z</time>
      </trkpt>
      <trkpt lat="47.04217" lon="-1.83621">
        <ele>88</ele>
        <time>2022-07-31T07:30:17Z</time>
      </trkpt>
      <trkpt lat="47.04205" lon="-1.83616">
        <ele>88</ele>
        <time>2022-07-31T07:30:19Z</time>
      </trkpt>
      <trkpt lat="47.04192" lon="-1.83616">
        <ele>88</ele>
        <time>2022-07-31T07:30:21Z</time>
      </trkpt>
      <trkpt lat="47.04179" lon="-1.83614">
        <ele>87</ele>
        <time>2022-07-31T07:30:23Z</time>
      </trkpt>
      <trkpt lat="47.04167" lon="-1.83609">
        <ele>87</ele>
        <time>2022-07-31T07:30:25Z</time>
      </trkpt>
      <trkpt lat="47.04155" lon="-1.83603">
        <ele>87</ele>
        <time>2022-07-31T07:30:27Z</time>
      </trkpt>
      <trkpt lat="47.04143" lon="-1.83597">
        <ele>88</ele>
        <time>2022-07-31T07:30:29Z</time>
      </trkpt>
      <trkpt lat="47.04131" lon="-1.83591">
        <ele>88</ele>
        <time>2022-07-31T07:30:31Z</time>
      </trkpt>
      <trkpt lat="47.04119" lon="-1.83585">
        <ele>88</ele>
        <time>2022-07-31T07:30:33Z</time>
      </trkpt>
      <trkpt lat="47.04106" lon="-1.8358">
        <ele>88</ele>
        <time>2022-07-31T07:30:35Z</time>
      </trkpt>
      <trkpt lat="47.04093" lon="-1.83576">
        <ele>89</ele>
        <time>2022-07-31T07:30:37Z</time>
      </trkpt>
      <trkpt lat="47.04081" lon="-1.83573">
        <ele>88</ele>
        <time>2022-07-31T07:30:39Z</time>
      </trkpt>
      <trkpt lat="47.04068" lon="-1.8357">
        <ele>88</ele>
        <time>2022-07-31T07:30:41Z</time>
      </trkpt>
      <trkpt lat="47.04056" lon="-1.83568">
        <ele>89</ele>
        <time>2022-07-31T07:30:43Z</time>
      </trkpt>
      <trkpt lat="47.04043" lon="-1.83566">
        <ele>89</ele>
        <time>2022-07-31T07:30:45Z</time>
      </trkpt>
      <trkpt lat="47.0403" lon="-1.83565">
        <ele>89</ele>
        <time>2022-07-31T07:30:47Z</time>
      </trkpt>
      <trkpt lat="47.04017" lon="-1.83563">
        <ele>89</ele>
        <time>2022-07-31T07:30:49Z</time>
      </trkpt>
      <trkpt lat="47.04005" lon="-1.83561">
        <ele>89</ele>
        <time>2022-07-31T07:30:51Z</time>
      </trkpt>
      <trkpt lat="47.03992" lon="-1.8356">
        <ele>89</ele>
        <time>2022-07-31T07:30:53Z</time>
      </trkpt>
      <trkpt lat="47.03979" lon="-1.83558">
        <ele>89</ele>
        <time>2022-07-31T07:30:55Z</time>
      </trkpt>
      <trkpt lat="47.03966" lon="-1.83556">
        <ele>89</ele>
        <time>2022-07-31T07:30:57Z</time>
      </trkpt>
      <trkpt lat="47.03953" lon="-1.83554">
        <ele>89</ele>
        <time>2022-07-31T07:30:59Z</time>
      </trkpt>
      <trkpt lat="47.0394" lon="-1.83553">
        <ele>89</ele>
        <time>2022-07-31T07:31:01Z</time>
      </trkpt>
      <trkpt lat="47.03927" lon="-1.83551">
        <ele>89</ele>
        <time>2022-07-31T07:31:03Z</time>
      </trkpt>
      <trkpt lat="47.03915" lon="-1.83549">
        <ele>89</ele>
        <time>2022-07-31T07:31:05Z</time>
      </trkpt>
      <trkpt lat="47.03902" lon="-1.83548">
        <ele>89</ele>
        <time>2022-07-31T07:31:07Z</time>
      </trkpt>
      <trkpt lat="47.03889" lon="-1.83546">
        <ele>89</ele>
        <time>2022-07-31T07:31:09Z</time>
      </trkpt>
      <trkpt lat="47.03876" lon="-1.83544">
        <ele>89</ele>
        <time>2022-07-31T07:31:11Z</time>
      </trkpt>
      <trkpt lat="47.03863" lon="-1.83543">
        <ele>89</ele>
        <time>2022-07-31T07:31:13Z</time>
      </trkpt>
      <trkpt lat="47.0385" lon="-1.83541">
        <ele>89</ele>
        <time>2022-07-31T07:31:15Z</time>
      </trkpt>
      <trkpt lat="47.03838" lon="-1.83539">
        <ele>89</ele>
        <time>2022-07-31T07:31:17Z</time>
      </trkpt>
      <trkpt lat="47.03824" lon="-1.83538">
        <ele>89</ele>
        <time>2022-07-31T07:31:19Z</time>
      </trkpt>
      <trkpt lat="47.03812" lon="-1.83537">
        <ele>89</ele>
        <time>2022-07-31T07:31:21Z</time>
      </trkpt>
      <trkpt lat="47.03799" lon="-1.83536">
        <ele>89</ele>
        <time>2022-07-31T07:31:23Z</time>
      </trkpt>
      <trkpt lat="47.03786" lon="-1.83535">
        <ele>89</ele>
        <time>2022-07-31T07:31:25Z</time>
      </trkpt>
      <trkpt lat="47.03773" lon="-1.83536">
        <ele>89</ele>
        <time>2022-07-31T07:31:27Z</time>
      </trkpt>
      <trkpt lat="47.0376" lon="-1.83535">
        <ele>89</ele>
        <time>2022-07-31T07:31:29Z</time>
      </trkpt>
      <trkpt lat="47.03747" lon="-1.83536">
        <ele>89</ele>
        <time>2022-07-31T07:31:31Z</time>
      </trkpt>
      <trkpt lat="47.03733" lon="-1.83536">
        <ele>89</ele>
        <time>2022-07-31T07:31:33Z</time>
      </trkpt>
      <trkpt lat="47.0372" lon="-1.83535">
        <ele>89</ele>
        <time>2022-07-31T07:31:35Z</time>
      </trkpt>
      <trkpt lat="47.03707" lon="-1.83535">
        <ele>89</ele>
        <time>2022-07-31T07:31:37Z</time>
      </trkpt>
      <trkpt lat="47.03695" lon="-1.83536">
        <ele>89</ele>
        <time>2022-07-31T07:31:39Z</time>
      </trkpt>
      <trkpt lat="47.03682" lon="-1.83535">
        <ele>89</ele>
        <time>2022-07-31T07:31:41Z</time>
      </trkpt>
      <trkpt lat="47.03668" lon="-1.83536">
        <ele>88</ele>
        <time>2022-07-31T07:31:43Z</time>
      </trkpt>
      <trkpt lat="47.03654" lon="-1.83536">
        <ele>87</ele>
        <time>2022-07-31T07:31:45Z</time>
      </trkpt>
      <trkpt lat="47.0364" lon="-1.83536">
        <ele>88</ele>
        <time>2022-07-31T07:31:47Z</time>
      </trkpt>
      <trkpt lat="47.03627" lon="-1.83538">
        <ele>88</ele>
        <time>2022-07-31T07:31:49Z</time>
      </trkpt>
      <trkpt lat="47.03613" lon="-1.83538">
        <ele>87</ele>
        <time>2022-07-31T07:31:51Z</time>
      </trkpt>
      <trkpt lat="47.03598" lon="-1.83539">
        <ele>87</ele>
        <time>2022-07-31T07:31:53Z</time>
      </trkpt>
      <trkpt lat="47.03584" lon="-1.8354">
        <ele>87</ele>
        <time>2022-07-31T07:31:55Z</time>
      </trkpt>
      <trkpt lat="47.0357" lon="-1.8354">
        <ele>87</ele>
        <time>2022-07-31T07:31:57Z</time>
      </trkpt>
      <trkpt lat="47.03556" lon="-1.8354">
        <ele>87</ele>
        <time>2022-07-31T07:31:59Z</time>
      </trkpt>
      <trkpt lat="47.03541" lon="-1.83541">
        <ele>87</ele>
        <time>2022-07-31T07:32:01Z</time>
      </trkpt>
      <trkpt lat="47.03526" lon="-1.8354">
        <ele>86</ele>
        <time>2022-07-31T07:32:03Z</time>
      </trkpt>
      <trkpt lat="47.03512" lon="-1.83539">
        <ele>86</ele>
        <time>2022-07-31T07:32:05Z</time>
      </trkpt>
      <trkpt lat="47.03497" lon="-1.83536">
        <ele>85</ele>
        <time>2022-07-31T07:32:07Z</time>
      </trkpt>
      <trkpt lat="47.03482" lon="-1.83533">
        <ele>85</ele>
        <time>2022-07-31T07:32:09Z</time>
      </trkpt>
      <trkpt lat="47.03468" lon="-1.83529">
        <ele>85</ele>
        <time>2022-07-31T07:32:11Z</time>
      </trkpt>
      <trkpt lat="47.03454" lon="-1.83526">
        <ele>85</ele>
        <time>2022-07-31T07:32:13Z</time>
      </trkpt>
      <trkpt lat="47.03439" lon="-1.83521">
        <ele>84</ele>
        <time>2022-07-31T07:32:15Z</time>
      </trkpt>
      <trkpt lat="47.03424" lon="-1.83517">
        <ele>84</ele>
        <time>2022-07-31T07:32:17Z</time>
      </trkpt>
      <trkpt lat="47.0341" lon="-1.83512">
        <ele>84</ele>
        <time>2022-07-31T07:32:19Z</time>
      </trkpt>
      <trkpt lat="47.03395" lon="-1.83509">
        <ele>83</ele>
        <time>2022-07-31T07:32:21Z</time>
      </trkpt>
      <trkpt lat="47.03381" lon="-1.83505">
        <ele>83</ele>
        <time>2022-07-31T07:32:23Z</time>
      </trkpt>
      <trkpt lat="47.03367" lon="-1.83501">
        <ele>83</ele>
        <time>2022-07-31T07:32:25Z</time>
      </trkpt>
      <trkpt lat="47.03353" lon="-1.83498">
        <ele>83</ele>
        <time>2022-07-31T07:32:27Z</time>
      </trkpt>
      <trkpt lat="47.03339" lon="-1.83494">
        <ele>83</ele>
        <time>2022-07-31T07:32:29Z</time>
      </trkpt>
      <trkpt lat="47.03325" lon="-1.8349">
        <ele>83</ele>
        <time>2022-07-31T07:32:31Z</time>
      </trkpt>
      <trkpt lat="47.03311" lon="-1.83486">
        <ele>83</ele>
        <time>2022-07-31T07:32:33Z</time>
      </trkpt>
      <trkpt lat="47.03298" lon="-1.83482">
        <ele>84</ele>
        <time>2022-07-31T07:32:35Z</time>
      </trkpt>
      <trkpt lat="47.03284" lon="-1.83478">
        <ele>84</ele>
        <time>2022-07-31T07:32:37Z</time>
      </trkpt>
      <trkpt lat="47.03269" lon="-1.83475">
        <ele>84</ele>
        <time>2022-07-31T07:32:39Z</time>
      </trkpt>
      <trkpt lat="47.03256" lon="-1.83471">
        <ele>84</ele>
        <time>2022-07-31T07:32:41Z</time>
      </trkpt>
      <trkpt lat="47.03242" lon="-1.83467">
        <ele>85</ele>
        <time>2022-07-31T07:32:43Z</time>
      </trkpt>
      <trkpt lat="47.03228" lon="-1.83463">
        <ele>85</ele>
        <time>2022-07-31T07:32:45Z</time>
      </trkpt>
      <trkpt lat="47.03215" lon="-1.83459">
        <ele>85</ele>
        <time>2022-07-31T07:32:47Z</time>
      </trkpt>
      <trkpt lat="47.03201" lon="-1.83455">
        <ele>84</ele>
        <time>2022-07-31T07:32:49Z</time>
      </trkpt>
      <trkpt lat="47.0319" lon="-1.83452">
        <ele>85</ele>
        <time>2022-07-31T07:32:51Z</time>
      </trkpt>
      <trkpt lat="47.03179" lon="-1.83451">
        <ele>85</ele>
        <time>2022-07-31T07:32:53Z</time>
      </trkpt>
      <trkpt lat="47.03169" lon="-1.83457">
        <ele>84</ele>
        <time>2022-07-31T07:32:55Z</time>
      </trkpt>
      <trkpt lat="47.03164" lon="-1.83472">
        <ele>84</ele>
        <time>2022-07-31T07:32:57Z</time>
      </trkpt>
      <trkpt lat="47.03157" lon="-1.83486">
        <ele>84</ele>
        <time>2022-07-31T07:32:59Z</time>
      </trkpt>
      <trkpt lat="47.03145" lon="-1.8349">
        <ele>83</ele>
        <time>2022-07-31T07:33:01Z</time>
      </trkpt>
      <trkpt lat="47.03132" lon="-1.83491">
        <ele>83</ele>
        <time>2022-07-31T07:33:03Z</time>
      </trkpt>
      <trkpt lat="47.03119" lon="-1.83492">
        <ele>82</ele>
        <time>2022-07-31T07:33:05Z</time>
      </trkpt>
      <trkpt lat="47.03106" lon="-1.83494">
        <ele>82</ele>
        <time>2022-07-31T07:33:07Z</time>
      </trkpt>
      <trkpt lat="47.03093" lon="-1.83495">
        <ele>82</ele>
        <time>2022-07-31T07:33:09Z</time>
      </trkpt>
      <trkpt lat="47.03079" lon="-1.83498">
        <ele>82</ele>
        <time>2022-07-31T07:33:11Z</time>
      </trkpt>
      <trkpt lat="47.03065" lon="-1.83499">
        <ele>82</ele>
        <time>2022-07-31T07:33:13Z</time>
      </trkpt>
      <trkpt lat="47.03051" lon="-1.835">
        <ele>81</ele>
        <time>2022-07-31T07:33:15Z</time>
      </trkpt>
      <trkpt lat="47.03037" lon="-1.83502">
        <ele>81</ele>
        <time>2022-07-31T07:33:17Z</time>
      </trkpt>
      <trkpt lat="47.03022" lon="-1.83503">
        <ele>81</ele>
        <time>2022-07-31T07:33:19Z</time>
      </trkpt>
      <trkpt lat="47.03008" lon="-1.83504">
        <ele>81</ele>
        <time>2022-07-31T07:33:21Z</time>
      </trkpt>
      <trkpt lat="47.02994" lon="-1.83506">
        <ele>81</ele>
        <time>2022-07-31T07:33:23Z</time>
      </trkpt>
      <trkpt lat="47.0298" lon="-1.83507">
        <ele>81</ele>
        <time>2022-07-31T07:33:25Z</time>
      </trkpt>
      <trkpt lat="47.02965" lon="-1.83508">
        <ele>80</ele>
        <time>2022-07-31T07:33:27Z</time>
      </trkpt>
      <trkpt lat="47.02951" lon="-1.8351">
        <ele>80</ele>
        <time>2022-07-31T07:33:29Z</time>
      </trkpt>
      <trkpt lat="47.02937" lon="-1.83512">
        <ele>80</ele>
        <time>2022-07-31T07:33:31Z</time>
      </trkpt>
      <trkpt lat="47.02923" lon="-1.83516">
        <ele>81</ele>
        <time>2022-07-31T07:33:33Z</time>
      </trkpt>
      <trkpt lat="47.02909" lon="-1.83519">
        <ele>81</ele>
        <time>2022-07-31T07:33:35Z</time>
      </trkpt>
      <trkpt lat="47.02896" lon="-1.83522">
        <ele>81</ele>
        <time>2022-07-31T07:33:37Z</time>
      </trkpt>
      <trkpt lat="47.02883" lon="-1.83525">
        <ele>81</ele>
        <time>2022-07-31T07:33:39Z</time>
      </trkpt>
      <trkpt lat="47.0287" lon="-1.8353">
        <ele>81</ele>
        <time>2022-07-31T07:33:41Z</time>
      </trkpt>
      <trkpt lat="47.02857" lon="-1.83535">
        <ele>81</ele>
        <time>2022-07-31T07:33:43Z</time>
      </trkpt>
      <trkpt lat="47.02844" lon="-1.83542">
        <ele>81</ele>
        <time>2022-07-31T07:33:45Z</time>
      </trkpt>
      <trkpt lat="47.02832" lon="-1.83551">
        <ele>80</ele>
        <time>2022-07-31T07:33:47Z</time>
      </trkpt>
      <trkpt lat="47.02822" lon="-1.83561">
        <ele>80</ele>
        <time>2022-07-31T07:33:49Z</time>
      </trkpt>
      <trkpt lat="47.02811" lon="-1.83572">
        <ele>81</ele>
        <time>2022-07-31T07:33:51Z</time>
      </trkpt>
      <trkpt lat="47.02801" lon="-1.83583">
        <ele>81</ele>
        <time>2022-07-31T07:33:53Z</time>
      </trkpt>
      <trkpt lat="47.0279" lon="-1.83593">
        <ele>81</ele>
        <time>2022-07-31T07:33:55Z</time>
      </trkpt>
      <trkpt lat="47.02778" lon="-1.83602">
        <ele>82</ele>
        <time>2022-07-31T07:33:57Z</time>
      </trkpt>
      <trkpt lat="47.02765" lon="-1.83609">
        <ele>82</ele>
        <time>2022-07-31T07:33:59Z</time>
      </trkpt>
      <trkpt lat="47.02752" lon="-1.83614">
        <ele>82</ele>
        <time>2022-07-31T07:34:01Z</time>
      </trkpt>
      <trkpt lat="47.02739" lon="-1.83617">
        <ele>82</ele>
        <time>2022-07-31T07:34:03Z</time>
      </trkpt>
      <trkpt lat="47.02724" lon="-1.83618">
        <ele>82</ele>
        <time>2022-07-31T07:34:05Z</time>
      </trkpt>
      <trkpt lat="47.0271" lon="-1.83619">
        <ele>82</ele>
        <time>2022-07-31T07:34:07Z</time>
      </trkpt>
      <trkpt lat="47.02696" lon="-1.8362">
        <ele>82</ele>
        <time>2022-07-31T07:34:09Z</time>
      </trkpt>
      <trkpt lat="47.02682" lon="-1.8362">
        <ele>82</ele>
        <time>2022-07-31T07:34:11Z</time>
      </trkpt>
      <trkpt lat="47.02668" lon="-1.83621">
        <ele>82</ele>
        <time>2022-07-31T07:34:13Z</time>
      </trkpt>
      <trkpt lat="47.02654" lon="-1.83621">
        <ele>82</ele>
        <time>2022-07-31T07:34:15Z</time>
      </trkpt>
      <trkpt lat="47.0264" lon="-1.83622">
        <ele>81</ele>
        <time>2022-07-31T07:34:17Z</time>
      </trkpt>
      <trkpt lat="47.02626" lon="-1.83622">
        <ele>82</ele>
        <time>2022-07-31T07:34:19Z</time>
      </trkpt>
      <trkpt lat="47.02612" lon="-1.83623">
        <ele>81</ele>
        <time>2022-07-31T07:34:21Z</time>
      </trkpt>
      <trkpt lat="47.02598" lon="-1.83623">
        <ele>81</ele>
        <time>2022-07-31T07:34:23Z</time>
      </trkpt>
      <trkpt lat="47.02584" lon="-1.83624">
        <ele>80</ele>
        <time>2022-07-31T07:34:25Z</time>
      </trkpt>
      <trkpt lat="47.0257" lon="-1.83625">
        <ele>80</ele>
        <time>2022-07-31T07:34:27Z</time>
      </trkpt>
      <trkpt lat="47.02556" lon="-1.83627">
        <ele>80</ele>
        <time>2022-07-31T07:34:29Z</time>
      </trkpt>
      <trkpt lat="47.02542" lon="-1.83628">
        <ele>79</ele>
        <time>2022-07-31T07:34:31Z</time>
      </trkpt>
      <trkpt lat="47.02529" lon="-1.8363">
        <ele>79</ele>
        <time>2022-07-31T07:34:33Z</time>
      </trkpt>
      <trkpt lat="47.02515" lon="-1.83633">
        <ele>79</ele>
        <time>2022-07-31T07:34:35Z</time>
      </trkpt>
      <trkpt lat="47.02501" lon="-1.83636">
        <ele>79</ele>
        <time>2022-07-31T07:34:37Z</time>
      </trkpt>
      <trkpt lat="47.02487" lon="-1.8364">
        <ele>79</ele>
        <time>2022-07-31T07:34:39Z</time>
      </trkpt>
      <trkpt lat="47.02473" lon="-1.83643">
        <ele>79</ele>
        <time>2022-07-31T07:34:41Z</time>
      </trkpt>
      <trkpt lat="47.02459" lon="-1.83646">
        <ele>79</ele>
        <time>2022-07-31T07:34:43Z</time>
      </trkpt>
      <trkpt lat="47.02446" lon="-1.8365">
        <ele>79</ele>
        <time>2022-07-31T07:34:45Z</time>
      </trkpt>
      <trkpt lat="47.02432" lon="-1.83653">
        <ele>79</ele>
        <time>2022-07-31T07:34:47Z</time>
      </trkpt>
      <trkpt lat="47.02419" lon="-1.83655">
        <ele>79</ele>
        <time>2022-07-31T07:34:49Z</time>
      </trkpt>
      <trkpt lat="47.02406" lon="-1.83657">
        <ele>79</ele>
        <time>2022-07-31T07:34:51Z</time>
      </trkpt>
      <trkpt lat="47.02392" lon="-1.83658">
        <ele>79</ele>
        <time>2022-07-31T07:34:53Z</time>
      </trkpt>
      <trkpt lat="47.02379" lon="-1.83658">
        <ele>79</ele>
        <time>2022-07-31T07:34:55Z</time>
      </trkpt>
      <trkpt lat="47.02366" lon="-1.83658">
        <ele>79</ele>
        <time>2022-07-31T07:34:57Z</time>
      </trkpt>
      <trkpt lat="47.02353" lon="-1.83656">
        <ele>79</ele>
        <time>2022-07-31T07:34:59Z</time>
      </trkpt>
      <trkpt lat="47.02339" lon="-1.83656">
        <ele>78</ele>
        <time>2022-07-31T07:35:01Z</time>
      </trkpt>
      <trkpt lat="47.02325" lon="-1.83655">
        <ele>78</ele>
        <time>2022-07-31T07:35:03Z</time>
      </trkpt>
      <trkpt lat="47.02311" lon="-1.83654">
        <ele>78</ele>
        <time>2022-07-31T07:35:05Z</time>
      </trkpt>
      <trkpt lat="47.02298" lon="-1.83653">
        <ele>78</ele>
        <time>2022-07-31T07:35:07Z</time>
      </trkpt>
      <trkpt lat="47.02284" lon="-1.83652">
        <ele>78</ele>
        <time>2022-07-31T07:35:09Z</time>
      </trkpt>
      <trkpt lat="47.0227" lon="-1.83651">
        <ele>77</ele>
        <time>2022-07-31T07:35:11Z</time>
      </trkpt>
      <trkpt lat="47.02257" lon="-1.8365">
        <ele>78</ele>
        <time>2022-07-31T07:35:13Z</time>
      </trkpt>
      <trkpt lat="47.02243" lon="-1.83649">
        <ele>78</ele>
        <time>2022-07-31T07:35:15Z</time>
      </trkpt>
      <trkpt lat="47.0223" lon="-1.83648">
        <ele>77</ele>
        <time>2022-07-31T07:35:17Z</time>
      </trkpt>
      <trkpt lat="47.02216" lon="-1.83646">
        <ele>77</ele>
        <time>2022-07-31T07:35:19Z</time>
      </trkpt>
      <trkpt lat="47.02202" lon="-1.83643">
        <ele>77</ele>
        <time>2022-07-31T07:35:21Z</time>
      </trkpt>
      <trkpt lat="47.0219" lon="-1.83638">
        <ele>77</ele>
        <time>2022-07-31T07:35:23Z</time>
      </trkpt>
      <trkpt lat="47.02176" lon="-1.83632">
        <ele>77</ele>
        <time>2022-07-31T07:35:25Z</time>
      </trkpt>
      <trkpt lat="47.02163" lon="-1.83624">
        <ele>77</ele>
        <time>2022-07-31T07:35:27Z</time>
      </trkpt>
      <trkpt lat="47.0215" lon="-1.83616">
        <ele>77</ele>
        <time>2022-07-31T07:35:29Z</time>
      </trkpt>
      <trkpt lat="47.02137" lon="-1.83609">
        <ele>76</ele>
        <time>2022-07-31T07:35:31Z</time>
      </trkpt>
      <trkpt lat="47.02124" lon="-1.83601">
        <ele>76</ele>
        <time>2022-07-31T07:35:33Z</time>
      </trkpt>
      <trkpt lat="47.0211" lon="-1.83593">
        <ele>76</ele>
        <time>2022-07-31T07:35:35Z</time>
      </trkpt>
      <trkpt lat="47.02098" lon="-1.83585">
        <ele>76</ele>
        <time>2022-07-31T07:35:37Z</time>
      </trkpt>
      <trkpt lat="47.02085" lon="-1.83578">
        <ele>76</ele>
        <time>2022-07-31T07:35:39Z</time>
      </trkpt>
      <trkpt lat="47.02072" lon="-1.8357">
        <ele>76</ele>
        <time>2022-07-31T07:35:41Z</time>
      </trkpt>
      <trkpt lat="47.02059" lon="-1.83561">
        <ele>76</ele>
        <time>2022-07-31T07:35:43Z</time>
      </trkpt>
      <trkpt lat="47.02046" lon="-1.83554">
        <ele>75</ele>
        <time>2022-07-31T07:35:45Z</time>
      </trkpt>
      <trkpt lat="47.02034" lon="-1.83546">
        <ele>75</ele>
        <time>2022-07-31T07:35:47Z</time>
      </trkpt>
      <trkpt lat="47.02021" lon="-1.83538">
        <ele>75</ele>
        <time>2022-07-31T07:35:49Z</time>
      </trkpt>
      <trkpt lat="47.02008" lon="-1.8353">
        <ele>75</ele>
        <time>2022-07-31T07:35:51Z</time>
      </trkpt>
      <trkpt lat="47.01996" lon="-1.83523">
        <ele>74</ele>
        <time>2022-07-31T07:35:53Z</time>
      </trkpt>
      <trkpt lat="47.01983" lon="-1.83515">
        <ele>74</ele>
        <time>2022-07-31T07:35:55Z</time>
      </trkpt>
      <trkpt lat="47.01971" lon="-1.83507">
        <ele>73</ele>
        <time>2022-07-31T07:35:57Z</time>
      </trkpt>
      <trkpt lat="47.01958" lon="-1.83502">
        <ele>72</ele>
        <time>2022-07-31T07:35:59Z</time>
      </trkpt>
      <trkpt lat="47.01944" lon="-1.83497">
        <ele>71</ele>
        <time>2022-07-31T07:36:01Z</time>
      </trkpt>
      <trkpt lat="47.0193" lon="-1.83496">
        <ele>71</ele>
        <time>2022-07-31T07:36:03Z</time>
      </trkpt>
      <trkpt lat="47.01915" lon="-1.83498">
        <ele>70</ele>
        <time>2022-07-31T07:36:05Z</time>
      </trkpt>
      <trkpt lat="47.019" lon="-1.835">
        <ele>69</ele>
        <time>2022-07-31T07:36:07Z</time>
      </trkpt>
      <trkpt lat="47.01885" lon="-1.83504">
        <ele>69</ele>
        <time>2022-07-31T07:36:09Z</time>
      </trkpt>
      <trkpt lat="47.01869" lon="-1.83508">
        <ele>68</ele>
        <time>2022-07-31T07:36:11Z</time>
      </trkpt>
      <trkpt lat="47.01853" lon="-1.83511">
        <ele>68</ele>
        <time>2022-07-31T07:36:13Z</time>
      </trkpt>
      <trkpt lat="47.01837" lon="-1.83515">
        <ele>67</ele>
        <time>2022-07-31T07:36:15Z</time>
      </trkpt>
      <trkpt lat="47.01822" lon="-1.83519">
        <ele>67</ele>
        <time>2022-07-31T07:36:17Z</time>
      </trkpt>
      <trkpt lat="47.01806" lon="-1.83522">
        <ele>67</ele>
        <time>2022-07-31T07:36:19Z</time>
      </trkpt>
      <trkpt lat="47.01791" lon="-1.83526">
        <ele>66</ele>
        <time>2022-07-31T07:36:21Z</time>
      </trkpt>
      <trkpt lat="47.01776" lon="-1.8353">
        <ele>66</ele>
        <time>2022-07-31T07:36:23Z</time>
      </trkpt>
      <trkpt lat="47.01762" lon="-1.83538">
        <ele>65</ele>
        <time>2022-07-31T07:36:25Z</time>
      </trkpt>
      <trkpt lat="47.01749" lon="-1.83549">
        <ele>65</ele>
        <time>2022-07-31T07:36:27Z</time>
      </trkpt>
      <trkpt lat="47.01738" lon="-1.83563">
        <ele>65</ele>
        <time>2022-07-31T07:36:29Z</time>
      </trkpt>
      <trkpt lat="47.01729" lon="-1.8358">
        <ele>66</ele>
        <time>2022-07-31T07:36:31Z</time>
      </trkpt>
      <trkpt lat="47.01722" lon="-1.83597">
        <ele>66</ele>
        <time>2022-07-31T07:36:33Z</time>
      </trkpt>
      <trkpt lat="47.01714" lon="-1.83613">
        <ele>66</ele>
        <time>2022-07-31T07:36:35Z</time>
      </trkpt>
      <trkpt lat="47.01705" lon="-1.83629">
        <ele>66</ele>
        <time>2022-07-31T07:36:37Z</time>
      </trkpt>
      <trkpt lat="47.01697" lon="-1.83645">
        <ele>66</ele>
        <time>2022-07-31T07:36:39Z</time>
      </trkpt>
      <trkpt lat="47.01688" lon="-1.8366">
        <ele>66</ele>
        <time>2022-07-31T07:36:41Z</time>
      </trkpt>
      <trkpt lat="47.01678" lon="-1.83674">
        <ele>67</ele>
        <time>2022-07-31T07:36:43Z</time>
      </trkpt>
      <trkpt lat="47.01668" lon="-1.83688">
        <ele>66</ele>
        <time>2022-07-31T07:36:45Z</time>
      </trkpt>
      <trkpt lat="47.01656" lon="-1.83701">
        <ele>66</ele>
        <time>2022-07-31T07:36:47Z</time>
      </trkpt>
      <trkpt lat="47.01645" lon="-1.83714">
        <ele>66</ele>
        <time>2022-07-31T07:36:49Z</time>
      </trkpt>
      <trkpt lat="47.01634" lon="-1.83727">
        <ele>66</ele>
        <time>2022-07-31T07:36:51Z</time>
      </trkpt>
      <trkpt lat="47.01622" lon="-1.8374">
        <ele>66</ele>
        <time>2022-07-31T07:36:53Z</time>
      </trkpt>
      <trkpt lat="47.01611" lon="-1.83753">
        <ele>66</ele>
        <time>2022-07-31T07:36:55Z</time>
      </trkpt>
      <trkpt lat="47.01601" lon="-1.83767">
        <ele>66</ele>
        <time>2022-07-31T07:36:57Z</time>
      </trkpt>
      <trkpt lat="47.0159" lon="-1.8378">
        <ele>66</ele>
        <time>2022-07-31T07:36:59Z</time>
      </trkpt>
      <trkpt lat="47.01578" lon="-1.83793">
        <ele>66</ele>
        <time>2022-07-31T07:37:01Z</time>
      </trkpt>
      <trkpt lat="47.01566" lon="-1.83807">
        <ele>66</ele>
        <time>2022-07-31T07:37:03Z</time>
      </trkpt>
      <trkpt lat="47.01555" lon="-1.83822">
        <ele>66</ele>
        <time>2022-07-31T07:37:05Z</time>
      </trkpt>
      <trkpt lat="47.01544" lon="-1.83837">
        <ele>65</ele>
        <time>2022-07-31T07:37:07Z</time>
      </trkpt>
      <trkpt lat="47.01534" lon="-1.83852">
        <ele>65</ele>
        <time>2022-07-31T07:37:09Z</time>
      </trkpt>
      <trkpt lat="47.01524" lon="-1.83867">
        <ele>65</ele>
        <time>2022-07-31T07:37:11Z</time>
      </trkpt>
      <trkpt lat="47.01515" lon="-1.83882">
        <ele>64</ele>
        <time>2022-07-31T07:37:13Z</time>
      </trkpt>
      <trkpt lat="47.01505" lon="-1.83896">
        <ele>64</ele>
        <time>2022-07-31T07:37:15Z</time>
      </trkpt>
      <trkpt lat="47.01495" lon="-1.83911">
        <ele>64</ele>
        <time>2022-07-31T07:37:17Z</time>
      </trkpt>
      <trkpt lat="47.01485" lon="-1.83927">
        <ele>64</ele>
        <time>2022-07-31T07:37:19Z</time>
      </trkpt>
      <trkpt lat="47.01475" lon="-1.83942">
        <ele>63</ele>
        <time>2022-07-31T07:37:21Z</time>
      </trkpt>
      <trkpt lat="47.01465" lon="-1.83958">
        <ele>63</ele>
        <time>2022-07-31T07:37:23Z</time>
      </trkpt>
      <trkpt lat="47.01454" lon="-1.83973">
        <ele>62</ele>
        <time>2022-07-31T07:37:25Z</time>
      </trkpt>
      <trkpt lat="47.01444" lon="-1.83989">
        <ele>62</ele>
        <time>2022-07-31T07:37:27Z</time>
      </trkpt>
      <trkpt lat="47.01433" lon="-1.84004">
        <ele>61</ele>
        <time>2022-07-31T07:37:29Z</time>
      </trkpt>
      <trkpt lat="47.01424" lon="-1.84019">
        <ele>61</ele>
        <time>2022-07-31T07:37:31Z</time>
      </trkpt>
      <trkpt lat="47.01414" lon="-1.84034">
        <ele>61</ele>
        <time>2022-07-31T07:37:33Z</time>
      </trkpt>
      <trkpt lat="47.01404" lon="-1.8405">
        <ele>60</ele>
        <time>2022-07-31T07:37:35Z</time>
      </trkpt>
      <trkpt lat="47.01393" lon="-1.84065">
        <ele>60</ele>
        <time>2022-07-31T07:37:37Z</time>
      </trkpt>
      <trkpt lat="47.01382" lon="-1.84079">
        <ele>60</ele>
        <time>2022-07-31T07:37:39Z</time>
      </trkpt>
      <trkpt lat="47.0137" lon="-1.84093">
        <ele>60</ele>
        <time>2022-07-31T07:37:41Z</time>
      </trkpt>
      <trkpt lat="47.01359" lon="-1.84107">
        <ele>59</ele>
        <time>2022-07-31T07:37:43Z</time>
      </trkpt>
      <trkpt lat="47.01347" lon="-1.8412">
        <ele>58</ele>
        <time>2022-07-31T07:37:45Z</time>
      </trkpt>
      <trkpt lat="47.01336" lon="-1.84132">
        <ele>58</ele>
        <time>2022-07-31T07:37:47Z</time>
      </trkpt>
      <trkpt lat="47.01324" lon="-1.84145">
        <ele>58</ele>
        <time>2022-07-31T07:37:49Z</time>
      </trkpt>
      <trkpt lat="47.01313" lon="-1.84158">
        <ele>59</ele>
        <time>2022-07-31T07:37:51Z</time>
      </trkpt>
      <trkpt lat="47.01301" lon="-1.84171">
        <ele>59</ele>
        <time>2022-07-31T07:37:53Z</time>
      </trkpt>
      <trkpt lat="47.0129" lon="-1.84185">
        <ele>59</ele>
        <time>2022-07-31T07:37:55Z</time>
      </trkpt>
      <trkpt lat="47.01279" lon="-1.84197">
        <ele>59</ele>
        <time>2022-07-31T07:37:57Z</time>
      </trkpt>
      <trkpt lat="47.01267" lon="-1.84208">
        <ele>59</ele>
        <time>2022-07-31T07:37:59Z</time>
      </trkpt>
      <trkpt lat="47.01257" lon="-1.8422">
        <ele>59</ele>
        <time>2022-07-31T07:38:01Z</time>
      </trkpt>
      <trkpt lat="47.01246" lon="-1.84231">
        <ele>59</ele>
        <time>2022-07-31T07:38:03Z</time>
      </trkpt>
      <trkpt lat="47.01235" lon="-1.84243">
        <ele>59</ele>
        <time>2022-07-31T07:38:05Z</time>
      </trkpt>
      <trkpt lat="47.01224" lon="-1.84254">
        <ele>59</ele>
        <time>2022-07-31T07:38:07Z</time>
      </trkpt>
      <trkpt lat="47.01214" lon="-1.84266">
        <ele>59</ele>
        <time>2022-07-31T07:38:09Z</time>
      </trkpt>
      <trkpt lat="47.01203" lon="-1.84279">
        <ele>58</ele>
        <time>2022-07-31T07:38:11Z</time>
      </trkpt>
      <trkpt lat="47.01194" lon="-1.84293">
        <ele>58</ele>
        <time>2022-07-31T07:38:13Z</time>
      </trkpt>
      <trkpt lat="47.01186" lon="-1.8431">
        <ele>57</ele>
        <time>2022-07-31T07:38:15Z</time>
      </trkpt>
      <trkpt lat="47.01179" lon="-1.84328">
        <ele>57</ele>
        <time>2022-07-31T07:38:17Z</time>
      </trkpt>
      <trkpt lat="47.01174" lon="-1.84346">
        <ele>57</ele>
        <time>2022-07-31T07:38:19Z</time>
      </trkpt>
      <trkpt lat="47.01169" lon="-1.84364">
        <ele>57</ele>
        <time>2022-07-31T07:38:21Z</time>
      </trkpt>
      <trkpt lat="47.01164" lon="-1.84383">
        <ele>58</ele>
        <time>2022-07-31T07:38:23Z</time>
      </trkpt>
      <trkpt lat="47.01159" lon="-1.84403">
        <ele>58</ele>
        <time>2022-07-31T07:38:25Z</time>
      </trkpt>
      <trkpt lat="47.01155" lon="-1.84422">
        <ele>59</ele>
        <time>2022-07-31T07:38:27Z</time>
      </trkpt>
      <trkpt lat="47.0115" lon="-1.84441">
        <ele>58</ele>
        <time>2022-07-31T07:38:29Z</time>
      </trkpt>
      <trkpt lat="47.01145" lon="-1.8446">
        <ele>58</ele>
        <time>2022-07-31T07:38:31Z</time>
      </trkpt>
      <trkpt lat="47.0114" lon="-1.84479">
        <ele>58</ele>
        <time>2022-07-31T07:38:33Z</time>
      </trkpt>
      <trkpt lat="47.01136" lon="-1.84497">
        <ele>58</ele>
        <time>2022-07-31T07:38:35Z</time>
      </trkpt>
      <trkpt lat="47.01131" lon="-1.84516">
        <ele>58</ele>
        <time>2022-07-31T07:38:37Z</time>
      </trkpt>
      <trkpt lat="47.01124" lon="-1.84533">
        <ele>57</ele>
        <time>2022-07-31T07:38:39Z</time>
      </trkpt>
      <trkpt lat="47.01116" lon="-1.84549">
        <ele>57</ele>
        <time>2022-07-31T07:38:41Z</time>
      </trkpt>
      <trkpt lat="47.01106" lon="-1.84563">
        <ele>57</ele>
        <time>2022-07-31T07:38:43Z</time>
      </trkpt>
      <trkpt lat="47.01096" lon="-1.84575">
        <ele>56</ele>
        <time>2022-07-31T07:38:45Z</time>
      </trkpt>
      <trkpt lat="47.01086" lon="-1.84587">
        <ele>56</ele>
        <time>2022-07-31T07:38:47Z</time>
      </trkpt>
      <trkpt lat="47.01075" lon="-1.84599">
        <ele>56</ele>
        <time>2022-07-31T07:38:49Z</time>
      </trkpt>
      <trkpt lat="47.01065" lon="-1.84611">
        <ele>56</ele>
        <time>2022-07-31T07:38:51Z</time>
      </trkpt>
      <trkpt lat="47.01055" lon="-1.84623">
        <ele>57</ele>
        <time>2022-07-31T07:38:53Z</time>
      </trkpt>
      <trkpt lat="47.01043" lon="-1.84635">
        <ele>56</ele>
        <time>2022-07-31T07:38:55Z</time>
      </trkpt>
      <trkpt lat="47.01032" lon="-1.84646">
        <ele>56</ele>
        <time>2022-07-31T07:38:57Z</time>
      </trkpt>
      <trkpt lat="47.01021" lon="-1.84656">
        <ele>57</ele>
        <time>2022-07-31T07:38:59Z</time>
      </trkpt>
      <trkpt lat="47.0101" lon="-1.84665">
        <ele>57</ele>
        <time>2022-07-31T07:39:01Z</time>
      </trkpt>
      <trkpt lat="47.00998" lon="-1.84673">
        <ele>57</ele>
        <time>2022-07-31T07:39:03Z</time>
      </trkpt>
      <trkpt lat="47.00986" lon="-1.84679">
        <ele>58</ele>
        <time>2022-07-31T07:39:05Z</time>
      </trkpt>
      <trkpt lat="47.00974" lon="-1.84686">
        <ele>58</ele>
        <time>2022-07-31T07:39:07Z</time>
      </trkpt>
      <trkpt lat="47.00961" lon="-1.84693">
        <ele>58</ele>
        <time>2022-07-31T07:39:09Z</time>
      </trkpt>
      <trkpt lat="47.00949" lon="-1.847">
        <ele>58</ele>
        <time>2022-07-31T07:39:11Z</time>
      </trkpt>
      <trkpt lat="47.00937" lon="-1.84706">
        <ele>58</ele>
        <time>2022-07-31T07:39:13Z</time>
      </trkpt>
      <trkpt lat="47.00925" lon="-1.84713">
        <ele>58</ele>
        <time>2022-07-31T07:39:15Z</time>
      </trkpt>
      <trkpt lat="47.00914" lon="-1.84719">
        <ele>59</ele>
        <time>2022-07-31T07:39:17Z</time>
      </trkpt>
      <trkpt lat="47.00903" lon="-1.84725">
        <ele>58</ele>
        <time>2022-07-31T07:39:19Z</time>
      </trkpt>
      <trkpt lat="47.00894" lon="-1.84731">
        <ele>59</ele>
        <time>2022-07-31T07:39:21Z</time>
      </trkpt>
      <trkpt lat="47.00886" lon="-1.84739">
        <ele>59</ele>
        <time>2022-07-31T07:39:23Z</time>
      </trkpt>
      <trkpt lat="47.00875" lon="-1.8475">
        <ele>59</ele>
        <time>2022-07-31T07:39:25Z</time>
      </trkpt>
      <trkpt lat="47.00864" lon="-1.8476">
        <ele>58</ele>
        <time>2022-07-31T07:39:27Z</time>
      </trkpt>
      <trkpt lat="47.00852" lon="-1.84768">
        <ele>59</ele>
        <time>2022-07-31T07:39:29Z</time>
      </trkpt>
      <trkpt lat="47.00839" lon="-1.84776">
        <ele>59</ele>
        <time>2022-07-31T07:39:31Z</time>
      </trkpt>
      <trkpt lat="47.00827" lon="-1.84784">
        <ele>59</ele>
        <time>2022-07-31T07:39:33Z</time>
      </trkpt>
      <trkpt lat="47.00814" lon="-1.84791">
        <ele>59</ele>
        <time>2022-07-31T07:39:35Z</time>
      </trkpt>
      <trkpt lat="47.00801" lon="-1.84798">
        <ele>59</ele>
        <time>2022-07-31T07:39:37Z</time>
      </trkpt>
      <trkpt lat="47.00788" lon="-1.84804">
        <ele>59</ele>
        <time>2022-07-31T07:39:39Z</time>
      </trkpt>
      <trkpt lat="47.00775" lon="-1.84811">
        <ele>58</ele>
        <time>2022-07-31T07:39:41Z</time>
      </trkpt>
      <trkpt lat="47.00762" lon="-1.84817">
        <ele>59</ele>
        <time>2022-07-31T07:39:43Z</time>
      </trkpt>
      <trkpt lat="47.0075" lon="-1.84824">
        <ele>59</ele>
        <time>2022-07-31T07:39:45Z</time>
      </trkpt>
      <trkpt lat="47.00738" lon="-1.84831">
        <ele>59</ele>
        <time>2022-07-31T07:39:47Z</time>
      </trkpt>
      <trkpt lat="47.00724" lon="-1.84837">
        <ele>59</ele>
        <time>2022-07-31T07:39:49Z</time>
      </trkpt>
      <trkpt lat="47.00712" lon="-1.84844">
        <ele>59</ele>
        <time>2022-07-31T07:39:51Z</time>
      </trkpt>
      <trkpt lat="47.00699" lon="-1.84851">
        <ele>59</ele>
        <time>2022-07-31T07:39:53Z</time>
      </trkpt>
      <trkpt lat="47.00686" lon="-1.84858">
        <ele>59</ele>
        <time>2022-07-31T07:39:55Z</time>
      </trkpt>
      <trkpt lat="47.00673" lon="-1.84865">
        <ele>58</ele>
        <time>2022-07-31T07:39:57Z</time>
      </trkpt>
      <trkpt lat="47.0066" lon="-1.84871">
        <ele>58</ele>
        <time>2022-07-31T07:39:59Z</time>
      </trkpt>
      <trkpt lat="47.00647" lon="-1.84878">
        <ele>58</ele>
        <time>2022-07-31T07:40:01Z</time>
      </trkpt>
      <trkpt lat="47.00634" lon="-1.84887">
        <ele>58</ele>
        <time>2022-07-31T07:40:03Z</time>
      </trkpt>
      <trkpt lat="47.00621" lon="-1.84895">
        <ele>58</ele>
        <time>2022-07-31T07:40:05Z</time>
      </trkpt>
      <trkpt lat="47.0061" lon="-1.84906">
        <ele>58</ele>
        <time>2022-07-31T07:40:07Z</time>
      </trkpt>
      <trkpt lat="47.00599" lon="-1.84918">
        <ele>58</ele>
        <time>2022-07-31T07:40:09Z</time>
      </trkpt>
      <trkpt lat="47.00589" lon="-1.8493">
        <ele>58</ele>
        <time>2022-07-31T07:40:11Z</time>
      </trkpt>
      <trkpt lat="47.00579" lon="-1.84944">
        <ele>58</ele>
        <time>2022-07-31T07:40:13Z</time>
      </trkpt>
      <trkpt lat="47.0057" lon="-1.84957">
        <ele>58</ele>
        <time>2022-07-31T07:40:15Z</time>
      </trkpt>
      <trkpt lat="47.0056" lon="-1.8497">
        <ele>58</ele>
        <time>2022-07-31T07:40:17Z</time>
      </trkpt>
      <trkpt lat="47.00549" lon="-1.84984">
        <ele>58</ele>
        <time>2022-07-31T07:40:19Z</time>
      </trkpt>
      <trkpt lat="47.0054" lon="-1.84997">
        <ele>57</ele>
        <time>2022-07-31T07:40:21Z</time>
      </trkpt>
      <trkpt lat="47.00529" lon="-1.8501">
        <ele>58</ele>
        <time>2022-07-31T07:40:23Z</time>
      </trkpt>
      <trkpt lat="47.00519" lon="-1.85023">
        <ele>58</ele>
        <time>2022-07-31T07:40:25Z</time>
      </trkpt>
      <trkpt lat="47.00509" lon="-1.85035">
        <ele>58</ele>
        <time>2022-07-31T07:40:27Z</time>
      </trkpt>
      <trkpt lat="47.00499" lon="-1.85047">
        <ele>58</ele>
        <time>2022-07-31T07:40:29Z</time>
      </trkpt>
      <trkpt lat="47.00488" lon="-1.85058">
        <ele>58</ele>
        <time>2022-07-31T07:40:31Z</time>
      </trkpt>
      <trkpt lat="47.00477" lon="-1.85069">
        <ele>58</ele>
        <time>2022-07-31T07:40:33Z</time>
      </trkpt>
      <trkpt lat="47.00466" lon="-1.85079">
        <ele>58</ele>
        <time>2022-07-31T07:40:35Z</time>
      </trkpt>
      <trkpt lat="47.00454" lon="-1.85089">
        <ele>58</ele>
        <time>2022-07-31T07:40:37Z</time>
      </trkpt>
      <trkpt lat="47.00443" lon="-1.85098">
        <ele>58</ele>
        <time>2022-07-31T07:40:39Z</time>
      </trkpt>
      <trkpt lat="47.00432" lon="-1.85106">
        <ele>58</ele>
        <time>2022-07-31T07:40:41Z</time>
      </trkpt>
      <trkpt lat="47.00421" lon="-1.85115">
        <ele>57</ele>
        <time>2022-07-31T07:40:43Z</time>
      </trkpt>
      <trkpt lat="47.0041" lon="-1.85124">
        <ele>57</ele>
        <time>2022-07-31T07:40:45Z</time>
      </trkpt>
      <trkpt lat="47.00399" lon="-1.85134">
        <ele>58</ele>
        <time>2022-07-31T07:40:47Z</time>
      </trkpt>
      <trkpt lat="47.00388" lon="-1.85143">
        <ele>58</ele>
        <time>2022-07-31T07:40:49Z</time>
      </trkpt>
      <trkpt lat="47.00377" lon="-1.85153">
        <ele>58</ele>
        <time>2022-07-31T07:40:51Z</time>
      </trkpt>
      <trkpt lat="47.00366" lon="-1.85163">
        <ele>58</ele>
        <time>2022-07-31T07:40:53Z</time>
      </trkpt>
      <trkpt lat="47.00356" lon="-1.85172">
        <ele>58</ele>
        <time>2022-07-31T07:40:55Z</time>
      </trkpt>
      <trkpt lat="47.00345" lon="-1.85181">
        <ele>57</ele>
        <time>2022-07-31T07:40:57Z</time>
      </trkpt>
      <trkpt lat="47.00334" lon="-1.8519">
        <ele>58</ele>
        <time>2022-07-31T07:40:59Z</time>
      </trkpt>
      <trkpt lat="47.00323" lon="-1.85199">
        <ele>58</ele>
        <time>2022-07-31T07:41:01Z</time>
      </trkpt>
      <trkpt lat="47.00312" lon="-1.85208">
        <ele>58</ele>
        <time>2022-07-31T07:41:03Z</time>
      </trkpt>
      <trkpt lat="47.00301" lon="-1.85217">
        <ele>58</ele>
        <time>2022-07-31T07:41:05Z</time>
      </trkpt>
      <trkpt lat="47.0029" lon="-1.85226">
        <ele>58</ele>
        <time>2022-07-31T07:41:07Z</time>
      </trkpt>
      <trkpt lat="47.00279" lon="-1.85235">
        <ele>58</ele>
        <time>2022-07-31T07:41:09Z</time>
      </trkpt>
      <trkpt lat="47.00269" lon="-1.85245">
        <ele>58</ele>
        <time>2022-07-31T07:41:11Z</time>
      </trkpt>
      <trkpt lat="47.00258" lon="-1.85254">
        <ele>58</ele>
        <time>2022-07-31T07:41:13Z</time>
      </trkpt>
      <trkpt lat="47.00247" lon="-1.85264">
        <ele>58</ele>
        <time>2022-07-31T07:41:15Z</time>
      </trkpt>
      <trkpt lat="47.00237" lon="-1.85275">
        <ele>58</ele>
        <time>2022-07-31T07:41:17Z</time>
      </trkpt>
      <trkpt lat="47.00227" lon="-1.85286">
        <ele>57</ele>
        <time>2022-07-31T07:41:19Z</time>
      </trkpt>
      <trkpt lat="47.00217" lon="-1.85299">
        <ele>57</ele>
        <time>2022-07-31T07:41:21Z</time>
      </trkpt>
      <trkpt lat="47.00209" lon="-1.85313">
        <ele>57</ele>
        <time>2022-07-31T07:41:23Z</time>
      </trkpt>
      <trkpt lat="47.00202" lon="-1.85328">
        <ele>57</ele>
        <time>2022-07-31T07:41:25Z</time>
      </trkpt>
      <trkpt lat="47.00194" lon="-1.85344">
        <ele>57</ele>
        <time>2022-07-31T07:41:27Z</time>
      </trkpt>
      <trkpt lat="47.00187" lon="-1.85359">
        <ele>57</ele>
        <time>2022-07-31T07:41:29Z</time>
      </trkpt>
      <trkpt lat="47.0018" lon="-1.85375">
        <ele>58</ele>
        <time>2022-07-31T07:41:31Z</time>
      </trkpt>
      <trkpt lat="47.00172" lon="-1.8539">
        <ele>57</ele>
        <time>2022-07-31T07:41:33Z</time>
      </trkpt>
      <trkpt lat="47.00164" lon="-1.85406">
        <ele>57</ele>
        <time>2022-07-31T07:41:35Z</time>
      </trkpt>
      <trkpt lat="47.00155" lon="-1.85419">
        <ele>57</ele>
        <time>2022-07-31T07:41:37Z</time>
      </trkpt>
      <trkpt lat="47.00145" lon="-1.85432">
        <ele>57</ele>
        <time>2022-07-31T07:41:39Z</time>
      </trkpt>
      <trkpt lat="47.00135" lon="-1.85442">
        <ele>57</ele>
        <time>2022-07-31T07:41:41Z</time>
      </trkpt>
      <trkpt lat="47.00123" lon="-1.8545">
        <ele>57</ele>
        <time>2022-07-31T07:41:43Z</time>
      </trkpt>
      <trkpt lat="47.00109" lon="-1.85451">
        <ele>57</ele>
        <time>2022-07-31T07:41:45Z</time>
      </trkpt>
      <trkpt lat="47.00098" lon="-1.85443">
        <ele>57</ele>
        <time>2022-07-31T07:41:47Z</time>
      </trkpt>
      <trkpt lat="47.00088" lon="-1.85432">
        <ele>57</ele>
        <time>2022-07-31T07:41:49Z</time>
      </trkpt>
      <trkpt lat="47.00078" lon="-1.8542">
        <ele>57</ele>
        <time>2022-07-31T07:41:51Z</time>
      </trkpt>
      <trkpt lat="47.00069" lon="-1.85407">
        <ele>57</ele>
        <time>2022-07-31T07:41:53Z</time>
      </trkpt>
      <trkpt lat="47.00059" lon="-1.85395">
        <ele>57</ele>
        <time>2022-07-31T07:41:55Z</time>
      </trkpt>
      <trkpt lat="47.0005" lon="-1.85382">
        <ele>57</ele>
        <time>2022-07-31T07:41:57Z</time>
      </trkpt>
      <trkpt lat="47.00038" lon="-1.85372">
        <ele>57</ele>
        <time>2022-07-31T07:41:59Z</time>
      </trkpt>
      <trkpt lat="47.00026" lon="-1.85368">
        <ele>57</ele>
        <time>2022-07-31T07:42:01Z</time>
      </trkpt>
      <trkpt lat="47.00012" lon="-1.85366">
        <ele>56</ele>
        <time>2022-07-31T07:42:03Z</time>
      </trkpt>
      <trkpt lat="46.99998" lon="-1.85365">
        <ele>56</ele>
        <time>2022-07-31T07:42:05Z</time>
      </trkpt>
      <trkpt lat="46.99987" lon="-1.85358">
        <ele>56</ele>
        <time>2022-07-31T07:42:07Z</time>
      </trkpt>
      <trkpt lat="46.99979" lon="-1.85343">
        <ele>56</ele>
        <time>2022-07-31T07:42:09Z</time>
      </trkpt>
      <trkpt lat="46.99968" lon="-1.85321">
        <ele>56</ele>
        <time>2022-07-31T07:42:12Z</time>
      </trkpt>
      <trkpt lat="46.99956" lon="-1.853">
        <ele>57</ele>
        <time>2022-07-31T07:42:15Z</time>
      </trkpt>
      <trkpt lat="46.99948" lon="-1.85285">
        <ele>57</ele>
        <time>2022-07-31T07:42:17Z</time>
      </trkpt>
      <trkpt lat="46.99936" lon="-1.85261">
        <ele>58</ele>
        <time>2022-07-31T07:42:20Z</time>
      </trkpt>
      <trkpt lat="46.99925" lon="-1.85235">
        <ele>57</ele>
        <time>2022-07-31T07:42:23Z</time>
      </trkpt>
      <trkpt lat="46.99918" lon="-1.85208">
        <ele>57</ele>
        <time>2022-07-31T07:42:26Z</time>
      </trkpt>
      <trkpt lat="46.99916" lon="-1.8519">
        <ele>57</ele>
        <time>2022-07-31T07:42:28Z</time>
      </trkpt>
      <trkpt lat="46.99913" lon="-1.85172">
        <ele>57</ele>
        <time>2022-07-31T07:42:30Z</time>
      </trkpt>
      <trkpt lat="46.99911" lon="-1.85154">
        <ele>57</ele>
        <time>2022-07-31T07:42:32Z</time>
      </trkpt>
      <trkpt lat="46.99907" lon="-1.85127">
        <ele>56</ele>
        <time>2022-07-31T07:42:35Z</time>
      </trkpt>
      <trkpt lat="46.99903" lon="-1.85102">
        <ele>57</ele>
        <time>2022-07-31T07:42:38Z</time>
      </trkpt>
      <trkpt lat="46.99902" lon="-1.85085">
        <ele>57</ele>
        <time>2022-07-31T07:42:40Z</time>
      </trkpt>
      <trkpt lat="46.999" lon="-1.85067">
        <ele>57</ele>
        <time>2022-07-31T07:42:42Z</time>
      </trkpt>
      <trkpt lat="46.99899" lon="-1.8505">
        <ele>57</ele>
        <time>2022-07-31T07:42:44Z</time>
      </trkpt>
      <trkpt lat="46.99898" lon="-1.85032">
        <ele>57</ele>
        <time>2022-07-31T07:42:46Z</time>
      </trkpt>
      <trkpt lat="46.99898" lon="-1.85015">
        <ele>57</ele>
        <time>2022-07-31T07:42:48Z</time>
      </trkpt>
      <trkpt lat="46.99897" lon="-1.84998">
        <ele>57</ele>
        <time>2022-07-31T07:42:50Z</time>
      </trkpt>
      <trkpt lat="46.99897" lon="-1.8498">
        <ele>56</ele>
        <time>2022-07-31T07:42:52Z</time>
      </trkpt>
      <trkpt lat="46.99896" lon="-1.84964">
        <ele>56</ele>
        <time>2022-07-31T07:42:54Z</time>
      </trkpt>
      <trkpt lat="46.99896" lon="-1.84947">
        <ele>56</ele>
        <time>2022-07-31T07:42:56Z</time>
      </trkpt>
      <trkpt lat="46.99895" lon="-1.84931">
        <ele>56</ele>
        <time>2022-07-31T07:42:58Z</time>
      </trkpt>
      <trkpt lat="46.99894" lon="-1.84914">
        <ele>57</ele>
        <time>2022-07-31T07:43:00Z</time>
      </trkpt>
      <trkpt lat="46.99893" lon="-1.84897">
        <ele>57</ele>
        <time>2022-07-31T07:43:02Z</time>
      </trkpt>
      <trkpt lat="46.99891" lon="-1.84881">
        <ele>57</ele>
        <time>2022-07-31T07:43:04Z</time>
      </trkpt>
      <trkpt lat="46.9989" lon="-1.84864">
        <ele>57</ele>
        <time>2022-07-31T07:43:06Z</time>
      </trkpt>
      <trkpt lat="46.99885" lon="-1.84838">
        <ele>57</ele>
        <time>2022-07-31T07:43:09Z</time>
      </trkpt>
      <trkpt lat="46.99882" lon="-1.84821">
        <ele>57</ele>
        <time>2022-07-31T07:43:11Z</time>
      </trkpt>
      <trkpt lat="46.99879" lon="-1.84805">
        <ele>57</ele>
        <time>2022-07-31T07:43:13Z</time>
      </trkpt>
      <trkpt lat="46.99875" lon="-1.84789">
        <ele>57</ele>
        <time>2022-07-31T07:43:15Z</time>
      </trkpt>
      <trkpt lat="46.99869" lon="-1.84773">
        <ele>57</ele>
        <time>2022-07-31T07:43:17Z</time>
      </trkpt>
      <trkpt lat="46.99863" lon="-1.84758">
        <ele>57</ele>
        <time>2022-07-31T07:43:19Z</time>
      </trkpt>
      <trkpt lat="46.99857" lon="-1.84742">
        <ele>57</ele>
        <time>2022-07-31T07:43:21Z</time>
      </trkpt>
      <trkpt lat="46.99851" lon="-1.84726">
        <ele>58</ele>
        <time>2022-07-31T07:43:23Z</time>
      </trkpt>
      <trkpt lat="46.99844" lon="-1.8471">
        <ele>58</ele>
        <time>2022-07-31T07:43:25Z</time>
      </trkpt>
      <trkpt lat="46.99838" lon="-1.84694">
        <ele>58</ele>
        <time>2022-07-31T07:43:27Z</time>
      </trkpt>
      <trkpt lat="46.99832" lon="-1.84678">
        <ele>58</ele>
        <time>2022-07-31T07:43:29Z</time>
      </trkpt>
      <trkpt lat="46.99826" lon="-1.84662">
        <ele>58</ele>
        <time>2022-07-31T07:43:31Z</time>
      </trkpt>
      <trkpt lat="46.99821" lon="-1.84646">
        <ele>58</ele>
        <time>2022-07-31T07:43:33Z</time>
      </trkpt>
      <trkpt lat="46.99816" lon="-1.84629">
        <ele>57</ele>
        <time>2022-07-31T07:43:35Z</time>
      </trkpt>
      <trkpt lat="46.99812" lon="-1.84612">
        <ele>57</ele>
        <time>2022-07-31T07:43:37Z</time>
      </trkpt>
      <trkpt lat="46.99808" lon="-1.84595">
        <ele>57</ele>
        <time>2022-07-31T07:43:39Z</time>
      </trkpt>
      <trkpt lat="46.99804" lon="-1.84579">
        <ele>57</ele>
        <time>2022-07-31T07:43:41Z</time>
      </trkpt>
      <trkpt lat="46.99801" lon="-1.84562">
        <ele>57</ele>
        <time>2022-07-31T07:43:43Z</time>
      </trkpt>
      <trkpt lat="46.99797" lon="-1.84544">
        <ele>57</ele>
        <time>2022-07-31T07:43:45Z</time>
      </trkpt>
      <trkpt lat="46.99794" lon="-1.84526">
        <ele>57</ele>
        <time>2022-07-31T07:43:47Z</time>
      </trkpt>
      <trkpt lat="46.9979" lon="-1.84509">
        <ele>57</ele>
        <time>2022-07-31T07:43:49Z</time>
      </trkpt>
      <trkpt lat="46.99787" lon="-1.84491">
        <ele>57</ele>
        <time>2022-07-31T07:43:51Z</time>
      </trkpt>
      <trkpt lat="46.99784" lon="-1.84473">
        <ele>57</ele>
        <time>2022-07-31T07:43:53Z</time>
      </trkpt>
      <trkpt lat="46.99781" lon="-1.84455">
        <ele>56</ele>
        <time>2022-07-31T07:43:55Z</time>
      </trkpt>
      <trkpt lat="46.99777" lon="-1.84437">
        <ele>56</ele>
        <time>2022-07-31T07:43:57Z</time>
      </trkpt>
      <trkpt lat="46.99775" lon="-1.8442">
        <ele>56</ele>
        <time>2022-07-31T07:43:59Z</time>
      </trkpt>
      <trkpt lat="46.99771" lon="-1.84402">
        <ele>56</ele>
        <time>2022-07-31T07:44:01Z</time>
      </trkpt>
      <trkpt lat="46.99769" lon="-1.84384">
        <ele>56</ele>
        <time>2022-07-31T07:44:03Z</time>
      </trkpt>
      <trkpt lat="46.99765" lon="-1.84367">
        <ele>56</ele>
        <time>2022-07-31T07:44:05Z</time>
      </trkpt>
      <trkpt lat="46.99763" lon="-1.84349">
        <ele>56</ele>
        <time>2022-07-31T07:44:07Z</time>
      </trkpt>
      <trkpt lat="46.9976" lon="-1.84331">
        <ele>56</ele>
        <time>2022-07-31T07:44:09Z</time>
      </trkpt>
      <trkpt lat="46.99758" lon="-1.84313">
        <ele>55</ele>
        <time>2022-07-31T07:44:11Z</time>
      </trkpt>
      <trkpt lat="46.99756" lon="-1.84295">
        <ele>55</ele>
        <time>2022-07-31T07:44:13Z</time>
      </trkpt>
      <trkpt lat="46.99754" lon="-1.84276">
        <ele>55</ele>
        <time>2022-07-31T07:44:15Z</time>
      </trkpt>
      <trkpt lat="46.99752" lon="-1.84258">
        <ele>55</ele>
        <time>2022-07-31T07:44:17Z</time>
      </trkpt>
      <trkpt lat="46.9975" lon="-1.84241">
        <ele>55</ele>
        <time>2022-07-31T07:44:19Z</time>
      </trkpt>
      <trkpt lat="46.99749" lon="-1.84223">
        <ele>55</ele>
        <time>2022-07-31T07:44:21Z</time>
      </trkpt>
      <trkpt lat="46.99745" lon="-1.84206">
        <ele>55</ele>
        <time>2022-07-31T07:44:23Z</time>
      </trkpt>
      <trkpt lat="46.99739" lon="-1.84191">
        <ele>56</ele>
        <time>2022-07-31T07:44:25Z</time>
      </trkpt>
      <trkpt lat="46.9973" lon="-1.8418">
        <ele>56</ele>
        <time>2022-07-31T07:44:27Z</time>
      </trkpt>
      <trkpt lat="46.99718" lon="-1.84174">
        <ele>56</ele>
        <time>2022-07-31T07:44:29Z</time>
      </trkpt>
      <trkpt lat="46.99706" lon="-1.84169">
        <ele>56</ele>
        <time>2022-07-31T07:44:31Z</time>
      </trkpt>
      <trkpt lat="46.99695" lon="-1.84162">
        <ele>56</ele>
        <time>2022-07-31T07:44:33Z</time>
      </trkpt>
      <trkpt lat="46.99684" lon="-1.84154">
        <ele>56</ele>
        <time>2022-07-31T07:44:35Z</time>
      </trkpt>
      <trkpt lat="46.99673" lon="-1.84144">
        <ele>57</ele>
        <time>2022-07-31T07:44:37Z</time>
      </trkpt>
      <trkpt lat="46.99663" lon="-1.84132">
        <ele>57</ele>
        <time>2022-07-31T07:44:39Z</time>
      </trkpt>
      <trkpt lat="46.99654" lon="-1.84119">
        <ele>57</ele>
        <time>2022-07-31T07:44:41Z</time>
      </trkpt>
      <trkpt lat="46.99646" lon="-1.84106">
        <ele>57</ele>
        <time>2022-07-31T07:44:43Z</time>
      </trkpt>
      <trkpt lat="46.99638" lon="-1.84091">
        <ele>57</ele>
        <time>2022-07-31T07:44:45Z</time>
      </trkpt>
      <trkpt lat="46.99632" lon="-1.84076">
        <ele>57</ele>
        <time>2022-07-31T07:44:47Z</time>
      </trkpt>
      <trkpt lat="46.99627" lon="-1.8406">
        <ele>57</ele>
        <time>2022-07-31T07:44:49Z</time>
      </trkpt>
      <trkpt lat="46.99622" lon="-1.84043">
        <ele>56</ele>
        <time>2022-07-31T07:44:51Z</time>
      </trkpt>
      <trkpt lat="46.99618" lon="-1.84026">
        <ele>56</ele>
        <time>2022-07-31T07:44:53Z</time>
      </trkpt>
      <trkpt lat="46.99615" lon="-1.84008">
        <ele>56</ele>
        <time>2022-07-31T07:44:55Z</time>
      </trkpt>
      <trkpt lat="46.99612" lon="-1.8399">
        <ele>56</ele>
        <time>2022-07-31T07:44:57Z</time>
      </trkpt>
      <trkpt lat="46.99609" lon="-1.83972">
        <ele>56</ele>
        <time>2022-07-31T07:44:59Z</time>
      </trkpt>
      <trkpt lat="46.99604" lon="-1.83954">
        <ele>56</ele>
        <time>2022-07-31T07:45:01Z</time>
      </trkpt>
      <trkpt lat="46.99597" lon="-1.83938">
        <ele>56</ele>
        <time>2022-07-31T07:45:03Z</time>
      </trkpt>
      <trkpt lat="46.99588" lon="-1.83925">
        <ele>56</ele>
        <time>2022-07-31T07:45:05Z</time>
      </trkpt>
      <trkpt lat="46.99577" lon="-1.83915">
        <ele>56</ele>
        <time>2022-07-31T07:45:07Z</time>
      </trkpt>
      <trkpt lat="46.99566" lon="-1.83909">
        <ele>56</ele>
        <time>2022-07-31T07:45:09Z</time>
      </trkpt>
      <trkpt lat="46.99554" lon="-1.83903">
        <ele>56</ele>
        <time>2022-07-31T07:45:11Z</time>
      </trkpt>
      <trkpt lat="46.99543" lon="-1.83897">
        <ele>57</ele>
        <time>2022-07-31T07:45:13Z</time>
      </trkpt>
      <trkpt lat="46.99531" lon="-1.83891">
        <ele>57</ele>
        <time>2022-07-31T07:45:15Z</time>
      </trkpt>
      <trkpt lat="46.9952" lon="-1.83885">
        <ele>57</ele>
        <time>2022-07-31T07:45:17Z</time>
      </trkpt>
      <trkpt lat="46.99508" lon="-1.83878">
        <ele>57</ele>
        <time>2022-07-31T07:45:19Z</time>
      </trkpt>
      <trkpt lat="46.99497" lon="-1.8387">
        <ele>57</ele>
        <time>2022-07-31T07:45:21Z</time>
      </trkpt>
      <trkpt lat="46.99487" lon="-1.83861">
        <ele>58</ele>
        <time>2022-07-31T07:45:23Z</time>
      </trkpt>
      <trkpt lat="46.99478" lon="-1.83848">
        <ele>58</ele>
        <time>2022-07-31T07:45:25Z</time>
      </trkpt>
      <trkpt lat="46.99471" lon="-1.83834">
        <ele>58</ele>
        <time>2022-07-31T07:45:27Z</time>
      </trkpt>
      <trkpt lat="46.99464" lon="-1.83818">
        <ele>58</ele>
        <time>2022-07-31T07:45:29Z</time>
      </trkpt>
      <trkpt lat="46.99458" lon="-1.83803">
        <ele>58</ele>
        <time>2022-07-31T07:45:31Z</time>
      </trkpt>
      <trkpt lat="46.9945" lon="-1.83788">
        <ele>57</ele>
        <time>2022-07-31T07:45:33Z</time>
      </trkpt>
      <trkpt lat="46.99441" lon="-1.83776">
        <ele>57</ele>
        <time>2022-07-31T07:45:35Z</time>
      </trkpt>
      <trkpt lat="46.99431" lon="-1.83767">
        <ele>57</ele>
        <time>2022-07-31T07:45:37Z</time>
      </trkpt>
      <trkpt lat="46.9942" lon="-1.83761">
        <ele>57</ele>
        <time>2022-07-31T07:45:39Z</time>
      </trkpt>
      <trkpt lat="46.99409" lon="-1.83754">
        <ele>57</ele>
        <time>2022-07-31T07:45:41Z</time>
      </trkpt>
      <trkpt lat="46.99397" lon="-1.83747">
        <ele>57</ele>
        <time>2022-07-31T07:45:43Z</time>
      </trkpt>
      <trkpt lat="46.99386" lon="-1.83739">
        <ele>57</ele>
        <time>2022-07-31T07:45:45Z</time>
      </trkpt>
      <trkpt lat="46.99374" lon="-1.83733">
        <ele>58</ele>
        <time>2022-07-31T07:45:47Z</time>
      </trkpt>
      <trkpt lat="46.99363" lon="-1.83727">
        <ele>58</ele>
        <time>2022-07-31T07:45:49Z</time>
      </trkpt>
      <trkpt lat="46.99351" lon="-1.8372">
        <ele>58</ele>
        <time>2022-07-31T07:45:51Z</time>
      </trkpt>
      <trkpt lat="46.9934" lon="-1.83713">
        <ele>58</ele>
        <time>2022-07-31T07:45:53Z</time>
      </trkpt>
      <trkpt lat="46.99329" lon="-1.83707">
        <ele>59</ele>
        <time>2022-07-31T07:45:55Z</time>
      </trkpt>
      <trkpt lat="46.99318" lon="-1.837">
        <ele>59</ele>
        <time>2022-07-31T07:45:57Z</time>
      </trkpt>
      <trkpt lat="46.99308" lon="-1.83692">
        <ele>59</ele>
        <time>2022-07-31T07:45:59Z</time>
      </trkpt>
      <trkpt lat="46.99297" lon="-1.83684">
        <ele>60</ele>
        <time>2022-07-31T07:46:01Z</time>
      </trkpt>
      <trkpt lat="46.99288" lon="-1.83673">
        <ele>60</ele>
        <time>2022-07-31T07:46:03Z</time>
      </trkpt>
      <trkpt lat="46.99278" lon="-1.83663">
        <ele>60</ele>
        <time>2022-07-31T07:46:05Z</time>
      </trkpt>
      <trkpt lat="46.99269" lon="-1.83652">
        <ele>60</ele>
        <time>2022-07-31T07:46:07Z</time>
      </trkpt>
      <trkpt lat="46.9926" lon="-1.83641">
        <ele>60</ele>
        <time>2022-07-31T07:46:09Z</time>
      </trkpt>
      <trkpt lat="46.99252" lon="-1.8363">
        <ele>60</ele>
        <time>2022-07-31T07:46:11Z</time>
      </trkpt>
      <trkpt lat="46.99243" lon="-1.83619">
        <ele>60</ele>
        <time>2022-07-31T07:46:13Z</time>
      </trkpt>
      <trkpt lat="46.99234" lon="-1.83608">
        <ele>60</ele>
        <time>2022-07-31T07:46:15Z</time>
      </trkpt>
      <trkpt lat="46.99224" lon="-1.83596">
        <ele>59</ele>
        <time>2022-07-31T07:46:17Z</time>
      </trkpt>
      <trkpt lat="46.99215" lon="-1.83584">
        <ele>59</ele>
        <time>2022-07-31T07:46:19Z</time>
      </trkpt>
      <trkpt lat="46.99206" lon="-1.83574">
        <ele>59</ele>
        <time>2022-07-31T07:46:21Z</time>
      </trkpt>
      <trkpt lat="46.99197" lon="-1.83563">
        <ele>58</ele>
        <time>2022-07-31T07:46:23Z</time>
      </trkpt>
      <trkpt lat="46.99189" lon="-1.83552">
        <ele>58</ele>
        <time>2022-07-31T07:46:25Z</time>
      </trkpt>
      <trkpt lat="46.99181" lon="-1.83541">
        <ele>58</ele>
        <time>2022-07-31T07:46:27Z</time>
      </trkpt>
      <trkpt lat="46.99173" lon="-1.8353">
        <ele>58</ele>
        <time>2022-07-31T07:46:29Z</time>
      </trkpt>
      <trkpt lat="46.99164" lon="-1.83521">
        <ele>57</ele>
        <time>2022-07-31T07:46:31Z</time>
      </trkpt>
      <trkpt lat="46.99153" lon="-1.83516">
        <ele>57</ele>
        <time>2022-07-31T07:46:33Z</time>
      </trkpt>
      <trkpt lat="46.99145" lon="-1.83506">
        <ele>57</ele>
        <time>2022-07-31T07:46:35Z</time>
      </trkpt>
      <trkpt lat="46.99148" lon="-1.83491">
        <ele>57</ele>
        <time>2022-07-31T07:46:37Z</time>
      </trkpt>
      <trkpt lat="46.99155" lon="-1.83476">
        <ele>57</ele>
        <time>2022-07-31T07:46:39Z</time>
      </trkpt>
      <trkpt lat="46.99159" lon="-1.8346">
        <ele>58</ele>
        <time>2022-07-31T07:46:41Z</time>
      </trkpt>
      <trkpt lat="46.99162" lon="-1.83443">
        <ele>58</ele>
        <time>2022-07-31T07:46:43Z</time>
      </trkpt>
      <trkpt lat="46.99166" lon="-1.83425">
        <ele>58</ele>
        <time>2022-07-31T07:46:45Z</time>
      </trkpt>
      <trkpt lat="46.9917" lon="-1.83409">
        <ele>58</ele>
        <time>2022-07-31T07:46:47Z</time>
      </trkpt>
      <trkpt lat="46.99173" lon="-1.83392">
        <ele>59</ele>
        <time>2022-07-31T07:46:49Z</time>
      </trkpt>
      <trkpt lat="46.99177" lon="-1.83375">
        <ele>59</ele>
        <time>2022-07-31T07:46:51Z</time>
      </trkpt>
      <trkpt lat="46.9918" lon="-1.83358">
        <ele>59</ele>
        <time>2022-07-31T07:46:53Z</time>
      </trkpt>
      <trkpt lat="46.99184" lon="-1.83342">
        <ele>59</ele>
        <time>2022-07-31T07:46:55Z</time>
      </trkpt>
      <trkpt lat="46.99188" lon="-1.83325">
        <ele>59</ele>
        <time>2022-07-31T07:46:57Z</time>
      </trkpt>
      <trkpt lat="46.99191" lon="-1.83308">
        <ele>59</ele>
        <time>2022-07-31T07:46:59Z</time>
      </trkpt>
      <trkpt lat="46.99195" lon="-1.83292">
        <ele>59</ele>
        <time>2022-07-31T07:47:01Z</time>
      </trkpt>
      <trkpt lat="46.99199" lon="-1.83275">
        <ele>59</ele>
        <time>2022-07-31T07:47:03Z</time>
      </trkpt>
      <trkpt lat="46.99203" lon="-1.83258">
        <ele>59</ele>
        <time>2022-07-31T07:47:05Z</time>
      </trkpt>
      <trkpt lat="46.99207" lon="-1.83241">
        <ele>59</ele>
        <time>2022-07-31T07:47:07Z</time>
      </trkpt>
      <trkpt lat="46.99211" lon="-1.83224">
        <ele>59</ele>
        <time>2022-07-31T07:47:09Z</time>
      </trkpt>
      <trkpt lat="46.99214" lon="-1.83207">
        <ele>59</ele>
        <time>2022-07-31T07:47:11Z</time>
      </trkpt>
      <trkpt lat="46.99218" lon="-1.8319">
        <ele>58</ele>
        <time>2022-07-31T07:47:13Z</time>
      </trkpt>
      <trkpt lat="46.99221" lon="-1.83174">
        <ele>59</ele>
        <time>2022-07-31T07:47:15Z</time>
      </trkpt>
      <trkpt lat="46.99225" lon="-1.83158">
        <ele>59</ele>
        <time>2022-07-31T07:47:17Z</time>
      </trkpt>
      <trkpt lat="46.99229" lon="-1.83142">
        <ele>59</ele>
        <time>2022-07-31T07:47:19Z</time>
      </trkpt>
      <trkpt lat="46.99233" lon="-1.83125">
        <ele>59</ele>
        <time>2022-07-31T07:47:21Z</time>
      </trkpt>
      <trkpt lat="46.99236" lon="-1.83109">
        <ele>58</ele>
        <time>2022-07-31T07:47:23Z</time>
      </trkpt>
      <trkpt lat="46.99239" lon="-1.83092">
        <ele>58</ele>
        <time>2022-07-31T07:47:25Z</time>
      </trkpt>
      <trkpt lat="46.99243" lon="-1.83076">
        <ele>58</ele>
        <time>2022-07-31T07:47:27Z</time>
      </trkpt>
      <trkpt lat="46.99247" lon="-1.8306">
        <ele>58</ele>
        <time>2022-07-31T07:47:29Z</time>
      </trkpt>
      <trkpt lat="46.99251" lon="-1.83044">
        <ele>58</ele>
        <time>2022-07-31T07:47:31Z</time>
      </trkpt>
      <trkpt lat="46.99255" lon="-1.83029">
        <ele>58</ele>
        <time>2022-07-31T07:47:33Z</time>
      </trkpt>
      <trkpt lat="46.99258" lon="-1.83013">
        <ele>59</ele>
        <time>2022-07-31T07:47:35Z</time>
      </trkpt>
      <trkpt lat="46.99261" lon="-1.82998">
        <ele>58</ele>
        <time>2022-07-31T07:47:37Z</time>
      </trkpt>
      <trkpt lat="46.99265" lon="-1.82982">
        <ele>59</ele>
        <time>2022-07-31T07:47:39Z</time>
      </trkpt>
      <trkpt lat="46.99269" lon="-1.82967">
        <ele>59</ele>
        <time>2022-07-31T07:47:41Z</time>
      </trkpt>
      <trkpt lat="46.99272" lon="-1.82951">
        <ele>59</ele>
        <time>2022-07-31T07:47:43Z</time>
      </trkpt>
      <trkpt lat="46.99274" lon="-1.82935">
        <ele>59</ele>
        <time>2022-07-31T07:47:45Z</time>
      </trkpt>
      <trkpt lat="46.99277" lon="-1.82919">
        <ele>59</ele>
        <time>2022-07-31T07:47:47Z</time>
      </trkpt>
      <trkpt lat="46.99281" lon="-1.82902">
        <ele>59</ele>
        <time>2022-07-31T07:47:49Z</time>
      </trkpt>
      <trkpt lat="46.99284" lon="-1.82885">
        <ele>59</ele>
        <time>2022-07-31T07:47:51Z</time>
      </trkpt>
      <trkpt lat="46.99288" lon="-1.82868">
        <ele>59</ele>
        <time>2022-07-31T07:47:53Z</time>
      </trkpt>
      <trkpt lat="46.99292" lon="-1.82852">
        <ele>59</ele>
        <time>2022-07-31T07:47:55Z</time>
      </trkpt>
      <trkpt lat="46.99296" lon="-1.82835">
        <ele>59</ele>
        <time>2022-07-31T07:47:57Z</time>
      </trkpt>
      <trkpt lat="46.993" lon="-1.82819">
        <ele>60</ele>
        <time>2022-07-31T07:47:59Z</time>
      </trkpt>
      <trkpt lat="46.99304" lon="-1.82803">
        <ele>60</ele>
        <time>2022-07-31T07:48:01Z</time>
      </trkpt>
      <trkpt lat="46.99308" lon="-1.82787">
        <ele>59</ele>
        <time>2022-07-31T07:48:03Z</time>
      </trkpt>
      <trkpt lat="46.99311" lon="-1.8277">
        <ele>59</ele>
        <time>2022-07-31T07:48:05Z</time>
      </trkpt>
      <trkpt lat="46.99315" lon="-1.82753">
        <ele>60</ele>
        <time>2022-07-31T07:48:07Z</time>
      </trkpt>
      <trkpt lat="46.99319" lon="-1.82737">
        <ele>60</ele>
        <time>2022-07-31T07:48:09Z</time>
      </trkpt>
      <trkpt lat="46.99322" lon="-1.8272">
        <ele>60</ele>
        <time>2022-07-31T07:48:11Z</time>
      </trkpt>
      <trkpt lat="46.99325" lon="-1.82704">
        <ele>60</ele>
        <time>2022-07-31T07:48:13Z</time>
      </trkpt>
      <trkpt lat="46.99329" lon="-1.82688">
        <ele>59</ele>
        <time>2022-07-31T07:48:15Z</time>
      </trkpt>
      <trkpt lat="46.99332" lon="-1.82673">
        <ele>59</ele>
        <time>2022-07-31T07:48:17Z</time>
      </trkpt>
      <trkpt lat="46.99336" lon="-1.82657">
        <ele>59</ele>
        <time>2022-07-31T07:48:19Z</time>
      </trkpt>
      <trkpt lat="46.9934" lon="-1.82639">
        <ele>60</ele>
        <time>2022-07-31T07:48:21Z</time>
      </trkpt>
      <trkpt lat="46.99344" lon="-1.82622">
        <ele>60</ele>
        <time>2022-07-31T07:48:23Z</time>
      </trkpt>
      <trkpt lat="46.9935" lon="-1.82608">
        <ele>60</ele>
        <time>2022-07-31T07:48:25Z</time>
      </trkpt>
      <trkpt lat="46.99357" lon="-1.82597">
        <ele>60</ele>
        <time>2022-07-31T07:48:27Z</time>
      </trkpt>
      <trkpt lat="46.99361" lon="-1.82583">
        <ele>59</ele>
        <time>2022-07-31T07:48:29Z</time>
      </trkpt>
      <trkpt lat="46.99363" lon="-1.82567">
        <ele>59</ele>
        <time>2022-07-31T07:48:31Z</time>
      </trkpt>
      <trkpt lat="46.99362" lon="-1.82551">
        <ele>59</ele>
        <time>2022-07-31T07:48:33Z</time>
      </trkpt>
      <trkpt lat="46.99359" lon="-1.82535">
        <ele>59</ele>
        <time>2022-07-31T07:48:35Z</time>
      </trkpt>
      <trkpt lat="46.99355" lon="-1.8252">
        <ele>58</ele>
        <time>2022-07-31T07:48:37Z</time>
      </trkpt>
      <trkpt lat="46.99352" lon="-1.82506">
        <ele>59</ele>
        <time>2022-07-31T07:48:39Z</time>
      </trkpt>
      <trkpt lat="46.99349" lon="-1.82493">
        <ele>59</ele>
        <time>2022-07-31T07:48:41Z</time>
      </trkpt>
      <trkpt lat="46.99345" lon="-1.82478">
        <ele>59</ele>
        <time>2022-07-31T07:48:43Z</time>
      </trkpt>
      <trkpt lat="46.99341" lon="-1.82461">
        <ele>59</ele>
        <time>2022-07-31T07:48:45Z</time>
      </trkpt>
      <trkpt lat="46.99338" lon="-1.82446">
        <ele>59</ele>
        <time>2022-07-31T07:48:47Z</time>
      </trkpt>
      <trkpt lat="46.99334" lon="-1.8243">
        <ele>59</ele>
        <time>2022-07-31T07:48:49Z</time>
      </trkpt>
      <trkpt lat="46.99331" lon="-1.82414">
        <ele>59</ele>
        <time>2022-07-31T07:48:51Z</time>
      </trkpt>
      <trkpt lat="46.99328" lon="-1.82397">
        <ele>59</ele>
        <time>2022-07-31T07:48:53Z</time>
      </trkpt>
      <trkpt lat="46.99327" lon="-1.82381">
        <ele>59</ele>
        <time>2022-07-31T07:48:55Z</time>
      </trkpt>
      <trkpt lat="46.99325" lon="-1.82365">
        <ele>59</ele>
        <time>2022-07-31T07:48:57Z</time>
      </trkpt>
      <trkpt lat="46.99322" lon="-1.82348">
        <ele>59</ele>
        <time>2022-07-31T07:48:59Z</time>
      </trkpt>
      <trkpt lat="46.99319" lon="-1.82331">
        <ele>59</ele>
        <time>2022-07-31T07:49:01Z</time>
      </trkpt>
      <trkpt lat="46.99317" lon="-1.82314">
        <ele>59</ele>
        <time>2022-07-31T07:49:03Z</time>
      </trkpt>
      <trkpt lat="46.99313" lon="-1.82298">
        <ele>59</ele>
        <time>2022-07-31T07:49:05Z</time>
      </trkpt>
      <trkpt lat="46.99309" lon="-1.82283">
        <ele>60</ele>
        <time>2022-07-31T07:49:07Z</time>
      </trkpt>
      <trkpt lat="46.99305" lon="-1.82266">
        <ele>59</ele>
        <time>2022-07-31T07:49:09Z</time>
      </trkpt>
      <trkpt lat="46.99301" lon="-1.8225">
        <ele>59</ele>
        <time>2022-07-31T07:49:11Z</time>
      </trkpt>
      <trkpt lat="46.99297" lon="-1.82234">
        <ele>59</ele>
        <time>2022-07-31T07:49:13Z</time>
      </trkpt>
      <trkpt lat="46.99292" lon="-1.82221">
        <ele>59</ele>
        <time>2022-07-31T07:49:15Z</time>
      </trkpt>
      <trkpt lat="46.99284" lon="-1.82215">
        <ele>58</ele>
        <time>2022-07-31T07:49:17Z</time>
      </trkpt>
      <trkpt lat="46.99273" lon="-1.82216">
        <ele>58</ele>
        <time>2022-07-31T07:49:19Z</time>
      </trkpt>
      <trkpt lat="46.99261" lon="-1.82218">
        <ele>58</ele>
        <time>2022-07-31T07:49:21Z</time>
      </trkpt>
      <trkpt lat="46.99249" lon="-1.8222">
        <ele>58</ele>
        <time>2022-07-31T07:49:23Z</time>
      </trkpt>
      <trkpt lat="46.99237" lon="-1.82221">
        <ele>58</ele>
        <time>2022-07-31T07:49:25Z</time>
      </trkpt>
      <trkpt lat="46.99226" lon="-1.8222">
        <ele>58</ele>
        <time>2022-07-31T07:49:27Z</time>
      </trkpt>
      <trkpt lat="46.99214" lon="-1.82213">
        <ele>59</ele>
        <time>2022-07-31T07:49:29Z</time>
      </trkpt>
      <trkpt lat="46.99202" lon="-1.82208">
        <ele>59</ele>
        <time>2022-07-31T07:49:31Z</time>
      </trkpt>
      <trkpt lat="46.9919" lon="-1.82203">
        <ele>60</ele>
        <time>2022-07-31T07:49:33Z</time>
      </trkpt>
      <trkpt lat="46.99178" lon="-1.82198">
        <ele>61</ele>
        <time>2022-07-31T07:49:35Z</time>
      </trkpt>
      <trkpt lat="46.99168" lon="-1.82192">
        <ele>61</ele>
        <time>2022-07-31T07:49:37Z</time>
      </trkpt>
      <trkpt lat="46.99156" lon="-1.82187">
        <ele>61</ele>
        <time>2022-07-31T07:49:39Z</time>
      </trkpt>
      <trkpt lat="46.99143" lon="-1.82184">
        <ele>62</ele>
        <time>2022-07-31T07:49:41Z</time>
      </trkpt>
      <trkpt lat="46.99131" lon="-1.82183">
        <ele>63</ele>
        <time>2022-07-31T07:49:43Z</time>
      </trkpt>
      <trkpt lat="46.9912" lon="-1.82185">
        <ele>63</ele>
        <time>2022-07-31T07:49:45Z</time>
      </trkpt>
      <trkpt lat="46.9911" lon="-1.82188">
        <ele>62</ele>
        <time>2022-07-31T07:49:47Z</time>
      </trkpt>
      <trkpt lat="46.99099" lon="-1.8219">
        <ele>62</ele>
        <time>2022-07-31T07:49:49Z</time>
      </trkpt>
      <trkpt lat="46.99093" lon="-1.82178">
        <ele>61</ele>
        <time>2022-07-31T07:49:51Z</time>
      </trkpt>
      <trkpt lat="46.99091" lon="-1.82159">
        <ele>60</ele>
        <time>2022-07-31T07:49:53Z</time>
      </trkpt>
      <trkpt lat="46.99089" lon="-1.82141">
        <ele>60</ele>
        <time>2022-07-31T07:49:55Z</time>
      </trkpt>
      <trkpt lat="46.99086" lon="-1.82124">
        <ele>60</ele>
        <time>2022-07-31T07:49:57Z</time>
      </trkpt>
      <trkpt lat="46.99083" lon="-1.82106">
        <ele>61</ele>
        <time>2022-07-31T07:49:59Z</time>
      </trkpt>
      <trkpt lat="46.99082" lon="-1.82087">
        <ele>60</ele>
        <time>2022-07-31T07:50:01Z</time>
      </trkpt>
      <trkpt lat="46.99082" lon="-1.8207">
        <ele>58</ele>
        <time>2022-07-31T07:50:03Z</time>
      </trkpt>
      <trkpt lat="46.99082" lon="-1.82053">
        <ele>58</ele>
        <time>2022-07-31T07:50:05Z</time>
      </trkpt>
      <trkpt lat="46.99084" lon="-1.82034">
        <ele>57</ele>
        <time>2022-07-31T07:50:07Z</time>
      </trkpt>
      <trkpt lat="46.99085" lon="-1.82016">
        <ele>57</ele>
        <time>2022-07-31T07:50:09Z</time>
      </trkpt>
      <trkpt lat="46.99086" lon="-1.81998">
        <ele>57</ele>
        <time>2022-07-31T07:50:11Z</time>
      </trkpt>
      <trkpt lat="46.99087" lon="-1.81983">
        <ele>57</ele>
        <time>2022-07-31T07:50:13Z</time>
      </trkpt>
      <trkpt lat="46.99088" lon="-1.81967">
        <ele>56</ele>
        <time>2022-07-31T07:50:15Z</time>
      </trkpt>
      <trkpt lat="46.9909" lon="-1.81949">
        <ele>56</ele>
        <time>2022-07-31T07:50:17Z</time>
      </trkpt>
      <trkpt lat="46.99092" lon="-1.81931">
        <ele>56</ele>
        <time>2022-07-31T07:50:19Z</time>
      </trkpt>
      <trkpt lat="46.99093" lon="-1.81913">
        <ele>56</ele>
        <time>2022-07-31T07:50:21Z</time>
      </trkpt>
      <trkpt lat="46.99095" lon="-1.81895">
        <ele>56</ele>
        <time>2022-07-31T07:50:23Z</time>
      </trkpt>
      <trkpt lat="46.99098" lon="-1.81877">
        <ele>56</ele>
        <time>2022-07-31T07:50:25Z</time>
      </trkpt>
      <trkpt lat="46.99101" lon="-1.8186">
        <ele>56</ele>
        <time>2022-07-31T07:50:27Z</time>
      </trkpt>
      <trkpt lat="46.99105" lon="-1.81843">
        <ele>57</ele>
        <time>2022-07-31T07:50:29Z</time>
      </trkpt>
      <trkpt lat="46.9911" lon="-1.81828">
        <ele>57</ele>
        <time>2022-07-31T07:50:31Z</time>
      </trkpt>
      <trkpt lat="46.99115" lon="-1.81813">
        <ele>57</ele>
        <time>2022-07-31T07:50:33Z</time>
      </trkpt>
      <trkpt lat="46.99123" lon="-1.81803">
        <ele>58</ele>
        <time>2022-07-31T07:50:35Z</time>
      </trkpt>
      <trkpt lat="46.99132" lon="-1.81792">
        <ele>57</ele>
        <time>2022-07-31T07:50:37Z</time>
      </trkpt>
      <trkpt lat="46.9914" lon="-1.81781">
        <ele>57</ele>
        <time>2022-07-31T07:50:39Z</time>
      </trkpt>
      <trkpt lat="46.99148" lon="-1.81769">
        <ele>57</ele>
        <time>2022-07-31T07:50:41Z</time>
      </trkpt>
      <trkpt lat="46.99157" lon="-1.81757">
        <ele>57</ele>
        <time>2022-07-31T07:50:43Z</time>
      </trkpt>
      <trkpt lat="46.99165" lon="-1.81746">
        <ele>57</ele>
        <time>2022-07-31T07:50:45Z</time>
      </trkpt>
      <trkpt lat="46.99174" lon="-1.81736">
        <ele>58</ele>
        <time>2022-07-31T07:50:47Z</time>
      </trkpt>
      <trkpt lat="46.99182" lon="-1.81726">
        <ele>58</ele>
        <time>2022-07-31T07:50:49Z</time>
      </trkpt>
      <trkpt lat="46.9919" lon="-1.81715">
        <ele>58</ele>
        <time>2022-07-31T07:50:51Z</time>
      </trkpt>
      <trkpt lat="46.99183" lon="-1.81703">
        <ele>58</ele>
        <time>2022-07-31T07:50:53Z</time>
      </trkpt>
      <trkpt lat="46.99175" lon="-1.81694">
        <ele>59</ele>
        <time>2022-07-31T07:50:55Z</time>
      </trkpt>
      <trkpt lat="46.99165" lon="-1.81684">
        <ele>60</ele>
        <time>2022-07-31T07:50:57Z</time>
      </trkpt>
      <trkpt lat="46.99156" lon="-1.81674">
        <ele>60</ele>
        <time>2022-07-31T07:50:59Z</time>
      </trkpt>
      <trkpt lat="46.99146" lon="-1.81664">
        <ele>60</ele>
        <time>2022-07-31T07:51:01Z</time>
      </trkpt>
      <trkpt lat="46.99137" lon="-1.81652">
        <ele>61</ele>
        <time>2022-07-31T07:51:03Z</time>
      </trkpt>
      <trkpt lat="46.99128" lon="-1.81642">
        <ele>60</ele>
        <time>2022-07-31T07:51:05Z</time>
      </trkpt>
      <trkpt lat="46.99119" lon="-1.8163">
        <ele>60</ele>
        <time>2022-07-31T07:51:07Z</time>
      </trkpt>
      <trkpt lat="46.9911" lon="-1.81618">
        <ele>60</ele>
        <time>2022-07-31T07:51:09Z</time>
      </trkpt>
      <trkpt lat="46.99103" lon="-1.81603">
        <ele>59</ele>
        <time>2022-07-31T07:51:11Z</time>
      </trkpt>
      <trkpt lat="46.99108" lon="-1.81588">
        <ele>59</ele>
        <time>2022-07-31T07:51:13Z</time>
      </trkpt>
      <trkpt lat="46.9912" lon="-1.81584">
        <ele>59</ele>
        <time>2022-07-31T07:51:15Z</time>
      </trkpt>
      <trkpt lat="46.99132" lon="-1.81586">
        <ele>59</ele>
        <time>2022-07-31T07:51:17Z</time>
      </trkpt>
      <trkpt lat="46.99143" lon="-1.81587">
        <ele>59</ele>
        <time>2022-07-31T07:51:19Z</time>
      </trkpt>
      <trkpt lat="46.99155" lon="-1.81589">
        <ele>59</ele>
        <time>2022-07-31T07:51:21Z</time>
      </trkpt>
      <trkpt lat="46.99167" lon="-1.8159">
        <ele>60</ele>
        <time>2022-07-31T07:51:23Z</time>
      </trkpt>
      <trkpt lat="46.99178" lon="-1.81591">
        <ele>61</ele>
        <time>2022-07-31T07:51:25Z</time>
      </trkpt>
      <trkpt lat="46.9919" lon="-1.81593">
        <ele>62</ele>
        <time>2022-07-31T07:51:27Z</time>
      </trkpt>
      <trkpt lat="46.99202" lon="-1.81595">
        <ele>63</ele>
        <time>2022-07-31T07:51:29Z</time>
      </trkpt>
      <trkpt lat="46.99215" lon="-1.81597">
        <ele>63</ele>
        <time>2022-07-31T07:51:31Z</time>
      </trkpt>
      <trkpt lat="46.99228" lon="-1.81599">
        <ele>63</ele>
        <time>2022-07-31T07:51:33Z</time>
      </trkpt>
      <trkpt lat="46.99239" lon="-1.81601">
        <ele>63</ele>
        <time>2022-07-31T07:51:35Z</time>
      </trkpt>
      <trkpt lat="46.99249" lon="-1.81595">
        <ele>63</ele>
        <time>2022-07-31T07:51:37Z</time>
      </trkpt>
      <trkpt lat="46.99252" lon="-1.81579">
        <ele>62</ele>
        <time>2022-07-31T07:51:39Z</time>
      </trkpt>
      <trkpt lat="46.99251" lon="-1.81564">
        <ele>62</ele>
        <time>2022-07-31T07:51:41Z</time>
      </trkpt>
      <trkpt lat="46.99248" lon="-1.8155">
        <ele>63</ele>
        <time>2022-07-31T07:51:43Z</time>
      </trkpt>
      <trkpt lat="46.99246" lon="-1.81536">
        <ele>64</ele>
        <time>2022-07-31T07:51:45Z</time>
      </trkpt>
      <trkpt lat="46.99242" lon="-1.81523">
        <ele>65</ele>
        <time>2022-07-31T07:51:47Z</time>
      </trkpt>
      <trkpt lat="46.99239" lon="-1.8151">
        <ele>66</ele>
        <time>2022-07-31T07:51:49Z</time>
      </trkpt>
      <trkpt lat="46.99237" lon="-1.81495">
        <ele>67</ele>
        <time>2022-07-31T07:51:51Z</time>
      </trkpt>
      <trkpt lat="46.99233" lon="-1.8148">
        <ele>67</ele>
        <time>2022-07-31T07:51:53Z</time>
      </trkpt>
      <trkpt lat="46.99232" lon="-1.81461">
        <ele>67</ele>
        <time>2022-07-31T07:51:55Z</time>
      </trkpt>
      <trkpt lat="46.99231" lon="-1.81442">
        <ele>67</ele>
        <time>2022-07-31T07:51:57Z</time>
      </trkpt>
      <trkpt lat="46.9923" lon="-1.81423">
        <ele>66</ele>
        <time>2022-07-31T07:51:59Z</time>
      </trkpt>
      <trkpt lat="46.99228" lon="-1.81407">
        <ele>66</ele>
        <time>2022-07-31T07:52:01Z</time>
      </trkpt>
      <trkpt lat="46.99225" lon="-1.81389">
        <ele>65</ele>
        <time>2022-07-31T07:52:03Z</time>
      </trkpt>
      <trkpt lat="46.99222" lon="-1.81373">
        <ele>64</ele>
        <time>2022-07-31T07:52:05Z</time>
      </trkpt>
      <trkpt lat="46.99219" lon="-1.81356">
        <ele>63</ele>
        <time>2022-07-31T07:52:07Z</time>
      </trkpt>
      <trkpt lat="46.99217" lon="-1.81337">
        <ele>63</ele>
        <time>2022-07-31T07:52:09Z</time>
      </trkpt>
      <trkpt lat="46.99215" lon="-1.81319">
        <ele>62</ele>
        <time>2022-07-31T07:52:11Z</time>
      </trkpt>
      <trkpt lat="46.99213" lon="-1.81301">
        <ele>63</ele>
        <time>2022-07-31T07:52:13Z</time>
      </trkpt>
      <trkpt lat="46.99211" lon="-1.81282">
        <ele>62</ele>
        <time>2022-07-31T07:52:15Z</time>
      </trkpt>
      <trkpt lat="46.99208" lon="-1.81264">
        <ele>62</ele>
        <time>2022-07-31T07:52:17Z</time>
      </trkpt>
      <trkpt lat="46.99207" lon="-1.81247">
        <ele>62</ele>
        <time>2022-07-31T07:52:19Z</time>
      </trkpt>
      <trkpt lat="46.99206" lon="-1.81229">
        <ele>62</ele>
        <time>2022-07-31T07:52:21Z</time>
      </trkpt>
      <trkpt lat="46.99203" lon="-1.81212">
        <ele>63</ele>
        <time>2022-07-31T07:52:23Z</time>
      </trkpt>
      <trkpt lat="46.99201" lon="-1.81194">
        <ele>63</ele>
        <time>2022-07-31T07:52:25Z</time>
      </trkpt>
      <trkpt lat="46.99197" lon="-1.81179">
        <ele>65</ele>
        <time>2022-07-31T07:52:27Z</time>
      </trkpt>
      <trkpt lat="46.99194" lon="-1.81162">
        <ele>67</ele>
        <time>2022-07-31T07:52:29Z</time>
      </trkpt>
      <trkpt lat="46.99191" lon="-1.81143">
        <ele>67</ele>
        <time>2022-07-31T07:52:31Z</time>
      </trkpt>
      <trkpt lat="46.99188" lon="-1.8112">
        <ele>66</ele>
        <time>2022-07-31T07:52:33Z</time>
      </trkpt>
      <trkpt lat="46.99186" lon="-1.81099">
        <ele>64</ele>
        <time>2022-07-31T07:52:35Z</time>
      </trkpt>
      <trkpt lat="46.99184" lon="-1.81081">
        <ele>62</ele>
        <time>2022-07-31T07:52:37Z</time>
      </trkpt>
      <trkpt lat="46.99183" lon="-1.81063">
        <ele>61</ele>
        <time>2022-07-31T07:52:39Z</time>
      </trkpt>
      <trkpt lat="46.99181" lon="-1.81045">
        <ele>60</ele>
        <time>2022-07-31T07:52:41Z</time>
      </trkpt>
      <trkpt lat="46.99179" lon="-1.81027">
        <ele>60</ele>
        <time>2022-07-31T07:52:43Z</time>
      </trkpt>
      <trkpt lat="46.99177" lon="-1.8101">
        <ele>59</ele>
        <time>2022-07-31T07:52:45Z</time>
      </trkpt>
      <trkpt lat="46.99175" lon="-1.80992">
        <ele>59</ele>
        <time>2022-07-31T07:52:47Z</time>
      </trkpt>
      <trkpt lat="46.99173" lon="-1.80975">
        <ele>59</ele>
        <time>2022-07-31T07:52:49Z</time>
      </trkpt>
      <trkpt lat="46.9917" lon="-1.80957">
        <ele>59</ele>
        <time>2022-07-31T07:52:51Z</time>
      </trkpt>
      <trkpt lat="46.99168" lon="-1.8094">
        <ele>58</ele>
        <time>2022-07-31T07:52:53Z</time>
      </trkpt>
      <trkpt lat="46.99166" lon="-1.80924">
        <ele>58</ele>
        <time>2022-07-31T07:52:55Z</time>
      </trkpt>
      <trkpt lat="46.99167" lon="-1.80909">
        <ele>58</ele>
        <time>2022-07-31T07:52:57Z</time>
      </trkpt>
      <trkpt lat="46.9917" lon="-1.80896">
        <ele>57</ele>
        <time>2022-07-31T07:52:59Z</time>
      </trkpt>
      <trkpt lat="46.99178" lon="-1.80887">
        <ele>57</ele>
        <time>2022-07-31T07:53:01Z</time>
      </trkpt>
      <trkpt lat="46.99188" lon="-1.80879">
        <ele>57</ele>
        <time>2022-07-31T07:53:03Z</time>
      </trkpt>
      <trkpt lat="46.99198" lon="-1.80872">
        <ele>57</ele>
        <time>2022-07-31T07:53:05Z</time>
      </trkpt>
      <trkpt lat="46.99209" lon="-1.80866">
        <ele>57</ele>
        <time>2022-07-31T07:53:07Z</time>
      </trkpt>
      <trkpt lat="46.99219" lon="-1.80859">
        <ele>57</ele>
        <time>2022-07-31T07:53:09Z</time>
      </trkpt>
      <trkpt lat="46.9923" lon="-1.80851">
        <ele>57</ele>
        <time>2022-07-31T07:53:11Z</time>
      </trkpt>
      <trkpt lat="46.9924" lon="-1.80845">
        <ele>57</ele>
        <time>2022-07-31T07:53:13Z</time>
      </trkpt>
      <trkpt lat="46.99251" lon="-1.80838">
        <ele>57</ele>
        <time>2022-07-31T07:53:15Z</time>
      </trkpt>
      <trkpt lat="46.99261" lon="-1.80832">
        <ele>58</ele>
        <time>2022-07-31T07:53:17Z</time>
      </trkpt>
      <trkpt lat="46.99271" lon="-1.80826">
        <ele>57</ele>
        <time>2022-07-31T07:53:19Z</time>
      </trkpt>
      <trkpt lat="46.99282" lon="-1.80818">
        <ele>57</ele>
        <time>2022-07-31T07:53:21Z</time>
      </trkpt>
      <trkpt lat="46.99293" lon="-1.80812">
        <ele>58</ele>
        <time>2022-07-31T07:53:23Z</time>
      </trkpt>
      <trkpt lat="46.99303" lon="-1.80805">
        <ele>58</ele>
        <time>2022-07-31T07:53:25Z</time>
      </trkpt>
      <trkpt lat="46.99314" lon="-1.80797">
        <ele>58</ele>
        <time>2022-07-31T07:53:27Z</time>
      </trkpt>
      <trkpt lat="46.99325" lon="-1.8079">
        <ele>58</ele>
        <time>2022-07-31T07:53:29Z</time>
      </trkpt>
      <trkpt lat="46.99336" lon="-1.80783">
        <ele>58</ele>
        <time>2022-07-31T07:53:31Z</time>
      </trkpt>
      <trkpt lat="46.99346" lon="-1.80776">
        <ele>58</ele>
        <time>2022-07-31T07:53:33Z</time>
      </trkpt>
      <trkpt lat="46.99357" lon="-1.80769">
        <ele>58</ele>
        <time>2022-07-31T07:53:35Z</time>
      </trkpt>
      <trkpt lat="46.99368" lon="-1.80762">
        <ele>58</ele>
        <time>2022-07-31T07:53:37Z</time>
      </trkpt>
      <trkpt lat="46.99379" lon="-1.80755">
        <ele>58</ele>
        <time>2022-07-31T07:53:39Z</time>
      </trkpt>
      <trkpt lat="46.99389" lon="-1.80749">
        <ele>58</ele>
        <time>2022-07-31T07:53:41Z</time>
      </trkpt>
      <trkpt lat="46.994" lon="-1.80742">
        <ele>58</ele>
        <time>2022-07-31T07:53:43Z</time>
      </trkpt>
      <trkpt lat="46.9941" lon="-1.80735">
        <ele>59</ele>
        <time>2022-07-31T07:53:45Z</time>
      </trkpt>
      <trkpt lat="46.99421" lon="-1.80728">
        <ele>58</ele>
        <time>2022-07-31T07:53:47Z</time>
      </trkpt>
      <trkpt lat="46.99432" lon="-1.80722">
        <ele>58</ele>
        <time>2022-07-31T07:53:49Z</time>
      </trkpt>
      <trkpt lat="46.99442" lon="-1.80715">
        <ele>58</ele>
        <time>2022-07-31T07:53:51Z</time>
      </trkpt>
      <trkpt lat="46.99452" lon="-1.80709">
        <ele>59</ele>
        <time>2022-07-31T07:53:53Z</time>
      </trkpt>
      <trkpt lat="46.99463" lon="-1.80702">
        <ele>59</ele>
        <time>2022-07-31T07:53:55Z</time>
      </trkpt>
      <trkpt lat="46.99471" lon="-1.80694">
        <ele>59</ele>
        <time>2022-07-31T07:53:57Z</time>
      </trkpt>
      <trkpt lat="46.99477" lon="-1.80682">
        <ele>58</ele>
        <time>2022-07-31T07:53:59Z</time>
      </trkpt>
      <trkpt lat="46.99483" lon="-1.80669">
        <ele>58</ele>
        <time>2022-07-31T07:54:01Z</time>
      </trkpt>
      <trkpt lat="46.99493" lon="-1.8066">
        <ele>58</ele>
        <time>2022-07-31T07:54:03Z</time>
      </trkpt>
      <trkpt lat="46.99504" lon="-1.80656">
        <ele>58</ele>
        <time>2022-07-31T07:54:05Z</time>
      </trkpt>
      <trkpt lat="46.99515" lon="-1.8065">
        <ele>58</ele>
        <time>2022-07-31T07:54:07Z</time>
      </trkpt>
      <trkpt lat="46.99525" lon="-1.8064">
        <ele>57</ele>
        <time>2022-07-31T07:54:09Z</time>
      </trkpt>
      <trkpt lat="46.99535" lon="-1.80629">
        <ele>57</ele>
        <time>2022-07-31T07:54:11Z</time>
      </trkpt>
      <trkpt lat="46.99544" lon="-1.80618">
        <ele>57</ele>
        <time>2022-07-31T07:54:13Z</time>
      </trkpt>
      <trkpt lat="46.99553" lon="-1.80606">
        <ele>57</ele>
        <time>2022-07-31T07:54:15Z</time>
      </trkpt>
      <trkpt lat="46.99562" lon="-1.80594">
        <ele>57</ele>
        <time>2022-07-31T07:54:17Z</time>
      </trkpt>
      <trkpt lat="46.99571" lon="-1.80583">
        <ele>57</ele>
        <time>2022-07-31T07:54:19Z</time>
      </trkpt>
      <trkpt lat="46.99581" lon="-1.80572">
        <ele>57</ele>
        <time>2022-07-31T07:54:21Z</time>
      </trkpt>
      <trkpt lat="46.99589" lon="-1.8056">
        <ele>57</ele>
        <time>2022-07-31T07:54:23Z</time>
      </trkpt>
      <trkpt lat="46.99598" lon="-1.80549">
        <ele>57</ele>
        <time>2022-07-31T07:54:25Z</time>
      </trkpt>
      <trkpt lat="46.99607" lon="-1.80537">
        <ele>57</ele>
        <time>2022-07-31T07:54:27Z</time>
      </trkpt>
      <trkpt lat="46.99616" lon="-1.80526">
        <ele>57</ele>
        <time>2022-07-31T07:54:29Z</time>
      </trkpt>
      <trkpt lat="46.99624" lon="-1.80514">
        <ele>57</ele>
        <time>2022-07-31T07:54:31Z</time>
      </trkpt>
      <trkpt lat="46.99634" lon="-1.80503">
        <ele>57</ele>
        <time>2022-07-31T07:54:33Z</time>
      </trkpt>
      <trkpt lat="46.99642" lon="-1.80491">
        <ele>57</ele>
        <time>2022-07-31T07:54:35Z</time>
      </trkpt>
      <trkpt lat="46.99651" lon="-1.80481">
        <ele>56</ele>
        <time>2022-07-31T07:54:37Z</time>
      </trkpt>
      <trkpt lat="46.9966" lon="-1.80469">
        <ele>57</ele>
        <time>2022-07-31T07:54:39Z</time>
      </trkpt>
      <trkpt lat="46.99668" lon="-1.80458">
        <ele>57</ele>
        <time>2022-07-31T07:54:41Z</time>
      </trkpt>
      <trkpt lat="46.99678" lon="-1.80447">
        <ele>56</ele>
        <time>2022-07-31T07:54:43Z</time>
      </trkpt>
      <trkpt lat="46.99686" lon="-1.80436">
        <ele>57</ele>
        <time>2022-07-31T07:54:45Z</time>
      </trkpt>
      <trkpt lat="46.99695" lon="-1.80424">
        <ele>57</ele>
        <time>2022-07-31T07:54:47Z</time>
      </trkpt>
      <trkpt lat="46.99704" lon="-1.80412">
        <ele>57</ele>
        <time>2022-07-31T07:54:49Z</time>
      </trkpt>
      <trkpt lat="46.99714" lon="-1.804">
        <ele>56</ele>
        <time>2022-07-31T07:54:51Z</time>
      </trkpt>
      <trkpt lat="46.99723" lon="-1.80388">
        <ele>56</ele>
        <time>2022-07-31T07:54:53Z</time>
      </trkpt>
      <trkpt lat="46.99732" lon="-1.80377">
        <ele>56</ele>
        <time>2022-07-31T07:54:55Z</time>
      </trkpt>
      <trkpt lat="46.9974" lon="-1.80365">
        <ele>56</ele>
        <time>2022-07-31T07:54:57Z</time>
      </trkpt>
      <trkpt lat="46.99749" lon="-1.80354">
        <ele>56</ele>
        <time>2022-07-31T07:54:59Z</time>
      </trkpt>
      <trkpt lat="46.99758" lon="-1.80342">
        <ele>56</ele>
        <time>2022-07-31T07:55:01Z</time>
      </trkpt>
      <trkpt lat="46.99768" lon="-1.8033">
        <ele>56</ele>
        <time>2022-07-31T07:55:03Z</time>
      </trkpt>
      <trkpt lat="46.99777" lon="-1.80319">
        <ele>56</ele>
        <time>2022-07-31T07:55:05Z</time>
      </trkpt>
      <trkpt lat="46.99785" lon="-1.80307">
        <ele>56</ele>
        <time>2022-07-31T07:55:07Z</time>
      </trkpt>
      <trkpt lat="46.99794" lon="-1.80296">
        <ele>56</ele>
        <time>2022-07-31T07:55:09Z</time>
      </trkpt>
      <trkpt lat="46.99803" lon="-1.80284">
        <ele>56</ele>
        <time>2022-07-31T07:55:11Z</time>
      </trkpt>
      <trkpt lat="46.99812" lon="-1.80273">
        <ele>56</ele>
        <time>2022-07-31T07:55:13Z</time>
      </trkpt>
      <trkpt lat="46.9982" lon="-1.80262">
        <ele>56</ele>
        <time>2022-07-31T07:55:15Z</time>
      </trkpt>
      <trkpt lat="46.99829" lon="-1.8025">
        <ele>57</ele>
        <time>2022-07-31T07:55:17Z</time>
      </trkpt>
      <trkpt lat="46.99837" lon="-1.80237">
        <ele>57</ele>
        <time>2022-07-31T07:55:19Z</time>
      </trkpt>
      <trkpt lat="46.99845" lon="-1.80226">
        <ele>57</ele>
        <time>2022-07-31T07:55:21Z</time>
      </trkpt>
      <trkpt lat="46.99853" lon="-1.80217">
        <ele>57</ele>
        <time>2022-07-31T07:55:23Z</time>
      </trkpt>
      <trkpt lat="46.9986" lon="-1.80206">
        <ele>57</ele>
        <time>2022-07-31T07:55:25Z</time>
      </trkpt>
      <trkpt lat="46.99868" lon="-1.802">
        <ele>57</ele>
        <time>2022-07-31T07:55:27Z</time>
      </trkpt>
      <trkpt lat="46.99877" lon="-1.80205">
        <ele>59</ele>
        <time>2022-07-31T07:55:29Z</time>
      </trkpt>
      <trkpt lat="46.99886" lon="-1.80217">
        <ele>59</ele>
        <time>2022-07-31T07:55:31Z</time>
      </trkpt>
      <trkpt lat="46.99894" lon="-1.80229">
        <ele>59</ele>
        <time>2022-07-31T07:55:33Z</time>
      </trkpt>
      <trkpt lat="46.99902" lon="-1.80242">
        <ele>58</ele>
        <time>2022-07-31T07:55:35Z</time>
      </trkpt>
      <trkpt lat="46.99911" lon="-1.80254">
        <ele>58</ele>
        <time>2022-07-31T07:55:37Z</time>
      </trkpt>
      <trkpt lat="46.9992" lon="-1.80266">
        <ele>58</ele>
        <time>2022-07-31T07:55:39Z</time>
      </trkpt>
      <trkpt lat="46.99929" lon="-1.80279">
        <ele>58</ele>
        <time>2022-07-31T07:55:41Z</time>
      </trkpt>
      <trkpt lat="46.99937" lon="-1.80291">
        <ele>58</ele>
        <time>2022-07-31T07:55:43Z</time>
      </trkpt>
      <trkpt lat="46.99946" lon="-1.80303">
        <ele>58</ele>
        <time>2022-07-31T07:55:45Z</time>
      </trkpt>
      <trkpt lat="46.99955" lon="-1.80315">
        <ele>57</ele>
        <time>2022-07-31T07:55:47Z</time>
      </trkpt>
      <trkpt lat="46.99964" lon="-1.80327">
        <ele>57</ele>
        <time>2022-07-31T07:55:49Z</time>
      </trkpt>
      <trkpt lat="46.99973" lon="-1.8034">
        <ele>58</ele>
        <time>2022-07-31T07:55:51Z</time>
      </trkpt>
      <trkpt lat="46.99982" lon="-1.80352">
        <ele>58</ele>
        <time>2022-07-31T07:55:53Z</time>
      </trkpt>
      <trkpt lat="46.99989" lon="-1.80367">
        <ele>58</ele>
        <time>2022-07-31T07:55:55Z</time>
      </trkpt>
      <trkpt lat="46.99993" lon="-1.80384">
        <ele>57</ele>
        <time>2022-07-31T07:55:57Z</time>
      </trkpt>
      <trkpt lat="46.99996" lon="-1.80401">
        <ele>57</ele>
        <time>2022-07-31T07:55:59Z</time>
      </trkpt>
      <trkpt lat="46.99998" lon="-1.80419">
        <ele>57</ele>
        <time>2022-07-31T07:56:01Z</time>
      </trkpt>
      <trkpt lat="46.99999" lon="-1.80437">
        <ele>57</ele>
        <time>2022-07-31T07:56:03Z</time>
      </trkpt>
      <trkpt lat="46.99999" lon="-1.80454">
        <ele>58</ele>
        <time>2022-07-31T07:56:05Z</time>
      </trkpt>
      <trkpt lat="47" lon="-1.80472">
        <ele>57</ele>
        <time>2022-07-31T07:56:07Z</time>
      </trkpt>
      <trkpt lat="47" lon="-1.80489">
        <ele>57</ele>
        <time>2022-07-31T07:56:09Z</time>
      </trkpt>
      <trkpt lat="47.00001" lon="-1.80507">
        <ele>57</ele>
        <time>2022-07-31T07:56:11Z</time>
      </trkpt>
      <trkpt lat="47.00001" lon="-1.80525">
        <ele>57</ele>
        <time>2022-07-31T07:56:13Z</time>
      </trkpt>
      <trkpt lat="47.00002" lon="-1.80543">
        <ele>57</ele>
        <time>2022-07-31T07:56:15Z</time>
      </trkpt>
      <trkpt lat="47.00007" lon="-1.80559">
        <ele>57</ele>
        <time>2022-07-31T07:56:17Z</time>
      </trkpt>
      <trkpt lat="47.00018" lon="-1.80568">
        <ele>57</ele>
        <time>2022-07-31T07:56:19Z</time>
      </trkpt>
      <trkpt lat="47.0003" lon="-1.80567">
        <ele>57</ele>
        <time>2022-07-31T07:56:21Z</time>
      </trkpt>
      <trkpt lat="47.00042" lon="-1.80562">
        <ele>57</ele>
        <time>2022-07-31T07:56:23Z</time>
      </trkpt>
      <trkpt lat="47.00053" lon="-1.80559">
        <ele>57</ele>
        <time>2022-07-31T07:56:25Z</time>
      </trkpt>
      <trkpt lat="47.00065" lon="-1.80555">
        <ele>58</ele>
        <time>2022-07-31T07:56:27Z</time>
      </trkpt>
      <trkpt lat="47.00077" lon="-1.80551">
        <ele>58</ele>
        <time>2022-07-31T07:56:29Z</time>
      </trkpt>
      <trkpt lat="47.0009" lon="-1.80547">
        <ele>58</ele>
        <time>2022-07-31T07:56:31Z</time>
      </trkpt>
      <trkpt lat="47.00102" lon="-1.80542">
        <ele>58</ele>
        <time>2022-07-31T07:56:33Z</time>
      </trkpt>
      <trkpt lat="47.00114" lon="-1.80539">
        <ele>58</ele>
        <time>2022-07-31T07:56:35Z</time>
      </trkpt>
      <trkpt lat="47.00126" lon="-1.80535">
        <ele>58</ele>
        <time>2022-07-31T07:56:37Z</time>
      </trkpt>
      <trkpt lat="47.00138" lon="-1.80531">
        <ele>58</ele>
        <time>2022-07-31T07:56:39Z</time>
      </trkpt>
      <trkpt lat="47.0015" lon="-1.80527">
        <ele>58</ele>
        <time>2022-07-31T07:56:41Z</time>
      </trkpt>
      <trkpt lat="47.00162" lon="-1.80523">
        <ele>58</ele>
        <time>2022-07-31T07:56:43Z</time>
      </trkpt>
      <trkpt lat="47.00174" lon="-1.80519">
        <ele>59</ele>
        <time>2022-07-31T07:56:45Z</time>
      </trkpt>
      <trkpt lat="47.00187" lon="-1.80517">
        <ele>59</ele>
        <time>2022-07-31T07:56:47Z</time>
      </trkpt>
      <trkpt lat="47.00199" lon="-1.80514">
        <ele>60</ele>
        <time>2022-07-31T07:56:49Z</time>
      </trkpt>
      <trkpt lat="47.0021" lon="-1.80513">
        <ele>60</ele>
        <time>2022-07-31T07:56:51Z</time>
      </trkpt>
      <trkpt lat="47.00222" lon="-1.80511">
        <ele>61</ele>
        <time>2022-07-31T07:56:53Z</time>
      </trkpt>
      <trkpt lat="47.00234" lon="-1.8051">
        <ele>61</ele>
        <time>2022-07-31T07:56:55Z</time>
      </trkpt>
      <trkpt lat="47.00245" lon="-1.80509">
        <ele>61</ele>
        <time>2022-07-31T07:56:57Z</time>
      </trkpt>
      <trkpt lat="47.00257" lon="-1.80508">
        <ele>62</ele>
        <time>2022-07-31T07:56:59Z</time>
      </trkpt>
      <trkpt lat="47.00268" lon="-1.80506">
        <ele>62</ele>
        <time>2022-07-31T07:57:01Z</time>
      </trkpt>
      <trkpt lat="47.0028" lon="-1.80504">
        <ele>63</ele>
        <time>2022-07-31T07:57:03Z</time>
      </trkpt>
      <trkpt lat="47.00292" lon="-1.80502">
        <ele>63</ele>
        <time>2022-07-31T07:57:05Z</time>
      </trkpt>
      <trkpt lat="47.00304" lon="-1.80499">
        <ele>62</ele>
        <time>2022-07-31T07:57:07Z</time>
      </trkpt>
      <trkpt lat="47.00315" lon="-1.80495">
        <ele>62</ele>
        <time>2022-07-31T07:57:09Z</time>
      </trkpt>
      <trkpt lat="47.00326" lon="-1.80489">
        <ele>62</ele>
        <time>2022-07-31T07:57:11Z</time>
      </trkpt>
      <trkpt lat="47.00337" lon="-1.80482">
        <ele>62</ele>
        <time>2022-07-31T07:57:13Z</time>
      </trkpt>
      <trkpt lat="47.00348" lon="-1.80473">
        <ele>62</ele>
        <time>2022-07-31T07:57:15Z</time>
      </trkpt>
      <trkpt lat="47.00358" lon="-1.80464">
        <ele>63</ele>
        <time>2022-07-31T07:57:17Z</time>
      </trkpt>
      <trkpt lat="47.00369" lon="-1.80455">
        <ele>63</ele>
        <time>2022-07-31T07:57:19Z</time>
      </trkpt>
      <trkpt lat="47.00382" lon="-1.80449">
        <ele>61</ele>
        <time>2022-07-31T07:57:21Z</time>
      </trkpt>
      <trkpt lat="47.00394" lon="-1.80445">
        <ele>61</ele>
        <time>2022-07-31T07:57:23Z</time>
      </trkpt>
      <trkpt lat="47.00406" lon="-1.80443">
        <ele>61</ele>
        <time>2022-07-31T07:57:25Z</time>
      </trkpt>
      <trkpt lat="47.00419" lon="-1.80442">
        <ele>60</ele>
        <time>2022-07-31T07:57:27Z</time>
      </trkpt>
      <trkpt lat="47.00431" lon="-1.8044">
        <ele>60</ele>
        <time>2022-07-31T07:57:29Z</time>
      </trkpt>
      <trkpt lat="47.00443" lon="-1.80439">
        <ele>60</ele>
        <time>2022-07-31T07:57:31Z</time>
      </trkpt>
      <trkpt lat="47.00455" lon="-1.80438">
        <ele>61</ele>
        <time>2022-07-31T07:57:33Z</time>
      </trkpt>
      <trkpt lat="47.00467" lon="-1.80437">
        <ele>61</ele>
        <time>2022-07-31T07:57:35Z</time>
      </trkpt>
      <trkpt lat="47.00479" lon="-1.80435">
        <ele>61</ele>
        <time>2022-07-31T07:57:37Z</time>
      </trkpt>
      <trkpt lat="47.00491" lon="-1.80434">
        <ele>61</ele>
        <time>2022-07-31T07:57:39Z</time>
      </trkpt>
      <trkpt lat="47.00503" lon="-1.80432">
        <ele>62</ele>
        <time>2022-07-31T07:57:41Z</time>
      </trkpt>
      <trkpt lat="47.00515" lon="-1.8043">
        <ele>62</ele>
        <time>2022-07-31T07:57:43Z</time>
      </trkpt>
      <trkpt lat="47.00528" lon="-1.80429">
        <ele>62</ele>
        <time>2022-07-31T07:57:45Z</time>
      </trkpt>
      <trkpt lat="47.00541" lon="-1.80428">
        <ele>62</ele>
        <time>2022-07-31T07:57:47Z</time>
      </trkpt>
      <trkpt lat="47.00553" lon="-1.80427">
        <ele>62</ele>
        <time>2022-07-31T07:57:49Z</time>
      </trkpt>
      <trkpt lat="47.00565" lon="-1.80426">
        <ele>62</ele>
        <time>2022-07-31T07:57:51Z</time>
      </trkpt>
      <trkpt lat="47.00578" lon="-1.80424">
        <ele>62</ele>
        <time>2022-07-31T07:57:53Z</time>
      </trkpt>
      <trkpt lat="47.00592" lon="-1.80424">
        <ele>62</ele>
        <time>2022-07-31T07:57:55Z</time>
      </trkpt>
      <trkpt lat="47.00604" lon="-1.80424">
        <ele>61</ele>
        <time>2022-07-31T07:57:57Z</time>
      </trkpt>
      <trkpt lat="47.00617" lon="-1.80424">
        <ele>62</ele>
        <time>2022-07-31T07:57:59Z</time>
      </trkpt>
      <trkpt lat="47.00634" lon="-1.80424">
        <ele>63</ele>
        <time>2022-07-31T07:58:02Z</time>
      </trkpt>
      <trkpt lat="47.00645" lon="-1.80426">
        <ele>63</ele>
        <time>2022-07-31T07:58:04Z</time>
      </trkpt>
      <trkpt lat="47.00657" lon="-1.80427">
        <ele>64</ele>
        <time>2022-07-31T07:58:06Z</time>
      </trkpt>
      <trkpt lat="47.00669" lon="-1.80428">
        <ele>64</ele>
        <time>2022-07-31T07:58:08Z</time>
      </trkpt>
      <trkpt lat="47.00682" lon="-1.80427">
        <ele>63</ele>
        <time>2022-07-31T07:58:10Z</time>
      </trkpt>
      <trkpt lat="47.00694" lon="-1.80426">
        <ele>63</ele>
        <time>2022-07-31T07:58:12Z</time>
      </trkpt>
      <trkpt lat="47.00707" lon="-1.80425">
        <ele>63</ele>
        <time>2022-07-31T07:58:14Z</time>
      </trkpt>
      <trkpt lat="47.00719" lon="-1.80423">
        <ele>62</ele>
        <time>2022-07-31T07:58:16Z</time>
      </trkpt>
      <trkpt lat="47.00732" lon="-1.80423">
        <ele>62</ele>
        <time>2022-07-31T07:58:18Z</time>
      </trkpt>
      <trkpt lat="47.00746" lon="-1.80421">
        <ele>62</ele>
        <time>2022-07-31T07:58:20Z</time>
      </trkpt>
      <trkpt lat="47.00758" lon="-1.8042">
        <ele>62</ele>
        <time>2022-07-31T07:58:22Z</time>
      </trkpt>
      <trkpt lat="47.00771" lon="-1.80417">
        <ele>62</ele>
        <time>2022-07-31T07:58:24Z</time>
      </trkpt>
      <trkpt lat="47.00782" lon="-1.80412">
        <ele>62</ele>
        <time>2022-07-31T07:58:26Z</time>
      </trkpt>
      <trkpt lat="47.00794" lon="-1.80407">
        <ele>62</ele>
        <time>2022-07-31T07:58:28Z</time>
      </trkpt>
      <trkpt lat="47.00805" lon="-1.80401">
        <ele>62</ele>
        <time>2022-07-31T07:58:30Z</time>
      </trkpt>
      <trkpt lat="47.00817" lon="-1.80395">
        <ele>62</ele>
        <time>2022-07-31T07:58:32Z</time>
      </trkpt>
      <trkpt lat="47.00828" lon="-1.80388">
        <ele>62</ele>
        <time>2022-07-31T07:58:34Z</time>
      </trkpt>
      <trkpt lat="47.00839" lon="-1.80382">
        <ele>62</ele>
        <time>2022-07-31T07:58:36Z</time>
      </trkpt>
      <trkpt lat="47.0085" lon="-1.80376">
        <ele>62</ele>
        <time>2022-07-31T07:58:38Z</time>
      </trkpt>
      <trkpt lat="47.00862" lon="-1.80369">
        <ele>62</ele>
        <time>2022-07-31T07:58:40Z</time>
      </trkpt>
      <trkpt lat="47.00873" lon="-1.80362">
        <ele>63</ele>
        <time>2022-07-31T07:58:42Z</time>
      </trkpt>
      <trkpt lat="47.00884" lon="-1.80354">
        <ele>63</ele>
        <time>2022-07-31T07:58:44Z</time>
      </trkpt>
      <trkpt lat="47.00894" lon="-1.80346">
        <ele>63</ele>
        <time>2022-07-31T07:58:46Z</time>
      </trkpt>
      <trkpt lat="47.00904" lon="-1.80338">
        <ele>63</ele>
        <time>2022-07-31T07:58:48Z</time>
      </trkpt>
      <trkpt lat="47.00914" lon="-1.80329">
        <ele>64</ele>
        <time>2022-07-31T07:58:50Z</time>
      </trkpt>
      <trkpt lat="47.00924" lon="-1.8032">
        <ele>64</ele>
        <time>2022-07-31T07:58:52Z</time>
      </trkpt>
      <trkpt lat="47.00934" lon="-1.80311">
        <ele>64</ele>
        <time>2022-07-31T07:58:54Z</time>
      </trkpt>
      <trkpt lat="47.00945" lon="-1.80305">
        <ele>63</ele>
        <time>2022-07-31T07:58:56Z</time>
      </trkpt>
      <trkpt lat="47.00954" lon="-1.80301">
        <ele>62</ele>
        <time>2022-07-31T07:58:58Z</time>
      </trkpt>
      <trkpt lat="47.00965" lon="-1.803">
        <ele>64</ele>
        <time>2022-07-31T07:59:00Z</time>
      </trkpt>
      <trkpt lat="47.00971" lon="-1.80313">
        <ele>64</ele>
        <time>2022-07-31T07:59:02Z</time>
      </trkpt>
      <trkpt lat="47.00972" lon="-1.80329">
        <ele>64</ele>
        <time>2022-07-31T07:59:04Z</time>
      </trkpt>
      <trkpt lat="47.00974" lon="-1.80345">
        <ele>64</ele>
        <time>2022-07-31T07:59:06Z</time>
      </trkpt>
      <trkpt lat="47.00976" lon="-1.80361">
        <ele>64</ele>
        <time>2022-07-31T07:59:08Z</time>
      </trkpt>
      <trkpt lat="47.00978" lon="-1.80377">
        <ele>63</ele>
        <time>2022-07-31T07:59:10Z</time>
      </trkpt>
      <trkpt lat="47.00981" lon="-1.80393">
        <ele>63</ele>
        <time>2022-07-31T07:59:12Z</time>
      </trkpt>
      <trkpt lat="47.00986" lon="-1.80407">
        <ele>63</ele>
        <time>2022-07-31T07:59:14Z</time>
      </trkpt>
      <trkpt lat="47.00991" lon="-1.80421">
        <ele>63</ele>
        <time>2022-07-31T07:59:16Z</time>
      </trkpt>
      <trkpt lat="47.00997" lon="-1.80434">
        <ele>62</ele>
        <time>2022-07-31T07:59:18Z</time>
      </trkpt>
      <trkpt lat="47.01007" lon="-1.80443">
        <ele>62</ele>
        <time>2022-07-31T07:59:20Z</time>
      </trkpt>
      <trkpt lat="47.01017" lon="-1.80445">
        <ele>62</ele>
        <time>2022-07-31T07:59:22Z</time>
      </trkpt>
      <trkpt lat="47.01026" lon="-1.80442">
        <ele>62</ele>
        <time>2022-07-31T07:59:24Z</time>
      </trkpt>
      <trkpt lat="47.01035" lon="-1.80436">
        <ele>63</ele>
        <time>2022-07-31T07:59:26Z</time>
      </trkpt>
      <trkpt lat="47.01044" lon="-1.80429">
        <ele>63</ele>
        <time>2022-07-31T07:59:28Z</time>
      </trkpt>
      <trkpt lat="47.01053" lon="-1.80423">
        <ele>64</ele>
        <time>2022-07-31T07:59:30Z</time>
      </trkpt>
      <trkpt lat="47.01062" lon="-1.80416">
        <ele>65</ele>
        <time>2022-07-31T07:59:32Z</time>
      </trkpt>
      <trkpt lat="47.01071" lon="-1.8041">
        <ele>65</ele>
        <time>2022-07-31T07:59:34Z</time>
      </trkpt>
      <trkpt lat="47.0108" lon="-1.80402">
        <ele>66</ele>
        <time>2022-07-31T07:59:36Z</time>
      </trkpt>
      <trkpt lat="47.0109" lon="-1.80395">
        <ele>67</ele>
        <time>2022-07-31T07:59:38Z</time>
      </trkpt>
      <trkpt lat="47.011" lon="-1.80387">
        <ele>68</ele>
        <time>2022-07-31T07:59:40Z</time>
      </trkpt>
      <trkpt lat="47.01109" lon="-1.8038">
        <ele>68</ele>
        <time>2022-07-31T07:59:42Z</time>
      </trkpt>
      <trkpt lat="47.01117" lon="-1.80374">
        <ele>69</ele>
        <time>2022-07-31T07:59:44Z</time>
      </trkpt>
      <trkpt lat="47.01126" lon="-1.80368">
        <ele>69</ele>
        <time>2022-07-31T07:59:46Z</time>
      </trkpt>
      <trkpt lat="47.01135" lon="-1.80362">
        <ele>69</ele>
        <time>2022-07-31T07:59:48Z</time>
      </trkpt>
      <trkpt lat="47.01144" lon="-1.80355">
        <ele>69</ele>
        <time>2022-07-31T07:59:50Z</time>
      </trkpt>
      <trkpt lat="47.01154" lon="-1.80348">
        <ele>69</ele>
        <time>2022-07-31T07:59:52Z</time>
      </trkpt>
      <trkpt lat="47.01164" lon="-1.80342">
        <ele>69</ele>
        <time>2022-07-31T07:59:54Z</time>
      </trkpt>
      <trkpt lat="47.01174" lon="-1.80336">
        <ele>70</ele>
        <time>2022-07-31T07:59:56Z</time>
      </trkpt>
      <trkpt lat="47.01185" lon="-1.8033">
        <ele>70</ele>
        <time>2022-07-31T07:59:58Z</time>
      </trkpt>
      <trkpt lat="47.01196" lon="-1.80326">
        <ele>70</ele>
        <time>2022-07-31T08:00:00Z</time>
      </trkpt>
      <trkpt lat="47.01207" lon="-1.80321">
        <ele>70</ele>
        <time>2022-07-31T08:00:02Z</time>
      </trkpt>
      <trkpt lat="47.01217" lon="-1.80317">
        <ele>71</ele>
        <time>2022-07-31T08:00:04Z</time>
      </trkpt>
      <trkpt lat="47.01226" lon="-1.80313">
        <ele>70</ele>
        <time>2022-07-31T08:00:06Z</time>
      </trkpt>
      <trkpt lat="47.01234" lon="-1.80306">
        <ele>70</ele>
        <time>2022-07-31T08:00:08Z</time>
      </trkpt>
      <trkpt lat="47.01241" lon="-1.80294">
        <ele>70</ele>
        <time>2022-07-31T08:00:10Z</time>
      </trkpt>
      <trkpt lat="47.01246" lon="-1.80279">
        <ele>69</ele>
        <time>2022-07-31T08:00:12Z</time>
      </trkpt>
      <trkpt lat="47.01252" lon="-1.80264">
        <ele>69</ele>
        <time>2022-07-31T08:00:14Z</time>
      </trkpt>
      <trkpt lat="47.01258" lon="-1.80249">
        <ele>69</ele>
        <time>2022-07-31T08:00:16Z</time>
      </trkpt>
      <trkpt lat="47.01265" lon="-1.80235">
        <ele>68</ele>
        <time>2022-07-31T08:00:18Z</time>
      </trkpt>
      <trkpt lat="47.01272" lon="-1.80221">
        <ele>68</ele>
        <time>2022-07-31T08:00:20Z</time>
      </trkpt>
      <trkpt lat="47.01279" lon="-1.80207">
        <ele>68</ele>
        <time>2022-07-31T08:00:22Z</time>
      </trkpt>
      <trkpt lat="47.01287" lon="-1.80193">
        <ele>68</ele>
        <time>2022-07-31T08:00:24Z</time>
      </trkpt>
      <trkpt lat="47.01294" lon="-1.80179">
        <ele>68</ele>
        <time>2022-07-31T08:00:26Z</time>
      </trkpt>
      <trkpt lat="47.01302" lon="-1.80165">
        <ele>68</ele>
        <time>2022-07-31T08:00:28Z</time>
      </trkpt>
      <trkpt lat="47.01309" lon="-1.80151">
        <ele>68</ele>
        <time>2022-07-31T08:00:30Z</time>
      </trkpt>
      <trkpt lat="47.01317" lon="-1.80137">
        <ele>68</ele>
        <time>2022-07-31T08:00:32Z</time>
      </trkpt>
      <trkpt lat="47.01324" lon="-1.80124">
        <ele>68</ele>
        <time>2022-07-31T08:00:34Z</time>
      </trkpt>
      <trkpt lat="47.01331" lon="-1.80111">
        <ele>68</ele>
        <time>2022-07-31T08:00:36Z</time>
      </trkpt>
      <trkpt lat="47.01338" lon="-1.80098">
        <ele>68</ele>
        <time>2022-07-31T08:00:38Z</time>
      </trkpt>
      <trkpt lat="47.01345" lon="-1.80085">
        <ele>69</ele>
        <time>2022-07-31T08:00:40Z</time>
      </trkpt>
      <trkpt lat="47.01352" lon="-1.80071">
        <ele>69</ele>
        <time>2022-07-31T08:00:42Z</time>
      </trkpt>
      <trkpt lat="47.0136" lon="-1.80058">
        <ele>69</ele>
        <time>2022-07-31T08:00:44Z</time>
      </trkpt>
      <trkpt lat="47.01367" lon="-1.80045">
        <ele>69</ele>
        <time>2022-07-31T08:00:46Z</time>
      </trkpt>
      <trkpt lat="47.01374" lon="-1.80032">
        <ele>69</ele>
        <time>2022-07-31T08:00:48Z</time>
      </trkpt>
      <trkpt lat="47.01381" lon="-1.80019">
        <ele>69</ele>
        <time>2022-07-31T08:00:50Z</time>
      </trkpt>
      <trkpt lat="47.01389" lon="-1.80006">
        <ele>69</ele>
        <time>2022-07-31T08:00:52Z</time>
      </trkpt>
      <trkpt lat="47.01396" lon="-1.79993">
        <ele>69</ele>
        <time>2022-07-31T08:00:54Z</time>
      </trkpt>
      <trkpt lat="47.01403" lon="-1.7998">
        <ele>69</ele>
        <time>2022-07-31T08:00:56Z</time>
      </trkpt>
      <trkpt lat="47.0141" lon="-1.79968">
        <ele>69</ele>
        <time>2022-07-31T08:00:58Z</time>
      </trkpt>
      <trkpt lat="47.01417" lon="-1.79956">
        <ele>69</ele>
        <time>2022-07-31T08:01:00Z</time>
      </trkpt>
      <trkpt lat="47.01424" lon="-1.79944">
        <ele>69</ele>
        <time>2022-07-31T08:01:02Z</time>
      </trkpt>
      <trkpt lat="47.0143" lon="-1.79932">
        <ele>69</ele>
        <time>2022-07-31T08:01:04Z</time>
      </trkpt>
      <trkpt lat="47.01437" lon="-1.7992">
        <ele>70</ele>
        <time>2022-07-31T08:01:06Z</time>
      </trkpt>
      <trkpt lat="47.01443" lon="-1.79908">
        <ele>70</ele>
        <time>2022-07-31T08:01:08Z</time>
      </trkpt>
      <trkpt lat="47.0145" lon="-1.79895">
        <ele>70</ele>
        <time>2022-07-31T08:01:10Z</time>
      </trkpt>
      <trkpt lat="47.01456" lon="-1.79883">
        <ele>70</ele>
        <time>2022-07-31T08:01:12Z</time>
      </trkpt>
      <trkpt lat="47.01463" lon="-1.7987">
        <ele>70</ele>
        <time>2022-07-31T08:01:14Z</time>
      </trkpt>
      <trkpt lat="47.0147" lon="-1.79857">
        <ele>70</ele>
        <time>2022-07-31T08:01:16Z</time>
      </trkpt>
      <trkpt lat="47.01476" lon="-1.79844">
        <ele>70</ele>
        <time>2022-07-31T08:01:18Z</time>
      </trkpt>
      <trkpt lat="47.01482" lon="-1.7983">
        <ele>70</ele>
        <time>2022-07-31T08:01:20Z</time>
      </trkpt>
      <trkpt lat="47.01488" lon="-1.79816">
        <ele>70</ele>
        <time>2022-07-31T08:01:22Z</time>
      </trkpt>
      <trkpt lat="47.01494" lon="-1.79802">
        <ele>70</ele>
        <time>2022-07-31T08:01:24Z</time>
      </trkpt>
      <trkpt lat="47.015" lon="-1.79788">
        <ele>69</ele>
        <time>2022-07-31T08:01:26Z</time>
      </trkpt>
      <trkpt lat="47.01506" lon="-1.79774">
        <ele>69</ele>
        <time>2022-07-31T08:01:28Z</time>
      </trkpt>
      <trkpt lat="47.01512" lon="-1.7976">
        <ele>69</ele>
        <time>2022-07-31T08:01:30Z</time>
      </trkpt>
      <trkpt lat="47.01518" lon="-1.79745">
        <ele>69</ele>
        <time>2022-07-31T08:01:32Z</time>
      </trkpt>
      <trkpt lat="47.01524" lon="-1.79731">
        <ele>69</ele>
        <time>2022-07-31T08:01:34Z</time>
      </trkpt>
      <trkpt lat="47.01531" lon="-1.79717">
        <ele>69</ele>
        <time>2022-07-31T08:01:36Z</time>
      </trkpt>
      <trkpt lat="47.01538" lon="-1.79704">
        <ele>69</ele>
        <time>2022-07-31T08:01:38Z</time>
      </trkpt>
      <trkpt lat="47.01546" lon="-1.79692">
        <ele>69</ele>
        <time>2022-07-31T08:01:40Z</time>
      </trkpt>
      <trkpt lat="47.01555" lon="-1.79681">
        <ele>69</ele>
        <time>2022-07-31T08:01:42Z</time>
      </trkpt>
      <trkpt lat="47.01565" lon="-1.7967">
        <ele>69</ele>
        <time>2022-07-31T08:01:44Z</time>
      </trkpt>
      <trkpt lat="47.01576" lon="-1.79661">
        <ele>69</ele>
        <time>2022-07-31T08:01:46Z</time>
      </trkpt>
      <trkpt lat="47.01587" lon="-1.79653">
        <ele>69</ele>
        <time>2022-07-31T08:01:48Z</time>
      </trkpt>
      <trkpt lat="47.01598" lon="-1.79647">
        <ele>69</ele>
        <time>2022-07-31T08:01:50Z</time>
      </trkpt>
      <trkpt lat="47.01611" lon="-1.79641">
        <ele>69</ele>
        <time>2022-07-31T08:01:52Z</time>
      </trkpt>
      <trkpt lat="47.01622" lon="-1.79635">
        <ele>69</ele>
        <time>2022-07-31T08:01:54Z</time>
      </trkpt>
      <trkpt lat="47.01634" lon="-1.79628">
        <ele>68</ele>
        <time>2022-07-31T08:01:56Z</time>
      </trkpt>
      <trkpt lat="47.01646" lon="-1.79622">
        <ele>68</ele>
        <time>2022-07-31T08:01:58Z</time>
      </trkpt>
      <trkpt lat="47.01658" lon="-1.79615">
        <ele>69</ele>
        <time>2022-07-31T08:02:00Z</time>
      </trkpt>
      <trkpt lat="47.0167" lon="-1.79609">
        <ele>69</ele>
        <time>2022-07-31T08:02:02Z</time>
      </trkpt>
      <trkpt lat="47.01681" lon="-1.79604">
        <ele>69</ele>
        <time>2022-07-31T08:02:04Z</time>
      </trkpt>
      <trkpt lat="47.01694" lon="-1.79599">
        <ele>69</ele>
        <time>2022-07-31T08:02:06Z</time>
      </trkpt>
      <trkpt lat="47.01706" lon="-1.79595">
        <ele>69</ele>
        <time>2022-07-31T08:02:08Z</time>
      </trkpt>
      <trkpt lat="47.01719" lon="-1.79591">
        <ele>69</ele>
        <time>2022-07-31T08:02:10Z</time>
      </trkpt>
      <trkpt lat="47.01732" lon="-1.79586">
        <ele>68</ele>
        <time>2022-07-31T08:02:12Z</time>
      </trkpt>
      <trkpt lat="47.01744" lon="-1.79577">
        <ele>68</ele>
        <time>2022-07-31T08:02:14Z</time>
      </trkpt>
      <trkpt lat="47.01757" lon="-1.79568">
        <ele>67</ele>
        <time>2022-07-31T08:02:16Z</time>
      </trkpt>
      <trkpt lat="47.01769" lon="-1.79559">
        <ele>67</ele>
        <time>2022-07-31T08:02:18Z</time>
      </trkpt>
      <trkpt lat="47.01781" lon="-1.79547">
        <ele>67</ele>
        <time>2022-07-31T08:02:20Z</time>
      </trkpt>
      <trkpt lat="47.01794" lon="-1.79537">
        <ele>67</ele>
        <time>2022-07-31T08:02:22Z</time>
      </trkpt>
      <trkpt lat="47.01807" lon="-1.79526">
        <ele>66</ele>
        <time>2022-07-31T08:02:24Z</time>
      </trkpt>
      <trkpt lat="47.0182" lon="-1.79516">
        <ele>65</ele>
        <time>2022-07-31T08:02:26Z</time>
      </trkpt>
      <trkpt lat="47.01834" lon="-1.79506">
        <ele>65</ele>
        <time>2022-07-31T08:02:28Z</time>
      </trkpt>
      <trkpt lat="47.01847" lon="-1.79496">
        <ele>64</ele>
        <time>2022-07-31T08:02:30Z</time>
      </trkpt>
      <trkpt lat="47.0186" lon="-1.79487">
        <ele>64</ele>
        <time>2022-07-31T08:02:32Z</time>
      </trkpt>
      <trkpt lat="47.01873" lon="-1.79477">
        <ele>63</ele>
        <time>2022-07-31T08:02:34Z</time>
      </trkpt>
      <trkpt lat="47.01887" lon="-1.79467">
        <ele>63</ele>
        <time>2022-07-31T08:02:36Z</time>
      </trkpt>
      <trkpt lat="47.019" lon="-1.79457">
        <ele>62</ele>
        <time>2022-07-31T08:02:38Z</time>
      </trkpt>
      <trkpt lat="47.01913" lon="-1.79447">
        <ele>63</ele>
        <time>2022-07-31T08:02:40Z</time>
      </trkpt>
      <trkpt lat="47.01926" lon="-1.79437">
        <ele>63</ele>
        <time>2022-07-31T08:02:42Z</time>
      </trkpt>
      <trkpt lat="47.01939" lon="-1.79428">
        <ele>63</ele>
        <time>2022-07-31T08:02:44Z</time>
      </trkpt>
      <trkpt lat="47.01952" lon="-1.79422">
        <ele>63</ele>
        <time>2022-07-31T08:02:46Z</time>
      </trkpt>
      <trkpt lat="47.01965" lon="-1.79418">
        <ele>63</ele>
        <time>2022-07-31T08:02:48Z</time>
      </trkpt>
      <trkpt lat="47.01979" lon="-1.79413">
        <ele>63</ele>
        <time>2022-07-31T08:02:50Z</time>
      </trkpt>
      <trkpt lat="47.01993" lon="-1.79408">
        <ele>63</ele>
        <time>2022-07-31T08:02:52Z</time>
      </trkpt>
      <trkpt lat="47.02006" lon="-1.79404">
        <ele>63</ele>
        <time>2022-07-31T08:02:54Z</time>
      </trkpt>
      <trkpt lat="47.0202" lon="-1.794">
        <ele>64</ele>
        <time>2022-07-31T08:02:56Z</time>
      </trkpt>
      <trkpt lat="47.02034" lon="-1.79396">
        <ele>63</ele>
        <time>2022-07-31T08:02:58Z</time>
      </trkpt>
      <trkpt lat="47.02047" lon="-1.79395">
        <ele>64</ele>
        <time>2022-07-31T08:03:00Z</time>
      </trkpt>
      <trkpt lat="47.02061" lon="-1.79397">
        <ele>64</ele>
        <time>2022-07-31T08:03:02Z</time>
      </trkpt>
      <trkpt lat="47.02073" lon="-1.794">
        <ele>63</ele>
        <time>2022-07-31T08:03:04Z</time>
      </trkpt>
      <trkpt lat="47.02084" lon="-1.79403">
        <ele>63</ele>
        <time>2022-07-31T08:03:06Z</time>
      </trkpt>
      <trkpt lat="47.02092" lon="-1.79383">
        <ele>65</ele>
        <time>2022-07-31T08:03:11Z</time>
      </trkpt>
      <trkpt lat="47.02098" lon="-1.79366">
        <ele>66</ele>
        <time>2022-07-31T08:03:13Z</time>
      </trkpt>
      <trkpt lat="47.02104" lon="-1.79346">
        <ele>65</ele>
        <time>2022-07-31T08:03:15Z</time>
      </trkpt>
      <trkpt lat="47.0211" lon="-1.79327">
        <ele>64</ele>
        <time>2022-07-31T08:03:17Z</time>
      </trkpt>
      <trkpt lat="47.02114" lon="-1.7931">
        <ele>64</ele>
        <time>2022-07-31T08:03:19Z</time>
      </trkpt>
      <trkpt lat="47.02118" lon="-1.79296">
        <ele>64</ele>
        <time>2022-07-31T08:03:21Z</time>
      </trkpt>
      <trkpt lat="47.02122" lon="-1.79281">
        <ele>63</ele>
        <time>2022-07-31T08:03:24Z</time>
      </trkpt>
      <trkpt lat="47.02123" lon="-1.79268">
        <ele>63</ele>
        <time>2022-07-31T08:03:28Z</time>
      </trkpt>
      <trkpt lat="47.02129" lon="-1.79257">
        <ele>63</ele>
        <time>2022-07-31T08:03:32Z</time>
      </trkpt>
      <trkpt lat="47.02132" lon="-1.79241">
        <ele>64</ele>
        <time>2022-07-31T08:03:51Z</time>
      </trkpt>
      <trkpt lat="47.02137" lon="-1.79222">
        <ele>65</ele>
        <time>2022-07-31T08:03:54Z</time>
      </trkpt>
      <trkpt lat="47.02142" lon="-1.79208">
        <ele>65</ele>
        <time>2022-07-31T08:03:56Z</time>
      </trkpt>
      <trkpt lat="47.02148" lon="-1.7919">
        <ele>65</ele>
        <time>2022-07-31T08:03:58Z</time>
      </trkpt>
      <trkpt lat="47.02153" lon="-1.79174">
        <ele>64</ele>
        <time>2022-07-31T08:04:00Z</time>
      </trkpt>
      <trkpt lat="47.02159" lon="-1.79162">
        <ele>64</ele>
        <time>2022-07-31T08:04:03Z</time>
      </trkpt>
      <trkpt lat="47.02167" lon="-1.79153">
        <ele>63</ele>
        <time>2022-07-31T08:04:06Z</time>
      </trkpt>
      <trkpt lat="47.02164" lon="-1.7914">
        <ele>64</ele>
        <time>2022-07-31T08:04:10Z</time>
      </trkpt>
      <trkpt lat="47.02165" lon="-1.79125">
        <ele>62</ele>
        <time>2022-07-31T08:04:12Z</time>
      </trkpt>
      <trkpt lat="47.02165" lon="-1.79112">
        <ele>61</ele>
        <time>2022-07-31T08:04:16Z</time>
      </trkpt>
      <trkpt lat="47.0217" lon="-1.79097">
        <ele>62</ele>
        <time>2022-07-31T08:04:40Z</time>
      </trkpt>
      <trkpt lat="47.02175" lon="-1.79084">
        <ele>61</ele>
        <time>2022-07-31T08:04:42Z</time>
      </trkpt>
      <trkpt lat="47.02179" lon="-1.79069">
        <ele>61</ele>
        <time>2022-07-31T08:04:44Z</time>
      </trkpt>
      <trkpt lat="47.02184" lon="-1.79054">
        <ele>62</ele>
        <time>2022-07-31T08:04:46Z</time>
      </trkpt>
      <trkpt lat="47.0219" lon="-1.79039">
        <ele>61</ele>
        <time>2022-07-31T08:04:48Z</time>
      </trkpt>
      <trkpt lat="47.02196" lon="-1.79026">
        <ele>61</ele>
        <time>2022-07-31T08:04:50Z</time>
      </trkpt>
      <trkpt lat="47.02203" lon="-1.79013">
        <ele>60</ele>
        <time>2022-07-31T08:04:52Z</time>
      </trkpt>
      <trkpt lat="47.02211" lon="-1.79">
        <ele>60</ele>
        <time>2022-07-31T08:04:54Z</time>
      </trkpt>
      <trkpt lat="47.0222" lon="-1.78988">
        <ele>60</ele>
        <time>2022-07-31T08:04:56Z</time>
      </trkpt>
      <trkpt lat="47.02228" lon="-1.78976">
        <ele>60</ele>
        <time>2022-07-31T08:04:58Z</time>
      </trkpt>
      <trkpt lat="47.02238" lon="-1.78964">
        <ele>61</ele>
        <time>2022-07-31T08:05:00Z</time>
      </trkpt>
      <trkpt lat="47.02247" lon="-1.78953">
        <ele>61</ele>
        <time>2022-07-31T08:05:02Z</time>
      </trkpt>
      <trkpt lat="47.02257" lon="-1.78943">
        <ele>62</ele>
        <time>2022-07-31T08:05:04Z</time>
      </trkpt>
      <trkpt lat="47.02267" lon="-1.78934">
        <ele>62</ele>
        <time>2022-07-31T08:05:06Z</time>
      </trkpt>
      <trkpt lat="47.02277" lon="-1.78926">
        <ele>62</ele>
        <time>2022-07-31T08:05:08Z</time>
      </trkpt>
      <trkpt lat="47.02288" lon="-1.78917">
        <ele>62</ele>
        <time>2022-07-31T08:05:10Z</time>
      </trkpt>
      <trkpt lat="47.02299" lon="-1.78909">
        <ele>62</ele>
        <time>2022-07-31T08:05:12Z</time>
      </trkpt>
      <trkpt lat="47.02311" lon="-1.78902">
        <ele>63</ele>
        <time>2022-07-31T08:05:14Z</time>
      </trkpt>
      <trkpt lat="47.02322" lon="-1.78894">
        <ele>63</ele>
        <time>2022-07-31T08:05:16Z</time>
      </trkpt>
      <trkpt lat="47.02333" lon="-1.78887">
        <ele>64</ele>
        <time>2022-07-31T08:05:18Z</time>
      </trkpt>
      <trkpt lat="47.02344" lon="-1.78881">
        <ele>65</ele>
        <time>2022-07-31T08:05:20Z</time>
      </trkpt>
      <trkpt lat="47.02355" lon="-1.78874">
        <ele>65</ele>
        <time>2022-07-31T08:05:22Z</time>
      </trkpt>
      <trkpt lat="47.02367" lon="-1.78866">
        <ele>66</ele>
        <time>2022-07-31T08:05:24Z</time>
      </trkpt>
      <trkpt lat="47.02378" lon="-1.78859">
        <ele>66</ele>
        <time>2022-07-31T08:05:26Z</time>
      </trkpt>
      <trkpt lat="47.02389" lon="-1.78851">
        <ele>67</ele>
        <time>2022-07-31T08:05:28Z</time>
      </trkpt>
      <trkpt lat="47.02401" lon="-1.78843">
        <ele>67</ele>
        <time>2022-07-31T08:05:30Z</time>
      </trkpt>
      <trkpt lat="47.02413" lon="-1.78836">
        <ele>67</ele>
        <time>2022-07-31T08:05:32Z</time>
      </trkpt>
      <trkpt lat="47.02425" lon="-1.78827">
        <ele>67</ele>
        <time>2022-07-31T08:05:34Z</time>
      </trkpt>
      <trkpt lat="47.02436" lon="-1.7882">
        <ele>67</ele>
        <time>2022-07-31T08:05:36Z</time>
      </trkpt>
      <trkpt lat="47.02447" lon="-1.78812">
        <ele>66</ele>
        <time>2022-07-31T08:05:38Z</time>
      </trkpt>
      <trkpt lat="47.02459" lon="-1.78805">
        <ele>67</ele>
        <time>2022-07-31T08:05:40Z</time>
      </trkpt>
      <trkpt lat="47.02471" lon="-1.78796">
        <ele>67</ele>
        <time>2022-07-31T08:05:42Z</time>
      </trkpt>
      <trkpt lat="47.02482" lon="-1.78789">
        <ele>67</ele>
        <time>2022-07-31T08:05:44Z</time>
      </trkpt>
      <trkpt lat="47.02494" lon="-1.78781">
        <ele>67</ele>
        <time>2022-07-31T08:05:46Z</time>
      </trkpt>
      <trkpt lat="47.02505" lon="-1.78774">
        <ele>67</ele>
        <time>2022-07-31T08:05:48Z</time>
      </trkpt>
      <trkpt lat="47.02516" lon="-1.78767">
        <ele>68</ele>
        <time>2022-07-31T08:05:50Z</time>
      </trkpt>
      <trkpt lat="47.02528" lon="-1.78759">
        <ele>68</ele>
        <time>2022-07-31T08:05:52Z</time>
      </trkpt>
      <trkpt lat="47.0254" lon="-1.78751">
        <ele>67</ele>
        <time>2022-07-31T08:05:54Z</time>
      </trkpt>
      <trkpt lat="47.02552" lon="-1.78744">
        <ele>67</ele>
        <time>2022-07-31T08:05:56Z</time>
      </trkpt>
      <trkpt lat="47.02564" lon="-1.78737">
        <ele>66</ele>
        <time>2022-07-31T08:05:58Z</time>
      </trkpt>
      <trkpt lat="47.02576" lon="-1.7873">
        <ele>66</ele>
        <time>2022-07-31T08:06:00Z</time>
      </trkpt>
      <trkpt lat="47.02586" lon="-1.78723">
        <ele>66</ele>
        <time>2022-07-31T08:06:02Z</time>
      </trkpt>
      <trkpt lat="47.02598" lon="-1.78714">
        <ele>68</ele>
        <time>2022-07-31T08:06:04Z</time>
      </trkpt>
      <trkpt lat="47.0261" lon="-1.78705">
        <ele>68</ele>
        <time>2022-07-31T08:06:06Z</time>
      </trkpt>
      <trkpt lat="47.02622" lon="-1.78697">
        <ele>68</ele>
        <time>2022-07-31T08:06:08Z</time>
      </trkpt>
      <trkpt lat="47.02635" lon="-1.78689">
        <ele>68</ele>
        <time>2022-07-31T08:06:10Z</time>
      </trkpt>
      <trkpt lat="47.02648" lon="-1.78681">
        <ele>67</ele>
        <time>2022-07-31T08:06:12Z</time>
      </trkpt>
      <trkpt lat="47.0266" lon="-1.78673">
        <ele>67</ele>
        <time>2022-07-31T08:06:14Z</time>
      </trkpt>
      <trkpt lat="47.02672" lon="-1.78665">
        <ele>67</ele>
        <time>2022-07-31T08:06:16Z</time>
      </trkpt>
      <trkpt lat="47.02685" lon="-1.78656">
        <ele>67</ele>
        <time>2022-07-31T08:06:18Z</time>
      </trkpt>
      <trkpt lat="47.02698" lon="-1.78647">
        <ele>66</ele>
        <time>2022-07-31T08:06:20Z</time>
      </trkpt>
      <trkpt lat="47.02711" lon="-1.78639">
        <ele>66</ele>
        <time>2022-07-31T08:06:22Z</time>
      </trkpt>
      <trkpt lat="47.02723" lon="-1.78632">
        <ele>66</ele>
        <time>2022-07-31T08:06:24Z</time>
      </trkpt>
      <trkpt lat="47.02736" lon="-1.78624">
        <ele>65</ele>
        <time>2022-07-31T08:06:26Z</time>
      </trkpt>
      <trkpt lat="47.02748" lon="-1.78616">
        <ele>65</ele>
        <time>2022-07-31T08:06:28Z</time>
      </trkpt>
      <trkpt lat="47.02759" lon="-1.78608">
        <ele>66</ele>
        <time>2022-07-31T08:06:30Z</time>
      </trkpt>
      <trkpt lat="47.02771" lon="-1.78599">
        <ele>66</ele>
        <time>2022-07-31T08:06:32Z</time>
      </trkpt>
      <trkpt lat="47.02783" lon="-1.78592">
        <ele>66</ele>
        <time>2022-07-31T08:06:34Z</time>
      </trkpt>
      <trkpt lat="47.02794" lon="-1.78585">
        <ele>66</ele>
        <time>2022-07-31T08:06:36Z</time>
      </trkpt>
      <trkpt lat="47.02804" lon="-1.78578">
        <ele>67</ele>
        <time>2022-07-31T08:06:38Z</time>
      </trkpt>
      <trkpt lat="47.02816" lon="-1.7857">
        <ele>68</ele>
        <time>2022-07-31T08:06:40Z</time>
      </trkpt>
      <trkpt lat="47.02827" lon="-1.78561">
        <ele>67</ele>
        <time>2022-07-31T08:06:42Z</time>
      </trkpt>
      <trkpt lat="47.02837" lon="-1.78552">
        <ele>67</ele>
        <time>2022-07-31T08:06:44Z</time>
      </trkpt>
      <trkpt lat="47.02847" lon="-1.78543">
        <ele>68</ele>
        <time>2022-07-31T08:06:46Z</time>
      </trkpt>
      <trkpt lat="47.02856" lon="-1.78536">
        <ele>68</ele>
        <time>2022-07-31T08:06:48Z</time>
      </trkpt>
      <trkpt lat="47.02865" lon="-1.78527">
        <ele>68</ele>
        <time>2022-07-31T08:06:50Z</time>
      </trkpt>
      <trkpt lat="47.02874" lon="-1.78519">
        <ele>69</ele>
        <time>2022-07-31T08:06:52Z</time>
      </trkpt>
      <trkpt lat="47.02883" lon="-1.78512">
        <ele>70</ele>
        <time>2022-07-31T08:06:54Z</time>
      </trkpt>
      <trkpt lat="47.02892" lon="-1.78503">
        <ele>71</ele>
        <time>2022-07-31T08:06:56Z</time>
      </trkpt>
      <trkpt lat="47.02901" lon="-1.78495">
        <ele>71</ele>
        <time>2022-07-31T08:06:58Z</time>
      </trkpt>
      <trkpt lat="47.02909" lon="-1.78487">
        <ele>72</ele>
        <time>2022-07-31T08:07:00Z</time>
      </trkpt>
      <trkpt lat="47.02918" lon="-1.78479">
        <ele>74</ele>
        <time>2022-07-31T08:07:02Z</time>
      </trkpt>
      <trkpt lat="47.02926" lon="-1.78471">
        <ele>74</ele>
        <time>2022-07-31T08:07:04Z</time>
      </trkpt>
      <trkpt lat="47.02935" lon="-1.78462">
        <ele>75</ele>
        <time>2022-07-31T08:07:06Z</time>
      </trkpt>
      <trkpt lat="47.02943" lon="-1.78454">
        <ele>76</ele>
        <time>2022-07-31T08:07:08Z</time>
      </trkpt>
      <trkpt lat="47.02952" lon="-1.78444">
        <ele>78</ele>
        <time>2022-07-31T08:07:10Z</time>
      </trkpt>
      <trkpt lat="47.0296" lon="-1.78434">
        <ele>78</ele>
        <time>2022-07-31T08:07:12Z</time>
      </trkpt>
      <trkpt lat="47.02969" lon="-1.78426">
        <ele>79</ele>
        <time>2022-07-31T08:07:14Z</time>
      </trkpt>
      <trkpt lat="47.02978" lon="-1.78418">
        <ele>79</ele>
        <time>2022-07-31T08:07:16Z</time>
      </trkpt>
      <trkpt lat="47.02987" lon="-1.7841">
        <ele>79</ele>
        <time>2022-07-31T08:07:18Z</time>
      </trkpt>
      <trkpt lat="47.02996" lon="-1.78402">
        <ele>80</ele>
        <time>2022-07-31T08:07:20Z</time>
      </trkpt>
      <trkpt lat="47.03004" lon="-1.78394">
        <ele>80</ele>
        <time>2022-07-31T08:07:22Z</time>
      </trkpt>
      <trkpt lat="47.03014" lon="-1.78385">
        <ele>80</ele>
        <time>2022-07-31T08:07:24Z</time>
      </trkpt>
      <trkpt lat="47.03022" lon="-1.78378">
        <ele>80</ele>
        <time>2022-07-31T08:07:26Z</time>
      </trkpt>
      <trkpt lat="47.0303" lon="-1.78369">
        <ele>80</ele>
        <time>2022-07-31T08:07:28Z</time>
      </trkpt>
      <trkpt lat="47.03038" lon="-1.78361">
        <ele>81</ele>
        <time>2022-07-31T08:07:30Z</time>
      </trkpt>
      <trkpt lat="47.03046" lon="-1.78353">
        <ele>82</ele>
        <time>2022-07-31T08:07:32Z</time>
      </trkpt>
      <trkpt lat="47.03054" lon="-1.78346">
        <ele>83</ele>
        <time>2022-07-31T08:07:34Z</time>
      </trkpt>
      <trkpt lat="47.03062" lon="-1.78339">
        <ele>83</ele>
        <time>2022-07-31T08:07:36Z</time>
      </trkpt>
      <trkpt lat="47.0307" lon="-1.78331">
        <ele>83</ele>
        <time>2022-07-31T08:07:38Z</time>
      </trkpt>
      <trkpt lat="47.03078" lon="-1.78322">
        <ele>83</ele>
        <time>2022-07-31T08:07:40Z</time>
      </trkpt>
      <trkpt lat="47.03087" lon="-1.78314">
        <ele>84</ele>
        <time>2022-07-31T08:07:42Z</time>
      </trkpt>
      <trkpt lat="47.03095" lon="-1.78305">
        <ele>84</ele>
        <time>2022-07-31T08:07:44Z</time>
      </trkpt>
      <trkpt lat="47.03104" lon="-1.78296">
        <ele>83</ele>
        <time>2022-07-31T08:07:46Z</time>
      </trkpt>
      <trkpt lat="47.03113" lon="-1.78288">
        <ele>83</ele>
        <time>2022-07-31T08:07:48Z</time>
      </trkpt>
      <trkpt lat="47.03122" lon="-1.7828">
        <ele>82</ele>
        <time>2022-07-31T08:07:50Z</time>
      </trkpt>
      <trkpt lat="47.03131" lon="-1.78271">
        <ele>82</ele>
        <time>2022-07-31T08:07:52Z</time>
      </trkpt>
      <trkpt lat="47.03141" lon="-1.78261">
        <ele>81</ele>
        <time>2022-07-31T08:07:54Z</time>
      </trkpt>
      <trkpt lat="47.03151" lon="-1.78252">
        <ele>81</ele>
        <time>2022-07-31T08:07:56Z</time>
      </trkpt>
      <trkpt lat="47.0316" lon="-1.78243">
        <ele>80</ele>
        <time>2022-07-31T08:07:58Z</time>
      </trkpt>
      <trkpt lat="47.0317" lon="-1.78234">
        <ele>80</ele>
        <time>2022-07-31T08:08:00Z</time>
      </trkpt>
      <trkpt lat="47.03181" lon="-1.78225">
        <ele>80</ele>
        <time>2022-07-31T08:08:02Z</time>
      </trkpt>
      <trkpt lat="47.03191" lon="-1.78215">
        <ele>79</ele>
        <time>2022-07-31T08:08:04Z</time>
      </trkpt>
      <trkpt lat="47.03201" lon="-1.78205">
        <ele>79</ele>
        <time>2022-07-31T08:08:06Z</time>
      </trkpt>
      <trkpt lat="47.03212" lon="-1.78195">
        <ele>79</ele>
        <time>2022-07-31T08:08:08Z</time>
      </trkpt>
      <trkpt lat="47.03224" lon="-1.78184">
        <ele>78</ele>
        <time>2022-07-31T08:08:10Z</time>
      </trkpt>
      <trkpt lat="47.03235" lon="-1.78173">
        <ele>77</ele>
        <time>2022-07-31T08:08:12Z</time>
      </trkpt>
      <trkpt lat="47.03246" lon="-1.78163">
        <ele>77</ele>
        <time>2022-07-31T08:08:14Z</time>
      </trkpt>
      <trkpt lat="47.03256" lon="-1.78153">
        <ele>77</ele>
        <time>2022-07-31T08:08:16Z</time>
      </trkpt>
      <trkpt lat="47.03267" lon="-1.78142">
        <ele>77</ele>
        <time>2022-07-31T08:08:18Z</time>
      </trkpt>
      <trkpt lat="47.03278" lon="-1.78132">
        <ele>77</ele>
        <time>2022-07-31T08:08:20Z</time>
      </trkpt>
      <trkpt lat="47.03288" lon="-1.78122">
        <ele>77</ele>
        <time>2022-07-31T08:08:22Z</time>
      </trkpt>
      <trkpt lat="47.03299" lon="-1.78112">
        <ele>77</ele>
        <time>2022-07-31T08:08:24Z</time>
      </trkpt>
      <trkpt lat="47.03309" lon="-1.78102">
        <ele>77</ele>
        <time>2022-07-31T08:08:26Z</time>
      </trkpt>
      <trkpt lat="47.0332" lon="-1.78092">
        <ele>77</ele>
        <time>2022-07-31T08:08:28Z</time>
      </trkpt>
      <trkpt lat="47.0333" lon="-1.78082">
        <ele>77</ele>
        <time>2022-07-31T08:08:30Z</time>
      </trkpt>
      <trkpt lat="47.03341" lon="-1.78072">
        <ele>77</ele>
        <time>2022-07-31T08:08:32Z</time>
      </trkpt>
      <trkpt lat="47.03351" lon="-1.78062">
        <ele>76</ele>
        <time>2022-07-31T08:08:34Z</time>
      </trkpt>
      <trkpt lat="47.03362" lon="-1.78053">
        <ele>76</ele>
        <time>2022-07-31T08:08:36Z</time>
      </trkpt>
      <trkpt lat="47.03372" lon="-1.78043">
        <ele>76</ele>
        <time>2022-07-31T08:08:38Z</time>
      </trkpt>
      <trkpt lat="47.03382" lon="-1.78033">
        <ele>76</ele>
        <time>2022-07-31T08:08:40Z</time>
      </trkpt>
      <trkpt lat="47.03393" lon="-1.78024">
        <ele>77</ele>
        <time>2022-07-31T08:08:42Z</time>
      </trkpt>
      <trkpt lat="47.03403" lon="-1.78015">
        <ele>77</ele>
        <time>2022-07-31T08:08:44Z</time>
      </trkpt>
      <trkpt lat="47.03412" lon="-1.78006">
        <ele>78</ele>
        <time>2022-07-31T08:08:46Z</time>
      </trkpt>
      <trkpt lat="47.03421" lon="-1.77997">
        <ele>79</ele>
        <time>2022-07-31T08:08:48Z</time>
      </trkpt>
      <trkpt lat="47.03431" lon="-1.77988">
        <ele>78</ele>
        <time>2022-07-31T08:08:50Z</time>
      </trkpt>
      <trkpt lat="47.03441" lon="-1.77978">
        <ele>78</ele>
        <time>2022-07-31T08:08:52Z</time>
      </trkpt>
      <trkpt lat="47.03451" lon="-1.77968">
        <ele>78</ele>
        <time>2022-07-31T08:08:54Z</time>
      </trkpt>
      <trkpt lat="47.03461" lon="-1.77958">
        <ele>77</ele>
        <time>2022-07-31T08:08:56Z</time>
      </trkpt>
      <trkpt lat="47.03471" lon="-1.77948">
        <ele>77</ele>
        <time>2022-07-31T08:08:58Z</time>
      </trkpt>
      <trkpt lat="47.03481" lon="-1.77939">
        <ele>77</ele>
        <time>2022-07-31T08:09:00Z</time>
      </trkpt>
      <trkpt lat="47.03491" lon="-1.77929">
        <ele>77</ele>
        <time>2022-07-31T08:09:02Z</time>
      </trkpt>
      <trkpt lat="47.03501" lon="-1.77919">
        <ele>77</ele>
        <time>2022-07-31T08:09:04Z</time>
      </trkpt>
      <trkpt lat="47.03512" lon="-1.7791">
        <ele>76</ele>
        <time>2022-07-31T08:09:06Z</time>
      </trkpt>
      <trkpt lat="47.03522" lon="-1.77901">
        <ele>76</ele>
        <time>2022-07-31T08:09:08Z</time>
      </trkpt>
      <trkpt lat="47.03532" lon="-1.77892">
        <ele>75</ele>
        <time>2022-07-31T08:09:10Z</time>
      </trkpt>
      <trkpt lat="47.03543" lon="-1.77883">
        <ele>75</ele>
        <time>2022-07-31T08:09:12Z</time>
      </trkpt>
      <trkpt lat="47.03553" lon="-1.77874">
        <ele>75</ele>
        <time>2022-07-31T08:09:14Z</time>
      </trkpt>
      <trkpt lat="47.03564" lon="-1.77866">
        <ele>75</ele>
        <time>2022-07-31T08:09:16Z</time>
      </trkpt>
      <trkpt lat="47.03575" lon="-1.77857">
        <ele>75</ele>
        <time>2022-07-31T08:09:18Z</time>
      </trkpt>
      <trkpt lat="47.03586" lon="-1.7785">
        <ele>76</ele>
        <time>2022-07-31T08:09:20Z</time>
      </trkpt>
      <trkpt lat="47.03597" lon="-1.77842">
        <ele>76</ele>
        <time>2022-07-31T08:09:22Z</time>
      </trkpt>
      <trkpt lat="47.03608" lon="-1.77834">
        <ele>77</ele>
        <time>2022-07-31T08:09:24Z</time>
      </trkpt>
      <trkpt lat="47.03619" lon="-1.77826">
        <ele>77</ele>
        <time>2022-07-31T08:09:26Z</time>
      </trkpt>
      <trkpt lat="47.0363" lon="-1.77818">
        <ele>77</ele>
        <time>2022-07-31T08:09:28Z</time>
      </trkpt>
      <trkpt lat="47.0364" lon="-1.77811">
        <ele>77</ele>
        <time>2022-07-31T08:09:30Z</time>
      </trkpt>
      <trkpt lat="47.03651" lon="-1.77804">
        <ele>78</ele>
        <time>2022-07-31T08:09:32Z</time>
      </trkpt>
      <trkpt lat="47.03661" lon="-1.77796">
        <ele>78</ele>
        <time>2022-07-31T08:09:34Z</time>
      </trkpt>
      <trkpt lat="47.03672" lon="-1.77788">
        <ele>79</ele>
        <time>2022-07-31T08:09:36Z</time>
      </trkpt>
      <trkpt lat="47.03682" lon="-1.77781">
        <ele>79</ele>
        <time>2022-07-31T08:09:38Z</time>
      </trkpt>
      <trkpt lat="47.03693" lon="-1.77772">
        <ele>79</ele>
        <time>2022-07-31T08:09:40Z</time>
      </trkpt>
      <trkpt lat="47.03704" lon="-1.77764">
        <ele>79</ele>
        <time>2022-07-31T08:09:42Z</time>
      </trkpt>
      <trkpt lat="47.03715" lon="-1.77757">
        <ele>78</ele>
        <time>2022-07-31T08:09:44Z</time>
      </trkpt>
      <trkpt lat="47.03726" lon="-1.77751">
        <ele>78</ele>
        <time>2022-07-31T08:09:46Z</time>
      </trkpt>
      <trkpt lat="47.03736" lon="-1.77743">
        <ele>78</ele>
        <time>2022-07-31T08:09:48Z</time>
      </trkpt>
      <trkpt lat="47.03747" lon="-1.77736">
        <ele>78</ele>
        <time>2022-07-31T08:09:50Z</time>
      </trkpt>
      <trkpt lat="47.03758" lon="-1.77728">
        <ele>78</ele>
        <time>2022-07-31T08:09:52Z</time>
      </trkpt>
      <trkpt lat="47.03769" lon="-1.7772">
        <ele>79</ele>
        <time>2022-07-31T08:09:54Z</time>
      </trkpt>
      <trkpt lat="47.0378" lon="-1.77713">
        <ele>79</ele>
        <time>2022-07-31T08:09:56Z</time>
      </trkpt>
      <trkpt lat="47.03791" lon="-1.77705">
        <ele>79</ele>
        <time>2022-07-31T08:09:58Z</time>
      </trkpt>
      <trkpt lat="47.03801" lon="-1.77697">
        <ele>80</ele>
        <time>2022-07-31T08:10:00Z</time>
      </trkpt>
      <trkpt lat="47.03812" lon="-1.7769">
        <ele>80</ele>
        <time>2022-07-31T08:10:02Z</time>
      </trkpt>
      <trkpt lat="47.03823" lon="-1.77681">
        <ele>80</ele>
        <time>2022-07-31T08:10:04Z</time>
      </trkpt>
      <trkpt lat="47.03835" lon="-1.77673">
        <ele>81</ele>
        <time>2022-07-31T08:10:06Z</time>
      </trkpt>
      <trkpt lat="47.03846" lon="-1.77665">
        <ele>81</ele>
        <time>2022-07-31T08:10:08Z</time>
      </trkpt>
      <trkpt lat="47.03857" lon="-1.77658">
        <ele>81</ele>
        <time>2022-07-31T08:10:10Z</time>
      </trkpt>
      <trkpt lat="47.03868" lon="-1.7765">
        <ele>81</ele>
        <time>2022-07-31T08:10:12Z</time>
      </trkpt>
      <trkpt lat="47.03879" lon="-1.77642">
        <ele>81</ele>
        <time>2022-07-31T08:10:14Z</time>
      </trkpt>
      <trkpt lat="47.0389" lon="-1.77634">
        <ele>81</ele>
        <time>2022-07-31T08:10:16Z</time>
      </trkpt>
      <trkpt lat="47.03902" lon="-1.77626">
        <ele>81</ele>
        <time>2022-07-31T08:10:18Z</time>
      </trkpt>
      <trkpt lat="47.03913" lon="-1.77618">
        <ele>81</ele>
        <time>2022-07-31T08:10:20Z</time>
      </trkpt>
      <trkpt lat="47.03924" lon="-1.77611">
        <ele>81</ele>
        <time>2022-07-31T08:10:22Z</time>
      </trkpt>
      <trkpt lat="47.03936" lon="-1.77603">
        <ele>81</ele>
        <time>2022-07-31T08:10:24Z</time>
      </trkpt>
      <trkpt lat="47.03947" lon="-1.77595">
        <ele>82</ele>
        <time>2022-07-31T08:10:26Z</time>
      </trkpt>
      <trkpt lat="47.03959" lon="-1.77587">
        <ele>82</ele>
        <time>2022-07-31T08:10:28Z</time>
      </trkpt>
      <trkpt lat="47.0397" lon="-1.7758">
        <ele>82</ele>
        <time>2022-07-31T08:10:30Z</time>
      </trkpt>
      <trkpt lat="47.0398" lon="-1.77572">
        <ele>82</ele>
        <time>2022-07-31T08:10:32Z</time>
      </trkpt>
      <trkpt lat="47.0399" lon="-1.77564">
        <ele>82</ele>
        <time>2022-07-31T08:10:34Z</time>
      </trkpt>
      <trkpt lat="47.04001" lon="-1.77557">
        <ele>83</ele>
        <time>2022-07-31T08:10:36Z</time>
      </trkpt>
      <trkpt lat="47.0401" lon="-1.7755">
        <ele>83</ele>
        <time>2022-07-31T08:10:38Z</time>
      </trkpt>
      <trkpt lat="47.04021" lon="-1.77543">
        <ele>83</ele>
        <time>2022-07-31T08:10:40Z</time>
      </trkpt>
      <trkpt lat="47.04031" lon="-1.77536">
        <ele>83</ele>
        <time>2022-07-31T08:10:42Z</time>
      </trkpt>
      <trkpt lat="47.04041" lon="-1.7753">
        <ele>83</ele>
        <time>2022-07-31T08:10:44Z</time>
      </trkpt>
      <trkpt lat="47.04051" lon="-1.77523">
        <ele>83</ele>
        <time>2022-07-31T08:10:46Z</time>
      </trkpt>
      <trkpt lat="47.0406" lon="-1.77516">
        <ele>84</ele>
        <time>2022-07-31T08:10:48Z</time>
      </trkpt>
      <trkpt lat="47.0407" lon="-1.77508">
        <ele>84</ele>
        <time>2022-07-31T08:10:50Z</time>
      </trkpt>
      <trkpt lat="47.0408" lon="-1.77502">
        <ele>84</ele>
        <time>2022-07-31T08:10:52Z</time>
      </trkpt>
      <trkpt lat="47.0409" lon="-1.77495">
        <ele>85</ele>
        <time>2022-07-31T08:10:54Z</time>
      </trkpt>
      <trkpt lat="47.04101" lon="-1.77487">
        <ele>85</ele>
        <time>2022-07-31T08:10:56Z</time>
      </trkpt>
      <trkpt lat="47.04111" lon="-1.7748">
        <ele>85</ele>
        <time>2022-07-31T08:10:58Z</time>
      </trkpt>
      <trkpt lat="47.04121" lon="-1.77473">
        <ele>85</ele>
        <time>2022-07-31T08:11:00Z</time>
      </trkpt>
      <trkpt lat="47.04132" lon="-1.77466">
        <ele>85</ele>
        <time>2022-07-31T08:11:02Z</time>
      </trkpt>
      <trkpt lat="47.04142" lon="-1.77459">
        <ele>86</ele>
        <time>2022-07-31T08:11:04Z</time>
      </trkpt>
      <trkpt lat="47.04152" lon="-1.77452">
        <ele>86</ele>
        <time>2022-07-31T08:11:06Z</time>
      </trkpt>
      <trkpt lat="47.04162" lon="-1.77444">
        <ele>85</ele>
        <time>2022-07-31T08:11:08Z</time>
      </trkpt>
      <trkpt lat="47.04173" lon="-1.77437">
        <ele>85</ele>
        <time>2022-07-31T08:11:10Z</time>
      </trkpt>
      <trkpt lat="47.04183" lon="-1.7743">
        <ele>85</ele>
        <time>2022-07-31T08:11:12Z</time>
      </trkpt>
      <trkpt lat="47.04194" lon="-1.77423">
        <ele>86</ele>
        <time>2022-07-31T08:11:14Z</time>
      </trkpt>
      <trkpt lat="47.04205" lon="-1.77415">
        <ele>86</ele>
        <time>2022-07-31T08:11:16Z</time>
      </trkpt>
      <trkpt lat="47.04215" lon="-1.77407">
        <ele>87</ele>
        <time>2022-07-31T08:11:18Z</time>
      </trkpt>
      <trkpt lat="47.04227" lon="-1.77398">
        <ele>87</ele>
        <time>2022-07-31T08:11:20Z</time>
      </trkpt>
      <trkpt lat="47.04238" lon="-1.77391">
        <ele>88</ele>
        <time>2022-07-31T08:11:22Z</time>
      </trkpt>
      <trkpt lat="47.0425" lon="-1.77383">
        <ele>88</ele>
        <time>2022-07-31T08:11:24Z</time>
      </trkpt>
      <trkpt lat="47.04261" lon="-1.77375">
        <ele>88</ele>
        <time>2022-07-31T08:11:26Z</time>
      </trkpt>
      <trkpt lat="47.04272" lon="-1.77367">
        <ele>89</ele>
        <time>2022-07-31T08:11:28Z</time>
      </trkpt>
      <trkpt lat="47.04284" lon="-1.7736">
        <ele>89</ele>
        <time>2022-07-31T08:11:30Z</time>
      </trkpt>
      <trkpt lat="47.04296" lon="-1.77351">
        <ele>89</ele>
        <time>2022-07-31T08:11:32Z</time>
      </trkpt>
      <trkpt lat="47.04308" lon="-1.77342">
        <ele>89</ele>
        <time>2022-07-31T08:11:34Z</time>
      </trkpt>
      <trkpt lat="47.0432" lon="-1.77334">
        <ele>88</ele>
        <time>2022-07-31T08:11:36Z</time>
      </trkpt>
      <trkpt lat="47.04332" lon="-1.77325">
        <ele>88</ele>
        <time>2022-07-31T08:11:38Z</time>
      </trkpt>
      <trkpt lat="47.04344" lon="-1.77317">
        <ele>88</ele>
        <time>2022-07-31T08:11:40Z</time>
      </trkpt>
      <trkpt lat="47.04356" lon="-1.77308">
        <ele>88</ele>
        <time>2022-07-31T08:11:42Z</time>
      </trkpt>
      <trkpt lat="47.04368" lon="-1.773">
        <ele>88</ele>
        <time>2022-07-31T08:11:44Z</time>
      </trkpt>
      <trkpt lat="47.0438" lon="-1.77291">
        <ele>88</ele>
        <time>2022-07-31T08:11:46Z</time>
      </trkpt>
      <trkpt lat="47.04391" lon="-1.77283">
        <ele>88</ele>
        <time>2022-07-31T08:11:48Z</time>
      </trkpt>
      <trkpt lat="47.04403" lon="-1.77275">
        <ele>88</ele>
        <time>2022-07-31T08:11:50Z</time>
      </trkpt>
      <trkpt lat="47.04415" lon="-1.77267">
        <ele>87</ele>
        <time>2022-07-31T08:11:52Z</time>
      </trkpt>
      <trkpt lat="47.04426" lon="-1.77259">
        <ele>87</ele>
        <time>2022-07-31T08:11:54Z</time>
      </trkpt>
      <trkpt lat="47.04438" lon="-1.7725">
        <ele>86</ele>
        <time>2022-07-31T08:11:56Z</time>
      </trkpt>
      <trkpt lat="47.0445" lon="-1.77242">
        <ele>86</ele>
        <time>2022-07-31T08:11:58Z</time>
      </trkpt>
      <trkpt lat="47.04461" lon="-1.77234">
        <ele>85</ele>
        <time>2022-07-31T08:12:00Z</time>
      </trkpt>
      <trkpt lat="47.04472" lon="-1.77227">
        <ele>85</ele>
        <time>2022-07-31T08:12:02Z</time>
      </trkpt>
      <trkpt lat="47.04484" lon="-1.77218">
        <ele>86</ele>
        <time>2022-07-31T08:12:04Z</time>
      </trkpt>
      <trkpt lat="47.04495" lon="-1.7721">
        <ele>85</ele>
        <time>2022-07-31T08:12:06Z</time>
      </trkpt>
      <trkpt lat="47.04507" lon="-1.77202">
        <ele>85</ele>
        <time>2022-07-31T08:12:08Z</time>
      </trkpt>
      <trkpt lat="47.04519" lon="-1.77194">
        <ele>85</ele>
        <time>2022-07-31T08:12:10Z</time>
      </trkpt>
      <trkpt lat="47.0453" lon="-1.77186">
        <ele>85</ele>
        <time>2022-07-31T08:12:12Z</time>
      </trkpt>
      <trkpt lat="47.04542" lon="-1.77178">
        <ele>84</ele>
        <time>2022-07-31T08:12:14Z</time>
      </trkpt>
      <trkpt lat="47.04555" lon="-1.7717">
        <ele>83</ele>
        <time>2022-07-31T08:12:16Z</time>
      </trkpt>
      <trkpt lat="47.04567" lon="-1.77163">
        <ele>83</ele>
        <time>2022-07-31T08:12:18Z</time>
      </trkpt>
      <trkpt lat="47.04579" lon="-1.77157">
        <ele>83</ele>
        <time>2022-07-31T08:12:20Z</time>
      </trkpt>
      <trkpt lat="47.04591" lon="-1.7715">
        <ele>83</ele>
        <time>2022-07-31T08:12:22Z</time>
      </trkpt>
      <trkpt lat="47.04604" lon="-1.77144">
        <ele>84</ele>
        <time>2022-07-31T08:12:24Z</time>
      </trkpt>
      <trkpt lat="47.04616" lon="-1.77138">
        <ele>84</ele>
        <time>2022-07-31T08:12:26Z</time>
      </trkpt>
      <trkpt lat="47.04627" lon="-1.77132">
        <ele>84</ele>
        <time>2022-07-31T08:12:28Z</time>
      </trkpt>
      <trkpt lat="47.04639" lon="-1.77126">
        <ele>85</ele>
        <time>2022-07-31T08:12:30Z</time>
      </trkpt>
      <trkpt lat="47.04652" lon="-1.7712">
        <ele>85</ele>
        <time>2022-07-31T08:12:32Z</time>
      </trkpt>
      <trkpt lat="47.04665" lon="-1.77113">
        <ele>85</ele>
        <time>2022-07-31T08:12:34Z</time>
      </trkpt>
      <trkpt lat="47.04678" lon="-1.77107">
        <ele>84</ele>
        <time>2022-07-31T08:12:36Z</time>
      </trkpt>
      <trkpt lat="47.04691" lon="-1.77101">
        <ele>84</ele>
        <time>2022-07-31T08:12:38Z</time>
      </trkpt>
      <trkpt lat="47.04704" lon="-1.77095">
        <ele>83</ele>
        <time>2022-07-31T08:12:40Z</time>
      </trkpt>
      <trkpt lat="47.04716" lon="-1.77089">
        <ele>83</ele>
        <time>2022-07-31T08:12:42Z</time>
      </trkpt>
      <trkpt lat="47.04729" lon="-1.77083">
        <ele>83</ele>
        <time>2022-07-31T08:12:44Z</time>
      </trkpt>
      <trkpt lat="47.04742" lon="-1.77078">
        <ele>82</ele>
        <time>2022-07-31T08:12:46Z</time>
      </trkpt>
      <trkpt lat="47.04755" lon="-1.77072">
        <ele>82</ele>
        <time>2022-07-31T08:12:48Z</time>
      </trkpt>
      <trkpt lat="47.04768" lon="-1.77067">
        <ele>83</ele>
        <time>2022-07-31T08:12:50Z</time>
      </trkpt>
      <trkpt lat="47.0478" lon="-1.77061">
        <ele>83</ele>
        <time>2022-07-31T08:12:52Z</time>
      </trkpt>
      <trkpt lat="47.04793" lon="-1.77053">
        <ele>83</ele>
        <time>2022-07-31T08:12:54Z</time>
      </trkpt>
      <trkpt lat="47.04807" lon="-1.77047">
        <ele>83</ele>
        <time>2022-07-31T08:12:56Z</time>
      </trkpt>
      <trkpt lat="47.04819" lon="-1.77041">
        <ele>83</ele>
        <time>2022-07-31T08:12:58Z</time>
      </trkpt>
      <trkpt lat="47.04832" lon="-1.77035">
        <ele>83</ele>
        <time>2022-07-31T08:13:00Z</time>
      </trkpt>
      <trkpt lat="47.04845" lon="-1.77029">
        <ele>82</ele>
        <time>2022-07-31T08:13:02Z</time>
      </trkpt>
      <trkpt lat="47.04857" lon="-1.77024">
        <ele>83</ele>
        <time>2022-07-31T08:13:04Z</time>
      </trkpt>
      <trkpt lat="47.04869" lon="-1.77018">
        <ele>83</ele>
        <time>2022-07-31T08:13:06Z</time>
      </trkpt>
      <trkpt lat="47.04882" lon="-1.77011">
        <ele>83</ele>
        <time>2022-07-31T08:13:08Z</time>
      </trkpt>
      <trkpt lat="47.04895" lon="-1.77005">
        <ele>82</ele>
        <time>2022-07-31T08:13:10Z</time>
      </trkpt>
      <trkpt lat="47.04907" lon="-1.76999">
        <ele>82</ele>
        <time>2022-07-31T08:13:12Z</time>
      </trkpt>
      <trkpt lat="47.04919" lon="-1.76993">
        <ele>82</ele>
        <time>2022-07-31T08:13:14Z</time>
      </trkpt>
      <trkpt lat="47.04932" lon="-1.76986">
        <ele>81</ele>
        <time>2022-07-31T08:13:16Z</time>
      </trkpt>
      <trkpt lat="47.04944" lon="-1.76981">
        <ele>81</ele>
        <time>2022-07-31T08:13:18Z</time>
      </trkpt>
      <trkpt lat="47.04957" lon="-1.76974">
        <ele>80</ele>
        <time>2022-07-31T08:13:20Z</time>
      </trkpt>
      <trkpt lat="47.04971" lon="-1.76967">
        <ele>80</ele>
        <time>2022-07-31T08:13:22Z</time>
      </trkpt>
      <trkpt lat="47.04984" lon="-1.76961">
        <ele>81</ele>
        <time>2022-07-31T08:13:24Z</time>
      </trkpt>
      <trkpt lat="47.05003" lon="-1.76951">
        <ele>80</ele>
        <time>2022-07-31T08:13:27Z</time>
      </trkpt>
      <trkpt lat="47.05016" lon="-1.76944">
        <ele>80</ele>
        <time>2022-07-31T08:13:29Z</time>
      </trkpt>
      <trkpt lat="47.05029" lon="-1.76939">
        <ele>80</ele>
        <time>2022-07-31T08:13:31Z</time>
      </trkpt>
      <trkpt lat="47.05041" lon="-1.76932">
        <ele>80</ele>
        <time>2022-07-31T08:13:33Z</time>
      </trkpt>
      <trkpt lat="47.05059" lon="-1.76924">
        <ele>80</ele>
        <time>2022-07-31T08:13:36Z</time>
      </trkpt>
      <trkpt lat="47.05077" lon="-1.76916">
        <ele>81</ele>
        <time>2022-07-31T08:13:39Z</time>
      </trkpt>
      <trkpt lat="47.05089" lon="-1.7691">
        <ele>81</ele>
        <time>2022-07-31T08:13:41Z</time>
      </trkpt>
      <trkpt lat="47.05101" lon="-1.76904">
        <ele>81</ele>
        <time>2022-07-31T08:13:43Z</time>
      </trkpt>
      <trkpt lat="47.05113" lon="-1.76898">
        <ele>81</ele>
        <time>2022-07-31T08:13:45Z</time>
      </trkpt>
      <trkpt lat="47.05125" lon="-1.76892">
        <ele>81</ele>
        <time>2022-07-31T08:13:47Z</time>
      </trkpt>
      <trkpt lat="47.05137" lon="-1.76886">
        <ele>81</ele>
        <time>2022-07-31T08:13:49Z</time>
      </trkpt>
      <trkpt lat="47.05149" lon="-1.76881">
        <ele>81</ele>
        <time>2022-07-31T08:13:51Z</time>
      </trkpt>
      <trkpt lat="47.05161" lon="-1.76875">
        <ele>81</ele>
        <time>2022-07-31T08:13:53Z</time>
      </trkpt>
      <trkpt lat="47.05173" lon="-1.76869">
        <ele>81</ele>
        <time>2022-07-31T08:13:55Z</time>
      </trkpt>
      <trkpt lat="47.05185" lon="-1.76864">
        <ele>81</ele>
        <time>2022-07-31T08:13:57Z</time>
      </trkpt>
      <trkpt lat="47.05197" lon="-1.76859">
        <ele>81</ele>
        <time>2022-07-31T08:13:59Z</time>
      </trkpt>
      <trkpt lat="47.05208" lon="-1.76853">
        <ele>81</ele>
        <time>2022-07-31T08:14:01Z</time>
      </trkpt>
      <trkpt lat="47.0522" lon="-1.76847">
        <ele>81</ele>
        <time>2022-07-31T08:14:03Z</time>
      </trkpt>
      <trkpt lat="47.05232" lon="-1.76842">
        <ele>81</ele>
        <time>2022-07-31T08:14:05Z</time>
      </trkpt>
      <trkpt lat="47.05244" lon="-1.76837">
        <ele>81</ele>
        <time>2022-07-31T08:14:07Z</time>
      </trkpt>
      <trkpt lat="47.05256" lon="-1.76832">
        <ele>81</ele>
        <time>2022-07-31T08:14:09Z</time>
      </trkpt>
      <trkpt lat="47.05268" lon="-1.76826">
        <ele>81</ele>
        <time>2022-07-31T08:14:11Z</time>
      </trkpt>
      <trkpt lat="47.05281" lon="-1.76822">
        <ele>80</ele>
        <time>2022-07-31T08:14:13Z</time>
      </trkpt>
      <trkpt lat="47.05292" lon="-1.76815">
        <ele>79</ele>
        <time>2022-07-31T08:14:15Z</time>
      </trkpt>
      <trkpt lat="47.05304" lon="-1.76808">
        <ele>78</ele>
        <time>2022-07-31T08:14:17Z</time>
      </trkpt>
      <trkpt lat="47.05317" lon="-1.76802">
        <ele>77</ele>
        <time>2022-07-31T08:14:19Z</time>
      </trkpt>
      <trkpt lat="47.05328" lon="-1.76796">
        <ele>78</ele>
        <time>2022-07-31T08:14:21Z</time>
      </trkpt>
      <trkpt lat="47.0534" lon="-1.7679">
        <ele>77</ele>
        <time>2022-07-31T08:14:23Z</time>
      </trkpt>
      <trkpt lat="47.05352" lon="-1.76784">
        <ele>77</ele>
        <time>2022-07-31T08:14:25Z</time>
      </trkpt>
      <trkpt lat="47.05364" lon="-1.76777">
        <ele>77</ele>
        <time>2022-07-31T08:14:27Z</time>
      </trkpt>
      <trkpt lat="47.05376" lon="-1.76773">
        <ele>77</ele>
        <time>2022-07-31T08:14:29Z</time>
      </trkpt>
      <trkpt lat="47.05388" lon="-1.76768">
        <ele>77</ele>
        <time>2022-07-31T08:14:31Z</time>
      </trkpt>
      <trkpt lat="47.054" lon="-1.76762">
        <ele>76</ele>
        <time>2022-07-31T08:14:33Z</time>
      </trkpt>
      <trkpt lat="47.05412" lon="-1.76756">
        <ele>76</ele>
        <time>2022-07-31T08:14:35Z</time>
      </trkpt>
      <trkpt lat="47.05425" lon="-1.7675">
        <ele>75</ele>
        <time>2022-07-31T08:14:37Z</time>
      </trkpt>
      <trkpt lat="47.05437" lon="-1.76745">
        <ele>75</ele>
        <time>2022-07-31T08:14:39Z</time>
      </trkpt>
      <trkpt lat="47.0545" lon="-1.76738">
        <ele>75</ele>
        <time>2022-07-31T08:14:41Z</time>
      </trkpt>
      <trkpt lat="47.05462" lon="-1.76733">
        <ele>75</ele>
        <time>2022-07-31T08:14:43Z</time>
      </trkpt>
      <trkpt lat="47.05474" lon="-1.76728">
        <ele>76</ele>
        <time>2022-07-31T08:14:45Z</time>
      </trkpt>
      <trkpt lat="47.05486" lon="-1.76722">
        <ele>76</ele>
        <time>2022-07-31T08:14:47Z</time>
      </trkpt>
      <trkpt lat="47.05499" lon="-1.76717">
        <ele>76</ele>
        <time>2022-07-31T08:14:49Z</time>
      </trkpt>
      <trkpt lat="47.0551" lon="-1.76711">
        <ele>76</ele>
        <time>2022-07-31T08:14:51Z</time>
      </trkpt>
      <trkpt lat="47.05522" lon="-1.76705">
        <ele>77</ele>
        <time>2022-07-31T08:14:53Z</time>
      </trkpt>
      <trkpt lat="47.05535" lon="-1.76699">
        <ele>78</ele>
        <time>2022-07-31T08:14:55Z</time>
      </trkpt>
      <trkpt lat="47.05547" lon="-1.76693">
        <ele>78</ele>
        <time>2022-07-31T08:14:57Z</time>
      </trkpt>
      <trkpt lat="47.05559" lon="-1.76686">
        <ele>79</ele>
        <time>2022-07-31T08:14:59Z</time>
      </trkpt>
      <trkpt lat="47.05572" lon="-1.76679">
        <ele>79</ele>
        <time>2022-07-31T08:15:01Z</time>
      </trkpt>
      <trkpt lat="47.05585" lon="-1.76672">
        <ele>78</ele>
        <time>2022-07-31T08:15:03Z</time>
      </trkpt>
      <trkpt lat="47.05598" lon="-1.76666">
        <ele>78</ele>
        <time>2022-07-31T08:15:05Z</time>
      </trkpt>
      <trkpt lat="47.0561" lon="-1.76661">
        <ele>78</ele>
        <time>2022-07-31T08:15:07Z</time>
      </trkpt>
      <trkpt lat="47.05622" lon="-1.76656">
        <ele>78</ele>
        <time>2022-07-31T08:15:09Z</time>
      </trkpt>
      <trkpt lat="47.05633" lon="-1.7665">
        <ele>78</ele>
        <time>2022-07-31T08:15:11Z</time>
      </trkpt>
      <trkpt lat="47.05645" lon="-1.76645">
        <ele>79</ele>
        <time>2022-07-31T08:15:13Z</time>
      </trkpt>
      <trkpt lat="47.05657" lon="-1.76639">
        <ele>79</ele>
        <time>2022-07-31T08:15:15Z</time>
      </trkpt>
      <trkpt lat="47.0567" lon="-1.76634">
        <ele>79</ele>
        <time>2022-07-31T08:15:17Z</time>
      </trkpt>
      <trkpt lat="47.05681" lon="-1.76628">
        <ele>79</ele>
        <time>2022-07-31T08:15:19Z</time>
      </trkpt>
      <trkpt lat="47.05693" lon="-1.76622">
        <ele>79</ele>
        <time>2022-07-31T08:15:21Z</time>
      </trkpt>
      <trkpt lat="47.05705" lon="-1.76615">
        <ele>79</ele>
        <time>2022-07-31T08:15:23Z</time>
      </trkpt>
      <trkpt lat="47.05717" lon="-1.7661">
        <ele>79</ele>
        <time>2022-07-31T08:15:25Z</time>
      </trkpt>
      <trkpt lat="47.05729" lon="-1.76604">
        <ele>80</ele>
        <time>2022-07-31T08:15:27Z</time>
      </trkpt>
      <trkpt lat="47.05741" lon="-1.76597">
        <ele>80</ele>
        <time>2022-07-31T08:15:29Z</time>
      </trkpt>
      <trkpt lat="47.05753" lon="-1.76592">
        <ele>79</ele>
        <time>2022-07-31T08:15:31Z</time>
      </trkpt>
      <trkpt lat="47.05765" lon="-1.76586">
        <ele>79</ele>
        <time>2022-07-31T08:15:33Z</time>
      </trkpt>
      <trkpt lat="47.05777" lon="-1.76581">
        <ele>78</ele>
        <time>2022-07-31T08:15:35Z</time>
      </trkpt>
      <trkpt lat="47.05789" lon="-1.76576">
        <ele>78</ele>
        <time>2022-07-31T08:15:37Z</time>
      </trkpt>
      <trkpt lat="47.05801" lon="-1.7657">
        <ele>78</ele>
        <time>2022-07-31T08:15:39Z</time>
      </trkpt>
      <trkpt lat="47.05813" lon="-1.76565">
        <ele>77</ele>
        <time>2022-07-31T08:15:41Z</time>
      </trkpt>
      <trkpt lat="47.05825" lon="-1.76559">
        <ele>77</ele>
        <time>2022-07-31T08:15:43Z</time>
      </trkpt>
      <trkpt lat="47.05836" lon="-1.76554">
        <ele>77</ele>
        <time>2022-07-31T08:15:45Z</time>
      </trkpt>
      <trkpt lat="47.05848" lon="-1.76549">
        <ele>78</ele>
        <time>2022-07-31T08:15:47Z</time>
      </trkpt>
      <trkpt lat="47.05859" lon="-1.76543">
        <ele>78</ele>
        <time>2022-07-31T08:15:49Z</time>
      </trkpt>
      <trkpt lat="47.05871" lon="-1.76538">
        <ele>78</ele>
        <time>2022-07-31T08:15:51Z</time>
      </trkpt>
      <trkpt lat="47.05882" lon="-1.76532">
        <ele>78</ele>
        <time>2022-07-31T08:15:53Z</time>
      </trkpt>
      <trkpt lat="47.05894" lon="-1.76526">
        <ele>79</ele>
        <time>2022-07-31T08:15:55Z</time>
      </trkpt>
      <trkpt lat="47.05906" lon="-1.7652">
        <ele>79</ele>
        <time>2022-07-31T08:15:57Z</time>
      </trkpt>
      <trkpt lat="47.05918" lon="-1.76514">
        <ele>79</ele>
        <time>2022-07-31T08:15:59Z</time>
      </trkpt>
      <trkpt lat="47.0593" lon="-1.76509">
        <ele>79</ele>
        <time>2022-07-31T08:16:01Z</time>
      </trkpt>
      <trkpt lat="47.05942" lon="-1.76503">
        <ele>80</ele>
        <time>2022-07-31T08:16:03Z</time>
      </trkpt>
      <trkpt lat="47.05954" lon="-1.76498">
        <ele>80</ele>
        <time>2022-07-31T08:16:05Z</time>
      </trkpt>
      <trkpt lat="47.05965" lon="-1.76491">
        <ele>80</ele>
        <time>2022-07-31T08:16:07Z</time>
      </trkpt>
      <trkpt lat="47.05976" lon="-1.76487">
        <ele>80</ele>
        <time>2022-07-31T08:16:09Z</time>
      </trkpt>
      <trkpt lat="47.05987" lon="-1.76482">
        <ele>80</ele>
        <time>2022-07-31T08:16:11Z</time>
      </trkpt>
      <trkpt lat="47.05999" lon="-1.76476">
        <ele>81</ele>
        <time>2022-07-31T08:16:13Z</time>
      </trkpt>
      <trkpt lat="47.06011" lon="-1.7647">
        <ele>81</ele>
        <time>2022-07-31T08:16:15Z</time>
      </trkpt>
      <trkpt lat="47.06023" lon="-1.76464">
        <ele>81</ele>
        <time>2022-07-31T08:16:17Z</time>
      </trkpt>
      <trkpt lat="47.06035" lon="-1.76458">
        <ele>81</ele>
        <time>2022-07-31T08:16:19Z</time>
      </trkpt>
      <trkpt lat="47.06046" lon="-1.76454">
        <ele>81</ele>
        <time>2022-07-31T08:16:21Z</time>
      </trkpt>
      <trkpt lat="47.06057" lon="-1.76448">
        <ele>82</ele>
        <time>2022-07-31T08:16:23Z</time>
      </trkpt>
      <trkpt lat="47.06068" lon="-1.76443">
        <ele>82</ele>
        <time>2022-07-31T08:16:25Z</time>
      </trkpt>
      <trkpt lat="47.06079" lon="-1.76438">
        <ele>82</ele>
        <time>2022-07-31T08:16:27Z</time>
      </trkpt>
      <trkpt lat="47.06089" lon="-1.76432">
        <ele>83</ele>
        <time>2022-07-31T08:16:29Z</time>
      </trkpt>
      <trkpt lat="47.061" lon="-1.76427">
        <ele>83</ele>
        <time>2022-07-31T08:16:31Z</time>
      </trkpt>
      <trkpt lat="47.06111" lon="-1.76421">
        <ele>83</ele>
        <time>2022-07-31T08:16:33Z</time>
      </trkpt>
      <trkpt lat="47.06123" lon="-1.76417">
        <ele>82</ele>
        <time>2022-07-31T08:16:35Z</time>
      </trkpt>
      <trkpt lat="47.06134" lon="-1.76412">
        <ele>82</ele>
        <time>2022-07-31T08:16:37Z</time>
      </trkpt>
      <trkpt lat="47.06144" lon="-1.76407">
        <ele>82</ele>
        <time>2022-07-31T08:16:39Z</time>
      </trkpt>
      <trkpt lat="47.06154" lon="-1.76402">
        <ele>82</ele>
        <time>2022-07-31T08:16:41Z</time>
      </trkpt>
      <trkpt lat="47.06164" lon="-1.76397">
        <ele>83</ele>
        <time>2022-07-31T08:16:43Z</time>
      </trkpt>
      <trkpt lat="47.06174" lon="-1.76392">
        <ele>83</ele>
        <time>2022-07-31T08:16:45Z</time>
      </trkpt>
      <trkpt lat="47.06184" lon="-1.76387">
        <ele>83</ele>
        <time>2022-07-31T08:16:47Z</time>
      </trkpt>
      <trkpt lat="47.06194" lon="-1.76382">
        <ele>83</ele>
        <time>2022-07-31T08:16:49Z</time>
      </trkpt>
      <trkpt lat="47.06204" lon="-1.76377">
        <ele>83</ele>
        <time>2022-07-31T08:16:51Z</time>
      </trkpt>
      <trkpt lat="47.06215" lon="-1.76372">
        <ele>83</ele>
        <time>2022-07-31T08:16:53Z</time>
      </trkpt>
      <trkpt lat="47.06225" lon="-1.76366">
        <ele>83</ele>
        <time>2022-07-31T08:16:55Z</time>
      </trkpt>
      <trkpt lat="47.06236" lon="-1.7636">
        <ele>83</ele>
        <time>2022-07-31T08:16:57Z</time>
      </trkpt>
      <trkpt lat="47.06246" lon="-1.76355">
        <ele>84</ele>
        <time>2022-07-31T08:16:59Z</time>
      </trkpt>
      <trkpt lat="47.06257" lon="-1.76349">
        <ele>84</ele>
        <time>2022-07-31T08:17:01Z</time>
      </trkpt>
      <trkpt lat="47.06267" lon="-1.76344">
        <ele>84</ele>
        <time>2022-07-31T08:17:03Z</time>
      </trkpt>
      <trkpt lat="47.06277" lon="-1.7634">
        <ele>84</ele>
        <time>2022-07-31T08:17:05Z</time>
      </trkpt>
      <trkpt lat="47.06288" lon="-1.76335">
        <ele>84</ele>
        <time>2022-07-31T08:17:07Z</time>
      </trkpt>
      <trkpt lat="47.06298" lon="-1.7633">
        <ele>85</ele>
        <time>2022-07-31T08:17:09Z</time>
      </trkpt>
      <trkpt lat="47.06309" lon="-1.76325">
        <ele>84</ele>
        <time>2022-07-31T08:17:11Z</time>
      </trkpt>
      <trkpt lat="47.06319" lon="-1.7632">
        <ele>85</ele>
        <time>2022-07-31T08:17:13Z</time>
      </trkpt>
      <trkpt lat="47.06329" lon="-1.76315">
        <ele>85</ele>
        <time>2022-07-31T08:17:15Z</time>
      </trkpt>
      <trkpt lat="47.0634" lon="-1.7631">
        <ele>85</ele>
        <time>2022-07-31T08:17:17Z</time>
      </trkpt>
      <trkpt lat="47.0635" lon="-1.76306">
        <ele>85</ele>
        <time>2022-07-31T08:17:19Z</time>
      </trkpt>
      <trkpt lat="47.0636" lon="-1.76302">
        <ele>85</ele>
        <time>2022-07-31T08:17:21Z</time>
      </trkpt>
      <trkpt lat="47.0637" lon="-1.76298">
        <ele>86</ele>
        <time>2022-07-31T08:17:23Z</time>
      </trkpt>
      <trkpt lat="47.0638" lon="-1.76293">
        <ele>86</ele>
        <time>2022-07-31T08:17:25Z</time>
      </trkpt>
      <trkpt lat="47.0639" lon="-1.76289">
        <ele>87</ele>
        <time>2022-07-31T08:17:27Z</time>
      </trkpt>
      <trkpt lat="47.064" lon="-1.76284">
        <ele>87</ele>
        <time>2022-07-31T08:17:29Z</time>
      </trkpt>
      <trkpt lat="47.06409" lon="-1.76279">
        <ele>86</ele>
        <time>2022-07-31T08:17:31Z</time>
      </trkpt>
      <trkpt lat="47.06419" lon="-1.76275">
        <ele>87</ele>
        <time>2022-07-31T08:17:33Z</time>
      </trkpt>
      <trkpt lat="47.0643" lon="-1.7627">
        <ele>87</ele>
        <time>2022-07-31T08:17:35Z</time>
      </trkpt>
      <trkpt lat="47.06439" lon="-1.76265">
        <ele>86</ele>
        <time>2022-07-31T08:17:37Z</time>
      </trkpt>
      <trkpt lat="47.06449" lon="-1.7626">
        <ele>87</ele>
        <time>2022-07-31T08:17:39Z</time>
      </trkpt>
      <trkpt lat="47.06458" lon="-1.76255">
        <ele>87</ele>
        <time>2022-07-31T08:17:41Z</time>
      </trkpt>
      <trkpt lat="47.06468" lon="-1.76251">
        <ele>88</ele>
        <time>2022-07-31T08:17:43Z</time>
      </trkpt>
      <trkpt lat="47.06478" lon="-1.76246">
        <ele>88</ele>
        <time>2022-07-31T08:17:45Z</time>
      </trkpt>
      <trkpt lat="47.06488" lon="-1.76241">
        <ele>88</ele>
        <time>2022-07-31T08:17:47Z</time>
      </trkpt>
      <trkpt lat="47.06497" lon="-1.76237">
        <ele>88</ele>
        <time>2022-07-31T08:17:49Z</time>
      </trkpt>
      <trkpt lat="47.06507" lon="-1.76232">
        <ele>88</ele>
        <time>2022-07-31T08:17:51Z</time>
      </trkpt>
      <trkpt lat="47.06517" lon="-1.76227">
        <ele>89</ele>
        <time>2022-07-31T08:17:53Z</time>
      </trkpt>
      <trkpt lat="47.06527" lon="-1.76223">
        <ele>89</ele>
        <time>2022-07-31T08:17:55Z</time>
      </trkpt>
      <trkpt lat="47.06538" lon="-1.76218">
        <ele>89</ele>
        <time>2022-07-31T08:17:57Z</time>
      </trkpt>
      <trkpt lat="47.06547" lon="-1.76213">
        <ele>90</ele>
        <time>2022-07-31T08:17:59Z</time>
      </trkpt>
      <trkpt lat="47.06558" lon="-1.76208">
        <ele>89</ele>
        <time>2022-07-31T08:18:01Z</time>
      </trkpt>
      <trkpt lat="47.06568" lon="-1.76203">
        <ele>90</ele>
        <time>2022-07-31T08:18:03Z</time>
      </trkpt>
      <trkpt lat="47.06578" lon="-1.76199">
        <ele>90</ele>
        <time>2022-07-31T08:18:05Z</time>
      </trkpt>
      <trkpt lat="47.06588" lon="-1.76194">
        <ele>90</ele>
        <time>2022-07-31T08:18:07Z</time>
      </trkpt>
      <trkpt lat="47.06599" lon="-1.7619">
        <ele>89</ele>
        <time>2022-07-31T08:18:09Z</time>
      </trkpt>
      <trkpt lat="47.0661" lon="-1.76185">
        <ele>89</ele>
        <time>2022-07-31T08:18:11Z</time>
      </trkpt>
      <trkpt lat="47.06622" lon="-1.76179">
        <ele>89</ele>
        <time>2022-07-31T08:18:13Z</time>
      </trkpt>
      <trkpt lat="47.06634" lon="-1.76174">
        <ele>88</ele>
        <time>2022-07-31T08:18:15Z</time>
      </trkpt>
      <trkpt lat="47.06646" lon="-1.76169">
        <ele>87</ele>
        <time>2022-07-31T08:18:17Z</time>
      </trkpt>
      <trkpt lat="47.06658" lon="-1.76163">
        <ele>87</ele>
        <time>2022-07-31T08:18:19Z</time>
      </trkpt>
      <trkpt lat="47.06671" lon="-1.76157">
        <ele>86</ele>
        <time>2022-07-31T08:18:21Z</time>
      </trkpt>
      <trkpt lat="47.06684" lon="-1.76151">
        <ele>86</ele>
        <time>2022-07-31T08:18:23Z</time>
      </trkpt>
      <trkpt lat="47.06696" lon="-1.76146">
        <ele>85</ele>
        <time>2022-07-31T08:18:25Z</time>
      </trkpt>
      <trkpt lat="47.06709" lon="-1.76141">
        <ele>84</ele>
        <time>2022-07-31T08:18:27Z</time>
      </trkpt>
      <trkpt lat="47.06722" lon="-1.76134">
        <ele>84</ele>
        <time>2022-07-31T08:18:29Z</time>
      </trkpt>
      <trkpt lat="47.06736" lon="-1.76129">
        <ele>83</ele>
        <time>2022-07-31T08:18:31Z</time>
      </trkpt>
      <trkpt lat="47.0675" lon="-1.76123">
        <ele>82</ele>
        <time>2022-07-31T08:18:33Z</time>
      </trkpt>
      <trkpt lat="47.06764" lon="-1.76117">
        <ele>81</ele>
        <time>2022-07-31T08:18:35Z</time>
      </trkpt>
      <trkpt lat="47.06779" lon="-1.76111">
        <ele>81</ele>
        <time>2022-07-31T08:18:37Z</time>
      </trkpt>
      <trkpt lat="47.06795" lon="-1.76104">
        <ele>80</ele>
        <time>2022-07-31T08:18:39Z</time>
      </trkpt>
      <trkpt lat="47.0681" lon="-1.76097">
        <ele>80</ele>
        <time>2022-07-31T08:18:41Z</time>
      </trkpt>
      <trkpt lat="47.06825" lon="-1.76089">
        <ele>79</ele>
        <time>2022-07-31T08:18:43Z</time>
      </trkpt>
      <trkpt lat="47.06841" lon="-1.76083">
        <ele>79</ele>
        <time>2022-07-31T08:18:45Z</time>
      </trkpt>
      <trkpt lat="47.06856" lon="-1.76076">
        <ele>79</ele>
        <time>2022-07-31T08:18:47Z</time>
      </trkpt>
      <trkpt lat="47.06872" lon="-1.76068">
        <ele>79</ele>
        <time>2022-07-31T08:18:49Z</time>
      </trkpt>
      <trkpt lat="47.06887" lon="-1.7606">
        <ele>79</ele>
        <time>2022-07-31T08:18:51Z</time>
      </trkpt>
      <trkpt lat="47.06901" lon="-1.7605">
        <ele>79</ele>
        <time>2022-07-31T08:18:53Z</time>
      </trkpt>
      <trkpt lat="47.06916" lon="-1.76041">
        <ele>78</ele>
        <time>2022-07-31T08:18:55Z</time>
      </trkpt>
      <trkpt lat="47.0693" lon="-1.76029">
        <ele>78</ele>
        <time>2022-07-31T08:18:57Z</time>
      </trkpt>
      <trkpt lat="47.06944" lon="-1.76017">
        <ele>77</ele>
        <time>2022-07-31T08:18:59Z</time>
      </trkpt>
      <trkpt lat="47.06957" lon="-1.76003">
        <ele>77</ele>
        <time>2022-07-31T08:19:01Z</time>
      </trkpt>
      <trkpt lat="47.0697" lon="-1.75989">
        <ele>76</ele>
        <time>2022-07-31T08:19:03Z</time>
      </trkpt>
      <trkpt lat="47.06982" lon="-1.75975">
        <ele>76</ele>
        <time>2022-07-31T08:19:05Z</time>
      </trkpt>
      <trkpt lat="47.06994" lon="-1.75962">
        <ele>76</ele>
        <time>2022-07-31T08:19:07Z</time>
      </trkpt>
      <trkpt lat="47.07005" lon="-1.75948">
        <ele>76</ele>
        <time>2022-07-31T08:19:09Z</time>
      </trkpt>
      <trkpt lat="47.07016" lon="-1.75934">
        <ele>77</ele>
        <time>2022-07-31T08:19:11Z</time>
      </trkpt>
      <trkpt lat="47.07028" lon="-1.7592">
        <ele>76</ele>
        <time>2022-07-31T08:19:13Z</time>
      </trkpt>
      <trkpt lat="47.0704" lon="-1.75906">
        <ele>77</ele>
        <time>2022-07-31T08:19:15Z</time>
      </trkpt>
      <trkpt lat="47.07051" lon="-1.75892">
        <ele>77</ele>
        <time>2022-07-31T08:19:17Z</time>
      </trkpt>
      <trkpt lat="47.07062" lon="-1.75879">
        <ele>77</ele>
        <time>2022-07-31T08:19:19Z</time>
      </trkpt>
      <trkpt lat="47.07074" lon="-1.75865">
        <ele>78</ele>
        <time>2022-07-31T08:19:21Z</time>
      </trkpt>
      <trkpt lat="47.07085" lon="-1.75852">
        <ele>77</ele>
        <time>2022-07-31T08:19:23Z</time>
      </trkpt>
      <trkpt lat="47.07096" lon="-1.75839">
        <ele>78</ele>
        <time>2022-07-31T08:19:25Z</time>
      </trkpt>
      <trkpt lat="47.07107" lon="-1.75827">
        <ele>78</ele>
        <time>2022-07-31T08:19:27Z</time>
      </trkpt>
      <trkpt lat="47.07118" lon="-1.75814">
        <ele>78</ele>
        <time>2022-07-31T08:19:29Z</time>
      </trkpt>
      <trkpt lat="47.0713" lon="-1.758">
        <ele>78</ele>
        <time>2022-07-31T08:19:31Z</time>
      </trkpt>
      <trkpt lat="47.07141" lon="-1.75787">
        <ele>77</ele>
        <time>2022-07-31T08:19:33Z</time>
      </trkpt>
      <trkpt lat="47.07152" lon="-1.75774">
        <ele>77</ele>
        <time>2022-07-31T08:19:35Z</time>
      </trkpt>
      <trkpt lat="47.07164" lon="-1.7576">
        <ele>76</ele>
        <time>2022-07-31T08:19:37Z</time>
      </trkpt>
      <trkpt lat="47.07175" lon="-1.75748">
        <ele>76</ele>
        <time>2022-07-31T08:19:39Z</time>
      </trkpt>
      <trkpt lat="47.07186" lon="-1.75736">
        <ele>75</ele>
        <time>2022-07-31T08:19:41Z</time>
      </trkpt>
      <trkpt lat="47.07197" lon="-1.75722">
        <ele>75</ele>
        <time>2022-07-31T08:19:43Z</time>
      </trkpt>
      <trkpt lat="47.07208" lon="-1.7571">
        <ele>75</ele>
        <time>2022-07-31T08:19:45Z</time>
      </trkpt>
      <trkpt lat="47.07219" lon="-1.75697">
        <ele>75</ele>
        <time>2022-07-31T08:19:47Z</time>
      </trkpt>
      <trkpt lat="47.0723" lon="-1.75684">
        <ele>74</ele>
        <time>2022-07-31T08:19:49Z</time>
      </trkpt>
      <trkpt lat="47.07241" lon="-1.75671">
        <ele>74</ele>
        <time>2022-07-31T08:19:51Z</time>
      </trkpt>
      <trkpt lat="47.07252" lon="-1.75659">
        <ele>74</ele>
        <time>2022-07-31T08:19:53Z</time>
      </trkpt>
      <trkpt lat="47.07263" lon="-1.75647">
        <ele>73</ele>
        <time>2022-07-31T08:19:55Z</time>
      </trkpt>
      <trkpt lat="47.07275" lon="-1.75637">
        <ele>73</ele>
        <time>2022-07-31T08:19:57Z</time>
      </trkpt>
      <trkpt lat="47.07288" lon="-1.75627">
        <ele>73</ele>
        <time>2022-07-31T08:19:59Z</time>
      </trkpt>
      <trkpt lat="47.07301" lon="-1.75619">
        <ele>73</ele>
        <time>2022-07-31T08:20:01Z</time>
      </trkpt>
      <trkpt lat="47.07314" lon="-1.75612">
        <ele>73</ele>
        <time>2022-07-31T08:20:03Z</time>
      </trkpt>
      <trkpt lat="47.07328" lon="-1.75606">
        <ele>73</ele>
        <time>2022-07-31T08:20:05Z</time>
      </trkpt>
      <trkpt lat="47.07342" lon="-1.75601">
        <ele>72</ele>
        <time>2022-07-31T08:20:07Z</time>
      </trkpt>
      <trkpt lat="47.07357" lon="-1.75595">
        <ele>72</ele>
        <time>2022-07-31T08:20:09Z</time>
      </trkpt>
      <trkpt lat="47.07371" lon="-1.7559">
        <ele>71</ele>
        <time>2022-07-31T08:20:11Z</time>
      </trkpt>
      <trkpt lat="47.07386" lon="-1.75584">
        <ele>71</ele>
        <time>2022-07-31T08:20:13Z</time>
      </trkpt>
      <trkpt lat="47.07401" lon="-1.75578">
        <ele>70</ele>
        <time>2022-07-31T08:20:15Z</time>
      </trkpt>
      <trkpt lat="47.07416" lon="-1.75573">
        <ele>70</ele>
        <time>2022-07-31T08:20:17Z</time>
      </trkpt>
      <trkpt lat="47.07431" lon="-1.75567">
        <ele>69</ele>
        <time>2022-07-31T08:20:19Z</time>
      </trkpt>
      <trkpt lat="47.07447" lon="-1.75561">
        <ele>69</ele>
        <time>2022-07-31T08:20:21Z</time>
      </trkpt>
      <trkpt lat="47.07462" lon="-1.75555">
        <ele>68</ele>
        <time>2022-07-31T08:20:23Z</time>
      </trkpt>
      <trkpt lat="47.07478" lon="-1.75549">
        <ele>68</ele>
        <time>2022-07-31T08:20:25Z</time>
      </trkpt>
      <trkpt lat="47.07494" lon="-1.75543">
        <ele>67</ele>
        <time>2022-07-31T08:20:27Z</time>
      </trkpt>
      <trkpt lat="47.0751" lon="-1.75537">
        <ele>67</ele>
        <time>2022-07-31T08:20:29Z</time>
      </trkpt>
      <trkpt lat="47.07526" lon="-1.75531">
        <ele>66</ele>
        <time>2022-07-31T08:20:31Z</time>
      </trkpt>
      <trkpt lat="47.07541" lon="-1.75525">
        <ele>65</ele>
        <time>2022-07-31T08:20:33Z</time>
      </trkpt>
      <trkpt lat="47.07557" lon="-1.75519">
        <ele>65</ele>
        <time>2022-07-31T08:20:35Z</time>
      </trkpt>
      <trkpt lat="47.07572" lon="-1.75513">
        <ele>64</ele>
        <time>2022-07-31T08:20:37Z</time>
      </trkpt>
      <trkpt lat="47.07588" lon="-1.75508">
        <ele>64</ele>
        <time>2022-07-31T08:20:39Z</time>
      </trkpt>
      <trkpt lat="47.07603" lon="-1.75501">
        <ele>63</ele>
        <time>2022-07-31T08:20:41Z</time>
      </trkpt>
      <trkpt lat="47.07618" lon="-1.75495">
        <ele>63</ele>
        <time>2022-07-31T08:20:43Z</time>
      </trkpt>
      <trkpt lat="47.07633" lon="-1.75489">
        <ele>62</ele>
        <time>2022-07-31T08:20:45Z</time>
      </trkpt>
      <trkpt lat="47.07649" lon="-1.75483">
        <ele>61</ele>
        <time>2022-07-31T08:20:47Z</time>
      </trkpt>
      <trkpt lat="47.07664" lon="-1.75477">
        <ele>61</ele>
        <time>2022-07-31T08:20:49Z</time>
      </trkpt>
      <trkpt lat="47.0768" lon="-1.75471">
        <ele>61</ele>
        <time>2022-07-31T08:20:51Z</time>
      </trkpt>
      <trkpt lat="47.07695" lon="-1.75466">
        <ele>60</ele>
        <time>2022-07-31T08:20:53Z</time>
      </trkpt>
      <trkpt lat="47.07711" lon="-1.75459">
        <ele>60</ele>
        <time>2022-07-31T08:20:55Z</time>
      </trkpt>
      <trkpt lat="47.07726" lon="-1.75453">
        <ele>60</ele>
        <time>2022-07-31T08:20:57Z</time>
      </trkpt>
      <trkpt lat="47.07741" lon="-1.75447">
        <ele>60</ele>
        <time>2022-07-31T08:20:59Z</time>
      </trkpt>
      <trkpt lat="47.07756" lon="-1.75442">
        <ele>59</ele>
        <time>2022-07-31T08:21:01Z</time>
      </trkpt>
      <trkpt lat="47.07771" lon="-1.75436">
        <ele>59</ele>
        <time>2022-07-31T08:21:03Z</time>
      </trkpt>
      <trkpt lat="47.07786" lon="-1.7543">
        <ele>59</ele>
        <time>2022-07-31T08:21:05Z</time>
      </trkpt>
      <trkpt lat="47.07799" lon="-1.75425">
        <ele>59</ele>
        <time>2022-07-31T08:21:07Z</time>
      </trkpt>
      <trkpt lat="47.07808" lon="-1.75413">
        <ele>58</ele>
        <time>2022-07-31T08:21:09Z</time>
      </trkpt>
      <trkpt lat="47.07805" lon="-1.75391">
        <ele>58</ele>
        <time>2022-07-31T08:21:11Z</time>
      </trkpt>
      <trkpt lat="47.07798" lon="-1.75375">
        <ele>58</ele>
        <time>2022-07-31T08:21:13Z</time>
      </trkpt>
      <trkpt lat="47.07791" lon="-1.75359">
        <ele>58</ele>
        <time>2022-07-31T08:21:15Z</time>
      </trkpt>
      <trkpt lat="47.07784" lon="-1.75342">
        <ele>59</ele>
        <time>2022-07-31T08:21:17Z</time>
      </trkpt>
      <trkpt lat="47.07776" lon="-1.75325">
        <ele>59</ele>
        <time>2022-07-31T08:21:19Z</time>
      </trkpt>
      <trkpt lat="47.07768" lon="-1.75308">
        <ele>60</ele>
        <time>2022-07-31T08:21:21Z</time>
      </trkpt>
      <trkpt lat="47.07761" lon="-1.7529">
        <ele>60</ele>
        <time>2022-07-31T08:21:23Z</time>
      </trkpt>
      <trkpt lat="47.07755" lon="-1.75273">
        <ele>61</ele>
        <time>2022-07-31T08:21:25Z</time>
      </trkpt>
      <trkpt lat="47.0775" lon="-1.75257">
        <ele>62</ele>
        <time>2022-07-31T08:21:27Z</time>
      </trkpt>
      <trkpt lat="47.07744" lon="-1.7524">
        <ele>63</ele>
        <time>2022-07-31T08:21:29Z</time>
      </trkpt>
      <trkpt lat="47.07737" lon="-1.75223">
        <ele>64</ele>
        <time>2022-07-31T08:21:31Z</time>
      </trkpt>
      <trkpt lat="47.07731" lon="-1.75206">
        <ele>65</ele>
        <time>2022-07-31T08:21:33Z</time>
      </trkpt>
      <trkpt lat="47.07725" lon="-1.75185">
        <ele>65</ele>
        <time>2022-07-31T08:21:35Z</time>
      </trkpt>
      <trkpt lat="47.0772" lon="-1.75163">
        <ele>64</ele>
        <time>2022-07-31T08:21:37Z</time>
      </trkpt>
      <trkpt lat="47.07715" lon="-1.75143">
        <ele>62</ele>
        <time>2022-07-31T08:21:39Z</time>
      </trkpt>
      <trkpt lat="47.07712" lon="-1.75123">
        <ele>61</ele>
        <time>2022-07-31T08:21:41Z</time>
      </trkpt>
      <trkpt lat="47.0771" lon="-1.75104">
        <ele>60</ele>
        <time>2022-07-31T08:21:43Z</time>
      </trkpt>
      <trkpt lat="47.0771" lon="-1.75085">
        <ele>60</ele>
        <time>2022-07-31T08:21:45Z</time>
      </trkpt>
      <trkpt lat="47.07711" lon="-1.75069">
        <ele>60</ele>
        <time>2022-07-31T08:21:47Z</time>
      </trkpt>
      <trkpt lat="47.07717" lon="-1.75057">
        <ele>60</ele>
        <time>2022-07-31T08:21:49Z</time>
      </trkpt>
      <trkpt lat="47.07729" lon="-1.75056">
        <ele>60</ele>
        <time>2022-07-31T08:21:51Z</time>
      </trkpt>
      <trkpt lat="47.07742" lon="-1.75056">
        <ele>59</ele>
        <time>2022-07-31T08:21:53Z</time>
      </trkpt>
      <trkpt lat="47.07754" lon="-1.75056">
        <ele>59</ele>
        <time>2022-07-31T08:21:55Z</time>
      </trkpt>
      <trkpt lat="47.07768" lon="-1.75055">
        <ele>58</ele>
        <time>2022-07-31T08:21:57Z</time>
      </trkpt>
      <trkpt lat="47.07781" lon="-1.75054">
        <ele>58</ele>
        <time>2022-07-31T08:21:59Z</time>
      </trkpt>
      <trkpt lat="47.07794" lon="-1.75053">
        <ele>58</ele>
        <time>2022-07-31T08:22:01Z</time>
      </trkpt>
      <trkpt lat="47.07808" lon="-1.75053">
        <ele>58</ele>
        <time>2022-07-31T08:22:03Z</time>
      </trkpt>
      <trkpt lat="47.07822" lon="-1.75052">
        <ele>58</ele>
        <time>2022-07-31T08:22:05Z</time>
      </trkpt>
      <trkpt lat="47.07836" lon="-1.7505">
        <ele>57</ele>
        <time>2022-07-31T08:22:07Z</time>
      </trkpt>
      <trkpt lat="47.0785" lon="-1.75047">
        <ele>58</ele>
        <time>2022-07-31T08:22:09Z</time>
      </trkpt>
      <trkpt lat="47.07863" lon="-1.75041">
        <ele>58</ele>
        <time>2022-07-31T08:22:11Z</time>
      </trkpt>
      <trkpt lat="47.07875" lon="-1.75032">
        <ele>59</ele>
        <time>2022-07-31T08:22:13Z</time>
      </trkpt>
      <trkpt lat="47.07888" lon="-1.75024">
        <ele>59</ele>
        <time>2022-07-31T08:22:15Z</time>
      </trkpt>
      <trkpt lat="47.07899" lon="-1.75016">
        <ele>60</ele>
        <time>2022-07-31T08:22:17Z</time>
      </trkpt>
      <trkpt lat="47.07912" lon="-1.75007">
        <ele>61</ele>
        <time>2022-07-31T08:22:19Z</time>
      </trkpt>
      <trkpt lat="47.07925" lon="-1.74999">
        <ele>63</ele>
        <time>2022-07-31T08:22:21Z</time>
      </trkpt>
      <trkpt lat="47.07938" lon="-1.74992">
        <ele>63</ele>
        <time>2022-07-31T08:22:23Z</time>
      </trkpt>
      <trkpt lat="47.0795" lon="-1.74985">
        <ele>63</ele>
        <time>2022-07-31T08:22:25Z</time>
      </trkpt>
      <trkpt lat="47.07963" lon="-1.74977">
        <ele>63</ele>
        <time>2022-07-31T08:22:27Z</time>
      </trkpt>
      <trkpt lat="47.07975" lon="-1.74969">
        <ele>63</ele>
        <time>2022-07-31T08:22:29Z</time>
      </trkpt>
      <trkpt lat="47.07988" lon="-1.74962">
        <ele>64</ele>
        <time>2022-07-31T08:22:31Z</time>
      </trkpt>
      <trkpt lat="47.08001" lon="-1.74955">
        <ele>64</ele>
        <time>2022-07-31T08:22:33Z</time>
      </trkpt>
      <trkpt lat="47.08013" lon="-1.74948">
        <ele>65</ele>
        <time>2022-07-31T08:22:35Z</time>
      </trkpt>
      <trkpt lat="47.08025" lon="-1.74941">
        <ele>65</ele>
        <time>2022-07-31T08:22:37Z</time>
      </trkpt>
      <trkpt lat="47.08037" lon="-1.74932">
        <ele>65</ele>
        <time>2022-07-31T08:22:39Z</time>
      </trkpt>
      <trkpt lat="47.08049" lon="-1.7492">
        <ele>65</ele>
        <time>2022-07-31T08:22:41Z</time>
      </trkpt>
      <trkpt lat="47.0806" lon="-1.74908">
        <ele>66</ele>
        <time>2022-07-31T08:22:43Z</time>
      </trkpt>
      <trkpt lat="47.0807" lon="-1.74896">
        <ele>65</ele>
        <time>2022-07-31T08:22:45Z</time>
      </trkpt>
      <trkpt lat="47.08082" lon="-1.74886">
        <ele>65</ele>
        <time>2022-07-31T08:22:47Z</time>
      </trkpt>
      <trkpt lat="47.08095" lon="-1.74878">
        <ele>66</ele>
        <time>2022-07-31T08:22:49Z</time>
      </trkpt>
      <trkpt lat="47.08108" lon="-1.74876">
        <ele>66</ele>
        <time>2022-07-31T08:22:51Z</time>
      </trkpt>
      <trkpt lat="47.0812" lon="-1.74873">
        <ele>66</ele>
        <time>2022-07-31T08:22:53Z</time>
      </trkpt>
      <trkpt lat="47.08133" lon="-1.7487">
        <ele>66</ele>
        <time>2022-07-31T08:22:55Z</time>
      </trkpt>
      <trkpt lat="47.08143" lon="-1.74866">
        <ele>66</ele>
        <time>2022-07-31T08:22:57Z</time>
      </trkpt>
      <trkpt lat="47.08154" lon="-1.74858">
        <ele>66</ele>
        <time>2022-07-31T08:22:59Z</time>
      </trkpt>
      <trkpt lat="47.08167" lon="-1.74848">
        <ele>66</ele>
        <time>2022-07-31T08:23:01Z</time>
      </trkpt>
      <trkpt lat="47.08179" lon="-1.74836">
        <ele>65</ele>
        <time>2022-07-31T08:23:03Z</time>
      </trkpt>
      <trkpt lat="47.08188" lon="-1.7482">
        <ele>64</ele>
        <time>2022-07-31T08:23:05Z</time>
      </trkpt>
      <trkpt lat="47.08194" lon="-1.74804">
        <ele>63</ele>
        <time>2022-07-31T08:23:07Z</time>
      </trkpt>
      <trkpt lat="47.08198" lon="-1.74785">
        <ele>62</ele>
        <time>2022-07-31T08:23:09Z</time>
      </trkpt>
      <trkpt lat="47.08202" lon="-1.74766">
        <ele>62</ele>
        <time>2022-07-31T08:23:11Z</time>
      </trkpt>
      <trkpt lat="47.08206" lon="-1.74748">
        <ele>62</ele>
        <time>2022-07-31T08:23:13Z</time>
      </trkpt>
      <trkpt lat="47.08211" lon="-1.74731">
        <ele>63</ele>
        <time>2022-07-31T08:23:15Z</time>
      </trkpt>
      <trkpt lat="47.08218" lon="-1.74715">
        <ele>64</ele>
        <time>2022-07-31T08:23:17Z</time>
      </trkpt>
      <trkpt lat="47.08227" lon="-1.747">
        <ele>63</ele>
        <time>2022-07-31T08:23:19Z</time>
      </trkpt>
      <trkpt lat="47.08236" lon="-1.74685">
        <ele>62</ele>
        <time>2022-07-31T08:23:21Z</time>
      </trkpt>
      <trkpt lat="47.08245" lon="-1.74672">
        <ele>62</ele>
        <time>2022-07-31T08:23:23Z</time>
      </trkpt>
      <trkpt lat="47.08253" lon="-1.74658">
        <ele>63</ele>
        <time>2022-07-31T08:23:25Z</time>
      </trkpt>
      <trkpt lat="47.08263" lon="-1.74645">
        <ele>63</ele>
        <time>2022-07-31T08:23:27Z</time>
      </trkpt>
      <trkpt lat="47.08272" lon="-1.74633">
        <ele>63</ele>
        <time>2022-07-31T08:23:29Z</time>
      </trkpt>
      <trkpt lat="47.08282" lon="-1.7462">
        <ele>63</ele>
        <time>2022-07-31T08:23:31Z</time>
      </trkpt>
      <trkpt lat="47.08292" lon="-1.74607">
        <ele>63</ele>
        <time>2022-07-31T08:23:33Z</time>
      </trkpt>
      <trkpt lat="47.08302" lon="-1.74593">
        <ele>64</ele>
        <time>2022-07-31T08:23:35Z</time>
      </trkpt>
      <trkpt lat="47.08313" lon="-1.74583">
        <ele>64</ele>
        <time>2022-07-31T08:23:37Z</time>
      </trkpt>
      <trkpt lat="47.08324" lon="-1.74575">
        <ele>64</ele>
        <time>2022-07-31T08:23:39Z</time>
      </trkpt>
      <trkpt lat="47.08335" lon="-1.74571">
        <ele>65</ele>
        <time>2022-07-31T08:23:41Z</time>
      </trkpt>
      <trkpt lat="47.08346" lon="-1.74566">
        <ele>65</ele>
        <time>2022-07-31T08:23:43Z</time>
      </trkpt>
      <trkpt lat="47.08356" lon="-1.7456">
        <ele>65</ele>
        <time>2022-07-31T08:23:45Z</time>
      </trkpt>
      <trkpt lat="47.08365" lon="-1.74553">
        <ele>66</ele>
        <time>2022-07-31T08:23:47Z</time>
      </trkpt>
      <trkpt lat="47.08375" lon="-1.74544">
        <ele>67</ele>
        <time>2022-07-31T08:23:49Z</time>
      </trkpt>
      <trkpt lat="47.08385" lon="-1.74533">
        <ele>67</ele>
        <time>2022-07-31T08:23:51Z</time>
      </trkpt>
      <trkpt lat="47.08395" lon="-1.7452">
        <ele>67</ele>
        <time>2022-07-31T08:23:53Z</time>
      </trkpt>
      <trkpt lat="47.08407" lon="-1.74508">
        <ele>67</ele>
        <time>2022-07-31T08:23:55Z</time>
      </trkpt>
      <trkpt lat="47.08419" lon="-1.74493">
        <ele>67</ele>
        <time>2022-07-31T08:23:57Z</time>
      </trkpt>
      <trkpt lat="47.08432" lon="-1.74478">
        <ele>66</ele>
        <time>2022-07-31T08:23:59Z</time>
      </trkpt>
      <trkpt lat="47.08444" lon="-1.74466">
        <ele>66</ele>
        <time>2022-07-31T08:24:01Z</time>
      </trkpt>
      <trkpt lat="47.08454" lon="-1.74455">
        <ele>65</ele>
        <time>2022-07-31T08:24:03Z</time>
      </trkpt>
      <trkpt lat="47.08464" lon="-1.74443">
        <ele>65</ele>
        <time>2022-07-31T08:24:05Z</time>
      </trkpt>
      <trkpt lat="47.08473" lon="-1.74432">
        <ele>65</ele>
        <time>2022-07-31T08:24:07Z</time>
      </trkpt>
      <trkpt lat="47.08482" lon="-1.74422">
        <ele>65</ele>
        <time>2022-07-31T08:24:09Z</time>
      </trkpt>
      <trkpt lat="47.08492" lon="-1.74411">
        <ele>63</ele>
        <time>2022-07-31T08:24:11Z</time>
      </trkpt>
      <trkpt lat="47.08503" lon="-1.74399">
        <ele>63</ele>
        <time>2022-07-31T08:24:13Z</time>
      </trkpt>
      <trkpt lat="47.08513" lon="-1.74387">
        <ele>63</ele>
        <time>2022-07-31T08:24:15Z</time>
      </trkpt>
      <trkpt lat="47.08523" lon="-1.74373">
        <ele>62</ele>
        <time>2022-07-31T08:24:17Z</time>
      </trkpt>
      <trkpt lat="47.0853" lon="-1.74358">
        <ele>62</ele>
        <time>2022-07-31T08:24:19Z</time>
      </trkpt>
      <trkpt lat="47.08534" lon="-1.74342">
        <ele>61</ele>
        <time>2022-07-31T08:24:21Z</time>
      </trkpt>
      <trkpt lat="47.08536" lon="-1.74323">
        <ele>61</ele>
        <time>2022-07-31T08:24:23Z</time>
      </trkpt>
      <trkpt lat="47.0854" lon="-1.74305">
        <ele>61</ele>
        <time>2022-07-31T08:24:25Z</time>
      </trkpt>
      <trkpt lat="47.08545" lon="-1.74289">
        <ele>61</ele>
        <time>2022-07-31T08:24:27Z</time>
      </trkpt>
      <trkpt lat="47.08554" lon="-1.74277">
        <ele>61</ele>
        <time>2022-07-31T08:24:29Z</time>
      </trkpt>
      <trkpt lat="47.08563" lon="-1.74263">
        <ele>62</ele>
        <time>2022-07-31T08:24:31Z</time>
      </trkpt>
      <trkpt lat="47.08574" lon="-1.74251">
        <ele>63</ele>
        <time>2022-07-31T08:24:33Z</time>
      </trkpt>
      <trkpt lat="47.08584" lon="-1.74238">
        <ele>62</ele>
        <time>2022-07-31T08:24:35Z</time>
      </trkpt>
      <trkpt lat="47.08595" lon="-1.74225">
        <ele>62</ele>
        <time>2022-07-31T08:24:37Z</time>
      </trkpt>
      <trkpt lat="47.08605" lon="-1.74211">
        <ele>62</ele>
        <time>2022-07-31T08:24:39Z</time>
      </trkpt>
      <trkpt lat="47.08615" lon="-1.74199">
        <ele>61</ele>
        <time>2022-07-31T08:24:41Z</time>
      </trkpt>
      <trkpt lat="47.08627" lon="-1.74188">
        <ele>61</ele>
        <time>2022-07-31T08:24:43Z</time>
      </trkpt>
      <trkpt lat="47.08636" lon="-1.74176">
        <ele>60</ele>
        <time>2022-07-31T08:24:45Z</time>
      </trkpt>
      <trkpt lat="47.08645" lon="-1.74163">
        <ele>60</ele>
        <time>2022-07-31T08:24:47Z</time>
      </trkpt>
      <trkpt lat="47.08654" lon="-1.74149">
        <ele>60</ele>
        <time>2022-07-31T08:24:49Z</time>
      </trkpt>
      <trkpt lat="47.08662" lon="-1.74135">
        <ele>59</ele>
        <time>2022-07-31T08:24:51Z</time>
      </trkpt>
      <trkpt lat="47.08669" lon="-1.7412">
        <ele>58</ele>
        <time>2022-07-31T08:24:53Z</time>
      </trkpt>
      <trkpt lat="47.08677" lon="-1.74103">
        <ele>58</ele>
        <time>2022-07-31T08:24:55Z</time>
      </trkpt>
      <trkpt lat="47.08683" lon="-1.74087">
        <ele>59</ele>
        <time>2022-07-31T08:24:57Z</time>
      </trkpt>
      <trkpt lat="47.08689" lon="-1.74071">
        <ele>59</ele>
        <time>2022-07-31T08:24:59Z</time>
      </trkpt>
      <trkpt lat="47.08696" lon="-1.74055">
        <ele>59</ele>
        <time>2022-07-31T08:25:01Z</time>
      </trkpt>
      <trkpt lat="47.08702" lon="-1.74039">
        <ele>60</ele>
        <time>2022-07-31T08:25:03Z</time>
      </trkpt>
      <trkpt lat="47.08709" lon="-1.74024">
        <ele>60</ele>
        <time>2022-07-31T08:25:05Z</time>
      </trkpt>
      <trkpt lat="47.08715" lon="-1.7401">
        <ele>60</ele>
        <time>2022-07-31T08:25:07Z</time>
      </trkpt>
      <trkpt lat="47.08722" lon="-1.73994">
        <ele>60</ele>
        <time>2022-07-31T08:25:09Z</time>
      </trkpt>
      <trkpt lat="47.08729" lon="-1.7398">
        <ele>61</ele>
        <time>2022-07-31T08:25:11Z</time>
      </trkpt>
      <trkpt lat="47.08737" lon="-1.73965">
        <ele>61</ele>
        <time>2022-07-31T08:25:13Z</time>
      </trkpt>
      <trkpt lat="47.08745" lon="-1.7395">
        <ele>61</ele>
        <time>2022-07-31T08:25:15Z</time>
      </trkpt>
      <trkpt lat="47.08752" lon="-1.73934">
        <ele>61</ele>
        <time>2022-07-31T08:25:17Z</time>
      </trkpt>
      <trkpt lat="47.08759" lon="-1.73918">
        <ele>61</ele>
        <time>2022-07-31T08:25:19Z</time>
      </trkpt>
      <trkpt lat="47.08767" lon="-1.73903">
        <ele>60</ele>
        <time>2022-07-31T08:25:21Z</time>
      </trkpt>
      <trkpt lat="47.08774" lon="-1.73887">
        <ele>60</ele>
        <time>2022-07-31T08:25:23Z</time>
      </trkpt>
      <trkpt lat="47.08782" lon="-1.73872">
        <ele>60</ele>
        <time>2022-07-31T08:25:25Z</time>
      </trkpt>
      <trkpt lat="47.0879" lon="-1.73859">
        <ele>60</ele>
        <time>2022-07-31T08:25:27Z</time>
      </trkpt>
      <trkpt lat="47.08798" lon="-1.73845">
        <ele>61</ele>
        <time>2022-07-31T08:25:29Z</time>
      </trkpt>
      <trkpt lat="47.08807" lon="-1.73834">
        <ele>61</ele>
        <time>2022-07-31T08:25:31Z</time>
      </trkpt>
      <trkpt lat="47.08817" lon="-1.73822">
        <ele>61</ele>
        <time>2022-07-31T08:25:33Z</time>
      </trkpt>
      <trkpt lat="47.08827" lon="-1.73811">
        <ele>60</ele>
        <time>2022-07-31T08:25:35Z</time>
      </trkpt>
      <trkpt lat="47.08836" lon="-1.738">
        <ele>60</ele>
        <time>2022-07-31T08:25:37Z</time>
      </trkpt>
      <trkpt lat="47.08846" lon="-1.73788">
        <ele>60</ele>
        <time>2022-07-31T08:25:39Z</time>
      </trkpt>
      <trkpt lat="47.08856" lon="-1.73773">
        <ele>59</ele>
        <time>2022-07-31T08:25:41Z</time>
      </trkpt>
      <trkpt lat="47.08864" lon="-1.73757">
        <ele>59</ele>
        <time>2022-07-31T08:25:43Z</time>
      </trkpt>
      <trkpt lat="47.08872" lon="-1.73742">
        <ele>58</ele>
        <time>2022-07-31T08:25:45Z</time>
      </trkpt>
      <trkpt lat="47.08879" lon="-1.73727">
        <ele>59</ele>
        <time>2022-07-31T08:25:47Z</time>
      </trkpt>
      <trkpt lat="47.08887" lon="-1.73713">
        <ele>60</ele>
        <time>2022-07-31T08:25:49Z</time>
      </trkpt>
      <trkpt lat="47.08894" lon="-1.73698">
        <ele>60</ele>
        <time>2022-07-31T08:25:51Z</time>
      </trkpt>
      <trkpt lat="47.08901" lon="-1.73684">
        <ele>60</ele>
        <time>2022-07-31T08:25:53Z</time>
      </trkpt>
      <trkpt lat="47.08908" lon="-1.73669">
        <ele>61</ele>
        <time>2022-07-31T08:25:55Z</time>
      </trkpt>
      <trkpt lat="47.08914" lon="-1.73652">
        <ele>62</ele>
        <time>2022-07-31T08:25:57Z</time>
      </trkpt>
      <trkpt lat="47.08918" lon="-1.73634">
        <ele>62</ele>
        <time>2022-07-31T08:25:59Z</time>
      </trkpt>
      <trkpt lat="47.08919" lon="-1.73614">
        <ele>62</ele>
        <time>2022-07-31T08:26:01Z</time>
      </trkpt>
      <trkpt lat="47.08922" lon="-1.73595">
        <ele>61</ele>
        <time>2022-07-31T08:26:03Z</time>
      </trkpt>
      <trkpt lat="47.08925" lon="-1.73577">
        <ele>61</ele>
        <time>2022-07-31T08:26:05Z</time>
      </trkpt>
      <trkpt lat="47.08929" lon="-1.73559">
        <ele>61</ele>
        <time>2022-07-31T08:26:07Z</time>
      </trkpt>
      <trkpt lat="47.08933" lon="-1.73542">
        <ele>62</ele>
        <time>2022-07-31T08:26:09Z</time>
      </trkpt>
      <trkpt lat="47.08938" lon="-1.73525">
        <ele>62</ele>
        <time>2022-07-31T08:26:11Z</time>
      </trkpt>
      <trkpt lat="47.08942" lon="-1.73509">
        <ele>62</ele>
        <time>2022-07-31T08:26:13Z</time>
      </trkpt>
      <trkpt lat="47.08946" lon="-1.73491">
        <ele>62</ele>
        <time>2022-07-31T08:26:15Z</time>
      </trkpt>
      <trkpt lat="47.08951" lon="-1.73475">
        <ele>62</ele>
        <time>2022-07-31T08:26:17Z</time>
      </trkpt>
      <trkpt lat="47.08959" lon="-1.73459">
        <ele>63</ele>
        <time>2022-07-31T08:26:19Z</time>
      </trkpt>
      <trkpt lat="47.08967" lon="-1.73444">
        <ele>63</ele>
        <time>2022-07-31T08:26:21Z</time>
      </trkpt>
      <trkpt lat="47.08976" lon="-1.73431">
        <ele>63</ele>
        <time>2022-07-31T08:26:23Z</time>
      </trkpt>
      <trkpt lat="47.08986" lon="-1.73418">
        <ele>63</ele>
        <time>2022-07-31T08:26:25Z</time>
      </trkpt>
      <trkpt lat="47.08996" lon="-1.73406">
        <ele>63</ele>
        <time>2022-07-31T08:26:27Z</time>
      </trkpt>
      <trkpt lat="47.09006" lon="-1.73395">
        <ele>64</ele>
        <time>2022-07-31T08:26:29Z</time>
      </trkpt>
      <trkpt lat="47.09017" lon="-1.73384">
        <ele>64</ele>
        <time>2022-07-31T08:26:31Z</time>
      </trkpt>
      <trkpt lat="47.09028" lon="-1.73374">
        <ele>64</ele>
        <time>2022-07-31T08:26:33Z</time>
      </trkpt>
      <trkpt lat="47.09039" lon="-1.73365">
        <ele>65</ele>
        <time>2022-07-31T08:26:35Z</time>
      </trkpt>
      <trkpt lat="47.0905" lon="-1.73355">
        <ele>65</ele>
        <time>2022-07-31T08:26:37Z</time>
      </trkpt>
      <trkpt lat="47.09061" lon="-1.73344">
        <ele>66</ele>
        <time>2022-07-31T08:26:39Z</time>
      </trkpt>
      <trkpt lat="47.09071" lon="-1.73334">
        <ele>66</ele>
        <time>2022-07-31T08:26:41Z</time>
      </trkpt>
      <trkpt lat="47.09082" lon="-1.73323">
        <ele>67</ele>
        <time>2022-07-31T08:26:43Z</time>
      </trkpt>
      <trkpt lat="47.09095" lon="-1.73314">
        <ele>67</ele>
        <time>2022-07-31T08:26:45Z</time>
      </trkpt>
      <trkpt lat="47.09107" lon="-1.73304">
        <ele>67</ele>
        <time>2022-07-31T08:26:47Z</time>
      </trkpt>
      <trkpt lat="47.09119" lon="-1.73294">
        <ele>66</ele>
        <time>2022-07-31T08:26:49Z</time>
      </trkpt>
      <trkpt lat="47.09133" lon="-1.73283">
        <ele>65</ele>
        <time>2022-07-31T08:26:51Z</time>
      </trkpt>
      <trkpt lat="47.09146" lon="-1.73274">
        <ele>63</ele>
        <time>2022-07-31T08:26:53Z</time>
      </trkpt>
      <trkpt lat="47.09158" lon="-1.73265">
        <ele>62</ele>
        <time>2022-07-31T08:26:55Z</time>
      </trkpt>
      <trkpt lat="47.0917" lon="-1.73256">
        <ele>61</ele>
        <time>2022-07-31T08:26:57Z</time>
      </trkpt>
      <trkpt lat="47.09182" lon="-1.73247">
        <ele>61</ele>
        <time>2022-07-31T08:26:59Z</time>
      </trkpt>
      <trkpt lat="47.09193" lon="-1.73238">
        <ele>60</ele>
        <time>2022-07-31T08:27:01Z</time>
      </trkpt>
      <trkpt lat="47.09205" lon="-1.73229">
        <ele>61</ele>
        <time>2022-07-31T08:27:03Z</time>
      </trkpt>
      <trkpt lat="47.09215" lon="-1.7322">
        <ele>61</ele>
        <time>2022-07-31T08:27:05Z</time>
      </trkpt>
      <trkpt lat="47.09225" lon="-1.73211">
        <ele>62</ele>
        <time>2022-07-31T08:27:07Z</time>
      </trkpt>
      <trkpt lat="47.09236" lon="-1.73202">
        <ele>62</ele>
        <time>2022-07-31T08:27:09Z</time>
      </trkpt>
      <trkpt lat="47.09247" lon="-1.73194">
        <ele>63</ele>
        <time>2022-07-31T08:27:11Z</time>
      </trkpt>
      <trkpt lat="47.09258" lon="-1.73185">
        <ele>63</ele>
        <time>2022-07-31T08:27:13Z</time>
      </trkpt>
      <trkpt lat="47.09269" lon="-1.73176">
        <ele>64</ele>
        <time>2022-07-31T08:27:15Z</time>
      </trkpt>
      <trkpt lat="47.09281" lon="-1.73167">
        <ele>64</ele>
        <time>2022-07-31T08:27:17Z</time>
      </trkpt>
      <trkpt lat="47.09292" lon="-1.73157">
        <ele>64</ele>
        <time>2022-07-31T08:27:19Z</time>
      </trkpt>
      <trkpt lat="47.09303" lon="-1.73148">
        <ele>64</ele>
        <time>2022-07-31T08:27:21Z</time>
      </trkpt>
      <trkpt lat="47.09315" lon="-1.73139">
        <ele>64</ele>
        <time>2022-07-31T08:27:23Z</time>
      </trkpt>
      <trkpt lat="47.09328" lon="-1.73129">
        <ele>64</ele>
        <time>2022-07-31T08:27:25Z</time>
      </trkpt>
      <trkpt lat="47.0934" lon="-1.7312">
        <ele>63</ele>
        <time>2022-07-31T08:27:27Z</time>
      </trkpt>
      <trkpt lat="47.09351" lon="-1.73111">
        <ele>63</ele>
        <time>2022-07-31T08:27:29Z</time>
      </trkpt>
      <trkpt lat="47.09362" lon="-1.731">
        <ele>63</ele>
        <time>2022-07-31T08:27:31Z</time>
      </trkpt>
      <trkpt lat="47.09371" lon="-1.73088">
        <ele>62</ele>
        <time>2022-07-31T08:27:33Z</time>
      </trkpt>
      <trkpt lat="47.09378" lon="-1.73074">
        <ele>62</ele>
        <time>2022-07-31T08:27:35Z</time>
      </trkpt>
      <trkpt lat="47.09383" lon="-1.73056">
        <ele>63</ele>
        <time>2022-07-31T08:27:37Z</time>
      </trkpt>
      <trkpt lat="47.09385" lon="-1.73035">
        <ele>62</ele>
        <time>2022-07-31T08:27:39Z</time>
      </trkpt>
      <trkpt lat="47.09387" lon="-1.73015">
        <ele>61</ele>
        <time>2022-07-31T08:27:41Z</time>
      </trkpt>
      <trkpt lat="47.09389" lon="-1.72995">
        <ele>60</ele>
        <time>2022-07-31T08:27:43Z</time>
      </trkpt>
      <trkpt lat="47.09393" lon="-1.72976">
        <ele>60</ele>
        <time>2022-07-31T08:27:45Z</time>
      </trkpt>
      <trkpt lat="47.09398" lon="-1.72957">
        <ele>60</ele>
        <time>2022-07-31T08:27:47Z</time>
      </trkpt>
      <trkpt lat="47.09404" lon="-1.7294">
        <ele>60</ele>
        <time>2022-07-31T08:27:49Z</time>
      </trkpt>
      <trkpt lat="47.09411" lon="-1.72925">
        <ele>60</ele>
        <time>2022-07-31T08:27:51Z</time>
      </trkpt>
      <trkpt lat="47.09418" lon="-1.7291">
        <ele>60</ele>
        <time>2022-07-31T08:27:53Z</time>
      </trkpt>
      <trkpt lat="47.09426" lon="-1.72895">
        <ele>60</ele>
        <time>2022-07-31T08:27:55Z</time>
      </trkpt>
      <trkpt lat="47.09432" lon="-1.7288">
        <ele>60</ele>
        <time>2022-07-31T08:27:57Z</time>
      </trkpt>
      <trkpt lat="47.09439" lon="-1.72866">
        <ele>61</ele>
        <time>2022-07-31T08:27:59Z</time>
      </trkpt>
      <trkpt lat="47.09446" lon="-1.72851">
        <ele>61</ele>
        <time>2022-07-31T08:28:01Z</time>
      </trkpt>
      <trkpt lat="47.09454" lon="-1.72836">
        <ele>61</ele>
        <time>2022-07-31T08:28:03Z</time>
      </trkpt>
      <trkpt lat="47.09462" lon="-1.7282">
        <ele>60</ele>
        <time>2022-07-31T08:28:05Z</time>
      </trkpt>
      <trkpt lat="47.09469" lon="-1.72805">
        <ele>60</ele>
        <time>2022-07-31T08:28:07Z</time>
      </trkpt>
      <trkpt lat="47.09476" lon="-1.72789">
        <ele>60</ele>
        <time>2022-07-31T08:28:09Z</time>
      </trkpt>
      <trkpt lat="47.09483" lon="-1.72773">
        <ele>60</ele>
        <time>2022-07-31T08:28:11Z</time>
      </trkpt>
      <trkpt lat="47.09491" lon="-1.72758">
        <ele>60</ele>
        <time>2022-07-31T08:28:13Z</time>
      </trkpt>
      <trkpt lat="47.09498" lon="-1.72744">
        <ele>59</ele>
        <time>2022-07-31T08:28:15Z</time>
      </trkpt>
      <trkpt lat="47.09505" lon="-1.7273">
        <ele>59</ele>
        <time>2022-07-31T08:28:17Z</time>
      </trkpt>
      <trkpt lat="47.09512" lon="-1.72717">
        <ele>60</ele>
        <time>2022-07-31T08:28:19Z</time>
      </trkpt>
      <trkpt lat="47.09518" lon="-1.72703">
        <ele>60</ele>
        <time>2022-07-31T08:28:21Z</time>
      </trkpt>
      <trkpt lat="47.09527" lon="-1.7269">
        <ele>60</ele>
        <time>2022-07-31T08:28:23Z</time>
      </trkpt>
      <trkpt lat="47.09537" lon="-1.72681">
        <ele>60</ele>
        <time>2022-07-31T08:28:25Z</time>
      </trkpt>
      <trkpt lat="47.09549" lon="-1.72678">
        <ele>60</ele>
        <time>2022-07-31T08:28:27Z</time>
      </trkpt>
      <trkpt lat="47.09561" lon="-1.72682">
        <ele>60</ele>
        <time>2022-07-31T08:28:29Z</time>
      </trkpt>
      <trkpt lat="47.09572" lon="-1.72686">
        <ele>60</ele>
        <time>2022-07-31T08:28:31Z</time>
      </trkpt>
      <trkpt lat="47.09583" lon="-1.72692">
        <ele>60</ele>
        <time>2022-07-31T08:28:33Z</time>
      </trkpt>
      <trkpt lat="47.09593" lon="-1.72697">
        <ele>59</ele>
        <time>2022-07-31T08:28:35Z</time>
      </trkpt>
      <trkpt lat="47.09603" lon="-1.72702">
        <ele>60</ele>
        <time>2022-07-31T08:28:37Z</time>
      </trkpt>
      <trkpt lat="47.09614" lon="-1.72707">
        <ele>60</ele>
        <time>2022-07-31T08:28:39Z</time>
      </trkpt>
      <trkpt lat="47.09624" lon="-1.72712">
        <ele>60</ele>
        <time>2022-07-31T08:28:41Z</time>
      </trkpt>
      <trkpt lat="47.09635" lon="-1.72716">
        <ele>61</ele>
        <time>2022-07-31T08:28:43Z</time>
      </trkpt>
      <trkpt lat="47.09646" lon="-1.7272">
        <ele>61</ele>
        <time>2022-07-31T08:28:45Z</time>
      </trkpt>
      <trkpt lat="47.09663" lon="-1.72725">
        <ele>60</ele>
        <time>2022-07-31T08:28:48Z</time>
      </trkpt>
      <trkpt lat="47.09675" lon="-1.72729">
        <ele>60</ele>
        <time>2022-07-31T08:28:50Z</time>
      </trkpt>
      <trkpt lat="47.09687" lon="-1.72733">
        <ele>60</ele>
        <time>2022-07-31T08:28:52Z</time>
      </trkpt>
      <trkpt lat="47.09697" lon="-1.7274">
        <ele>60</ele>
        <time>2022-07-31T08:28:54Z</time>
      </trkpt>
      <trkpt lat="47.09711" lon="-1.72758">
        <ele>59</ele>
        <time>2022-07-31T08:28:57Z</time>
      </trkpt>
      <trkpt lat="47.09719" lon="-1.72771">
        <ele>59</ele>
        <time>2022-07-31T08:28:59Z</time>
      </trkpt>
      <trkpt lat="47.09726" lon="-1.72785">
        <ele>59</ele>
        <time>2022-07-31T08:29:01Z</time>
      </trkpt>
      <trkpt lat="47.09732" lon="-1.72799">
        <ele>60</ele>
        <time>2022-07-31T08:29:03Z</time>
      </trkpt>
      <trkpt lat="47.09741" lon="-1.7282">
        <ele>60</ele>
        <time>2022-07-31T08:29:06Z</time>
      </trkpt>
      <trkpt lat="47.0975" lon="-1.72841">
        <ele>61</ele>
        <time>2022-07-31T08:29:09Z</time>
      </trkpt>
      <trkpt lat="47.09756" lon="-1.72855">
        <ele>61</ele>
        <time>2022-07-31T08:29:11Z</time>
      </trkpt>
      <trkpt lat="47.09762" lon="-1.72868">
        <ele>61</ele>
        <time>2022-07-31T08:29:13Z</time>
      </trkpt>
      <trkpt lat="47.09771" lon="-1.72874">
        <ele>61</ele>
        <time>2022-07-31T08:29:15Z</time>
      </trkpt>
      <trkpt lat="47.0978" lon="-1.72869">
        <ele>60</ele>
        <time>2022-07-31T08:29:17Z</time>
      </trkpt>
      <trkpt lat="47.09793" lon="-1.72853">
        <ele>60</ele>
        <time>2022-07-31T08:29:20Z</time>
      </trkpt>
      <trkpt lat="47.09802" lon="-1.72842">
        <ele>61</ele>
        <time>2022-07-31T08:29:22Z</time>
      </trkpt>
      <trkpt lat="47.09813" lon="-1.72832">
        <ele>61</ele>
        <time>2022-07-31T08:29:24Z</time>
      </trkpt>
      <trkpt lat="47.09824" lon="-1.72826">
        <ele>62</ele>
        <time>2022-07-31T08:29:26Z</time>
      </trkpt>
      <trkpt lat="47.09834" lon="-1.7282">
        <ele>62</ele>
        <time>2022-07-31T08:29:28Z</time>
      </trkpt>
      <trkpt lat="47.09845" lon="-1.72815">
        <ele>62</ele>
        <time>2022-07-31T08:29:30Z</time>
      </trkpt>
      <trkpt lat="47.09855" lon="-1.72809">
        <ele>63</ele>
        <time>2022-07-31T08:29:32Z</time>
      </trkpt>
      <trkpt lat="47.09866" lon="-1.72803">
        <ele>63</ele>
        <time>2022-07-31T08:29:34Z</time>
      </trkpt>
      <trkpt lat="47.09876" lon="-1.72799">
        <ele>63</ele>
        <time>2022-07-31T08:29:36Z</time>
      </trkpt>
      <trkpt lat="47.09886" lon="-1.72793">
        <ele>64</ele>
        <time>2022-07-31T08:29:38Z</time>
      </trkpt>
      <trkpt lat="47.09897" lon="-1.72788">
        <ele>63</ele>
        <time>2022-07-31T08:29:40Z</time>
      </trkpt>
      <trkpt lat="47.09907" lon="-1.72783">
        <ele>63</ele>
        <time>2022-07-31T08:29:42Z</time>
      </trkpt>
      <trkpt lat="47.09917" lon="-1.72778">
        <ele>63</ele>
        <time>2022-07-31T08:29:44Z</time>
      </trkpt>
      <trkpt lat="47.09927" lon="-1.72773">
        <ele>63</ele>
        <time>2022-07-31T08:29:46Z</time>
      </trkpt>
      <trkpt lat="47.09938" lon="-1.72768">
        <ele>63</ele>
        <time>2022-07-31T08:29:48Z</time>
      </trkpt>
      <trkpt lat="47.09948" lon="-1.72763">
        <ele>63</ele>
        <time>2022-07-31T08:29:50Z</time>
      </trkpt>
      <trkpt lat="47.09958" lon="-1.72758">
        <ele>63</ele>
        <time>2022-07-31T08:29:52Z</time>
      </trkpt>
      <trkpt lat="47.09968" lon="-1.72752">
        <ele>63</ele>
        <time>2022-07-31T08:29:54Z</time>
      </trkpt>
      <trkpt lat="47.09979" lon="-1.72746">
        <ele>63</ele>
        <time>2022-07-31T08:29:56Z</time>
      </trkpt>
      <trkpt lat="47.09989" lon="-1.7274">
        <ele>63</ele>
        <time>2022-07-31T08:29:58Z</time>
      </trkpt>
      <trkpt lat="47.09999" lon="-1.72732">
        <ele>63</ele>
        <time>2022-07-31T08:30:00Z</time>
      </trkpt>
      <trkpt lat="47.10009" lon="-1.72725">
        <ele>64</ele>
        <time>2022-07-31T08:30:02Z</time>
      </trkpt>
      <trkpt lat="47.10018" lon="-1.72717">
        <ele>64</ele>
        <time>2022-07-31T08:30:04Z</time>
      </trkpt>
      <trkpt lat="47.10028" lon="-1.72708">
        <ele>64</ele>
        <time>2022-07-31T08:30:06Z</time>
      </trkpt>
      <trkpt lat="47.10038" lon="-1.72699">
        <ele>64</ele>
        <time>2022-07-31T08:30:08Z</time>
      </trkpt>
      <trkpt lat="47.10047" lon="-1.7269">
        <ele>64</ele>
        <time>2022-07-31T08:30:10Z</time>
      </trkpt>
      <trkpt lat="47.10057" lon="-1.72681">
        <ele>64</ele>
        <time>2022-07-31T08:30:12Z</time>
      </trkpt>
      <trkpt lat="47.10066" lon="-1.72672">
        <ele>64</ele>
        <time>2022-07-31T08:30:14Z</time>
      </trkpt>
      <trkpt lat="47.10076" lon="-1.72663">
        <ele>64</ele>
        <time>2022-07-31T08:30:16Z</time>
      </trkpt>
      <trkpt lat="47.10085" lon="-1.72653">
        <ele>65</ele>
        <time>2022-07-31T08:30:18Z</time>
      </trkpt>
      <trkpt lat="47.10094" lon="-1.72644">
        <ele>65</ele>
        <time>2022-07-31T08:30:20Z</time>
      </trkpt>
      <trkpt lat="47.10103" lon="-1.72634">
        <ele>65</ele>
        <time>2022-07-31T08:30:22Z</time>
      </trkpt>
      <trkpt lat="47.10112" lon="-1.72625">
        <ele>65</ele>
        <time>2022-07-31T08:30:24Z</time>
      </trkpt>
      <trkpt lat="47.10121" lon="-1.72615">
        <ele>66</ele>
        <time>2022-07-31T08:30:26Z</time>
      </trkpt>
      <trkpt lat="47.10131" lon="-1.72606">
        <ele>66</ele>
        <time>2022-07-31T08:30:28Z</time>
      </trkpt>
      <trkpt lat="47.1014" lon="-1.72596">
        <ele>67</ele>
        <time>2022-07-31T08:30:30Z</time>
      </trkpt>
      <trkpt lat="47.10149" lon="-1.72587">
        <ele>68</ele>
        <time>2022-07-31T08:30:32Z</time>
      </trkpt>
      <trkpt lat="47.10158" lon="-1.72576">
        <ele>68</ele>
        <time>2022-07-31T08:30:34Z</time>
      </trkpt>
      <trkpt lat="47.10167" lon="-1.72564">
        <ele>68</ele>
        <time>2022-07-31T08:30:36Z</time>
      </trkpt>
      <trkpt lat="47.10175" lon="-1.72552">
        <ele>68</ele>
        <time>2022-07-31T08:30:38Z</time>
      </trkpt>
      <trkpt lat="47.10184" lon="-1.7254">
        <ele>68</ele>
        <time>2022-07-31T08:30:40Z</time>
      </trkpt>
      <trkpt lat="47.10192" lon="-1.72527">
        <ele>68</ele>
        <time>2022-07-31T08:30:42Z</time>
      </trkpt>
      <trkpt lat="47.102" lon="-1.72513">
        <ele>67</ele>
        <time>2022-07-31T08:30:44Z</time>
      </trkpt>
      <trkpt lat="47.10209" lon="-1.725">
        <ele>67</ele>
        <time>2022-07-31T08:30:46Z</time>
      </trkpt>
      <trkpt lat="47.10217" lon="-1.72486">
        <ele>66</ele>
        <time>2022-07-31T08:30:48Z</time>
      </trkpt>
      <trkpt lat="47.10225" lon="-1.72471">
        <ele>66</ele>
        <time>2022-07-31T08:30:50Z</time>
      </trkpt>
      <trkpt lat="47.10233" lon="-1.72458">
        <ele>66</ele>
        <time>2022-07-31T08:30:52Z</time>
      </trkpt>
      <trkpt lat="47.10241" lon="-1.72445">
        <ele>67</ele>
        <time>2022-07-31T08:30:54Z</time>
      </trkpt>
      <trkpt lat="47.10249" lon="-1.72431">
        <ele>67</ele>
        <time>2022-07-31T08:30:56Z</time>
      </trkpt>
      <trkpt lat="47.10258" lon="-1.72419">
        <ele>66</ele>
        <time>2022-07-31T08:30:58Z</time>
      </trkpt>
      <trkpt lat="47.10269" lon="-1.7241">
        <ele>66</ele>
        <time>2022-07-31T08:31:00Z</time>
      </trkpt>
      <trkpt lat="47.10281" lon="-1.72401">
        <ele>65</ele>
        <time>2022-07-31T08:31:02Z</time>
      </trkpt>
      <trkpt lat="47.10293" lon="-1.72394">
        <ele>65</ele>
        <time>2022-07-31T08:31:04Z</time>
      </trkpt>
      <trkpt lat="47.10305" lon="-1.72387">
        <ele>65</ele>
        <time>2022-07-31T08:31:06Z</time>
      </trkpt>
      <trkpt lat="47.10316" lon="-1.72381">
        <ele>65</ele>
        <time>2022-07-31T08:31:08Z</time>
      </trkpt>
      <trkpt lat="47.10328" lon="-1.72375">
        <ele>64</ele>
        <time>2022-07-31T08:31:10Z</time>
      </trkpt>
      <trkpt lat="47.10339" lon="-1.72369">
        <ele>65</ele>
        <time>2022-07-31T08:31:12Z</time>
      </trkpt>
      <trkpt lat="47.10351" lon="-1.72363">
        <ele>64</ele>
        <time>2022-07-31T08:31:14Z</time>
      </trkpt>
      <trkpt lat="47.10364" lon="-1.72356">
        <ele>64</ele>
        <time>2022-07-31T08:31:16Z</time>
      </trkpt>
      <trkpt lat="47.10376" lon="-1.7235">
        <ele>63</ele>
        <time>2022-07-31T08:31:18Z</time>
      </trkpt>
      <trkpt lat="47.10389" lon="-1.72344">
        <ele>63</ele>
        <time>2022-07-31T08:31:20Z</time>
      </trkpt>
      <trkpt lat="47.10402" lon="-1.72336">
        <ele>63</ele>
        <time>2022-07-31T08:31:22Z</time>
      </trkpt>
      <trkpt lat="47.10415" lon="-1.7233">
        <ele>63</ele>
        <time>2022-07-31T08:31:24Z</time>
      </trkpt>
      <trkpt lat="47.10428" lon="-1.72323">
        <ele>62</ele>
        <time>2022-07-31T08:31:26Z</time>
      </trkpt>
      <trkpt lat="47.10441" lon="-1.72316">
        <ele>62</ele>
        <time>2022-07-31T08:31:28Z</time>
      </trkpt>
      <trkpt lat="47.10454" lon="-1.7231">
        <ele>62</ele>
        <time>2022-07-31T08:31:30Z</time>
      </trkpt>
      <trkpt lat="47.10467" lon="-1.72303">
        <ele>62</ele>
        <time>2022-07-31T08:31:32Z</time>
      </trkpt>
      <trkpt lat="47.1048" lon="-1.72296">
        <ele>62</ele>
        <time>2022-07-31T08:31:34Z</time>
      </trkpt>
      <trkpt lat="47.10493" lon="-1.72288">
        <ele>62</ele>
        <time>2022-07-31T08:31:36Z</time>
      </trkpt>
      <trkpt lat="47.10505" lon="-1.72281">
        <ele>62</ele>
        <time>2022-07-31T08:31:38Z</time>
      </trkpt>
      <trkpt lat="47.10518" lon="-1.7227">
        <ele>62</ele>
        <time>2022-07-31T08:31:40Z</time>
      </trkpt>
      <trkpt lat="47.1053" lon="-1.72257">
        <ele>62</ele>
        <time>2022-07-31T08:31:42Z</time>
      </trkpt>
      <trkpt lat="47.1054" lon="-1.7224">
        <ele>62</ele>
        <time>2022-07-31T08:31:44Z</time>
      </trkpt>
      <trkpt lat="47.1055" lon="-1.72223">
        <ele>62</ele>
        <time>2022-07-31T08:31:46Z</time>
      </trkpt>
      <trkpt lat="47.1056" lon="-1.72208">
        <ele>63</ele>
        <time>2022-07-31T08:31:48Z</time>
      </trkpt>
      <trkpt lat="47.10569" lon="-1.72194">
        <ele>63</ele>
        <time>2022-07-31T08:31:50Z</time>
      </trkpt>
      <trkpt lat="47.10578" lon="-1.7218">
        <ele>63</ele>
        <time>2022-07-31T08:31:52Z</time>
      </trkpt>
      <trkpt lat="47.10588" lon="-1.72166">
        <ele>64</ele>
        <time>2022-07-31T08:31:54Z</time>
      </trkpt>
      <trkpt lat="47.10598" lon="-1.72153">
        <ele>63</ele>
        <time>2022-07-31T08:31:56Z</time>
      </trkpt>
      <trkpt lat="47.10609" lon="-1.72143">
        <ele>64</ele>
        <time>2022-07-31T08:31:58Z</time>
      </trkpt>
      <trkpt lat="47.10621" lon="-1.72134">
        <ele>64</ele>
        <time>2022-07-31T08:32:00Z</time>
      </trkpt>
      <trkpt lat="47.10632" lon="-1.72128">
        <ele>64</ele>
        <time>2022-07-31T08:32:02Z</time>
      </trkpt>
      <trkpt lat="47.10645" lon="-1.72122">
        <ele>64</ele>
        <time>2022-07-31T08:32:04Z</time>
      </trkpt>
      <trkpt lat="47.10657" lon="-1.72119">
        <ele>64</ele>
        <time>2022-07-31T08:32:06Z</time>
      </trkpt>
      <trkpt lat="47.10669" lon="-1.72115">
        <ele>63</ele>
        <time>2022-07-31T08:32:08Z</time>
      </trkpt>
      <trkpt lat="47.1068" lon="-1.72112">
        <ele>64</ele>
        <time>2022-07-31T08:32:10Z</time>
      </trkpt>
      <trkpt lat="47.10691" lon="-1.72109">
        <ele>64</ele>
        <time>2022-07-31T08:32:12Z</time>
      </trkpt>
      <trkpt lat="47.10704" lon="-1.72106">
        <ele>62</ele>
        <time>2022-07-31T08:32:14Z</time>
      </trkpt>
      <trkpt lat="47.10715" lon="-1.72103">
        <ele>62</ele>
        <time>2022-07-31T08:32:16Z</time>
      </trkpt>
      <trkpt lat="47.10727" lon="-1.72099">
        <ele>62</ele>
        <time>2022-07-31T08:32:18Z</time>
      </trkpt>
      <trkpt lat="47.1074" lon="-1.72097">
        <ele>61</ele>
        <time>2022-07-31T08:32:20Z</time>
      </trkpt>
      <trkpt lat="47.10752" lon="-1.72097">
        <ele>61</ele>
        <time>2022-07-31T08:32:22Z</time>
      </trkpt>
      <trkpt lat="47.10765" lon="-1.72099">
        <ele>61</ele>
        <time>2022-07-31T08:32:24Z</time>
      </trkpt>
      <trkpt lat="47.10778" lon="-1.72103">
        <ele>60</ele>
        <time>2022-07-31T08:32:26Z</time>
      </trkpt>
      <trkpt lat="47.1079" lon="-1.72109">
        <ele>59</ele>
        <time>2022-07-31T08:32:28Z</time>
      </trkpt>
      <trkpt lat="47.10802" lon="-1.72116">
        <ele>58</ele>
        <time>2022-07-31T08:32:30Z</time>
      </trkpt>
      <trkpt lat="47.10811" lon="-1.72125">
        <ele>58</ele>
        <time>2022-07-31T08:32:32Z</time>
      </trkpt>
      <trkpt lat="47.1082" lon="-1.72136">
        <ele>58</ele>
        <time>2022-07-31T08:32:34Z</time>
      </trkpt>
      <trkpt lat="47.10829" lon="-1.72142">
        <ele>58</ele>
        <time>2022-07-31T08:32:36Z</time>
      </trkpt>
      <trkpt lat="47.10839" lon="-1.72141">
        <ele>58</ele>
        <time>2022-07-31T08:32:38Z</time>
      </trkpt>
      <trkpt lat="47.10849" lon="-1.72137">
        <ele>59</ele>
        <time>2022-07-31T08:32:40Z</time>
      </trkpt>
      <trkpt lat="47.1086" lon="-1.7213">
        <ele>59</ele>
        <time>2022-07-31T08:32:42Z</time>
      </trkpt>
      <trkpt lat="47.10869" lon="-1.72118">
        <ele>59</ele>
        <time>2022-07-31T08:32:44Z</time>
      </trkpt>
      <trkpt lat="47.10879" lon="-1.72104">
        <ele>60</ele>
        <time>2022-07-31T08:32:46Z</time>
      </trkpt>
      <trkpt lat="47.10887" lon="-1.72092">
        <ele>60</ele>
        <time>2022-07-31T08:32:48Z</time>
      </trkpt>
      <trkpt lat="47.10896" lon="-1.72079">
        <ele>60</ele>
        <time>2022-07-31T08:32:50Z</time>
      </trkpt>
      <trkpt lat="47.10904" lon="-1.72068">
        <ele>61</ele>
        <time>2022-07-31T08:32:52Z</time>
      </trkpt>
      <trkpt lat="47.10913" lon="-1.72056">
        <ele>61</ele>
        <time>2022-07-31T08:32:54Z</time>
      </trkpt>
      <trkpt lat="47.10921" lon="-1.72044">
        <ele>61</ele>
        <time>2022-07-31T08:32:56Z</time>
      </trkpt>
      <trkpt lat="47.10929" lon="-1.72033">
        <ele>61</ele>
        <time>2022-07-31T08:32:58Z</time>
      </trkpt>
      <trkpt lat="47.10938" lon="-1.72021">
        <ele>61</ele>
        <time>2022-07-31T08:33:00Z</time>
      </trkpt>
      <trkpt lat="47.10946" lon="-1.72007">
        <ele>62</ele>
        <time>2022-07-31T08:33:02Z</time>
      </trkpt>
      <trkpt lat="47.10955" lon="-1.71993">
        <ele>62</ele>
        <time>2022-07-31T08:33:04Z</time>
      </trkpt>
      <trkpt lat="47.10964" lon="-1.7198">
        <ele>62</ele>
        <time>2022-07-31T08:33:06Z</time>
      </trkpt>
      <trkpt lat="47.10972" lon="-1.71967">
        <ele>62</ele>
        <time>2022-07-31T08:33:08Z</time>
      </trkpt>
      <trkpt lat="47.10981" lon="-1.71956">
        <ele>62</ele>
        <time>2022-07-31T08:33:10Z</time>
      </trkpt>
      <trkpt lat="47.10989" lon="-1.71944">
        <ele>62</ele>
        <time>2022-07-31T08:33:12Z</time>
      </trkpt>
      <trkpt lat="47.10997" lon="-1.71932">
        <ele>62</ele>
        <time>2022-07-31T08:33:14Z</time>
      </trkpt>
      <trkpt lat="47.11006" lon="-1.7192">
        <ele>63</ele>
        <time>2022-07-31T08:33:16Z</time>
      </trkpt>
      <trkpt lat="47.11014" lon="-1.71909">
        <ele>63</ele>
        <time>2022-07-31T08:33:18Z</time>
      </trkpt>
      <trkpt lat="47.11022" lon="-1.71897">
        <ele>63</ele>
        <time>2022-07-31T08:33:20Z</time>
      </trkpt>
      <trkpt lat="47.1103" lon="-1.71885">
        <ele>63</ele>
        <time>2022-07-31T08:33:22Z</time>
      </trkpt>
      <trkpt lat="47.11038" lon="-1.71873">
        <ele>63</ele>
        <time>2022-07-31T08:33:24Z</time>
      </trkpt>
      <trkpt lat="47.11047" lon="-1.7186">
        <ele>63</ele>
        <time>2022-07-31T08:33:26Z</time>
      </trkpt>
      <trkpt lat="47.11057" lon="-1.71848">
        <ele>63</ele>
        <time>2022-07-31T08:33:28Z</time>
      </trkpt>
      <trkpt lat="47.11067" lon="-1.71836">
        <ele>63</ele>
        <time>2022-07-31T08:33:30Z</time>
      </trkpt>
      <trkpt lat="47.11077" lon="-1.71826">
        <ele>62</ele>
        <time>2022-07-31T08:33:32Z</time>
      </trkpt>
      <trkpt lat="47.11087" lon="-1.71814">
        <ele>62</ele>
        <time>2022-07-31T08:33:34Z</time>
      </trkpt>
      <trkpt lat="47.11097" lon="-1.71804">
        <ele>62</ele>
        <time>2022-07-31T08:33:36Z</time>
      </trkpt>
      <trkpt lat="47.11108" lon="-1.71794">
        <ele>61</ele>
        <time>2022-07-31T08:33:38Z</time>
      </trkpt>
      <trkpt lat="47.11118" lon="-1.71785">
        <ele>61</ele>
        <time>2022-07-31T08:33:40Z</time>
      </trkpt>
      <trkpt lat="47.11129" lon="-1.71775">
        <ele>61</ele>
        <time>2022-07-31T08:33:42Z</time>
      </trkpt>
      <trkpt lat="47.1114" lon="-1.71765">
        <ele>61</ele>
        <time>2022-07-31T08:33:44Z</time>
      </trkpt>
      <trkpt lat="47.11152" lon="-1.71755">
        <ele>61</ele>
        <time>2022-07-31T08:33:46Z</time>
      </trkpt>
      <trkpt lat="47.11163" lon="-1.71745">
        <ele>60</ele>
        <time>2022-07-31T08:33:48Z</time>
      </trkpt>
      <trkpt lat="47.11174" lon="-1.71736">
        <ele>60</ele>
        <time>2022-07-31T08:33:50Z</time>
      </trkpt>
      <trkpt lat="47.11186" lon="-1.71726">
        <ele>60</ele>
        <time>2022-07-31T08:33:52Z</time>
      </trkpt>
      <trkpt lat="47.11197" lon="-1.71716">
        <ele>59</ele>
        <time>2022-07-31T08:33:54Z</time>
      </trkpt>
      <trkpt lat="47.11208" lon="-1.71706">
        <ele>59</ele>
        <time>2022-07-31T08:33:56Z</time>
      </trkpt>
      <trkpt lat="47.1122" lon="-1.71696">
        <ele>59</ele>
        <time>2022-07-31T08:33:58Z</time>
      </trkpt>
      <trkpt lat="47.11231" lon="-1.71686">
        <ele>59</ele>
        <time>2022-07-31T08:34:00Z</time>
      </trkpt>
      <trkpt lat="47.11241" lon="-1.71678">
        <ele>58</ele>
        <time>2022-07-31T08:34:02Z</time>
      </trkpt>
      <trkpt lat="47.11254" lon="-1.71673">
        <ele>58</ele>
        <time>2022-07-31T08:34:04Z</time>
      </trkpt>
      <trkpt lat="47.11267" lon="-1.71675">
        <ele>58</ele>
        <time>2022-07-31T08:34:06Z</time>
      </trkpt>
      <trkpt lat="47.1128" lon="-1.71675">
        <ele>58</ele>
        <time>2022-07-31T08:34:08Z</time>
      </trkpt>
      <trkpt lat="47.11291" lon="-1.71671">
        <ele>58</ele>
        <time>2022-07-31T08:34:10Z</time>
      </trkpt>
      <trkpt lat="47.11302" lon="-1.71665">
        <ele>58</ele>
        <time>2022-07-31T08:34:12Z</time>
      </trkpt>
      <trkpt lat="47.11313" lon="-1.71658">
        <ele>59</ele>
        <time>2022-07-31T08:34:14Z</time>
      </trkpt>
      <trkpt lat="47.11323" lon="-1.71651">
        <ele>60</ele>
        <time>2022-07-31T08:34:16Z</time>
      </trkpt>
      <trkpt lat="47.11335" lon="-1.71645">
        <ele>59</ele>
        <time>2022-07-31T08:34:18Z</time>
      </trkpt>
      <trkpt lat="47.11343" lon="-1.71632">
        <ele>59</ele>
        <time>2022-07-31T08:34:20Z</time>
      </trkpt>
      <trkpt lat="47.11351" lon="-1.71618">
        <ele>59</ele>
        <time>2022-07-31T08:34:22Z</time>
      </trkpt>
      <trkpt lat="47.11359" lon="-1.71604">
        <ele>59</ele>
        <time>2022-07-31T08:34:24Z</time>
      </trkpt>
      <trkpt lat="47.11366" lon="-1.71588">
        <ele>59</ele>
        <time>2022-07-31T08:34:26Z</time>
      </trkpt>
      <trkpt lat="47.11374" lon="-1.71573">
        <ele>59</ele>
        <time>2022-07-31T08:34:28Z</time>
      </trkpt>
      <trkpt lat="47.11382" lon="-1.71557">
        <ele>59</ele>
        <time>2022-07-31T08:34:30Z</time>
      </trkpt>
      <trkpt lat="47.1139" lon="-1.71542">
        <ele>59</ele>
        <time>2022-07-31T08:34:32Z</time>
      </trkpt>
      <trkpt lat="47.11398" lon="-1.71527">
        <ele>59</ele>
        <time>2022-07-31T08:34:34Z</time>
      </trkpt>
      <trkpt lat="47.11406" lon="-1.71512">
        <ele>59</ele>
        <time>2022-07-31T08:34:36Z</time>
      </trkpt>
      <trkpt lat="47.11414" lon="-1.71496">
        <ele>59</ele>
        <time>2022-07-31T08:34:38Z</time>
      </trkpt>
      <trkpt lat="47.11422" lon="-1.71481">
        <ele>59</ele>
        <time>2022-07-31T08:34:40Z</time>
      </trkpt>
      <trkpt lat="47.1143" lon="-1.71466">
        <ele>59</ele>
        <time>2022-07-31T08:34:42Z</time>
      </trkpt>
      <trkpt lat="47.11437" lon="-1.71451">
        <ele>59</ele>
        <time>2022-07-31T08:34:44Z</time>
      </trkpt>
      <trkpt lat="47.11445" lon="-1.71436">
        <ele>59</ele>
        <time>2022-07-31T08:34:46Z</time>
      </trkpt>
      <trkpt lat="47.11452" lon="-1.71421">
        <ele>59</ele>
        <time>2022-07-31T08:34:48Z</time>
      </trkpt>
      <trkpt lat="47.1146" lon="-1.71405">
        <ele>58</ele>
        <time>2022-07-31T08:34:50Z</time>
      </trkpt>
      <trkpt lat="47.11467" lon="-1.7139">
        <ele>58</ele>
        <time>2022-07-31T08:34:52Z</time>
      </trkpt>
      <trkpt lat="47.11475" lon="-1.71376">
        <ele>58</ele>
        <time>2022-07-31T08:34:54Z</time>
      </trkpt>
      <trkpt lat="47.11482" lon="-1.71362">
        <ele>58</ele>
        <time>2022-07-31T08:34:56Z</time>
      </trkpt>
      <trkpt lat="47.11489" lon="-1.71347">
        <ele>58</ele>
        <time>2022-07-31T08:34:58Z</time>
      </trkpt>
      <trkpt lat="47.11497" lon="-1.71333">
        <ele>57</ele>
        <time>2022-07-31T08:35:00Z</time>
      </trkpt>
      <trkpt lat="47.11504" lon="-1.71319">
        <ele>57</ele>
        <time>2022-07-31T08:35:02Z</time>
      </trkpt>
      <trkpt lat="47.11512" lon="-1.71305">
        <ele>57</ele>
        <time>2022-07-31T08:35:04Z</time>
      </trkpt>
      <trkpt lat="47.11519" lon="-1.71291">
        <ele>57</ele>
        <time>2022-07-31T08:35:06Z</time>
      </trkpt>
      <trkpt lat="47.11527" lon="-1.71276">
        <ele>57</ele>
        <time>2022-07-31T08:35:08Z</time>
      </trkpt>
      <trkpt lat="47.11534" lon="-1.71263">
        <ele>57</ele>
        <time>2022-07-31T08:35:10Z</time>
      </trkpt>
      <trkpt lat="47.11541" lon="-1.71249">
        <ele>57</ele>
        <time>2022-07-31T08:35:12Z</time>
      </trkpt>
      <trkpt lat="47.11549" lon="-1.71237">
        <ele>58</ele>
        <time>2022-07-31T08:35:14Z</time>
      </trkpt>
      <trkpt lat="47.11557" lon="-1.71224">
        <ele>58</ele>
        <time>2022-07-31T08:35:16Z</time>
      </trkpt>
      <trkpt lat="47.11565" lon="-1.71211">
        <ele>58</ele>
        <time>2022-07-31T08:35:18Z</time>
      </trkpt>
      <trkpt lat="47.11574" lon="-1.712">
        <ele>58</ele>
        <time>2022-07-31T08:35:20Z</time>
      </trkpt>
      <trkpt lat="47.11583" lon="-1.71188">
        <ele>58</ele>
        <time>2022-07-31T08:35:22Z</time>
      </trkpt>
      <trkpt lat="47.11592" lon="-1.71177">
        <ele>59</ele>
        <time>2022-07-31T08:35:24Z</time>
      </trkpt>
      <trkpt lat="47.11601" lon="-1.71167">
        <ele>59</ele>
        <time>2022-07-31T08:35:26Z</time>
      </trkpt>
      <trkpt lat="47.1161" lon="-1.71157">
        <ele>60</ele>
        <time>2022-07-31T08:35:28Z</time>
      </trkpt>
      <trkpt lat="47.1162" lon="-1.71147">
        <ele>60</ele>
        <time>2022-07-31T08:35:30Z</time>
      </trkpt>
      <trkpt lat="47.11629" lon="-1.71137">
        <ele>60</ele>
        <time>2022-07-31T08:35:32Z</time>
      </trkpt>
      <trkpt lat="47.11639" lon="-1.71128">
        <ele>60</ele>
        <time>2022-07-31T08:35:34Z</time>
      </trkpt>
      <trkpt lat="47.11649" lon="-1.7112">
        <ele>60</ele>
        <time>2022-07-31T08:35:36Z</time>
      </trkpt>
      <trkpt lat="47.1166" lon="-1.71112">
        <ele>60</ele>
        <time>2022-07-31T08:35:38Z</time>
      </trkpt>
      <trkpt lat="47.1167" lon="-1.71105">
        <ele>60</ele>
        <time>2022-07-31T08:35:40Z</time>
      </trkpt>
      <trkpt lat="47.1168" lon="-1.71098">
        <ele>60</ele>
        <time>2022-07-31T08:35:42Z</time>
      </trkpt>
      <trkpt lat="47.1169" lon="-1.71091">
        <ele>60</ele>
        <time>2022-07-31T08:35:44Z</time>
      </trkpt>
      <trkpt lat="47.11701" lon="-1.71084">
        <ele>60</ele>
        <time>2022-07-31T08:35:46Z</time>
      </trkpt>
      <trkpt lat="47.11712" lon="-1.71077">
        <ele>60</ele>
        <time>2022-07-31T08:35:48Z</time>
      </trkpt>
      <trkpt lat="47.11723" lon="-1.71069">
        <ele>60</ele>
        <time>2022-07-31T08:35:50Z</time>
      </trkpt>
      <trkpt lat="47.11736" lon="-1.71061">
        <ele>60</ele>
        <time>2022-07-31T08:35:52Z</time>
      </trkpt>
      <trkpt lat="47.11748" lon="-1.71053">
        <ele>60</ele>
        <time>2022-07-31T08:35:54Z</time>
      </trkpt>
      <trkpt lat="47.11761" lon="-1.71045">
        <ele>60</ele>
        <time>2022-07-31T08:35:56Z</time>
      </trkpt>
      <trkpt lat="47.11773" lon="-1.71037">
        <ele>59</ele>
        <time>2022-07-31T08:35:58Z</time>
      </trkpt>
      <trkpt lat="47.11786" lon="-1.71029">
        <ele>59</ele>
        <time>2022-07-31T08:36:00Z</time>
      </trkpt>
      <trkpt lat="47.11798" lon="-1.71021">
        <ele>59</ele>
        <time>2022-07-31T08:36:02Z</time>
      </trkpt>
      <trkpt lat="47.11811" lon="-1.71012">
        <ele>59</ele>
        <time>2022-07-31T08:36:04Z</time>
      </trkpt>
      <trkpt lat="47.11823" lon="-1.71004">
        <ele>59</ele>
        <time>2022-07-31T08:36:06Z</time>
      </trkpt>
      <trkpt lat="47.11836" lon="-1.70996">
        <ele>59</ele>
        <time>2022-07-31T08:36:08Z</time>
      </trkpt>
      <trkpt lat="47.11848" lon="-1.70987">
        <ele>59</ele>
        <time>2022-07-31T08:36:10Z</time>
      </trkpt>
      <trkpt lat="47.11861" lon="-1.70979">
        <ele>59</ele>
        <time>2022-07-31T08:36:12Z</time>
      </trkpt>
      <trkpt lat="47.11873" lon="-1.70972">
        <ele>59</ele>
        <time>2022-07-31T08:36:14Z</time>
      </trkpt>
      <trkpt lat="47.11886" lon="-1.70963">
        <ele>59</ele>
        <time>2022-07-31T08:36:16Z</time>
      </trkpt>
      <trkpt lat="47.11898" lon="-1.70956">
        <ele>59</ele>
        <time>2022-07-31T08:36:18Z</time>
      </trkpt>
      <trkpt lat="47.1191" lon="-1.70948">
        <ele>60</ele>
        <time>2022-07-31T08:36:20Z</time>
      </trkpt>
      <trkpt lat="47.11921" lon="-1.7094">
        <ele>59</ele>
        <time>2022-07-31T08:36:22Z</time>
      </trkpt>
      <trkpt lat="47.11932" lon="-1.70933">
        <ele>60</ele>
        <time>2022-07-31T08:36:24Z</time>
      </trkpt>
      <trkpt lat="47.11943" lon="-1.70926">
        <ele>60</ele>
        <time>2022-07-31T08:36:26Z</time>
      </trkpt>
      <trkpt lat="47.11954" lon="-1.70919">
        <ele>60</ele>
        <time>2022-07-31T08:36:28Z</time>
      </trkpt>
      <trkpt lat="47.11965" lon="-1.70912">
        <ele>60</ele>
        <time>2022-07-31T08:36:30Z</time>
      </trkpt>
      <trkpt lat="47.11975" lon="-1.70906">
        <ele>60</ele>
        <time>2022-07-31T08:36:32Z</time>
      </trkpt>
      <trkpt lat="47.11986" lon="-1.70899">
        <ele>60</ele>
        <time>2022-07-31T08:36:34Z</time>
      </trkpt>
      <trkpt lat="47.11996" lon="-1.70892">
        <ele>61</ele>
        <time>2022-07-31T08:36:36Z</time>
      </trkpt>
      <trkpt lat="47.12006" lon="-1.70885">
        <ele>61</ele>
        <time>2022-07-31T08:36:38Z</time>
      </trkpt>
      <trkpt lat="47.12017" lon="-1.70879">
        <ele>61</ele>
        <time>2022-07-31T08:36:40Z</time>
      </trkpt>
      <trkpt lat="47.12027" lon="-1.70872">
        <ele>61</ele>
        <time>2022-07-31T08:36:42Z</time>
      </trkpt>
      <trkpt lat="47.12038" lon="-1.70865">
        <ele>61</ele>
        <time>2022-07-31T08:36:44Z</time>
      </trkpt>
      <trkpt lat="47.12049" lon="-1.70858">
        <ele>61</ele>
        <time>2022-07-31T08:36:46Z</time>
      </trkpt>
      <trkpt lat="47.1206" lon="-1.70851">
        <ele>60</ele>
        <time>2022-07-31T08:36:48Z</time>
      </trkpt>
      <trkpt lat="47.12071" lon="-1.70843">
        <ele>60</ele>
        <time>2022-07-31T08:36:50Z</time>
      </trkpt>
      <trkpt lat="47.12082" lon="-1.70836">
        <ele>60</ele>
        <time>2022-07-31T08:36:52Z</time>
      </trkpt>
      <trkpt lat="47.12093" lon="-1.70829">
        <ele>60</ele>
        <time>2022-07-31T08:36:54Z</time>
      </trkpt>
      <trkpt lat="47.12104" lon="-1.70821">
        <ele>60</ele>
        <time>2022-07-31T08:36:56Z</time>
      </trkpt>
      <trkpt lat="47.12116" lon="-1.70814">
        <ele>60</ele>
        <time>2022-07-31T08:36:58Z</time>
      </trkpt>
      <trkpt lat="47.12126" lon="-1.70807">
        <ele>60</ele>
        <time>2022-07-31T08:37:00Z</time>
      </trkpt>
      <trkpt lat="47.12137" lon="-1.70799">
        <ele>60</ele>
        <time>2022-07-31T08:37:02Z</time>
      </trkpt>
      <trkpt lat="47.12148" lon="-1.70792">
        <ele>60</ele>
        <time>2022-07-31T08:37:04Z</time>
      </trkpt>
      <trkpt lat="47.1216" lon="-1.70785">
        <ele>60</ele>
        <time>2022-07-31T08:37:06Z</time>
      </trkpt>
      <trkpt lat="47.12172" lon="-1.70777">
        <ele>60</ele>
        <time>2022-07-31T08:37:08Z</time>
      </trkpt>
      <trkpt lat="47.12183" lon="-1.70769">
        <ele>59</ele>
        <time>2022-07-31T08:37:10Z</time>
      </trkpt>
      <trkpt lat="47.12194" lon="-1.70761">
        <ele>59</ele>
        <time>2022-07-31T08:37:12Z</time>
      </trkpt>
      <trkpt lat="47.12206" lon="-1.70751">
        <ele>59</ele>
        <time>2022-07-31T08:37:14Z</time>
      </trkpt>
      <trkpt lat="47.12216" lon="-1.70742">
        <ele>59</ele>
        <time>2022-07-31T08:37:16Z</time>
      </trkpt>
      <trkpt lat="47.12227" lon="-1.70732">
        <ele>59</ele>
        <time>2022-07-31T08:37:18Z</time>
      </trkpt>
      <trkpt lat="47.12237" lon="-1.70721">
        <ele>58</ele>
        <time>2022-07-31T08:37:20Z</time>
      </trkpt>
      <trkpt lat="47.12248" lon="-1.70708">
        <ele>59</ele>
        <time>2022-07-31T08:37:22Z</time>
      </trkpt>
      <trkpt lat="47.12258" lon="-1.70696">
        <ele>59</ele>
        <time>2022-07-31T08:37:24Z</time>
      </trkpt>
      <trkpt lat="47.12267" lon="-1.70682">
        <ele>59</ele>
        <time>2022-07-31T08:37:26Z</time>
      </trkpt>
      <trkpt lat="47.12276" lon="-1.70669">
        <ele>59</ele>
        <time>2022-07-31T08:37:28Z</time>
      </trkpt>
      <trkpt lat="47.12286" lon="-1.70655">
        <ele>58</ele>
        <time>2022-07-31T08:37:30Z</time>
      </trkpt>
      <trkpt lat="47.12295" lon="-1.70642">
        <ele>58</ele>
        <time>2022-07-31T08:37:32Z</time>
      </trkpt>
      <trkpt lat="47.12305" lon="-1.70629">
        <ele>58</ele>
        <time>2022-07-31T08:37:34Z</time>
      </trkpt>
      <trkpt lat="47.12314" lon="-1.70615">
        <ele>58</ele>
        <time>2022-07-31T08:37:36Z</time>
      </trkpt>
      <trkpt lat="47.12323" lon="-1.70601">
        <ele>58</ele>
        <time>2022-07-31T08:37:38Z</time>
      </trkpt>
      <trkpt lat="47.12332" lon="-1.70587">
        <ele>58</ele>
        <time>2022-07-31T08:37:40Z</time>
      </trkpt>
      <trkpt lat="47.12341" lon="-1.70573">
        <ele>58</ele>
        <time>2022-07-31T08:37:42Z</time>
      </trkpt>
      <trkpt lat="47.1235" lon="-1.70559">
        <ele>58</ele>
        <time>2022-07-31T08:37:44Z</time>
      </trkpt>
      <trkpt lat="47.12358" lon="-1.70544">
        <ele>58</ele>
        <time>2022-07-31T08:37:46Z</time>
      </trkpt>
      <trkpt lat="47.12366" lon="-1.70527">
        <ele>58</ele>
        <time>2022-07-31T08:37:48Z</time>
      </trkpt>
      <trkpt lat="47.12373" lon="-1.70509">
        <ele>57</ele>
        <time>2022-07-31T08:37:50Z</time>
      </trkpt>
      <trkpt lat="47.12379" lon="-1.70492">
        <ele>57</ele>
        <time>2022-07-31T08:37:52Z</time>
      </trkpt>
      <trkpt lat="47.12384" lon="-1.70473">
        <ele>57</ele>
        <time>2022-07-31T08:37:54Z</time>
      </trkpt>
      <trkpt lat="47.12389" lon="-1.70455">
        <ele>57</ele>
        <time>2022-07-31T08:37:56Z</time>
      </trkpt>
      <trkpt lat="47.12393" lon="-1.70437">
        <ele>57</ele>
        <time>2022-07-31T08:37:58Z</time>
      </trkpt>
      <trkpt lat="47.12396" lon="-1.7042">
        <ele>57</ele>
        <time>2022-07-31T08:38:00Z</time>
      </trkpt>
      <trkpt lat="47.124" lon="-1.70402">
        <ele>58</ele>
        <time>2022-07-31T08:38:02Z</time>
      </trkpt>
      <trkpt lat="47.12404" lon="-1.70384">
        <ele>58</ele>
        <time>2022-07-31T08:38:04Z</time>
      </trkpt>
      <trkpt lat="47.12408" lon="-1.70367">
        <ele>58</ele>
        <time>2022-07-31T08:38:06Z</time>
      </trkpt>
      <trkpt lat="47.12412" lon="-1.7035">
        <ele>59</ele>
        <time>2022-07-31T08:38:08Z</time>
      </trkpt>
      <trkpt lat="47.12417" lon="-1.70333">
        <ele>59</ele>
        <time>2022-07-31T08:38:10Z</time>
      </trkpt>
      <trkpt lat="47.12423" lon="-1.70317">
        <ele>59</ele>
        <time>2022-07-31T08:38:12Z</time>
      </trkpt>
      <trkpt lat="47.1243" lon="-1.70302">
        <ele>60</ele>
        <time>2022-07-31T08:38:14Z</time>
      </trkpt>
      <trkpt lat="47.12439" lon="-1.70288">
        <ele>60</ele>
        <time>2022-07-31T08:38:16Z</time>
      </trkpt>
      <trkpt lat="47.12449" lon="-1.70276">
        <ele>60</ele>
        <time>2022-07-31T08:38:18Z</time>
      </trkpt>
      <trkpt lat="47.12459" lon="-1.70267">
        <ele>60</ele>
        <time>2022-07-31T08:38:20Z</time>
      </trkpt>
      <trkpt lat="47.12471" lon="-1.70259">
        <ele>61</ele>
        <time>2022-07-31T08:38:22Z</time>
      </trkpt>
      <trkpt lat="47.12482" lon="-1.70253">
        <ele>61</ele>
        <time>2022-07-31T08:38:24Z</time>
      </trkpt>
      <trkpt lat="47.12494" lon="-1.70246">
        <ele>62</ele>
        <time>2022-07-31T08:38:26Z</time>
      </trkpt>
      <trkpt lat="47.12507" lon="-1.70238">
        <ele>61</ele>
        <time>2022-07-31T08:38:28Z</time>
      </trkpt>
      <trkpt lat="47.12518" lon="-1.70232">
        <ele>61</ele>
        <time>2022-07-31T08:38:30Z</time>
      </trkpt>
      <trkpt lat="47.12529" lon="-1.70226">
        <ele>61</ele>
        <time>2022-07-31T08:38:32Z</time>
      </trkpt>
      <trkpt lat="47.12541" lon="-1.70221">
        <ele>62</ele>
        <time>2022-07-31T08:38:34Z</time>
      </trkpt>
      <trkpt lat="47.12553" lon="-1.70214">
        <ele>62</ele>
        <time>2022-07-31T08:38:36Z</time>
      </trkpt>
      <trkpt lat="47.12565" lon="-1.70208">
        <ele>62</ele>
        <time>2022-07-31T08:38:38Z</time>
      </trkpt>
      <trkpt lat="47.12577" lon="-1.70202">
        <ele>62</ele>
        <time>2022-07-31T08:38:40Z</time>
      </trkpt>
      <trkpt lat="47.12589" lon="-1.70196">
        <ele>62</ele>
        <time>2022-07-31T08:38:42Z</time>
      </trkpt>
      <trkpt lat="47.12601" lon="-1.7019">
        <ele>62</ele>
        <time>2022-07-31T08:38:44Z</time>
      </trkpt>
      <trkpt lat="47.12613" lon="-1.70184">
        <ele>62</ele>
        <time>2022-07-31T08:38:46Z</time>
      </trkpt>
      <trkpt lat="47.12626" lon="-1.70179">
        <ele>62</ele>
        <time>2022-07-31T08:38:48Z</time>
      </trkpt>
      <trkpt lat="47.12639" lon="-1.70174">
        <ele>61</ele>
        <time>2022-07-31T08:38:50Z</time>
      </trkpt>
      <trkpt lat="47.12651" lon="-1.70166">
        <ele>61</ele>
        <time>2022-07-31T08:38:52Z</time>
      </trkpt>
      <trkpt lat="47.12663" lon="-1.70159">
        <ele>61</ele>
        <time>2022-07-31T08:38:54Z</time>
      </trkpt>
      <trkpt lat="47.12674" lon="-1.70153">
        <ele>61</ele>
        <time>2022-07-31T08:38:56Z</time>
      </trkpt>
      <trkpt lat="47.12687" lon="-1.70146">
        <ele>61</ele>
        <time>2022-07-31T08:38:58Z</time>
      </trkpt>
      <trkpt lat="47.12698" lon="-1.70139">
        <ele>62</ele>
        <time>2022-07-31T08:39:00Z</time>
      </trkpt>
      <trkpt lat="47.1271" lon="-1.70133">
        <ele>62</ele>
        <time>2022-07-31T08:39:02Z</time>
      </trkpt>
      <trkpt lat="47.12723" lon="-1.70127">
        <ele>62</ele>
        <time>2022-07-31T08:39:04Z</time>
      </trkpt>
      <trkpt lat="47.12735" lon="-1.7012">
        <ele>62</ele>
        <time>2022-07-31T08:39:06Z</time>
      </trkpt>
      <trkpt lat="47.12747" lon="-1.70113">
        <ele>62</ele>
        <time>2022-07-31T08:39:08Z</time>
      </trkpt>
      <trkpt lat="47.12759" lon="-1.70106">
        <ele>62</ele>
        <time>2022-07-31T08:39:10Z</time>
      </trkpt>
      <trkpt lat="47.12771" lon="-1.701">
        <ele>62</ele>
        <time>2022-07-31T08:39:12Z</time>
      </trkpt>
      <trkpt lat="47.12783" lon="-1.70094">
        <ele>62</ele>
        <time>2022-07-31T08:39:14Z</time>
      </trkpt>
      <trkpt lat="47.12794" lon="-1.70088">
        <ele>62</ele>
        <time>2022-07-31T08:39:16Z</time>
      </trkpt>
      <trkpt lat="47.12806" lon="-1.70081">
        <ele>62</ele>
        <time>2022-07-31T08:39:18Z</time>
      </trkpt>
      <trkpt lat="47.12818" lon="-1.70075">
        <ele>62</ele>
        <time>2022-07-31T08:39:20Z</time>
      </trkpt>
      <trkpt lat="47.12829" lon="-1.7007">
        <ele>62</ele>
        <time>2022-07-31T08:39:22Z</time>
      </trkpt>
      <trkpt lat="47.12841" lon="-1.70064">
        <ele>62</ele>
        <time>2022-07-31T08:39:24Z</time>
      </trkpt>
      <trkpt lat="47.12852" lon="-1.70058">
        <ele>62</ele>
        <time>2022-07-31T08:39:26Z</time>
      </trkpt>
      <trkpt lat="47.12864" lon="-1.70052">
        <ele>63</ele>
        <time>2022-07-31T08:39:28Z</time>
      </trkpt>
      <trkpt lat="47.12876" lon="-1.70045">
        <ele>63</ele>
        <time>2022-07-31T08:39:30Z</time>
      </trkpt>
      <trkpt lat="47.12888" lon="-1.7004">
        <ele>63</ele>
        <time>2022-07-31T08:39:32Z</time>
      </trkpt>
      <trkpt lat="47.12899" lon="-1.70034">
        <ele>62</ele>
        <time>2022-07-31T08:39:34Z</time>
      </trkpt>
      <trkpt lat="47.12911" lon="-1.70028">
        <ele>62</ele>
        <time>2022-07-31T08:39:36Z</time>
      </trkpt>
      <trkpt lat="47.12922" lon="-1.70021">
        <ele>62</ele>
        <time>2022-07-31T08:39:38Z</time>
      </trkpt>
      <trkpt lat="47.12934" lon="-1.70016">
        <ele>62</ele>
        <time>2022-07-31T08:39:40Z</time>
      </trkpt>
      <trkpt lat="47.12946" lon="-1.7001">
        <ele>62</ele>
        <time>2022-07-31T08:39:42Z</time>
      </trkpt>
      <trkpt lat="47.12958" lon="-1.70003">
        <ele>62</ele>
        <time>2022-07-31T08:39:44Z</time>
      </trkpt>
      <trkpt lat="47.1297" lon="-1.69998">
        <ele>61</ele>
        <time>2022-07-31T08:39:46Z</time>
      </trkpt>
      <trkpt lat="47.12982" lon="-1.69991">
        <ele>61</ele>
        <time>2022-07-31T08:39:48Z</time>
      </trkpt>
      <trkpt lat="47.12993" lon="-1.69985">
        <ele>61</ele>
        <time>2022-07-31T08:39:50Z</time>
      </trkpt>
      <trkpt lat="47.13005" lon="-1.69979">
        <ele>61</ele>
        <time>2022-07-31T08:39:52Z</time>
      </trkpt>
      <trkpt lat="47.13017" lon="-1.69973">
        <ele>61</ele>
        <time>2022-07-31T08:39:54Z</time>
      </trkpt>
      <trkpt lat="47.13029" lon="-1.69968">
        <ele>60</ele>
        <time>2022-07-31T08:39:56Z</time>
      </trkpt>
      <trkpt lat="47.13041" lon="-1.69961">
        <ele>60</ele>
        <time>2022-07-31T08:39:58Z</time>
      </trkpt>
      <trkpt lat="47.13052" lon="-1.69955">
        <ele>60</ele>
        <time>2022-07-31T08:40:00Z</time>
      </trkpt>
      <trkpt lat="47.13064" lon="-1.6995">
        <ele>61</ele>
        <time>2022-07-31T08:40:02Z</time>
      </trkpt>
      <trkpt lat="47.13075" lon="-1.69944">
        <ele>61</ele>
        <time>2022-07-31T08:40:04Z</time>
      </trkpt>
      <trkpt lat="47.13086" lon="-1.69939">
        <ele>61</ele>
        <time>2022-07-31T08:40:06Z</time>
      </trkpt>
      <trkpt lat="47.13097" lon="-1.69932">
        <ele>62</ele>
        <time>2022-07-31T08:40:08Z</time>
      </trkpt>
      <trkpt lat="47.13109" lon="-1.69926">
        <ele>61</ele>
        <time>2022-07-31T08:40:10Z</time>
      </trkpt>
      <trkpt lat="47.13121" lon="-1.6992">
        <ele>61</ele>
        <time>2022-07-31T08:40:12Z</time>
      </trkpt>
      <trkpt lat="47.13131" lon="-1.69914">
        <ele>62</ele>
        <time>2022-07-31T08:40:14Z</time>
      </trkpt>
      <trkpt lat="47.13143" lon="-1.69908">
        <ele>63</ele>
        <time>2022-07-31T08:40:16Z</time>
      </trkpt>
      <trkpt lat="47.13153" lon="-1.69903">
        <ele>63</ele>
        <time>2022-07-31T08:40:18Z</time>
      </trkpt>
      <trkpt lat="47.13164" lon="-1.69897">
        <ele>63</ele>
        <time>2022-07-31T08:40:20Z</time>
      </trkpt>
      <trkpt lat="47.13174" lon="-1.69891">
        <ele>63</ele>
        <time>2022-07-31T08:40:22Z</time>
      </trkpt>
      <trkpt lat="47.13184" lon="-1.69885">
        <ele>63</ele>
        <time>2022-07-31T08:40:24Z</time>
      </trkpt>
      <trkpt lat="47.13194" lon="-1.69879">
        <ele>64</ele>
        <time>2022-07-31T08:40:26Z</time>
      </trkpt>
      <trkpt lat="47.13205" lon="-1.69873">
        <ele>65</ele>
        <time>2022-07-31T08:40:28Z</time>
      </trkpt>
      <trkpt lat="47.13215" lon="-1.69868">
        <ele>66</ele>
        <time>2022-07-31T08:40:30Z</time>
      </trkpt>
      <trkpt lat="47.13226" lon="-1.69862">
        <ele>66</ele>
        <time>2022-07-31T08:40:32Z</time>
      </trkpt>
      <trkpt lat="47.13236" lon="-1.69857">
        <ele>66</ele>
        <time>2022-07-31T08:40:34Z</time>
      </trkpt>
      <trkpt lat="47.13248" lon="-1.69852">
        <ele>66</ele>
        <time>2022-07-31T08:40:36Z</time>
      </trkpt>
      <trkpt lat="47.13259" lon="-1.69846">
        <ele>65</ele>
        <time>2022-07-31T08:40:38Z</time>
      </trkpt>
      <trkpt lat="47.13271" lon="-1.69841">
        <ele>64</ele>
        <time>2022-07-31T08:40:40Z</time>
      </trkpt>
      <trkpt lat="47.13282" lon="-1.69834">
        <ele>63</ele>
        <time>2022-07-31T08:40:42Z</time>
      </trkpt>
      <trkpt lat="47.13294" lon="-1.69828">
        <ele>63</ele>
        <time>2022-07-31T08:40:44Z</time>
      </trkpt>
      <trkpt lat="47.13306" lon="-1.69821">
        <ele>63</ele>
        <time>2022-07-31T08:40:46Z</time>
      </trkpt>
      <trkpt lat="47.13319" lon="-1.69815">
        <ele>64</ele>
        <time>2022-07-31T08:40:48Z</time>
      </trkpt>
      <trkpt lat="47.13331" lon="-1.69808">
        <ele>63</ele>
        <time>2022-07-31T08:40:50Z</time>
      </trkpt>
      <trkpt lat="47.13344" lon="-1.69801">
        <ele>64</ele>
        <time>2022-07-31T08:40:52Z</time>
      </trkpt>
      <trkpt lat="47.13356" lon="-1.69794">
        <ele>64</ele>
        <time>2022-07-31T08:40:54Z</time>
      </trkpt>
      <trkpt lat="47.13368" lon="-1.69788">
        <ele>64</ele>
        <time>2022-07-31T08:40:56Z</time>
      </trkpt>
      <trkpt lat="47.13381" lon="-1.69782">
        <ele>65</ele>
        <time>2022-07-31T08:40:58Z</time>
      </trkpt>
      <trkpt lat="47.13392" lon="-1.69775">
        <ele>66</ele>
        <time>2022-07-31T08:41:00Z</time>
      </trkpt>
      <trkpt lat="47.13404" lon="-1.69769">
        <ele>66</ele>
        <time>2022-07-31T08:41:02Z</time>
      </trkpt>
      <trkpt lat="47.13415" lon="-1.69763">
        <ele>67</ele>
        <time>2022-07-31T08:41:04Z</time>
      </trkpt>
      <trkpt lat="47.13426" lon="-1.69757">
        <ele>68</ele>
        <time>2022-07-31T08:41:06Z</time>
      </trkpt>
      <trkpt lat="47.13437" lon="-1.69751">
        <ele>68</ele>
        <time>2022-07-31T08:41:08Z</time>
      </trkpt>
      <trkpt lat="47.1345" lon="-1.69747">
        <ele>68</ele>
        <time>2022-07-31T08:41:10Z</time>
      </trkpt>
      <trkpt lat="47.13462" lon="-1.69742">
        <ele>69</ele>
        <time>2022-07-31T08:41:12Z</time>
      </trkpt>
      <trkpt lat="47.13476" lon="-1.69738">
        <ele>69</ele>
        <time>2022-07-31T08:41:14Z</time>
      </trkpt>
      <trkpt lat="47.1349" lon="-1.69735">
        <ele>67</ele>
        <time>2022-07-31T08:41:16Z</time>
      </trkpt>
      <trkpt lat="47.13503" lon="-1.69734">
        <ele>65</ele>
        <time>2022-07-31T08:41:18Z</time>
      </trkpt>
      <trkpt lat="47.13516" lon="-1.69734">
        <ele>64</ele>
        <time>2022-07-31T08:41:20Z</time>
      </trkpt>
      <trkpt lat="47.13529" lon="-1.69734">
        <ele>63</ele>
        <time>2022-07-31T08:41:22Z</time>
      </trkpt>
      <trkpt lat="47.13542" lon="-1.69735">
        <ele>62</ele>
        <time>2022-07-31T08:41:24Z</time>
      </trkpt>
      <trkpt lat="47.13554" lon="-1.69735">
        <ele>61</ele>
        <time>2022-07-31T08:41:26Z</time>
      </trkpt>
      <trkpt lat="47.13566" lon="-1.69734">
        <ele>61</ele>
        <time>2022-07-31T08:41:28Z</time>
      </trkpt>
      <trkpt lat="47.13579" lon="-1.69734">
        <ele>60</ele>
        <time>2022-07-31T08:41:30Z</time>
      </trkpt>
      <trkpt lat="47.13591" lon="-1.69734">
        <ele>60</ele>
        <time>2022-07-31T08:41:32Z</time>
      </trkpt>
      <trkpt lat="47.13602" lon="-1.69734">
        <ele>60</ele>
        <time>2022-07-31T08:41:34Z</time>
      </trkpt>
      <trkpt lat="47.13614" lon="-1.69734">
        <ele>60</ele>
        <time>2022-07-31T08:41:36Z</time>
      </trkpt>
      <trkpt lat="47.13626" lon="-1.69734">
        <ele>59</ele>
        <time>2022-07-31T08:41:38Z</time>
      </trkpt>
      <trkpt lat="47.13637" lon="-1.69734">
        <ele>59</ele>
        <time>2022-07-31T08:41:40Z</time>
      </trkpt>
      <trkpt lat="47.13648" lon="-1.69735">
        <ele>59</ele>
        <time>2022-07-31T08:41:42Z</time>
      </trkpt>
      <trkpt lat="47.1366" lon="-1.69735">
        <ele>59</ele>
        <time>2022-07-31T08:41:44Z</time>
      </trkpt>
      <trkpt lat="47.13671" lon="-1.69735">
        <ele>59</ele>
        <time>2022-07-31T08:41:46Z</time>
      </trkpt>
      <trkpt lat="47.13683" lon="-1.69736">
        <ele>59</ele>
        <time>2022-07-31T08:41:48Z</time>
      </trkpt>
      <trkpt lat="47.13695" lon="-1.69735">
        <ele>59</ele>
        <time>2022-07-31T08:41:50Z</time>
      </trkpt>
      <trkpt lat="47.13707" lon="-1.69735">
        <ele>59</ele>
        <time>2022-07-31T08:41:52Z</time>
      </trkpt>
      <trkpt lat="47.13718" lon="-1.69733">
        <ele>59</ele>
        <time>2022-07-31T08:41:54Z</time>
      </trkpt>
      <trkpt lat="47.1373" lon="-1.69731">
        <ele>59</ele>
        <time>2022-07-31T08:41:56Z</time>
      </trkpt>
      <trkpt lat="47.13741" lon="-1.69728">
        <ele>59</ele>
        <time>2022-07-31T08:41:58Z</time>
      </trkpt>
      <trkpt lat="47.13752" lon="-1.69725">
        <ele>59</ele>
        <time>2022-07-31T08:42:00Z</time>
      </trkpt>
      <trkpt lat="47.13764" lon="-1.69723">
        <ele>59</ele>
        <time>2022-07-31T08:42:02Z</time>
      </trkpt>
      <trkpt lat="47.13776" lon="-1.69723">
        <ele>59</ele>
        <time>2022-07-31T08:42:04Z</time>
      </trkpt>
      <trkpt lat="47.13788" lon="-1.69723">
        <ele>60</ele>
        <time>2022-07-31T08:42:06Z</time>
      </trkpt>
      <trkpt lat="47.13799" lon="-1.69724">
        <ele>60</ele>
        <time>2022-07-31T08:42:08Z</time>
      </trkpt>
      <trkpt lat="47.13811" lon="-1.69724">
        <ele>60</ele>
        <time>2022-07-31T08:42:10Z</time>
      </trkpt>
      <trkpt lat="47.13822" lon="-1.69725">
        <ele>61</ele>
        <time>2022-07-31T08:42:12Z</time>
      </trkpt>
      <trkpt lat="47.13834" lon="-1.69724">
        <ele>61</ele>
        <time>2022-07-31T08:42:14Z</time>
      </trkpt>
      <trkpt lat="47.13845" lon="-1.69724">
        <ele>61</ele>
        <time>2022-07-31T08:42:16Z</time>
      </trkpt>
      <trkpt lat="47.13856" lon="-1.69722">
        <ele>61</ele>
        <time>2022-07-31T08:42:18Z</time>
      </trkpt>
      <trkpt lat="47.13868" lon="-1.6972">
        <ele>62</ele>
        <time>2022-07-31T08:42:20Z</time>
      </trkpt>
      <trkpt lat="47.13879" lon="-1.69718">
        <ele>61</ele>
        <time>2022-07-31T08:42:22Z</time>
      </trkpt>
      <trkpt lat="47.13891" lon="-1.69716">
        <ele>62</ele>
        <time>2022-07-31T08:42:24Z</time>
      </trkpt>
      <trkpt lat="47.13903" lon="-1.69716">
        <ele>61</ele>
        <time>2022-07-31T08:42:26Z</time>
      </trkpt>
      <trkpt lat="47.13915" lon="-1.69716">
        <ele>62</ele>
        <time>2022-07-31T08:42:28Z</time>
      </trkpt>
      <trkpt lat="47.13926" lon="-1.69716">
        <ele>62</ele>
        <time>2022-07-31T08:42:30Z</time>
      </trkpt>
      <trkpt lat="47.13937" lon="-1.69716">
        <ele>62</ele>
        <time>2022-07-31T08:42:32Z</time>
      </trkpt>
      <trkpt lat="47.13948" lon="-1.69717">
        <ele>63</ele>
        <time>2022-07-31T08:42:34Z</time>
      </trkpt>
      <trkpt lat="47.13958" lon="-1.69717">
        <ele>64</ele>
        <time>2022-07-31T08:42:36Z</time>
      </trkpt>
      <trkpt lat="47.13969" lon="-1.69717">
        <ele>64</ele>
        <time>2022-07-31T08:42:38Z</time>
      </trkpt>
      <trkpt lat="47.1398" lon="-1.69718">
        <ele>65</ele>
        <time>2022-07-31T08:42:40Z</time>
      </trkpt>
      <trkpt lat="47.13991" lon="-1.6972">
        <ele>65</ele>
        <time>2022-07-31T08:42:42Z</time>
      </trkpt>
      <trkpt lat="47.14002" lon="-1.69721">
        <ele>65</ele>
        <time>2022-07-31T08:42:44Z</time>
      </trkpt>
      <trkpt lat="47.14013" lon="-1.69722">
        <ele>65</ele>
        <time>2022-07-31T08:42:46Z</time>
      </trkpt>
      <trkpt lat="47.14025" lon="-1.69722">
        <ele>65</ele>
        <time>2022-07-31T08:42:48Z</time>
      </trkpt>
      <trkpt lat="47.14036" lon="-1.69722">
        <ele>65</ele>
        <time>2022-07-31T08:42:50Z</time>
      </trkpt>
      <trkpt lat="47.14048" lon="-1.69724">
        <ele>65</ele>
        <time>2022-07-31T08:42:52Z</time>
      </trkpt>
      <trkpt lat="47.1406" lon="-1.69726">
        <ele>64</ele>
        <time>2022-07-31T08:42:54Z</time>
      </trkpt>
      <trkpt lat="47.14072" lon="-1.69726">
        <ele>64</ele>
        <time>2022-07-31T08:42:56Z</time>
      </trkpt>
      <trkpt lat="47.14084" lon="-1.69727">
        <ele>65</ele>
        <time>2022-07-31T08:42:58Z</time>
      </trkpt>
      <trkpt lat="47.14096" lon="-1.69727">
        <ele>65</ele>
        <time>2022-07-31T08:43:00Z</time>
      </trkpt>
      <trkpt lat="47.14109" lon="-1.69725">
        <ele>65</ele>
        <time>2022-07-31T08:43:02Z</time>
      </trkpt>
      <trkpt lat="47.14123" lon="-1.69723">
        <ele>65</ele>
        <time>2022-07-31T08:43:04Z</time>
      </trkpt>
      <trkpt lat="47.14135" lon="-1.69721">
        <ele>65</ele>
        <time>2022-07-31T08:43:06Z</time>
      </trkpt>
      <trkpt lat="47.14148" lon="-1.69719">
        <ele>65</ele>
        <time>2022-07-31T08:43:08Z</time>
      </trkpt>
      <trkpt lat="47.14161" lon="-1.69717">
        <ele>65</ele>
        <time>2022-07-31T08:43:10Z</time>
      </trkpt>
      <trkpt lat="47.14174" lon="-1.69714">
        <ele>65</ele>
        <time>2022-07-31T08:43:12Z</time>
      </trkpt>
      <trkpt lat="47.14186" lon="-1.69712">
        <ele>64</ele>
        <time>2022-07-31T08:43:14Z</time>
      </trkpt>
      <trkpt lat="47.14198" lon="-1.69711">
        <ele>64</ele>
        <time>2022-07-31T08:43:16Z</time>
      </trkpt>
      <trkpt lat="47.1421" lon="-1.69709">
        <ele>64</ele>
        <time>2022-07-31T08:43:18Z</time>
      </trkpt>
      <trkpt lat="47.14222" lon="-1.69707">
        <ele>64</ele>
        <time>2022-07-31T08:43:20Z</time>
      </trkpt>
      <trkpt lat="47.14233" lon="-1.69705">
        <ele>64</ele>
        <time>2022-07-31T08:43:22Z</time>
      </trkpt>
      <trkpt lat="47.14244" lon="-1.69704">
        <ele>64</ele>
        <time>2022-07-31T08:43:24Z</time>
      </trkpt>
      <trkpt lat="47.14254" lon="-1.69704">
        <ele>64</ele>
        <time>2022-07-31T08:43:26Z</time>
      </trkpt>
      <trkpt lat="47.14265" lon="-1.69703">
        <ele>64</ele>
        <time>2022-07-31T08:43:28Z</time>
      </trkpt>
      <trkpt lat="47.14276" lon="-1.69702">
        <ele>64</ele>
        <time>2022-07-31T08:43:30Z</time>
      </trkpt>
      <trkpt lat="47.14287" lon="-1.69703">
        <ele>65</ele>
        <time>2022-07-31T08:43:32Z</time>
      </trkpt>
      <trkpt lat="47.14298" lon="-1.69705">
        <ele>65</ele>
        <time>2022-07-31T08:43:34Z</time>
      </trkpt>
      <trkpt lat="47.14308" lon="-1.69706">
        <ele>65</ele>
        <time>2022-07-31T08:43:36Z</time>
      </trkpt>
      <trkpt lat="47.14318" lon="-1.69705">
        <ele>65</ele>
        <time>2022-07-31T08:43:38Z</time>
      </trkpt>
      <trkpt lat="47.14328" lon="-1.69693">
        <ele>65</ele>
        <time>2022-07-31T08:43:41Z</time>
      </trkpt>
      <trkpt lat="47.14332" lon="-1.6968">
        <ele>65</ele>
        <time>2022-07-31T08:43:43Z</time>
      </trkpt>
      <trkpt lat="47.14335" lon="-1.69665">
        <ele>66</ele>
        <time>2022-07-31T08:43:45Z</time>
      </trkpt>
      <trkpt lat="47.14339" lon="-1.69649">
        <ele>66</ele>
        <time>2022-07-31T08:43:47Z</time>
      </trkpt>
      <trkpt lat="47.14342" lon="-1.69633">
        <ele>66</ele>
        <time>2022-07-31T08:43:49Z</time>
      </trkpt>
      <trkpt lat="47.14347" lon="-1.69618">
        <ele>66</ele>
        <time>2022-07-31T08:43:51Z</time>
      </trkpt>
      <trkpt lat="47.14352" lon="-1.69604">
        <ele>67</ele>
        <time>2022-07-31T08:43:53Z</time>
      </trkpt>
      <trkpt lat="47.14356" lon="-1.69589">
        <ele>67</ele>
        <time>2022-07-31T08:43:55Z</time>
      </trkpt>
      <trkpt lat="47.14361" lon="-1.69574">
        <ele>67</ele>
        <time>2022-07-31T08:43:57Z</time>
      </trkpt>
      <trkpt lat="47.14366" lon="-1.69559">
        <ele>68</ele>
        <time>2022-07-31T08:43:59Z</time>
      </trkpt>
      <trkpt lat="47.1437" lon="-1.69544">
        <ele>68</ele>
        <time>2022-07-31T08:44:01Z</time>
      </trkpt>
      <trkpt lat="47.14373" lon="-1.6953">
        <ele>68</ele>
        <time>2022-07-31T08:44:03Z</time>
      </trkpt>
      <trkpt lat="47.14376" lon="-1.69515">
        <ele>69</ele>
        <time>2022-07-31T08:44:05Z</time>
      </trkpt>
      <trkpt lat="47.14377" lon="-1.695">
        <ele>69</ele>
        <time>2022-07-31T08:44:07Z</time>
      </trkpt>
      <trkpt lat="47.14378" lon="-1.69485">
        <ele>68</ele>
        <time>2022-07-31T08:44:09Z</time>
      </trkpt>
      <trkpt lat="47.14378" lon="-1.69471">
        <ele>69</ele>
        <time>2022-07-31T08:44:11Z</time>
      </trkpt>
      <trkpt lat="47.14379" lon="-1.69455">
        <ele>70</ele>
        <time>2022-07-31T08:44:13Z</time>
      </trkpt>
      <trkpt lat="47.14379" lon="-1.69439">
        <ele>70</ele>
        <time>2022-07-31T08:44:15Z</time>
      </trkpt>
      <trkpt lat="47.14379" lon="-1.69424">
        <ele>70</ele>
        <time>2022-07-31T08:44:17Z</time>
      </trkpt>
      <trkpt lat="47.1438" lon="-1.6941">
        <ele>71</ele>
        <time>2022-07-31T08:44:19Z</time>
      </trkpt>
      <trkpt lat="47.14381" lon="-1.69396">
        <ele>71</ele>
        <time>2022-07-31T08:44:21Z</time>
      </trkpt>
      <trkpt lat="47.14383" lon="-1.69382">
        <ele>72</ele>
        <time>2022-07-31T08:44:23Z</time>
      </trkpt>
      <trkpt lat="47.14385" lon="-1.69367">
        <ele>72</ele>
        <time>2022-07-31T08:44:25Z</time>
      </trkpt>
      <trkpt lat="47.14388" lon="-1.69351">
        <ele>72</ele>
        <time>2022-07-31T08:44:27Z</time>
      </trkpt>
      <trkpt lat="47.1439" lon="-1.69334">
        <ele>72</ele>
        <time>2022-07-31T08:44:29Z</time>
      </trkpt>
      <trkpt lat="47.1439" lon="-1.69316">
        <ele>72</ele>
        <time>2022-07-31T08:44:31Z</time>
      </trkpt>
      <trkpt lat="47.14391" lon="-1.693">
        <ele>72</ele>
        <time>2022-07-31T08:44:33Z</time>
      </trkpt>
      <trkpt lat="47.14391" lon="-1.69283">
        <ele>72</ele>
        <time>2022-07-31T08:44:35Z</time>
      </trkpt>
      <trkpt lat="47.14391" lon="-1.69265">
        <ele>72</ele>
        <time>2022-07-31T08:44:37Z</time>
      </trkpt>
      <trkpt lat="47.14391" lon="-1.69249">
        <ele>73</ele>
        <time>2022-07-31T08:44:39Z</time>
      </trkpt>
      <trkpt lat="47.14392" lon="-1.69231">
        <ele>72</ele>
        <time>2022-07-31T08:44:41Z</time>
      </trkpt>
      <trkpt lat="47.14392" lon="-1.69214">
        <ele>72</ele>
        <time>2022-07-31T08:44:43Z</time>
      </trkpt>
      <trkpt lat="47.14392" lon="-1.69198">
        <ele>72</ele>
        <time>2022-07-31T08:44:45Z</time>
      </trkpt>
      <trkpt lat="47.14393" lon="-1.69181">
        <ele>72</ele>
        <time>2022-07-31T08:44:47Z</time>
      </trkpt>
      <trkpt lat="47.14393" lon="-1.69165">
        <ele>72</ele>
        <time>2022-07-31T08:44:49Z</time>
      </trkpt>
      <trkpt lat="47.14393" lon="-1.69147">
        <ele>73</ele>
        <time>2022-07-31T08:44:51Z</time>
      </trkpt>
      <trkpt lat="47.14393" lon="-1.69131">
        <ele>72</ele>
        <time>2022-07-31T08:44:53Z</time>
      </trkpt>
      <trkpt lat="47.14394" lon="-1.69114">
        <ele>73</ele>
        <time>2022-07-31T08:44:55Z</time>
      </trkpt>
      <trkpt lat="47.14394" lon="-1.69097">
        <ele>73</ele>
        <time>2022-07-31T08:44:57Z</time>
      </trkpt>
      <trkpt lat="47.14394" lon="-1.69079">
        <ele>73</ele>
        <time>2022-07-31T08:44:59Z</time>
      </trkpt>
      <trkpt lat="47.14394" lon="-1.6906">
        <ele>72</ele>
        <time>2022-07-31T08:45:01Z</time>
      </trkpt>
      <trkpt lat="47.14394" lon="-1.69043">
        <ele>72</ele>
        <time>2022-07-31T08:45:03Z</time>
      </trkpt>
      <trkpt lat="47.14394" lon="-1.69026">
        <ele>72</ele>
        <time>2022-07-31T08:45:05Z</time>
      </trkpt>
      <trkpt lat="47.14394" lon="-1.6901">
        <ele>72</ele>
        <time>2022-07-31T08:45:07Z</time>
      </trkpt>
      <trkpt lat="47.14396" lon="-1.68984">
        <ele>73</ele>
        <time>2022-07-31T08:45:10Z</time>
      </trkpt>
      <trkpt lat="47.14396" lon="-1.68958">
        <ele>73</ele>
        <time>2022-07-31T08:45:13Z</time>
      </trkpt>
      <trkpt lat="47.14397" lon="-1.6894">
        <ele>72</ele>
        <time>2022-07-31T08:45:15Z</time>
      </trkpt>
      <trkpt lat="47.14397" lon="-1.68922">
        <ele>72</ele>
        <time>2022-07-31T08:45:17Z</time>
      </trkpt>
      <trkpt lat="47.14398" lon="-1.68904">
        <ele>73</ele>
        <time>2022-07-31T08:45:19Z</time>
      </trkpt>
      <trkpt lat="47.14398" lon="-1.68885">
        <ele>73</ele>
        <time>2022-07-31T08:45:21Z</time>
      </trkpt>
      <trkpt lat="47.14401" lon="-1.68866">
        <ele>72</ele>
        <time>2022-07-31T08:45:23Z</time>
      </trkpt>
      <trkpt lat="47.14404" lon="-1.68847">
        <ele>72</ele>
        <time>2022-07-31T08:45:25Z</time>
      </trkpt>
      <trkpt lat="47.14406" lon="-1.68828">
        <ele>72</ele>
        <time>2022-07-31T08:45:27Z</time>
      </trkpt>
      <trkpt lat="47.14407" lon="-1.68808">
        <ele>71</ele>
        <time>2022-07-31T08:45:29Z</time>
      </trkpt>
      <trkpt lat="47.14408" lon="-1.68788">
        <ele>71</ele>
        <time>2022-07-31T08:45:31Z</time>
      </trkpt>
      <trkpt lat="47.1441" lon="-1.68767">
        <ele>71</ele>
        <time>2022-07-31T08:45:33Z</time>
      </trkpt>
      <trkpt lat="47.14411" lon="-1.68747">
        <ele>71</ele>
        <time>2022-07-31T08:45:35Z</time>
      </trkpt>
      <trkpt lat="47.14411" lon="-1.68725">
        <ele>71</ele>
        <time>2022-07-31T08:45:37Z</time>
      </trkpt>
      <trkpt lat="47.14413" lon="-1.68705">
        <ele>71</ele>
        <time>2022-07-31T08:45:39Z</time>
      </trkpt>
      <trkpt lat="47.14409" lon="-1.68686">
        <ele>71</ele>
        <time>2022-07-31T08:45:41Z</time>
      </trkpt>
      <trkpt lat="47.14405" lon="-1.68668">
        <ele>70</ele>
        <time>2022-07-31T08:45:43Z</time>
      </trkpt>
      <trkpt lat="47.14402" lon="-1.68649">
        <ele>70</ele>
        <time>2022-07-31T08:45:45Z</time>
      </trkpt>
      <trkpt lat="47.14396" lon="-1.68632">
        <ele>70</ele>
        <time>2022-07-31T08:45:47Z</time>
      </trkpt>
      <trkpt lat="47.14392" lon="-1.68611">
        <ele>69</ele>
        <time>2022-07-31T08:45:49Z</time>
      </trkpt>
      <trkpt lat="47.14389" lon="-1.6859">
        <ele>69</ele>
        <time>2022-07-31T08:45:51Z</time>
      </trkpt>
      <trkpt lat="47.14389" lon="-1.68569">
        <ele>69</ele>
        <time>2022-07-31T08:45:53Z</time>
      </trkpt>
      <trkpt lat="47.14388" lon="-1.68549">
        <ele>69</ele>
        <time>2022-07-31T08:45:55Z</time>
      </trkpt>
      <trkpt lat="47.14388" lon="-1.68528">
        <ele>68</ele>
        <time>2022-07-31T08:45:57Z</time>
      </trkpt>
      <trkpt lat="47.1439" lon="-1.68508">
        <ele>68</ele>
        <time>2022-07-31T08:45:59Z</time>
      </trkpt>
      <trkpt lat="47.14392" lon="-1.68488">
        <ele>68</ele>
        <time>2022-07-31T08:46:01Z</time>
      </trkpt>
      <trkpt lat="47.14393" lon="-1.68469">
        <ele>69</ele>
        <time>2022-07-31T08:46:03Z</time>
      </trkpt>
      <trkpt lat="47.14394" lon="-1.68449">
        <ele>69</ele>
        <time>2022-07-31T08:46:05Z</time>
      </trkpt>
      <trkpt lat="47.14396" lon="-1.68429">
        <ele>69</ele>
        <time>2022-07-31T08:46:07Z</time>
      </trkpt>
      <trkpt lat="47.14397" lon="-1.68409">
        <ele>69</ele>
        <time>2022-07-31T08:46:09Z</time>
      </trkpt>
      <trkpt lat="47.14397" lon="-1.68389">
        <ele>68</ele>
        <time>2022-07-31T08:46:11Z</time>
      </trkpt>
      <trkpt lat="47.14396" lon="-1.68368">
        <ele>68</ele>
        <time>2022-07-31T08:46:13Z</time>
      </trkpt>
      <trkpt lat="47.14394" lon="-1.68348">
        <ele>68</ele>
        <time>2022-07-31T08:46:15Z</time>
      </trkpt>
      <trkpt lat="47.1439" lon="-1.68328">
        <ele>68</ele>
        <time>2022-07-31T08:46:17Z</time>
      </trkpt>
      <trkpt lat="47.14386" lon="-1.68309">
        <ele>67</ele>
        <time>2022-07-31T08:46:19Z</time>
      </trkpt>
      <trkpt lat="47.14381" lon="-1.6829">
        <ele>67</ele>
        <time>2022-07-31T08:46:21Z</time>
      </trkpt>
      <trkpt lat="47.14375" lon="-1.68273">
        <ele>67</ele>
        <time>2022-07-31T08:46:23Z</time>
      </trkpt>
      <trkpt lat="47.14371" lon="-1.68255">
        <ele>67</ele>
        <time>2022-07-31T08:46:25Z</time>
      </trkpt>
      <trkpt lat="47.1437" lon="-1.68236">
        <ele>67</ele>
        <time>2022-07-31T08:46:27Z</time>
      </trkpt>
      <trkpt lat="47.14371" lon="-1.68218">
        <ele>68</ele>
        <time>2022-07-31T08:46:29Z</time>
      </trkpt>
      <trkpt lat="47.14373" lon="-1.682">
        <ele>68</ele>
        <time>2022-07-31T08:46:31Z</time>
      </trkpt>
      <trkpt lat="47.14372" lon="-1.68181">
        <ele>68</ele>
        <time>2022-07-31T08:46:33Z</time>
      </trkpt>
      <trkpt lat="47.1437" lon="-1.68163">
        <ele>68</ele>
        <time>2022-07-31T08:46:35Z</time>
      </trkpt>
      <trkpt lat="47.14369" lon="-1.68143">
        <ele>68</ele>
        <time>2022-07-31T08:46:37Z</time>
      </trkpt>
      <trkpt lat="47.1437" lon="-1.68124">
        <ele>68</ele>
        <time>2022-07-31T08:46:39Z</time>
      </trkpt>
      <trkpt lat="47.1437" lon="-1.68104">
        <ele>68</ele>
        <time>2022-07-31T08:46:41Z</time>
      </trkpt>
      <trkpt lat="47.14368" lon="-1.68084">
        <ele>68</ele>
        <time>2022-07-31T08:46:43Z</time>
      </trkpt>
      <trkpt lat="47.14367" lon="-1.68064">
        <ele>68</ele>
        <time>2022-07-31T08:46:45Z</time>
      </trkpt>
      <trkpt lat="47.14367" lon="-1.68045">
        <ele>68</ele>
        <time>2022-07-31T08:46:47Z</time>
      </trkpt>
      <trkpt lat="47.14366" lon="-1.68026">
        <ele>68</ele>
        <time>2022-07-31T08:46:49Z</time>
      </trkpt>
      <trkpt lat="47.14365" lon="-1.68007">
        <ele>68</ele>
        <time>2022-07-31T08:46:51Z</time>
      </trkpt>
      <trkpt lat="47.14364" lon="-1.67988">
        <ele>68</ele>
        <time>2022-07-31T08:46:53Z</time>
      </trkpt>
      <trkpt lat="47.14362" lon="-1.6797">
        <ele>68</ele>
        <time>2022-07-31T08:46:55Z</time>
      </trkpt>
      <trkpt lat="47.1436" lon="-1.67952">
        <ele>68</ele>
        <time>2022-07-31T08:46:57Z</time>
      </trkpt>
      <trkpt lat="47.14359" lon="-1.67934">
        <ele>68</ele>
        <time>2022-07-31T08:46:59Z</time>
      </trkpt>
      <trkpt lat="47.14356" lon="-1.67917">
        <ele>68</ele>
        <time>2022-07-31T08:47:01Z</time>
      </trkpt>
      <trkpt lat="47.1435" lon="-1.67904">
        <ele>68</ele>
        <time>2022-07-31T08:47:03Z</time>
      </trkpt>
      <trkpt lat="47.14343" lon="-1.6789">
        <ele>68</ele>
        <time>2022-07-31T08:47:05Z</time>
      </trkpt>
      <trkpt lat="47.1434" lon="-1.67871">
        <ele>68</ele>
        <time>2022-07-31T08:47:07Z</time>
      </trkpt>
      <trkpt lat="47.14342" lon="-1.67852">
        <ele>68</ele>
        <time>2022-07-31T08:47:09Z</time>
      </trkpt>
      <trkpt lat="47.14345" lon="-1.67832">
        <ele>68</ele>
        <time>2022-07-31T08:47:11Z</time>
      </trkpt>
      <trkpt lat="47.14343" lon="-1.67811">
        <ele>68</ele>
        <time>2022-07-31T08:47:13Z</time>
      </trkpt>
      <trkpt lat="47.14341" lon="-1.67791">
        <ele>68</ele>
        <time>2022-07-31T08:47:15Z</time>
      </trkpt>
      <trkpt lat="47.14338" lon="-1.67771">
        <ele>68</ele>
        <time>2022-07-31T08:47:17Z</time>
      </trkpt>
      <trkpt lat="47.14333" lon="-1.67753">
        <ele>68</ele>
        <time>2022-07-31T08:47:19Z</time>
      </trkpt>
      <trkpt lat="47.14329" lon="-1.67734">
        <ele>67</ele>
        <time>2022-07-31T08:47:21Z</time>
      </trkpt>
      <trkpt lat="47.14323" lon="-1.67715">
        <ele>67</ele>
        <time>2022-07-31T08:47:23Z</time>
      </trkpt>
      <trkpt lat="47.14318" lon="-1.67695">
        <ele>67</ele>
        <time>2022-07-31T08:47:25Z</time>
      </trkpt>
      <trkpt lat="47.14314" lon="-1.67675">
        <ele>66</ele>
        <time>2022-07-31T08:47:27Z</time>
      </trkpt>
      <trkpt lat="47.14311" lon="-1.67655">
        <ele>66</ele>
        <time>2022-07-31T08:47:29Z</time>
      </trkpt>
      <trkpt lat="47.14309" lon="-1.67634">
        <ele>65</ele>
        <time>2022-07-31T08:47:31Z</time>
      </trkpt>
      <trkpt lat="47.14308" lon="-1.67613">
        <ele>65</ele>
        <time>2022-07-31T08:47:33Z</time>
      </trkpt>
      <trkpt lat="47.14305" lon="-1.67592">
        <ele>66</ele>
        <time>2022-07-31T08:47:35Z</time>
      </trkpt>
      <trkpt lat="47.14304" lon="-1.67571">
        <ele>66</ele>
        <time>2022-07-31T08:47:37Z</time>
      </trkpt>
      <trkpt lat="47.14302" lon="-1.6755">
        <ele>66</ele>
        <time>2022-07-31T08:47:39Z</time>
      </trkpt>
      <trkpt lat="47.143" lon="-1.67529">
        <ele>66</ele>
        <time>2022-07-31T08:47:41Z</time>
      </trkpt>
      <trkpt lat="47.14295" lon="-1.6751">
        <ele>67</ele>
        <time>2022-07-31T08:47:43Z</time>
      </trkpt>
      <trkpt lat="47.14291" lon="-1.67491">
        <ele>67</ele>
        <time>2022-07-31T08:47:45Z</time>
      </trkpt>
      <trkpt lat="47.14286" lon="-1.67472">
        <ele>68</ele>
        <time>2022-07-31T08:47:47Z</time>
      </trkpt>
      <trkpt lat="47.1428" lon="-1.67454">
        <ele>68</ele>
        <time>2022-07-31T08:47:49Z</time>
      </trkpt>
      <trkpt lat="47.14274" lon="-1.67436">
        <ele>68</ele>
        <time>2022-07-31T08:47:51Z</time>
      </trkpt>
      <trkpt lat="47.14268" lon="-1.67419">
        <ele>68</ele>
        <time>2022-07-31T08:47:53Z</time>
      </trkpt>
      <trkpt lat="47.14262" lon="-1.67401">
        <ele>68</ele>
        <time>2022-07-31T08:47:55Z</time>
      </trkpt>
      <trkpt lat="47.14256" lon="-1.67385">
        <ele>68</ele>
        <time>2022-07-31T08:47:57Z</time>
      </trkpt>
      <trkpt lat="47.14248" lon="-1.67368">
        <ele>68</ele>
        <time>2022-07-31T08:47:59Z</time>
      </trkpt>
      <trkpt lat="47.14241" lon="-1.67351">
        <ele>68</ele>
        <time>2022-07-31T08:48:01Z</time>
      </trkpt>
      <trkpt lat="47.14233" lon="-1.67333">
        <ele>68</ele>
        <time>2022-07-31T08:48:03Z</time>
      </trkpt>
      <trkpt lat="47.14226" lon="-1.67314">
        <ele>67</ele>
        <time>2022-07-31T08:48:05Z</time>
      </trkpt>
      <trkpt lat="47.14219" lon="-1.67299">
        <ele>67</ele>
        <time>2022-07-31T08:48:07Z</time>
      </trkpt>
      <trkpt lat="47.14214" lon="-1.67285">
        <ele>67</ele>
        <time>2022-07-31T08:48:10Z</time>
      </trkpt>
      <trkpt lat="47.14208" lon="-1.67274">
        <ele>71</ele>
        <time>2022-07-31T08:48:47Z</time>
      </trkpt>
      <trkpt lat="47.14202" lon="-1.67259">
        <ele>74</ele>
        <time>2022-07-31T08:48:49Z</time>
      </trkpt>
      <trkpt lat="47.14197" lon="-1.67238">
        <ele>72</ele>
        <time>2022-07-31T08:48:51Z</time>
      </trkpt>
      <trkpt lat="47.14193" lon="-1.67217">
        <ele>72</ele>
        <time>2022-07-31T08:48:53Z</time>
      </trkpt>
      <trkpt lat="47.14188" lon="-1.67195">
        <ele>72</ele>
        <time>2022-07-31T08:48:55Z</time>
      </trkpt>
      <trkpt lat="47.14184" lon="-1.67174">
        <ele>71</ele>
        <time>2022-07-31T08:48:57Z</time>
      </trkpt>
      <trkpt lat="47.14179" lon="-1.67153">
        <ele>70</ele>
        <time>2022-07-31T08:48:59Z</time>
      </trkpt>
      <trkpt lat="47.14175" lon="-1.67131">
        <ele>69</ele>
        <time>2022-07-31T08:49:01Z</time>
      </trkpt>
      <trkpt lat="47.14171" lon="-1.67109">
        <ele>69</ele>
        <time>2022-07-31T08:49:03Z</time>
      </trkpt>
      <trkpt lat="47.14169" lon="-1.67087">
        <ele>68</ele>
        <time>2022-07-31T08:49:05Z</time>
      </trkpt>
      <trkpt lat="47.14166" lon="-1.67064">
        <ele>68</ele>
        <time>2022-07-31T08:49:07Z</time>
      </trkpt>
      <trkpt lat="47.14164" lon="-1.67041">
        <ele>67</ele>
        <time>2022-07-31T08:49:09Z</time>
      </trkpt>
      <trkpt lat="47.14163" lon="-1.67016">
        <ele>67</ele>
        <time>2022-07-31T08:49:11Z</time>
      </trkpt>
      <trkpt lat="47.14162" lon="-1.66993">
        <ele>66</ele>
        <time>2022-07-31T08:49:13Z</time>
      </trkpt>
      <trkpt lat="47.14161" lon="-1.6697">
        <ele>66</ele>
        <time>2022-07-31T08:49:15Z</time>
      </trkpt>
      <trkpt lat="47.14162" lon="-1.66946">
        <ele>66</ele>
        <time>2022-07-31T08:49:17Z</time>
      </trkpt>
      <trkpt lat="47.14165" lon="-1.66923">
        <ele>66</ele>
        <time>2022-07-31T08:49:19Z</time>
      </trkpt>
      <trkpt lat="47.14169" lon="-1.66901">
        <ele>66</ele>
        <time>2022-07-31T08:49:21Z</time>
      </trkpt>
      <trkpt lat="47.14175" lon="-1.6688">
        <ele>67</ele>
        <time>2022-07-31T08:49:23Z</time>
      </trkpt>
      <trkpt lat="47.14181" lon="-1.6686">
        <ele>67</ele>
        <time>2022-07-31T08:49:25Z</time>
      </trkpt>
      <trkpt lat="47.14188" lon="-1.6684">
        <ele>66</ele>
        <time>2022-07-31T08:49:27Z</time>
      </trkpt>
      <trkpt lat="47.14194" lon="-1.66819">
        <ele>66</ele>
        <time>2022-07-31T08:49:29Z</time>
      </trkpt>
      <trkpt lat="47.14201" lon="-1.66798">
        <ele>65</ele>
        <time>2022-07-31T08:49:31Z</time>
      </trkpt>
      <trkpt lat="47.14208" lon="-1.66778">
        <ele>65</ele>
        <time>2022-07-31T08:49:33Z</time>
      </trkpt>
      <trkpt lat="47.14215" lon="-1.66759">
        <ele>65</ele>
        <time>2022-07-31T08:49:35Z</time>
      </trkpt>
      <trkpt lat="47.14221" lon="-1.6674">
        <ele>65</ele>
        <time>2022-07-31T08:49:37Z</time>
      </trkpt>
      <trkpt lat="47.14227" lon="-1.66721">
        <ele>65</ele>
        <time>2022-07-31T08:49:39Z</time>
      </trkpt>
      <trkpt lat="47.14233" lon="-1.66702">
        <ele>65</ele>
        <time>2022-07-31T08:49:41Z</time>
      </trkpt>
      <trkpt lat="47.1424" lon="-1.66683">
        <ele>66</ele>
        <time>2022-07-31T08:49:43Z</time>
      </trkpt>
      <trkpt lat="47.14246" lon="-1.66664">
        <ele>65</ele>
        <time>2022-07-31T08:49:45Z</time>
      </trkpt>
      <trkpt lat="47.14252" lon="-1.66646">
        <ele>66</ele>
        <time>2022-07-31T08:49:47Z</time>
      </trkpt>
      <trkpt lat="47.14258" lon="-1.66628">
        <ele>66</ele>
        <time>2022-07-31T08:49:49Z</time>
      </trkpt>
      <trkpt lat="47.14263" lon="-1.6661">
        <ele>67</ele>
        <time>2022-07-31T08:49:51Z</time>
      </trkpt>
      <trkpt lat="47.14269" lon="-1.66592">
        <ele>67</ele>
        <time>2022-07-31T08:49:53Z</time>
      </trkpt>
      <trkpt lat="47.14274" lon="-1.66574">
        <ele>67</ele>
        <time>2022-07-31T08:49:55Z</time>
      </trkpt>
      <trkpt lat="47.14278" lon="-1.66555">
        <ele>67</ele>
        <time>2022-07-31T08:49:57Z</time>
      </trkpt>
      <trkpt lat="47.14283" lon="-1.66537">
        <ele>68</ele>
        <time>2022-07-31T08:49:59Z</time>
      </trkpt>
      <trkpt lat="47.14288" lon="-1.66518">
        <ele>67</ele>
        <time>2022-07-31T08:50:01Z</time>
      </trkpt>
      <trkpt lat="47.14293" lon="-1.66498">
        <ele>67</ele>
        <time>2022-07-31T08:50:03Z</time>
      </trkpt>
      <trkpt lat="47.14298" lon="-1.66478">
        <ele>67</ele>
        <time>2022-07-31T08:50:05Z</time>
      </trkpt>
      <trkpt lat="47.14303" lon="-1.66458">
        <ele>67</ele>
        <time>2022-07-31T08:50:07Z</time>
      </trkpt>
      <trkpt lat="47.14307" lon="-1.66439">
        <ele>67</ele>
        <time>2022-07-31T08:50:09Z</time>
      </trkpt>
      <trkpt lat="47.14312" lon="-1.66419">
        <ele>67</ele>
        <time>2022-07-31T08:50:11Z</time>
      </trkpt>
      <trkpt lat="47.14317" lon="-1.664">
        <ele>67</ele>
        <time>2022-07-31T08:50:13Z</time>
      </trkpt>
      <trkpt lat="47.14322" lon="-1.66381">
        <ele>67</ele>
        <time>2022-07-31T08:50:15Z</time>
      </trkpt>
      <trkpt lat="47.14327" lon="-1.66361">
        <ele>67</ele>
        <time>2022-07-31T08:50:17Z</time>
      </trkpt>
      <trkpt lat="47.14332" lon="-1.66341">
        <ele>68</ele>
        <time>2022-07-31T08:50:19Z</time>
      </trkpt>
      <trkpt lat="47.14336" lon="-1.66321">
        <ele>68</ele>
        <time>2022-07-31T08:50:21Z</time>
      </trkpt>
      <trkpt lat="47.14341" lon="-1.66301">
        <ele>68</ele>
        <time>2022-07-31T08:50:23Z</time>
      </trkpt>
      <trkpt lat="47.14346" lon="-1.66281">
        <ele>69</ele>
        <time>2022-07-31T08:50:25Z</time>
      </trkpt>
      <trkpt lat="47.14349" lon="-1.66262">
        <ele>69</ele>
        <time>2022-07-31T08:50:27Z</time>
      </trkpt>
      <trkpt lat="47.14354" lon="-1.66242">
        <ele>69</ele>
        <time>2022-07-31T08:50:29Z</time>
      </trkpt>
      <trkpt lat="47.14358" lon="-1.66223">
        <ele>69</ele>
        <time>2022-07-31T08:50:31Z</time>
      </trkpt>
      <trkpt lat="47.14362" lon="-1.66206">
        <ele>69</ele>
        <time>2022-07-31T08:50:33Z</time>
      </trkpt>
      <trkpt lat="47.14361" lon="-1.66188">
        <ele>69</ele>
        <time>2022-07-31T08:50:35Z</time>
      </trkpt>
      <trkpt lat="47.14362" lon="-1.66173">
        <ele>69</ele>
        <time>2022-07-31T08:50:37Z</time>
      </trkpt>
      <trkpt lat="47.14368" lon="-1.66163">
        <ele>69</ele>
        <time>2022-07-31T08:50:39Z</time>
      </trkpt>
      <trkpt lat="47.14372" lon="-1.6615">
        <ele>69</ele>
        <time>2022-07-31T08:50:41Z</time>
      </trkpt>
      <trkpt lat="47.14375" lon="-1.6613">
        <ele>69</ele>
        <time>2022-07-31T08:50:43Z</time>
      </trkpt>
      <trkpt lat="47.14378" lon="-1.66109">
        <ele>69</ele>
        <time>2022-07-31T08:50:45Z</time>
      </trkpt>
      <trkpt lat="47.14381" lon="-1.66088">
        <ele>70</ele>
        <time>2022-07-31T08:50:47Z</time>
      </trkpt>
      <trkpt lat="47.14383" lon="-1.66067">
        <ele>70</ele>
        <time>2022-07-31T08:50:49Z</time>
      </trkpt>
      <trkpt lat="47.14385" lon="-1.66046">
        <ele>70</ele>
        <time>2022-07-31T08:50:51Z</time>
      </trkpt>
      <trkpt lat="47.14386" lon="-1.66023">
        <ele>70</ele>
        <time>2022-07-31T08:50:53Z</time>
      </trkpt>
      <trkpt lat="47.14388" lon="-1.66001">
        <ele>70</ele>
        <time>2022-07-31T08:50:55Z</time>
      </trkpt>
      <trkpt lat="47.14389" lon="-1.65979">
        <ele>70</ele>
        <time>2022-07-31T08:50:57Z</time>
      </trkpt>
      <trkpt lat="47.14391" lon="-1.65956">
        <ele>70</ele>
        <time>2022-07-31T08:50:59Z</time>
      </trkpt>
      <trkpt lat="47.14392" lon="-1.65933">
        <ele>70</ele>
        <time>2022-07-31T08:51:01Z</time>
      </trkpt>
      <trkpt lat="47.14392" lon="-1.6591">
        <ele>70</ele>
        <time>2022-07-31T08:51:03Z</time>
      </trkpt>
      <trkpt lat="47.14394" lon="-1.65887">
        <ele>70</ele>
        <time>2022-07-31T08:51:05Z</time>
      </trkpt>
      <trkpt lat="47.14395" lon="-1.65864">
        <ele>71</ele>
        <time>2022-07-31T08:51:07Z</time>
      </trkpt>
      <trkpt lat="47.14397" lon="-1.6584">
        <ele>70</ele>
        <time>2022-07-31T08:51:09Z</time>
      </trkpt>
      <trkpt lat="47.14399" lon="-1.65818">
        <ele>70</ele>
        <time>2022-07-31T08:51:11Z</time>
      </trkpt>
      <trkpt lat="47.14403" lon="-1.65795">
        <ele>69</ele>
        <time>2022-07-31T08:51:13Z</time>
      </trkpt>
      <trkpt lat="47.14406" lon="-1.65772">
        <ele>68</ele>
        <time>2022-07-31T08:51:15Z</time>
      </trkpt>
      <trkpt lat="47.1441" lon="-1.65749">
        <ele>68</ele>
        <time>2022-07-31T08:51:17Z</time>
      </trkpt>
      <trkpt lat="47.14414" lon="-1.65728">
        <ele>68</ele>
        <time>2022-07-31T08:51:19Z</time>
      </trkpt>
      <trkpt lat="47.14417" lon="-1.65706">
        <ele>68</ele>
        <time>2022-07-31T08:51:21Z</time>
      </trkpt>
      <trkpt lat="47.14422" lon="-1.65685">
        <ele>68</ele>
        <time>2022-07-31T08:51:23Z</time>
      </trkpt>
      <trkpt lat="47.14428" lon="-1.65665">
        <ele>68</ele>
        <time>2022-07-31T08:51:25Z</time>
      </trkpt>
      <trkpt lat="47.14434" lon="-1.65645">
        <ele>68</ele>
        <time>2022-07-31T08:51:27Z</time>
      </trkpt>
      <trkpt lat="47.1444" lon="-1.65626">
        <ele>69</ele>
        <time>2022-07-31T08:51:29Z</time>
      </trkpt>
      <trkpt lat="47.14447" lon="-1.65607">
        <ele>69</ele>
        <time>2022-07-31T08:51:31Z</time>
      </trkpt>
      <trkpt lat="47.14455" lon="-1.65589">
        <ele>69</ele>
        <time>2022-07-31T08:51:33Z</time>
      </trkpt>
      <trkpt lat="47.14462" lon="-1.65571">
        <ele>69</ele>
        <time>2022-07-31T08:51:35Z</time>
      </trkpt>
      <trkpt lat="47.14469" lon="-1.65553">
        <ele>70</ele>
        <time>2022-07-31T08:51:37Z</time>
      </trkpt>
      <trkpt lat="47.14476" lon="-1.65535">
        <ele>69</ele>
        <time>2022-07-31T08:51:39Z</time>
      </trkpt>
      <trkpt lat="47.14483" lon="-1.65518">
        <ele>69</ele>
        <time>2022-07-31T08:51:41Z</time>
      </trkpt>
      <trkpt lat="47.1449" lon="-1.65501">
        <ele>70</ele>
        <time>2022-07-31T08:51:43Z</time>
      </trkpt>
      <trkpt lat="47.14497" lon="-1.65484">
        <ele>70</ele>
        <time>2022-07-31T08:51:45Z</time>
      </trkpt>
      <trkpt lat="47.14504" lon="-1.65466">
        <ele>70</ele>
        <time>2022-07-31T08:51:47Z</time>
      </trkpt>
      <trkpt lat="47.14511" lon="-1.65449">
        <ele>70</ele>
        <time>2022-07-31T08:51:49Z</time>
      </trkpt>
      <trkpt lat="47.14518" lon="-1.6543">
        <ele>70</ele>
        <time>2022-07-31T08:51:51Z</time>
      </trkpt>
      <trkpt lat="47.14522" lon="-1.65411">
        <ele>70</ele>
        <time>2022-07-31T08:51:53Z</time>
      </trkpt>
      <trkpt lat="47.14524" lon="-1.65392">
        <ele>69</ele>
        <time>2022-07-31T08:51:55Z</time>
      </trkpt>
      <trkpt lat="47.14526" lon="-1.65375">
        <ele>69</ele>
        <time>2022-07-31T08:51:57Z</time>
      </trkpt>
      <trkpt lat="47.1453" lon="-1.65357">
        <ele>69</ele>
        <time>2022-07-31T08:51:59Z</time>
      </trkpt>
      <trkpt lat="47.14535" lon="-1.65338">
        <ele>69</ele>
        <time>2022-07-31T08:52:01Z</time>
      </trkpt>
      <trkpt lat="47.1454" lon="-1.6532">
        <ele>69</ele>
        <time>2022-07-31T08:52:03Z</time>
      </trkpt>
      <trkpt lat="47.14548" lon="-1.65303">
        <ele>69</ele>
        <time>2022-07-31T08:52:05Z</time>
      </trkpt>
      <trkpt lat="47.14554" lon="-1.65285">
        <ele>69</ele>
        <time>2022-07-31T08:52:07Z</time>
      </trkpt>
      <trkpt lat="47.14558" lon="-1.65266">
        <ele>70</ele>
        <time>2022-07-31T08:52:09Z</time>
      </trkpt>
      <trkpt lat="47.14562" lon="-1.65245">
        <ele>70</ele>
        <time>2022-07-31T08:52:11Z</time>
      </trkpt>
      <trkpt lat="47.14567" lon="-1.65226">
        <ele>69</ele>
        <time>2022-07-31T08:52:13Z</time>
      </trkpt>
      <trkpt lat="47.14571" lon="-1.65207">
        <ele>69</ele>
        <time>2022-07-31T08:52:15Z</time>
      </trkpt>
      <trkpt lat="47.14576" lon="-1.65187">
        <ele>69</ele>
        <time>2022-07-31T08:52:17Z</time>
      </trkpt>
      <trkpt lat="47.14582" lon="-1.65168">
        <ele>69</ele>
        <time>2022-07-31T08:52:19Z</time>
      </trkpt>
      <trkpt lat="47.14587" lon="-1.6515">
        <ele>69</ele>
        <time>2022-07-31T08:52:21Z</time>
      </trkpt>
      <trkpt lat="47.14593" lon="-1.65132">
        <ele>69</ele>
        <time>2022-07-31T08:52:23Z</time>
      </trkpt>
      <trkpt lat="47.14599" lon="-1.65114">
        <ele>70</ele>
        <time>2022-07-31T08:52:25Z</time>
      </trkpt>
      <trkpt lat="47.14606" lon="-1.65096">
        <ele>70</ele>
        <time>2022-07-31T08:52:27Z</time>
      </trkpt>
      <trkpt lat="47.14613" lon="-1.65079">
        <ele>70</ele>
        <time>2022-07-31T08:52:29Z</time>
      </trkpt>
      <trkpt lat="47.1462" lon="-1.65061">
        <ele>70</ele>
        <time>2022-07-31T08:52:31Z</time>
      </trkpt>
      <trkpt lat="47.14627" lon="-1.65044">
        <ele>70</ele>
        <time>2022-07-31T08:52:33Z</time>
      </trkpt>
      <trkpt lat="47.14634" lon="-1.65027">
        <ele>71</ele>
        <time>2022-07-31T08:52:35Z</time>
      </trkpt>
      <trkpt lat="47.1464" lon="-1.6501">
        <ele>71</ele>
        <time>2022-07-31T08:52:37Z</time>
      </trkpt>
      <trkpt lat="47.14646" lon="-1.64993">
        <ele>71</ele>
        <time>2022-07-31T08:52:39Z</time>
      </trkpt>
      <trkpt lat="47.14652" lon="-1.64977">
        <ele>72</ele>
        <time>2022-07-31T08:52:41Z</time>
      </trkpt>
      <trkpt lat="47.14658" lon="-1.64961">
        <ele>72</ele>
        <time>2022-07-31T08:52:43Z</time>
      </trkpt>
      <trkpt lat="47.14664" lon="-1.64944">
        <ele>72</ele>
        <time>2022-07-31T08:52:45Z</time>
      </trkpt>
      <trkpt lat="47.1467" lon="-1.64927">
        <ele>72</ele>
        <time>2022-07-31T08:52:47Z</time>
      </trkpt>
      <trkpt lat="47.14676" lon="-1.6491">
        <ele>73</ele>
        <time>2022-07-31T08:52:49Z</time>
      </trkpt>
      <trkpt lat="47.14682" lon="-1.64894">
        <ele>73</ele>
        <time>2022-07-31T08:52:51Z</time>
      </trkpt>
      <trkpt lat="47.14687" lon="-1.64876">
        <ele>73</ele>
        <time>2022-07-31T08:52:53Z</time>
      </trkpt>
      <trkpt lat="47.14693" lon="-1.64858">
        <ele>73</ele>
        <time>2022-07-31T08:52:55Z</time>
      </trkpt>
      <trkpt lat="47.14698" lon="-1.6484">
        <ele>72</ele>
        <time>2022-07-31T08:52:57Z</time>
      </trkpt>
      <trkpt lat="47.14703" lon="-1.64822">
        <ele>73</ele>
        <time>2022-07-31T08:52:59Z</time>
      </trkpt>
      <trkpt lat="47.14707" lon="-1.64804">
        <ele>73</ele>
        <time>2022-07-31T08:53:01Z</time>
      </trkpt>
      <trkpt lat="47.14711" lon="-1.64787">
        <ele>73</ele>
        <time>2022-07-31T08:53:03Z</time>
      </trkpt>
      <trkpt lat="47.14715" lon="-1.64769">
        <ele>74</ele>
        <time>2022-07-31T08:53:05Z</time>
      </trkpt>
      <trkpt lat="47.14719" lon="-1.64752">
        <ele>74</ele>
        <time>2022-07-31T08:53:07Z</time>
      </trkpt>
      <trkpt lat="47.14724" lon="-1.64735">
        <ele>75</ele>
        <time>2022-07-31T08:53:09Z</time>
      </trkpt>
      <trkpt lat="47.14727" lon="-1.64718">
        <ele>75</ele>
        <time>2022-07-31T08:53:11Z</time>
      </trkpt>
      <trkpt lat="47.1473" lon="-1.64701">
        <ele>75</ele>
        <time>2022-07-31T08:53:13Z</time>
      </trkpt>
      <trkpt lat="47.14733" lon="-1.64685">
        <ele>76</ele>
        <time>2022-07-31T08:53:15Z</time>
      </trkpt>
      <trkpt lat="47.14736" lon="-1.64667">
        <ele>76</ele>
        <time>2022-07-31T08:53:17Z</time>
      </trkpt>
      <trkpt lat="47.14739" lon="-1.6465">
        <ele>76</ele>
        <time>2022-07-31T08:53:19Z</time>
      </trkpt>
      <trkpt lat="47.14742" lon="-1.64632">
        <ele>77</ele>
        <time>2022-07-31T08:53:21Z</time>
      </trkpt>
      <trkpt lat="47.14744" lon="-1.64615">
        <ele>77</ele>
        <time>2022-07-31T08:53:23Z</time>
      </trkpt>
      <trkpt lat="47.14747" lon="-1.64598">
        <ele>77</ele>
        <time>2022-07-31T08:53:25Z</time>
      </trkpt>
      <trkpt lat="47.1475" lon="-1.64581">
        <ele>77</ele>
        <time>2022-07-31T08:53:27Z</time>
      </trkpt>
      <trkpt lat="47.14753" lon="-1.64564">
        <ele>77</ele>
        <time>2022-07-31T08:53:29Z</time>
      </trkpt>
      <trkpt lat="47.14756" lon="-1.64546">
        <ele>77</ele>
        <time>2022-07-31T08:53:31Z</time>
      </trkpt>
      <trkpt lat="47.14758" lon="-1.6453">
        <ele>77</ele>
        <time>2022-07-31T08:53:33Z</time>
      </trkpt>
      <trkpt lat="47.14761" lon="-1.64512">
        <ele>77</ele>
        <time>2022-07-31T08:53:35Z</time>
      </trkpt>
      <trkpt lat="47.14764" lon="-1.64495">
        <ele>77</ele>
        <time>2022-07-31T08:53:37Z</time>
      </trkpt>
      <trkpt lat="47.14767" lon="-1.64477">
        <ele>77</ele>
        <time>2022-07-31T08:53:39Z</time>
      </trkpt>
      <trkpt lat="47.1477" lon="-1.64459">
        <ele>77</ele>
        <time>2022-07-31T08:53:41Z</time>
      </trkpt>
      <trkpt lat="47.14773" lon="-1.6444">
        <ele>77</ele>
        <time>2022-07-31T08:53:43Z</time>
      </trkpt>
      <trkpt lat="47.14776" lon="-1.64422">
        <ele>77</ele>
        <time>2022-07-31T08:53:45Z</time>
      </trkpt>
      <trkpt lat="47.1478" lon="-1.64403">
        <ele>77</ele>
        <time>2022-07-31T08:53:47Z</time>
      </trkpt>
      <trkpt lat="47.14784" lon="-1.64385">
        <ele>77</ele>
        <time>2022-07-31T08:53:49Z</time>
      </trkpt>
      <trkpt lat="47.14789" lon="-1.64366">
        <ele>78</ele>
        <time>2022-07-31T08:53:51Z</time>
      </trkpt>
      <trkpt lat="47.14793" lon="-1.64347">
        <ele>78</ele>
        <time>2022-07-31T08:53:53Z</time>
      </trkpt>
      <trkpt lat="47.14798" lon="-1.64327">
        <ele>78</ele>
        <time>2022-07-31T08:53:55Z</time>
      </trkpt>
      <trkpt lat="47.14803" lon="-1.64308">
        <ele>78</ele>
        <time>2022-07-31T08:53:57Z</time>
      </trkpt>
      <trkpt lat="47.14808" lon="-1.6429">
        <ele>78</ele>
        <time>2022-07-31T08:53:59Z</time>
      </trkpt>
      <trkpt lat="47.14813" lon="-1.64271">
        <ele>78</ele>
        <time>2022-07-31T08:54:01Z</time>
      </trkpt>
      <trkpt lat="47.14819" lon="-1.64253">
        <ele>78</ele>
        <time>2022-07-31T08:54:03Z</time>
      </trkpt>
      <trkpt lat="47.14824" lon="-1.64234">
        <ele>78</ele>
        <time>2022-07-31T08:54:05Z</time>
      </trkpt>
      <trkpt lat="47.14829" lon="-1.64216">
        <ele>78</ele>
        <time>2022-07-31T08:54:07Z</time>
      </trkpt>
      <trkpt lat="47.14835" lon="-1.64197">
        <ele>78</ele>
        <time>2022-07-31T08:54:09Z</time>
      </trkpt>
      <trkpt lat="47.14841" lon="-1.64178">
        <ele>78</ele>
        <time>2022-07-31T08:54:11Z</time>
      </trkpt>
      <trkpt lat="47.14848" lon="-1.64159">
        <ele>78</ele>
        <time>2022-07-31T08:54:13Z</time>
      </trkpt>
      <trkpt lat="47.14854" lon="-1.64141">
        <ele>78</ele>
        <time>2022-07-31T08:54:15Z</time>
      </trkpt>
      <trkpt lat="47.1486" lon="-1.64123">
        <ele>78</ele>
        <time>2022-07-31T08:54:17Z</time>
      </trkpt>
      <trkpt lat="47.14867" lon="-1.64105">
        <ele>78</ele>
        <time>2022-07-31T08:54:19Z</time>
      </trkpt>
      <trkpt lat="47.14873" lon="-1.64087">
        <ele>78</ele>
        <time>2022-07-31T08:54:21Z</time>
      </trkpt>
      <trkpt lat="47.14878" lon="-1.64069">
        <ele>78</ele>
        <time>2022-07-31T08:54:23Z</time>
      </trkpt>
      <trkpt lat="47.1488" lon="-1.64051">
        <ele>79</ele>
        <time>2022-07-31T08:54:25Z</time>
      </trkpt>
      <trkpt lat="47.14885" lon="-1.64034">
        <ele>79</ele>
        <time>2022-07-31T08:54:27Z</time>
      </trkpt>
      <trkpt lat="47.14894" lon="-1.64022">
        <ele>80</ele>
        <time>2022-07-31T08:54:29Z</time>
      </trkpt>
      <trkpt lat="47.14906" lon="-1.64017">
        <ele>80</ele>
        <time>2022-07-31T08:54:31Z</time>
      </trkpt>
      <trkpt lat="47.14913" lon="-1.64001">
        <ele>79</ele>
        <time>2022-07-31T08:54:33Z</time>
      </trkpt>
      <trkpt lat="47.1492" lon="-1.63983">
        <ele>80</ele>
        <time>2022-07-31T08:54:35Z</time>
      </trkpt>
      <trkpt lat="47.14929" lon="-1.63966">
        <ele>79</ele>
        <time>2022-07-31T08:54:37Z</time>
      </trkpt>
      <trkpt lat="47.14938" lon="-1.63951">
        <ele>79</ele>
        <time>2022-07-31T08:54:39Z</time>
      </trkpt>
      <trkpt lat="47.14949" lon="-1.63937">
        <ele>79</ele>
        <time>2022-07-31T08:54:41Z</time>
      </trkpt>
      <trkpt lat="47.14959" lon="-1.63922">
        <ele>79</ele>
        <time>2022-07-31T08:54:43Z</time>
      </trkpt>
      <trkpt lat="47.1497" lon="-1.63907">
        <ele>79</ele>
        <time>2022-07-31T08:54:45Z</time>
      </trkpt>
      <trkpt lat="47.1498" lon="-1.63893">
        <ele>79</ele>
        <time>2022-07-31T08:54:47Z</time>
      </trkpt>
      <trkpt lat="47.1499" lon="-1.63878">
        <ele>78</ele>
        <time>2022-07-31T08:54:49Z</time>
      </trkpt>
      <trkpt lat="47.15001" lon="-1.63863">
        <ele>78</ele>
        <time>2022-07-31T08:54:51Z</time>
      </trkpt>
      <trkpt lat="47.15011" lon="-1.63849">
        <ele>77</ele>
        <time>2022-07-31T08:54:53Z</time>
      </trkpt>
      <trkpt lat="47.15022" lon="-1.63835">
        <ele>77</ele>
        <time>2022-07-31T08:54:55Z</time>
      </trkpt>
      <trkpt lat="47.15032" lon="-1.63821">
        <ele>77</ele>
        <time>2022-07-31T08:54:57Z</time>
      </trkpt>
      <trkpt lat="47.15043" lon="-1.63806">
        <ele>77</ele>
        <time>2022-07-31T08:54:59Z</time>
      </trkpt>
      <trkpt lat="47.15055" lon="-1.63792">
        <ele>76</ele>
        <time>2022-07-31T08:55:01Z</time>
      </trkpt>
      <trkpt lat="47.15066" lon="-1.63778">
        <ele>76</ele>
        <time>2022-07-31T08:55:03Z</time>
      </trkpt>
      <trkpt lat="47.15077" lon="-1.63765">
        <ele>76</ele>
        <time>2022-07-31T08:55:05Z</time>
      </trkpt>
      <trkpt lat="47.15088" lon="-1.63751">
        <ele>76</ele>
        <time>2022-07-31T08:55:07Z</time>
      </trkpt>
      <trkpt lat="47.15099" lon="-1.63739">
        <ele>76</ele>
        <time>2022-07-31T08:55:09Z</time>
      </trkpt>
      <trkpt lat="47.1511" lon="-1.63726">
        <ele>76</ele>
        <time>2022-07-31T08:55:11Z</time>
      </trkpt>
      <trkpt lat="47.15121" lon="-1.63715">
        <ele>77</ele>
        <time>2022-07-31T08:55:13Z</time>
      </trkpt>
      <trkpt lat="47.15133" lon="-1.63703">
        <ele>77</ele>
        <time>2022-07-31T08:55:15Z</time>
      </trkpt>
      <trkpt lat="47.15144" lon="-1.63691">
        <ele>78</ele>
        <time>2022-07-31T08:55:17Z</time>
      </trkpt>
      <trkpt lat="47.15156" lon="-1.63681">
        <ele>78</ele>
        <time>2022-07-31T08:55:19Z</time>
      </trkpt>
      <trkpt lat="47.15168" lon="-1.6367">
        <ele>77</ele>
        <time>2022-07-31T08:55:21Z</time>
      </trkpt>
      <trkpt lat="47.1518" lon="-1.6366">
        <ele>77</ele>
        <time>2022-07-31T08:55:23Z</time>
      </trkpt>
      <trkpt lat="47.15191" lon="-1.6365">
        <ele>77</ele>
        <time>2022-07-31T08:55:25Z</time>
      </trkpt>
      <trkpt lat="47.15203" lon="-1.6364">
        <ele>77</ele>
        <time>2022-07-31T08:55:27Z</time>
      </trkpt>
      <trkpt lat="47.15214" lon="-1.63629">
        <ele>77</ele>
        <time>2022-07-31T08:55:29Z</time>
      </trkpt>
      <trkpt lat="47.15225" lon="-1.63618">
        <ele>77</ele>
        <time>2022-07-31T08:55:31Z</time>
      </trkpt>
      <trkpt lat="47.15236" lon="-1.63609">
        <ele>76</ele>
        <time>2022-07-31T08:55:33Z</time>
      </trkpt>
      <trkpt lat="47.15247" lon="-1.63598">
        <ele>77</ele>
        <time>2022-07-31T08:55:35Z</time>
      </trkpt>
      <trkpt lat="47.15258" lon="-1.63588">
        <ele>77</ele>
        <time>2022-07-31T08:55:37Z</time>
      </trkpt>
      <trkpt lat="47.15269" lon="-1.63577">
        <ele>77</ele>
        <time>2022-07-31T08:55:39Z</time>
      </trkpt>
      <trkpt lat="47.15281" lon="-1.63567">
        <ele>77</ele>
        <time>2022-07-31T08:55:41Z</time>
      </trkpt>
      <trkpt lat="47.15293" lon="-1.63556">
        <ele>76</ele>
        <time>2022-07-31T08:55:43Z</time>
      </trkpt>
      <trkpt lat="47.15304" lon="-1.63545">
        <ele>76</ele>
        <time>2022-07-31T08:55:45Z</time>
      </trkpt>
      <trkpt lat="47.15316" lon="-1.63535">
        <ele>76</ele>
        <time>2022-07-31T08:55:47Z</time>
      </trkpt>
      <trkpt lat="47.15327" lon="-1.63525">
        <ele>77</ele>
        <time>2022-07-31T08:55:49Z</time>
      </trkpt>
      <trkpt lat="47.15339" lon="-1.63515">
        <ele>77</ele>
        <time>2022-07-31T08:55:51Z</time>
      </trkpt>
      <trkpt lat="47.1535" lon="-1.63505">
        <ele>77</ele>
        <time>2022-07-31T08:55:53Z</time>
      </trkpt>
      <trkpt lat="47.15362" lon="-1.63495">
        <ele>77</ele>
        <time>2022-07-31T08:55:55Z</time>
      </trkpt>
      <trkpt lat="47.15373" lon="-1.63484">
        <ele>77</ele>
        <time>2022-07-31T08:55:57Z</time>
      </trkpt>
      <trkpt lat="47.15385" lon="-1.63474">
        <ele>77</ele>
        <time>2022-07-31T08:55:59Z</time>
      </trkpt>
      <trkpt lat="47.15396" lon="-1.63464">
        <ele>77</ele>
        <time>2022-07-31T08:56:01Z</time>
      </trkpt>
      <trkpt lat="47.15408" lon="-1.63454">
        <ele>77</ele>
        <time>2022-07-31T08:56:03Z</time>
      </trkpt>
      <trkpt lat="47.1542" lon="-1.63443">
        <ele>76</ele>
        <time>2022-07-31T08:56:05Z</time>
      </trkpt>
      <trkpt lat="47.15431" lon="-1.63433">
        <ele>76</ele>
        <time>2022-07-31T08:56:07Z</time>
      </trkpt>
      <trkpt lat="47.15442" lon="-1.63421">
        <ele>76</ele>
        <time>2022-07-31T08:56:09Z</time>
      </trkpt>
      <trkpt lat="47.15454" lon="-1.63409">
        <ele>75</ele>
        <time>2022-07-31T08:56:11Z</time>
      </trkpt>
      <trkpt lat="47.15466" lon="-1.63399">
        <ele>75</ele>
        <time>2022-07-31T08:56:13Z</time>
      </trkpt>
      <trkpt lat="47.15479" lon="-1.6339">
        <ele>75</ele>
        <time>2022-07-31T08:56:15Z</time>
      </trkpt>
      <trkpt lat="47.15492" lon="-1.63382">
        <ele>75</ele>
        <time>2022-07-31T08:56:17Z</time>
      </trkpt>
      <trkpt lat="47.15505" lon="-1.63371">
        <ele>74</ele>
        <time>2022-07-31T08:56:19Z</time>
      </trkpt>
      <trkpt lat="47.15518" lon="-1.6336">
        <ele>74</ele>
        <time>2022-07-31T08:56:21Z</time>
      </trkpt>
      <trkpt lat="47.1553" lon="-1.63349">
        <ele>73</ele>
        <time>2022-07-31T08:56:23Z</time>
      </trkpt>
      <trkpt lat="47.15543" lon="-1.63337">
        <ele>73</ele>
        <time>2022-07-31T08:56:25Z</time>
      </trkpt>
      <trkpt lat="47.15556" lon="-1.63326">
        <ele>72</ele>
        <time>2022-07-31T08:56:27Z</time>
      </trkpt>
      <trkpt lat="47.1557" lon="-1.63314">
        <ele>71</ele>
        <time>2022-07-31T08:56:29Z</time>
      </trkpt>
      <trkpt lat="47.15583" lon="-1.63302">
        <ele>71</ele>
        <time>2022-07-31T08:56:31Z</time>
      </trkpt>
      <trkpt lat="47.15597" lon="-1.6329">
        <ele>71</ele>
        <time>2022-07-31T08:56:33Z</time>
      </trkpt>
      <trkpt lat="47.15611" lon="-1.63278">
        <ele>70</ele>
        <time>2022-07-31T08:56:35Z</time>
      </trkpt>
      <trkpt lat="47.15624" lon="-1.63266">
        <ele>70</ele>
        <time>2022-07-31T08:56:37Z</time>
      </trkpt>
      <trkpt lat="47.15637" lon="-1.63255">
        <ele>71</ele>
        <time>2022-07-31T08:56:39Z</time>
      </trkpt>
      <trkpt lat="47.15649" lon="-1.63244">
        <ele>71</ele>
        <time>2022-07-31T08:56:41Z</time>
      </trkpt>
      <trkpt lat="47.15662" lon="-1.63231">
        <ele>71</ele>
        <time>2022-07-31T08:56:43Z</time>
      </trkpt>
      <trkpt lat="47.15674" lon="-1.63221">
        <ele>70</ele>
        <time>2022-07-31T08:56:45Z</time>
      </trkpt>
      <trkpt lat="47.15687" lon="-1.63209">
        <ele>70</ele>
        <time>2022-07-31T08:56:47Z</time>
      </trkpt>
      <trkpt lat="47.15699" lon="-1.63199">
        <ele>70</ele>
        <time>2022-07-31T08:56:49Z</time>
      </trkpt>
      <trkpt lat="47.15711" lon="-1.63188">
        <ele>70</ele>
        <time>2022-07-31T08:56:51Z</time>
      </trkpt>
      <trkpt lat="47.15724" lon="-1.63178">
        <ele>70</ele>
        <time>2022-07-31T08:56:53Z</time>
      </trkpt>
      <trkpt lat="47.15735" lon="-1.63166">
        <ele>70</ele>
        <time>2022-07-31T08:56:55Z</time>
      </trkpt>
      <trkpt lat="47.15745" lon="-1.63152">
        <ele>70</ele>
        <time>2022-07-31T08:56:57Z</time>
      </trkpt>
      <trkpt lat="47.15757" lon="-1.63145">
        <ele>69</ele>
        <time>2022-07-31T08:56:59Z</time>
      </trkpt>
      <trkpt lat="47.15769" lon="-1.63139">
        <ele>69</ele>
        <time>2022-07-31T08:57:01Z</time>
      </trkpt>
      <trkpt lat="47.15781" lon="-1.63128">
        <ele>68</ele>
        <time>2022-07-31T08:57:03Z</time>
      </trkpt>
      <trkpt lat="47.15793" lon="-1.63117">
        <ele>68</ele>
        <time>2022-07-31T08:57:05Z</time>
      </trkpt>
      <trkpt lat="47.15806" lon="-1.63106">
        <ele>67</ele>
        <time>2022-07-31T08:57:07Z</time>
      </trkpt>
      <trkpt lat="47.15818" lon="-1.63095">
        <ele>67</ele>
        <time>2022-07-31T08:57:09Z</time>
      </trkpt>
      <trkpt lat="47.15831" lon="-1.63083">
        <ele>66</ele>
        <time>2022-07-31T08:57:11Z</time>
      </trkpt>
      <trkpt lat="47.15845" lon="-1.63071">
        <ele>65</ele>
        <time>2022-07-31T08:57:13Z</time>
      </trkpt>
      <trkpt lat="47.15858" lon="-1.63059">
        <ele>65</ele>
        <time>2022-07-31T08:57:15Z</time>
      </trkpt>
      <trkpt lat="47.1587" lon="-1.63048">
        <ele>65</ele>
        <time>2022-07-31T08:57:17Z</time>
      </trkpt>
      <trkpt lat="47.15884" lon="-1.63035">
        <ele>65</ele>
        <time>2022-07-31T08:57:19Z</time>
      </trkpt>
      <trkpt lat="47.15897" lon="-1.63024">
        <ele>65</ele>
        <time>2022-07-31T08:57:21Z</time>
      </trkpt>
      <trkpt lat="47.15909" lon="-1.63013">
        <ele>65</ele>
        <time>2022-07-31T08:57:23Z</time>
      </trkpt>
      <trkpt lat="47.15921" lon="-1.63003">
        <ele>65</ele>
        <time>2022-07-31T08:57:25Z</time>
      </trkpt>
      <trkpt lat="47.15932" lon="-1.62993">
        <ele>65</ele>
        <time>2022-07-31T08:57:27Z</time>
      </trkpt>
      <trkpt lat="47.15943" lon="-1.62983">
        <ele>66</ele>
        <time>2022-07-31T08:57:29Z</time>
      </trkpt>
      <trkpt lat="47.15953" lon="-1.62973">
        <ele>67</ele>
        <time>2022-07-31T08:57:31Z</time>
      </trkpt>
      <trkpt lat="47.15964" lon="-1.62964">
        <ele>67</ele>
        <time>2022-07-31T08:57:33Z</time>
      </trkpt>
      <trkpt lat="47.15974" lon="-1.62955">
        <ele>68</ele>
        <time>2022-07-31T08:57:35Z</time>
      </trkpt>
      <trkpt lat="47.15985" lon="-1.62946">
        <ele>68</ele>
        <time>2022-07-31T08:57:37Z</time>
      </trkpt>
      <trkpt lat="47.15995" lon="-1.62937">
        <ele>69</ele>
        <time>2022-07-31T08:57:39Z</time>
      </trkpt>
      <trkpt lat="47.16005" lon="-1.62929">
        <ele>69</ele>
        <time>2022-07-31T08:57:41Z</time>
      </trkpt>
      <trkpt lat="47.16015" lon="-1.6292">
        <ele>70</ele>
        <time>2022-07-31T08:57:43Z</time>
      </trkpt>
      <trkpt lat="47.16024" lon="-1.62912">
        <ele>70</ele>
        <time>2022-07-31T08:57:45Z</time>
      </trkpt>
      <trkpt lat="47.16034" lon="-1.62903">
        <ele>70</ele>
        <time>2022-07-31T08:57:47Z</time>
      </trkpt>
      <trkpt lat="47.16044" lon="-1.62894">
        <ele>71</ele>
        <time>2022-07-31T08:57:49Z</time>
      </trkpt>
      <trkpt lat="47.16053" lon="-1.62886">
        <ele>71</ele>
        <time>2022-07-31T08:57:51Z</time>
      </trkpt>
      <trkpt lat="47.16063" lon="-1.62877">
        <ele>72</ele>
        <time>2022-07-31T08:57:53Z</time>
      </trkpt>
      <trkpt lat="47.16072" lon="-1.62869">
        <ele>73</ele>
        <time>2022-07-31T08:57:55Z</time>
      </trkpt>
      <trkpt lat="47.16081" lon="-1.6286">
        <ele>74</ele>
        <time>2022-07-31T08:57:57Z</time>
      </trkpt>
      <trkpt lat="47.16091" lon="-1.62851">
        <ele>74</ele>
        <time>2022-07-31T08:57:59Z</time>
      </trkpt>
      <trkpt lat="47.16101" lon="-1.62843">
        <ele>74</ele>
        <time>2022-07-31T08:58:01Z</time>
      </trkpt>
      <trkpt lat="47.16111" lon="-1.62835">
        <ele>75</ele>
        <time>2022-07-31T08:58:03Z</time>
      </trkpt>
      <trkpt lat="47.16119" lon="-1.62827">
        <ele>75</ele>
        <time>2022-07-31T08:58:05Z</time>
      </trkpt>
      <trkpt lat="47.16128" lon="-1.6282">
        <ele>76</ele>
        <time>2022-07-31T08:58:07Z</time>
      </trkpt>
      <trkpt lat="47.16137" lon="-1.62812">
        <ele>76</ele>
        <time>2022-07-31T08:58:09Z</time>
      </trkpt>
      <trkpt lat="47.16146" lon="-1.62805">
        <ele>77</ele>
        <time>2022-07-31T08:58:11Z</time>
      </trkpt>
      <trkpt lat="47.16154" lon="-1.62796">
        <ele>76</ele>
        <time>2022-07-31T08:58:13Z</time>
      </trkpt>
      <trkpt lat="47.16163" lon="-1.62788">
        <ele>76</ele>
        <time>2022-07-31T08:58:15Z</time>
      </trkpt>
      <trkpt lat="47.16171" lon="-1.62781">
        <ele>76</ele>
        <time>2022-07-31T08:58:17Z</time>
      </trkpt>
      <trkpt lat="47.1618" lon="-1.62773">
        <ele>76</ele>
        <time>2022-07-31T08:58:19Z</time>
      </trkpt>
      <trkpt lat="47.16188" lon="-1.62764">
        <ele>76</ele>
        <time>2022-07-31T08:58:21Z</time>
      </trkpt>
      <trkpt lat="47.16196" lon="-1.62757">
        <ele>76</ele>
        <time>2022-07-31T08:58:23Z</time>
      </trkpt>
      <trkpt lat="47.16204" lon="-1.6275">
        <ele>77</ele>
        <time>2022-07-31T08:58:25Z</time>
      </trkpt>
      <trkpt lat="47.16213" lon="-1.62743">
        <ele>77</ele>
        <time>2022-07-31T08:58:27Z</time>
      </trkpt>
      <trkpt lat="47.16221" lon="-1.62736">
        <ele>78</ele>
        <time>2022-07-31T08:58:29Z</time>
      </trkpt>
      <trkpt lat="47.1623" lon="-1.62729">
        <ele>78</ele>
        <time>2022-07-31T08:58:31Z</time>
      </trkpt>
      <trkpt lat="47.16238" lon="-1.62722">
        <ele>78</ele>
        <time>2022-07-31T08:58:33Z</time>
      </trkpt>
      <trkpt lat="47.16247" lon="-1.62715">
        <ele>79</ele>
        <time>2022-07-31T08:58:35Z</time>
      </trkpt>
      <trkpt lat="47.16255" lon="-1.62708">
        <ele>79</ele>
        <time>2022-07-31T08:58:37Z</time>
      </trkpt>
      <trkpt lat="47.16264" lon="-1.62701">
        <ele>79</ele>
        <time>2022-07-31T08:58:39Z</time>
      </trkpt>
      <trkpt lat="47.16273" lon="-1.62694">
        <ele>79</ele>
        <time>2022-07-31T08:58:41Z</time>
      </trkpt>
      <trkpt lat="47.16276" lon="-1.62676">
        <ele>78</ele>
        <time>2022-07-31T08:58:44Z</time>
      </trkpt>
      <trkpt lat="47.16277" lon="-1.6266">
        <ele>79</ele>
        <time>2022-07-31T08:58:46Z</time>
      </trkpt>
      <trkpt lat="47.16278" lon="-1.62644">
        <ele>79</ele>
        <time>2022-07-31T08:58:48Z</time>
      </trkpt>
      <trkpt lat="47.16281" lon="-1.62628">
        <ele>79</ele>
        <time>2022-07-31T08:58:50Z</time>
      </trkpt>
      <trkpt lat="47.16284" lon="-1.62613">
        <ele>79</ele>
        <time>2022-07-31T08:58:52Z</time>
      </trkpt>
      <trkpt lat="47.16288" lon="-1.62598">
        <ele>79</ele>
        <time>2022-07-31T08:58:54Z</time>
      </trkpt>
      <trkpt lat="47.16293" lon="-1.62586">
        <ele>79</ele>
        <time>2022-07-31T08:58:56Z</time>
      </trkpt>
      <trkpt lat="47.16301" lon="-1.62577">
        <ele>79</ele>
        <time>2022-07-31T08:58:58Z</time>
      </trkpt>
      <trkpt lat="47.1631" lon="-1.62572">
        <ele>79</ele>
        <time>2022-07-31T08:59:00Z</time>
      </trkpt>
      <trkpt lat="47.16321" lon="-1.6257">
        <ele>79</ele>
        <time>2022-07-31T08:59:02Z</time>
      </trkpt>
      <trkpt lat="47.16332" lon="-1.62573">
        <ele>79</ele>
        <time>2022-07-31T08:59:04Z</time>
      </trkpt>
      <trkpt lat="47.16342" lon="-1.62578">
        <ele>79</ele>
        <time>2022-07-31T08:59:06Z</time>
      </trkpt>
      <trkpt lat="47.16353" lon="-1.62582">
        <ele>79</ele>
        <time>2022-07-31T08:59:08Z</time>
      </trkpt>
      <trkpt lat="47.16364" lon="-1.62585">
        <ele>79</ele>
        <time>2022-07-31T08:59:10Z</time>
      </trkpt>
      <trkpt lat="47.16374" lon="-1.62585">
        <ele>78</ele>
        <time>2022-07-31T08:59:12Z</time>
      </trkpt>
      <trkpt lat="47.16386" lon="-1.62583">
        <ele>78</ele>
        <time>2022-07-31T08:59:14Z</time>
      </trkpt>
      <trkpt lat="47.16396" lon="-1.62577">
        <ele>78</ele>
        <time>2022-07-31T08:59:16Z</time>
      </trkpt>
      <trkpt lat="47.16405" lon="-1.62569">
        <ele>78</ele>
        <time>2022-07-31T08:59:18Z</time>
      </trkpt>
      <trkpt lat="47.16414" lon="-1.6256">
        <ele>79</ele>
        <time>2022-07-31T08:59:20Z</time>
      </trkpt>
      <trkpt lat="47.16422" lon="-1.62551">
        <ele>79</ele>
        <time>2022-07-31T08:59:22Z</time>
      </trkpt>
      <trkpt lat="47.16432" lon="-1.62543">
        <ele>80</ele>
        <time>2022-07-31T08:59:24Z</time>
      </trkpt>
      <trkpt lat="47.16443" lon="-1.62541">
        <ele>80</ele>
        <time>2022-07-31T08:59:26Z</time>
      </trkpt>
      <trkpt lat="47.16453" lon="-1.62544">
        <ele>81</ele>
        <time>2022-07-31T08:59:28Z</time>
      </trkpt>
      <trkpt lat="47.16463" lon="-1.62547">
        <ele>80</ele>
        <time>2022-07-31T08:59:30Z</time>
      </trkpt>
      <trkpt lat="47.16473" lon="-1.62551">
        <ele>80</ele>
        <time>2022-07-31T08:59:32Z</time>
      </trkpt>
      <trkpt lat="47.16484" lon="-1.62554">
        <ele>80</ele>
        <time>2022-07-31T08:59:34Z</time>
      </trkpt>
      <trkpt lat="47.16496" lon="-1.62557">
        <ele>79</ele>
        <time>2022-07-31T08:59:36Z</time>
      </trkpt>
      <trkpt lat="47.16508" lon="-1.62561">
        <ele>79</ele>
        <time>2022-07-31T08:59:38Z</time>
      </trkpt>
      <trkpt lat="47.16519" lon="-1.62564">
        <ele>78</ele>
        <time>2022-07-31T08:59:40Z</time>
      </trkpt>
      <trkpt lat="47.16531" lon="-1.62565">
        <ele>79</ele>
        <time>2022-07-31T08:59:42Z</time>
      </trkpt>
      <trkpt lat="47.16541" lon="-1.62558">
        <ele>79</ele>
        <time>2022-07-31T08:59:44Z</time>
      </trkpt>
      <trkpt lat="47.1655" lon="-1.62546">
        <ele>79</ele>
        <time>2022-07-31T08:59:46Z</time>
      </trkpt>
      <trkpt lat="47.1656" lon="-1.62534">
        <ele>79</ele>
        <time>2022-07-31T08:59:48Z</time>
      </trkpt>
      <trkpt lat="47.16567" lon="-1.62519">
        <ele>80</ele>
        <time>2022-07-31T08:59:50Z</time>
      </trkpt>
      <trkpt lat="47.16574" lon="-1.62502">
        <ele>80</ele>
        <time>2022-07-31T08:59:52Z</time>
      </trkpt>
      <trkpt lat="47.16581" lon="-1.62484">
        <ele>79</ele>
        <time>2022-07-31T08:59:54Z</time>
      </trkpt>
      <trkpt lat="47.16588" lon="-1.62467">
        <ele>78</ele>
        <time>2022-07-31T08:59:56Z</time>
      </trkpt>
      <trkpt lat="47.16596" lon="-1.62449">
        <ele>77</ele>
        <time>2022-07-31T08:59:58Z</time>
      </trkpt>
      <trkpt lat="47.16604" lon="-1.62432">
        <ele>77</ele>
        <time>2022-07-31T09:00:00Z</time>
      </trkpt>
      <trkpt lat="47.16612" lon="-1.62415">
        <ele>77</ele>
        <time>2022-07-31T09:00:02Z</time>
      </trkpt>
      <trkpt lat="47.16622" lon="-1.62399">
        <ele>76</ele>
        <time>2022-07-31T09:00:04Z</time>
      </trkpt>
      <trkpt lat="47.16632" lon="-1.62385">
        <ele>75</ele>
        <time>2022-07-31T09:00:06Z</time>
      </trkpt>
      <trkpt lat="47.16644" lon="-1.62373">
        <ele>74</ele>
        <time>2022-07-31T09:00:08Z</time>
      </trkpt>
      <trkpt lat="47.16657" lon="-1.62363">
        <ele>74</ele>
        <time>2022-07-31T09:00:10Z</time>
      </trkpt>
      <trkpt lat="47.1667" lon="-1.62359">
        <ele>74</ele>
        <time>2022-07-31T09:00:12Z</time>
      </trkpt>
      <trkpt lat="47.16685" lon="-1.62362">
        <ele>74</ele>
        <time>2022-07-31T09:00:14Z</time>
      </trkpt>
      <trkpt lat="47.16698" lon="-1.62372">
        <ele>74</ele>
        <time>2022-07-31T09:00:16Z</time>
      </trkpt>
      <trkpt lat="47.16713" lon="-1.62393">
        <ele>74</ele>
        <time>2022-07-31T09:00:19Z</time>
      </trkpt>
      <trkpt lat="47.1672" lon="-1.62406">
        <ele>74</ele>
        <time>2022-07-31T09:00:21Z</time>
      </trkpt>
      <trkpt lat="47.16727" lon="-1.62416">
        <ele>74</ele>
        <time>2022-07-31T09:00:23Z</time>
      </trkpt>
      <trkpt lat="47.16729" lon="-1.62431">
        <ele>73</ele>
        <time>2022-07-31T09:00:25Z</time>
      </trkpt>
      <trkpt lat="47.16726" lon="-1.62448">
        <ele>73</ele>
        <time>2022-07-31T09:00:27Z</time>
      </trkpt>
      <trkpt lat="47.16721" lon="-1.62465">
        <ele>72</ele>
        <time>2022-07-31T09:00:29Z</time>
      </trkpt>
      <trkpt lat="47.16717" lon="-1.62482">
        <ele>72</ele>
        <time>2022-07-31T09:00:31Z</time>
      </trkpt>
      <trkpt lat="47.16721" lon="-1.625">
        <ele>72</ele>
        <time>2022-07-31T09:00:34Z</time>
      </trkpt>
      <trkpt lat="47.1674" lon="-1.62507">
        <ele>72</ele>
        <time>2022-07-31T09:00:37Z</time>
      </trkpt>
      <trkpt lat="47.16758" lon="-1.62515">
        <ele>72</ele>
        <time>2022-07-31T09:00:40Z</time>
      </trkpt>
      <trkpt lat="47.16769" lon="-1.62522">
        <ele>72</ele>
        <time>2022-07-31T09:00:42Z</time>
      </trkpt>
      <trkpt lat="47.1678" lon="-1.62529">
        <ele>73</ele>
        <time>2022-07-31T09:00:44Z</time>
      </trkpt>
      <trkpt lat="47.16791" lon="-1.62536">
        <ele>73</ele>
        <time>2022-07-31T09:00:46Z</time>
      </trkpt>
      <trkpt lat="47.16801" lon="-1.62543">
        <ele>73</ele>
        <time>2022-07-31T09:00:48Z</time>
      </trkpt>
      <trkpt lat="47.16812" lon="-1.62551">
        <ele>73</ele>
        <time>2022-07-31T09:00:50Z</time>
      </trkpt>
      <trkpt lat="47.16821" lon="-1.62561">
        <ele>73</ele>
        <time>2022-07-31T09:00:52Z</time>
      </trkpt>
      <trkpt lat="47.16829" lon="-1.62571">
        <ele>74</ele>
        <time>2022-07-31T09:00:54Z</time>
      </trkpt>
      <trkpt lat="47.16834" lon="-1.62586">
        <ele>75</ele>
        <time>2022-07-31T09:00:56Z</time>
      </trkpt>
      <trkpt lat="47.16828" lon="-1.62599">
        <ele>77</ele>
        <time>2022-07-31T09:00:58Z</time>
      </trkpt>
      <trkpt lat="47.16818" lon="-1.62611">
        <ele>77</ele>
        <time>2022-07-31T09:01:00Z</time>
      </trkpt>
      <trkpt lat="47.1681" lon="-1.62623">
        <ele>77</ele>
        <time>2022-07-31T09:01:02Z</time>
      </trkpt>
      <trkpt lat="47.16803" lon="-1.62636">
        <ele>76</ele>
        <time>2022-07-31T09:01:04Z</time>
      </trkpt>
      <trkpt lat="47.16796" lon="-1.62646">
        <ele>76</ele>
        <time>2022-07-31T09:01:06Z</time>
      </trkpt>
      <trkpt lat="47.16789" lon="-1.6266">
        <ele>76</ele>
        <time>2022-07-31T09:01:09Z</time>
      </trkpt>
      <trkpt lat="47.1678" lon="-1.62657">
        <ele>76</ele>
        <time>2022-07-31T09:01:14Z</time>
      </trkpt>
    </trkseg>
  </trk>
</gpx>